<?xml version="1.0" encoding="UTF-8" standalone="no" ?>
<gpx xmlns="http://www.topografix.com/GPX/1/1" xmlns:xsi="http://www.w3.org/2001/XMLSchema-instance" xsi:schemaLocation="http://www.topografix.com/GPX/1/1 http://www.topografix.com/GPX/1/1/gpx.xsd" version="1.1" creator="VisuGPX - https://www.visugpx.com">
  <metadata>
    <name>13814299-BPF 69 depuis clairvaux étape 1</name>
  </metadata>
  <trk>
    <name><![CDATA[13814299-BPF 69 depuis clairvaux]]></name>
    <trkseg>
      <trkpt lat="46.57593" lon="5.74361">
        <ele>543</ele>
        <time>2021-10-14T12:22:22Z</time>
      </trkpt>
      <trkpt lat="46.57608" lon="5.74267">
        <ele>548</ele>
        <time>2021-10-14T12:22:34Z</time>
      </trkpt>
      <trkpt lat="46.57609" lon="5.74229">
        <ele>551</ele>
        <time>2021-10-14T12:22:39Z</time>
      </trkpt>
      <trkpt lat="46.57606" lon="5.74188">
        <ele>554</ele>
        <time>2021-10-14T12:22:44Z</time>
      </trkpt>
      <trkpt lat="46.57599" lon="5.74154">
        <ele>557</ele>
        <time>2021-10-14T12:22:48Z</time>
      </trkpt>
      <trkpt lat="46.57595" lon="5.74125">
        <ele>560</ele>
        <time>2021-10-14T12:22:52Z</time>
      </trkpt>
      <trkpt lat="46.57597" lon="5.74104">
        <ele>563</ele>
        <time>2021-10-14T12:22:54Z</time>
      </trkpt>
      <trkpt lat="46.57605" lon="5.74078">
        <ele>566</ele>
        <time>2021-10-14T12:22:58Z</time>
      </trkpt>
      <trkpt lat="46.57604" lon="5.74062">
        <ele>566</ele>
        <time>2021-10-14T12:23:00Z</time>
      </trkpt>
      <trkpt lat="46.57598" lon="5.7405">
        <ele>566</ele>
        <time>2021-10-14T12:23:01Z</time>
      </trkpt>
      <trkpt lat="46.57586" lon="5.7404">
        <ele>566</ele>
        <time>2021-10-14T12:23:04Z</time>
      </trkpt>
      <trkpt lat="46.57548" lon="5.74019">
        <ele>566</ele>
        <time>2021-10-14T12:23:11Z</time>
      </trkpt>
      <trkpt lat="46.57539" lon="5.74019">
        <ele>565</ele>
        <time>2021-10-14T12:23:13Z</time>
      </trkpt>
      <trkpt lat="46.57527" lon="5.73998">
        <ele>565</ele>
        <time>2021-10-14T12:23:16Z</time>
      </trkpt>
      <trkpt lat="46.57644" lon="5.73846">
        <ele>555</ele>
        <time>2021-10-14T12:23:44Z</time>
      </trkpt>
      <trkpt lat="46.57671" lon="5.73817">
        <ele>554</ele>
        <time>2021-10-14T12:23:50Z</time>
      </trkpt>
      <trkpt lat="46.57727" lon="5.73768">
        <ele>552</ele>
        <time>2021-10-14T12:24:02Z</time>
      </trkpt>
      <trkpt lat="46.57742" lon="5.73747">
        <ele>551</ele>
        <time>2021-10-14T12:24:05Z</time>
      </trkpt>
      <trkpt lat="46.57757" lon="5.73715">
        <ele>549</ele>
        <time>2021-10-14T12:24:10Z</time>
      </trkpt>
      <trkpt lat="46.57775" lon="5.73659">
        <ele>545</ele>
        <time>2021-10-14T12:24:18Z</time>
      </trkpt>
      <trkpt lat="46.57809" lon="5.7357">
        <ele>538</ele>
        <time>2021-10-14T12:24:30Z</time>
      </trkpt>
      <trkpt lat="46.57819" lon="5.73549">
        <ele>536</ele>
        <time>2021-10-14T12:24:33Z</time>
      </trkpt>
      <trkpt lat="46.57904" lon="5.73399">
        <ele>524</ele>
        <time>2021-10-14T12:24:57Z</time>
      </trkpt>
      <trkpt lat="46.57963" lon="5.73291">
        <ele>517</ele>
        <time>2021-10-14T12:25:14Z</time>
      </trkpt>
      <trkpt lat="46.57989" lon="5.73237">
        <ele>514</ele>
        <time>2021-10-14T12:25:22Z</time>
      </trkpt>
      <trkpt lat="46.5801" lon="5.73182">
        <ele>510</ele>
        <time>2021-10-14T12:25:30Z</time>
      </trkpt>
      <trkpt lat="46.58048" lon="5.73072">
        <ele>504</ele>
        <time>2021-10-14T12:25:45Z</time>
      </trkpt>
      <trkpt lat="46.58101" lon="5.72832">
        <ele>495</ele>
        <time>2021-10-14T12:26:15Z</time>
      </trkpt>
      <trkpt lat="46.58211" lon="5.72379">
        <ele>488</ele>
        <time>2021-10-14T12:27:14Z</time>
      </trkpt>
      <trkpt lat="46.58463" lon="5.71308">
        <ele>472</ele>
        <time>2021-10-14T12:29:33Z</time>
      </trkpt>
      <trkpt lat="46.58595" lon="5.70707">
        <ele>464</ele>
        <time>2021-10-14T12:30:50Z</time>
      </trkpt>
      <trkpt lat="46.58612" lon="5.70621">
        <ele>463</ele>
        <time>2021-10-14T12:31:01Z</time>
      </trkpt>
      <trkpt lat="46.5862" lon="5.70548">
        <ele>462</ele>
        <time>2021-10-14T12:31:10Z</time>
      </trkpt>
      <trkpt lat="46.58616" lon="5.70481">
        <ele>461</ele>
        <time>2021-10-14T12:31:18Z</time>
      </trkpt>
      <trkpt lat="46.58605" lon="5.70439">
        <ele>460</ele>
        <time>2021-10-14T12:31:24Z</time>
      </trkpt>
      <trkpt lat="46.58567" lon="5.70357">
        <ele>456</ele>
        <time>2021-10-14T12:31:36Z</time>
      </trkpt>
      <trkpt lat="46.58551" lon="5.70308">
        <ele>454</ele>
        <time>2021-10-14T12:31:42Z</time>
      </trkpt>
      <trkpt lat="46.58543" lon="5.70268">
        <ele>451</ele>
        <time>2021-10-14T12:31:47Z</time>
      </trkpt>
      <trkpt lat="46.58537" lon="5.70247">
        <ele>450</ele>
        <time>2021-10-14T12:31:50Z</time>
      </trkpt>
      <trkpt lat="46.58524" lon="5.70174">
        <ele>443</ele>
        <time>2021-10-14T12:31:59Z</time>
      </trkpt>
      <trkpt lat="46.58515" lon="5.70147">
        <ele>441</ele>
        <time>2021-10-14T12:32:03Z</time>
      </trkpt>
      <trkpt lat="46.58509" lon="5.70111">
        <ele>440</ele>
        <time>2021-10-14T12:32:08Z</time>
      </trkpt>
      <trkpt lat="46.585" lon="5.70016">
        <ele>437</ele>
        <time>2021-10-14T12:32:19Z</time>
      </trkpt>
      <trkpt lat="46.58496" lon="5.69952">
        <ele>438</ele>
        <time>2021-10-14T12:32:27Z</time>
      </trkpt>
      <trkpt lat="46.58497" lon="5.6994">
        <ele>438</ele>
        <time>2021-10-14T12:32:29Z</time>
      </trkpt>
      <trkpt lat="46.58674" lon="5.69346">
        <ele>441</ele>
        <time>2021-10-14T12:33:48Z</time>
      </trkpt>
      <trkpt lat="46.58762" lon="5.69056">
        <ele>441</ele>
        <time>2021-10-14T12:34:27Z</time>
      </trkpt>
      <trkpt lat="46.58848" lon="5.68777">
        <ele>443</ele>
        <time>2021-10-14T12:35:04Z</time>
      </trkpt>
      <trkpt lat="46.58932" lon="5.68516">
        <ele>446</ele>
        <time>2021-10-14T12:35:39Z</time>
      </trkpt>
      <trkpt lat="46.5897" lon="5.68409">
        <ele>451</ele>
        <time>2021-10-14T12:35:54Z</time>
      </trkpt>
      <trkpt lat="46.59085" lon="5.68105">
        <ele>462</ele>
        <time>2021-10-14T12:36:36Z</time>
      </trkpt>
      <trkpt lat="46.59109" lon="5.68039">
        <ele>461</ele>
        <time>2021-10-14T12:36:45Z</time>
      </trkpt>
      <trkpt lat="46.59135" lon="5.67989">
        <ele>459</ele>
        <time>2021-10-14T12:36:53Z</time>
      </trkpt>
      <trkpt lat="46.59208" lon="5.67878">
        <ele>461</ele>
        <time>2021-10-14T12:37:12Z</time>
      </trkpt>
      <trkpt lat="46.59234" lon="5.67824">
        <ele>461</ele>
        <time>2021-10-14T12:37:20Z</time>
      </trkpt>
      <trkpt lat="46.59247" lon="5.67778">
        <ele>461</ele>
        <time>2021-10-14T12:37:26Z</time>
      </trkpt>
      <trkpt lat="46.59292" lon="5.67594">
        <ele>465</ele>
        <time>2021-10-14T12:37:50Z</time>
      </trkpt>
      <trkpt lat="46.59307" lon="5.67473">
        <ele>467</ele>
        <time>2021-10-14T12:38:05Z</time>
      </trkpt>
      <trkpt lat="46.5932" lon="5.67407">
        <ele>467</ele>
        <time>2021-10-14T12:38:13Z</time>
      </trkpt>
      <trkpt lat="46.5936" lon="5.67283">
        <ele>465</ele>
        <time>2021-10-14T12:38:30Z</time>
      </trkpt>
      <trkpt lat="46.5937" lon="5.67245">
        <ele>464</ele>
        <time>2021-10-14T12:38:35Z</time>
      </trkpt>
      <trkpt lat="46.59374" lon="5.67211">
        <ele>464</ele>
        <time>2021-10-14T12:38:39Z</time>
      </trkpt>
      <trkpt lat="46.59376" lon="5.67178">
        <ele>464</ele>
        <time>2021-10-14T12:38:43Z</time>
      </trkpt>
      <trkpt lat="46.59372" lon="5.66958">
        <ele>468</ele>
        <time>2021-10-14T12:39:10Z</time>
      </trkpt>
      <trkpt lat="46.59373" lon="5.66938">
        <ele>469</ele>
        <time>2021-10-14T12:39:13Z</time>
      </trkpt>
      <trkpt lat="46.59375" lon="5.66919">
        <ele>469</ele>
        <time>2021-10-14T12:39:15Z</time>
      </trkpt>
      <trkpt lat="46.59381" lon="5.66898">
        <ele>470</ele>
        <time>2021-10-14T12:39:18Z</time>
      </trkpt>
      <trkpt lat="46.59393" lon="5.6687">
        <ele>471</ele>
        <time>2021-10-14T12:39:22Z</time>
      </trkpt>
      <trkpt lat="46.59445" lon="5.66785">
        <ele>479</ele>
        <time>2021-10-14T12:39:36Z</time>
      </trkpt>
      <trkpt lat="46.59471" lon="5.66753">
        <ele>483</ele>
        <time>2021-10-14T12:39:42Z</time>
      </trkpt>
      <trkpt lat="46.59494" lon="5.66735">
        <ele>487</ele>
        <time>2021-10-14T12:39:46Z</time>
      </trkpt>
      <trkpt lat="46.59669" lon="5.66632">
        <ele>501</ele>
        <time>2021-10-14T12:40:20Z</time>
      </trkpt>
      <trkpt lat="46.59753" lon="5.6658">
        <ele>502</ele>
        <time>2021-10-14T12:40:36Z</time>
      </trkpt>
      <trkpt lat="46.59766" lon="5.6657">
        <ele>503</ele>
        <time>2021-10-14T12:40:39Z</time>
      </trkpt>
      <trkpt lat="46.59784" lon="5.6655">
        <ele>505</ele>
        <time>2021-10-14T12:40:43Z</time>
      </trkpt>
      <trkpt lat="46.5981" lon="5.66514">
        <ele>505</ele>
        <time>2021-10-14T12:40:49Z</time>
      </trkpt>
      <trkpt lat="46.59854" lon="5.66429">
        <ele>509</ele>
        <time>2021-10-14T12:41:02Z</time>
      </trkpt>
      <trkpt lat="46.5986" lon="5.66412">
        <ele>509</ele>
        <time>2021-10-14T12:41:05Z</time>
      </trkpt>
      <trkpt lat="46.59867" lon="5.6638">
        <ele>508</ele>
        <time>2021-10-14T12:41:09Z</time>
      </trkpt>
      <trkpt lat="46.59869" lon="5.66362">
        <ele>507</ele>
        <time>2021-10-14T12:41:11Z</time>
      </trkpt>
      <trkpt lat="46.59877" lon="5.66255">
        <ele>504</ele>
        <time>2021-10-14T12:41:24Z</time>
      </trkpt>
      <trkpt lat="46.59886" lon="5.66212">
        <ele>505</ele>
        <time>2021-10-14T12:41:30Z</time>
      </trkpt>
      <trkpt lat="46.59898" lon="5.66171">
        <ele>506</ele>
        <time>2021-10-14T12:41:35Z</time>
      </trkpt>
      <trkpt lat="46.59912" lon="5.66134">
        <ele>510</ele>
        <time>2021-10-14T12:41:40Z</time>
      </trkpt>
      <trkpt lat="46.59933" lon="5.66087">
        <ele>516</ele>
        <time>2021-10-14T12:41:47Z</time>
      </trkpt>
      <trkpt lat="46.59948" lon="5.66048">
        <ele>519</ele>
        <time>2021-10-14T12:41:53Z</time>
      </trkpt>
      <trkpt lat="46.59979" lon="5.6593">
        <ele>523</ele>
        <time>2021-10-14T12:42:08Z</time>
      </trkpt>
      <trkpt lat="46.59987" lon="5.65885">
        <ele>524</ele>
        <time>2021-10-14T12:42:14Z</time>
      </trkpt>
      <trkpt lat="46.59992" lon="5.65832">
        <ele>527</ele>
        <time>2021-10-14T12:42:20Z</time>
      </trkpt>
      <trkpt lat="46.60017" lon="5.65401">
        <ele>534</ele>
        <time>2021-10-14T12:43:13Z</time>
      </trkpt>
      <trkpt lat="46.60021" lon="5.65327">
        <ele>538</ele>
        <time>2021-10-14T12:43:22Z</time>
      </trkpt>
      <trkpt lat="46.60019" lon="5.65294">
        <ele>539</ele>
        <time>2021-10-14T12:43:26Z</time>
      </trkpt>
      <trkpt lat="46.60015" lon="5.65264">
        <ele>540</ele>
        <time>2021-10-14T12:43:30Z</time>
      </trkpt>
      <trkpt lat="46.6001" lon="5.65238">
        <ele>540</ele>
        <time>2021-10-14T12:43:33Z</time>
      </trkpt>
      <trkpt lat="46.60002" lon="5.65213">
        <ele>541</ele>
        <time>2021-10-14T12:43:37Z</time>
      </trkpt>
      <trkpt lat="46.5987" lon="5.64898">
        <ele>549</ele>
        <time>2021-10-14T12:44:22Z</time>
      </trkpt>
      <trkpt lat="46.5985" lon="5.64853">
        <ele>552</ele>
        <time>2021-10-14T12:44:28Z</time>
      </trkpt>
      <trkpt lat="46.59836" lon="5.64827">
        <ele>553</ele>
        <time>2021-10-14T12:44:32Z</time>
      </trkpt>
      <trkpt lat="46.59759" lon="5.64708">
        <ele>559</ele>
        <time>2021-10-14T12:44:52Z</time>
      </trkpt>
      <trkpt lat="46.59744" lon="5.64677">
        <ele>560</ele>
        <time>2021-10-14T12:44:57Z</time>
      </trkpt>
      <trkpt lat="46.59735" lon="5.64646">
        <ele>561</ele>
        <time>2021-10-14T12:45:01Z</time>
      </trkpt>
      <trkpt lat="46.59731" lon="5.64618">
        <ele>562</ele>
        <time>2021-10-14T12:45:05Z</time>
      </trkpt>
      <trkpt lat="46.5973" lon="5.64604">
        <ele>562</ele>
        <time>2021-10-14T12:45:06Z</time>
      </trkpt>
      <trkpt lat="46.59731" lon="5.64565">
        <ele>563</ele>
        <time>2021-10-14T12:45:11Z</time>
      </trkpt>
      <trkpt lat="46.59736" lon="5.6454">
        <ele>563</ele>
        <time>2021-10-14T12:45:14Z</time>
      </trkpt>
      <trkpt lat="46.59745" lon="5.64511">
        <ele>562</ele>
        <time>2021-10-14T12:45:18Z</time>
      </trkpt>
      <trkpt lat="46.59757" lon="5.64482">
        <ele>561</ele>
        <time>2021-10-14T12:45:22Z</time>
      </trkpt>
      <trkpt lat="46.60056" lon="5.63899">
        <ele>549</ele>
        <time>2021-10-14T12:46:51Z</time>
      </trkpt>
      <trkpt lat="46.60303" lon="5.63423">
        <ele>548</ele>
        <time>2021-10-14T12:48:04Z</time>
      </trkpt>
      <trkpt lat="46.60852" lon="5.62406">
        <ele>533</ele>
        <time>2021-10-14T12:50:42Z</time>
      </trkpt>
      <trkpt lat="46.61283" lon="5.61594">
        <ele>529</ele>
        <time>2021-10-14T12:52:48Z</time>
      </trkpt>
      <trkpt lat="46.6171" lon="5.60794">
        <ele>535</ele>
        <time>2021-10-14T12:54:52Z</time>
      </trkpt>
      <trkpt lat="46.61859" lon="5.60515">
        <ele>542</ele>
        <time>2021-10-14T12:55:35Z</time>
      </trkpt>
      <trkpt lat="46.61885" lon="5.60476">
        <ele>543</ele>
        <time>2021-10-14T12:55:41Z</time>
      </trkpt>
      <trkpt lat="46.61912" lon="5.60443">
        <ele>544</ele>
        <time>2021-10-14T12:55:48Z</time>
      </trkpt>
      <trkpt lat="46.61947" lon="5.60411">
        <ele>544</ele>
        <time>2021-10-14T12:55:55Z</time>
      </trkpt>
      <trkpt lat="46.62102" lon="5.60282">
        <ele>547</ele>
        <time>2021-10-14T12:56:27Z</time>
      </trkpt>
      <trkpt lat="46.62142" lon="5.60244">
        <ele>551</ele>
        <time>2021-10-14T12:56:35Z</time>
      </trkpt>
      <trkpt lat="46.62169" lon="5.60211">
        <ele>553</ele>
        <time>2021-10-14T12:56:42Z</time>
      </trkpt>
      <trkpt lat="46.62229" lon="5.60127">
        <ele>551</ele>
        <time>2021-10-14T12:56:56Z</time>
      </trkpt>
      <trkpt lat="46.6226" lon="5.60094">
        <ele>550</ele>
        <time>2021-10-14T12:57:03Z</time>
      </trkpt>
      <trkpt lat="46.62297" lon="5.60063">
        <ele>551</ele>
        <time>2021-10-14T12:57:11Z</time>
      </trkpt>
      <trkpt lat="46.62357" lon="5.60017">
        <ele>551</ele>
        <time>2021-10-14T12:57:23Z</time>
      </trkpt>
      <trkpt lat="46.62454" lon="5.59927">
        <ele>552</ele>
        <time>2021-10-14T12:57:43Z</time>
      </trkpt>
      <trkpt lat="46.62488" lon="5.59892">
        <ele>550</ele>
        <time>2021-10-14T12:57:51Z</time>
      </trkpt>
      <trkpt lat="46.62514" lon="5.59861">
        <ele>549</ele>
        <time>2021-10-14T12:57:57Z</time>
      </trkpt>
      <trkpt lat="46.62592" lon="5.59752">
        <ele>543</ele>
        <time>2021-10-14T12:58:16Z</time>
      </trkpt>
      <trkpt lat="46.62618" lon="5.59721">
        <ele>542</ele>
        <time>2021-10-14T12:58:22Z</time>
      </trkpt>
      <trkpt lat="46.62755" lon="5.59537">
        <ele>531</ele>
        <time>2021-10-14T12:58:55Z</time>
      </trkpt>
      <trkpt lat="46.62836" lon="5.59425">
        <ele>531</ele>
        <time>2021-10-14T12:59:15Z</time>
      </trkpt>
      <trkpt lat="46.62934" lon="5.59297">
        <ele>533</ele>
        <time>2021-10-14T12:59:38Z</time>
      </trkpt>
      <trkpt lat="46.62979" lon="5.59247">
        <ele>534</ele>
        <time>2021-10-14T12:59:48Z</time>
      </trkpt>
      <trkpt lat="46.63042" lon="5.59185">
        <ele>533</ele>
        <time>2021-10-14T13:00:02Z</time>
      </trkpt>
      <trkpt lat="46.63132" lon="5.59108">
        <ele>534</ele>
        <time>2021-10-14T13:00:21Z</time>
      </trkpt>
      <trkpt lat="46.63681" lon="5.58627">
        <ele>526</ele>
        <time>2021-10-14T13:02:15Z</time>
      </trkpt>
      <trkpt lat="46.63708" lon="5.58606">
        <ele>525</ele>
        <time>2021-10-14T13:02:20Z</time>
      </trkpt>
      <trkpt lat="46.63737" lon="5.58586">
        <ele>525</ele>
        <time>2021-10-14T13:02:26Z</time>
      </trkpt>
      <trkpt lat="46.63765" lon="5.58572">
        <ele>523</ele>
        <time>2021-10-14T13:02:31Z</time>
      </trkpt>
      <trkpt lat="46.63797" lon="5.58559">
        <ele>522</ele>
        <time>2021-10-14T13:02:37Z</time>
      </trkpt>
      <trkpt lat="46.64374" lon="5.58388">
        <ele>489</ele>
        <time>2021-10-14T13:04:22Z</time>
      </trkpt>
      <trkpt lat="46.64426" lon="5.58371">
        <ele>489</ele>
        <time>2021-10-14T13:04:31Z</time>
      </trkpt>
      <trkpt lat="46.64468" lon="5.58349">
        <ele>489</ele>
        <time>2021-10-14T13:04:39Z</time>
      </trkpt>
      <trkpt lat="46.64499" lon="5.58327">
        <ele>487</ele>
        <time>2021-10-14T13:04:45Z</time>
      </trkpt>
      <trkpt lat="46.64559" lon="5.58273">
        <ele>484</ele>
        <time>2021-10-14T13:04:58Z</time>
      </trkpt>
      <trkpt lat="46.64638" lon="5.58193">
        <ele>482</ele>
        <time>2021-10-14T13:05:15Z</time>
      </trkpt>
      <trkpt lat="46.64705" lon="5.58109">
        <ele>480</ele>
        <time>2021-10-14T13:05:31Z</time>
      </trkpt>
      <trkpt lat="46.64741" lon="5.58055">
        <ele>478</ele>
        <time>2021-10-14T13:05:40Z</time>
      </trkpt>
      <trkpt lat="46.64965" lon="5.57675">
        <ele>471</ele>
        <time>2021-10-14T13:06:41Z</time>
      </trkpt>
      <trkpt lat="46.65008" lon="5.57608">
        <ele>471</ele>
        <time>2021-10-14T13:06:52Z</time>
      </trkpt>
      <trkpt lat="46.6504" lon="5.57567">
        <ele>471</ele>
        <time>2021-10-14T13:07:00Z</time>
      </trkpt>
      <trkpt lat="46.65068" lon="5.57535">
        <ele>469</ele>
        <time>2021-10-14T13:07:06Z</time>
      </trkpt>
      <trkpt lat="46.65099" lon="5.57508">
        <ele>467</ele>
        <time>2021-10-14T13:07:13Z</time>
      </trkpt>
      <trkpt lat="46.65124" lon="5.5749">
        <ele>466</ele>
        <time>2021-10-14T13:07:17Z</time>
      </trkpt>
      <trkpt lat="46.65146" lon="5.57478">
        <ele>465</ele>
        <time>2021-10-14T13:07:22Z</time>
      </trkpt>
      <trkpt lat="46.65192" lon="5.57458">
        <ele>463</ele>
        <time>2021-10-14T13:07:30Z</time>
      </trkpt>
      <trkpt lat="46.65255" lon="5.57442">
        <ele>459</ele>
        <time>2021-10-14T13:07:42Z</time>
      </trkpt>
      <trkpt lat="46.65352" lon="5.57428">
        <ele>454</ele>
        <time>2021-10-14T13:07:59Z</time>
      </trkpt>
      <trkpt lat="46.65371" lon="5.57433">
        <ele>453</ele>
        <time>2021-10-14T13:08:02Z</time>
      </trkpt>
      <trkpt lat="46.65439" lon="5.57423">
        <ele>446</ele>
        <time>2021-10-14T13:08:15Z</time>
      </trkpt>
      <trkpt lat="46.65518" lon="5.57405">
        <ele>443</ele>
        <time>2021-10-14T13:08:29Z</time>
      </trkpt>
      <trkpt lat="46.65532" lon="5.57397">
        <ele>442</ele>
        <time>2021-10-14T13:08:31Z</time>
      </trkpt>
      <trkpt lat="46.65554" lon="5.57375">
        <ele>440</ele>
        <time>2021-10-14T13:08:36Z</time>
      </trkpt>
      <trkpt lat="46.65586" lon="5.57325">
        <ele>434</ele>
        <time>2021-10-14T13:08:45Z</time>
      </trkpt>
      <trkpt lat="46.65593" lon="5.57317">
        <ele>432</ele>
        <time>2021-10-14T13:08:46Z</time>
      </trkpt>
      <trkpt lat="46.65604" lon="5.57309">
        <ele>431</ele>
        <time>2021-10-14T13:08:48Z</time>
      </trkpt>
      <trkpt lat="46.65617" lon="5.57304">
        <ele>430</ele>
        <time>2021-10-14T13:08:51Z</time>
      </trkpt>
      <trkpt lat="46.65636" lon="5.57299">
        <ele>429</ele>
        <time>2021-10-14T13:08:54Z</time>
      </trkpt>
      <trkpt lat="46.65655" lon="5.57292">
        <ele>428</ele>
        <time>2021-10-14T13:08:58Z</time>
      </trkpt>
      <trkpt lat="46.65667" lon="5.5728">
        <ele>427</ele>
        <time>2021-10-14T13:09:00Z</time>
      </trkpt>
      <trkpt lat="46.65675" lon="5.57263">
        <ele>424</ele>
        <time>2021-10-14T13:09:03Z</time>
      </trkpt>
      <trkpt lat="46.65677" lon="5.57247">
        <ele>423</ele>
        <time>2021-10-14T13:09:05Z</time>
      </trkpt>
      <trkpt lat="46.6568" lon="5.57199">
        <ele>423</ele>
        <time>2021-10-14T13:09:11Z</time>
      </trkpt>
      <trkpt lat="46.65682" lon="5.57181">
        <ele>423</ele>
        <time>2021-10-14T13:09:13Z</time>
      </trkpt>
      <trkpt lat="46.65681" lon="5.57163">
        <ele>424</ele>
        <time>2021-10-14T13:09:15Z</time>
      </trkpt>
      <trkpt lat="46.65676" lon="5.57146">
        <ele>424</ele>
        <time>2021-10-14T13:09:17Z</time>
      </trkpt>
      <trkpt lat="46.65671" lon="5.5714">
        <ele>424</ele>
        <time>2021-10-14T13:09:18Z</time>
      </trkpt>
      <trkpt lat="46.65741" lon="5.5699">
        <ele>428</ele>
        <time>2021-10-14T13:09:41Z</time>
      </trkpt>
      <trkpt lat="46.65772" lon="5.56925">
        <ele>427</ele>
        <time>2021-10-14T13:09:50Z</time>
      </trkpt>
      <trkpt lat="46.65802" lon="5.5687">
        <ele>425</ele>
        <time>2021-10-14T13:09:59Z</time>
      </trkpt>
      <trkpt lat="46.6586" lon="5.56798">
        <ele>423</ele>
        <time>2021-10-14T13:10:12Z</time>
      </trkpt>
      <trkpt lat="46.65876" lon="5.56776">
        <ele>422</ele>
        <time>2021-10-14T13:10:16Z</time>
      </trkpt>
      <trkpt lat="46.65882" lon="5.56762">
        <ele>422</ele>
        <time>2021-10-14T13:10:18Z</time>
      </trkpt>
      <trkpt lat="46.65909" lon="5.56682">
        <ele>423</ele>
        <time>2021-10-14T13:10:29Z</time>
      </trkpt>
      <trkpt lat="46.65929" lon="5.56655">
        <ele>421</ele>
        <time>2021-10-14T13:10:34Z</time>
      </trkpt>
      <trkpt lat="46.65968" lon="5.56569">
        <ele>417</ele>
        <time>2021-10-14T13:10:47Z</time>
      </trkpt>
      <trkpt lat="46.65993" lon="5.56527">
        <ele>418</ele>
        <time>2021-10-14T13:10:53Z</time>
      </trkpt>
      <trkpt lat="46.66005" lon="5.56491">
        <ele>418</ele>
        <time>2021-10-14T13:10:58Z</time>
      </trkpt>
      <trkpt lat="46.66008" lon="5.56473">
        <ele>417</ele>
        <time>2021-10-14T13:11:01Z</time>
      </trkpt>
      <trkpt lat="46.66011" lon="5.56417">
        <ele>416</ele>
        <time>2021-10-14T13:11:07Z</time>
      </trkpt>
      <trkpt lat="46.66016" lon="5.56395">
        <ele>413</ele>
        <time>2021-10-14T13:11:10Z</time>
      </trkpt>
      <trkpt lat="46.66041" lon="5.56309">
        <ele>406</ele>
        <time>2021-10-14T13:11:22Z</time>
      </trkpt>
      <trkpt lat="46.66057" lon="5.56265">
        <ele>402</ele>
        <time>2021-10-14T13:11:28Z</time>
      </trkpt>
      <trkpt lat="46.66067" lon="5.56245">
        <ele>400</ele>
        <time>2021-10-14T13:11:31Z</time>
      </trkpt>
      <trkpt lat="46.66118" lon="5.56165">
        <ele>395</ele>
        <time>2021-10-14T13:11:44Z</time>
      </trkpt>
      <trkpt lat="46.66152" lon="5.56106">
        <ele>389</ele>
        <time>2021-10-14T13:11:54Z</time>
      </trkpt>
      <trkpt lat="46.66156" lon="5.56091">
        <ele>389</ele>
        <time>2021-10-14T13:11:55Z</time>
      </trkpt>
      <trkpt lat="46.66157" lon="5.56074">
        <ele>389</ele>
        <time>2021-10-14T13:11:58Z</time>
      </trkpt>
      <trkpt lat="46.66148" lon="5.56019">
        <ele>386</ele>
        <time>2021-10-14T13:12:04Z</time>
      </trkpt>
      <trkpt lat="46.66134" lon="5.55947">
        <ele>382</ele>
        <time>2021-10-14T13:12:14Z</time>
      </trkpt>
      <trkpt lat="46.66131" lon="5.55906">
        <ele>380</ele>
        <time>2021-10-14T13:12:19Z</time>
      </trkpt>
      <trkpt lat="46.6613" lon="5.55876">
        <ele>380</ele>
        <time>2021-10-14T13:12:22Z</time>
      </trkpt>
      <trkpt lat="46.66133" lon="5.55859">
        <ele>379</ele>
        <time>2021-10-14T13:12:24Z</time>
      </trkpt>
      <trkpt lat="46.66139" lon="5.55842">
        <ele>378</ele>
        <time>2021-10-14T13:12:27Z</time>
      </trkpt>
      <trkpt lat="46.66146" lon="5.55834">
        <ele>377</ele>
        <time>2021-10-14T13:12:28Z</time>
      </trkpt>
      <trkpt lat="46.66151" lon="5.5583">
        <ele>377</ele>
        <time>2021-10-14T13:12:29Z</time>
      </trkpt>
      <trkpt lat="46.66201" lon="5.55817">
        <ele>366</ele>
        <time>2021-10-14T13:12:38Z</time>
      </trkpt>
      <trkpt lat="46.66211" lon="5.55806">
        <ele>364</ele>
        <time>2021-10-14T13:12:41Z</time>
      </trkpt>
      <trkpt lat="46.6624" lon="5.55758">
        <ele>360</ele>
        <time>2021-10-14T13:12:48Z</time>
      </trkpt>
      <trkpt lat="46.66256" lon="5.55734">
        <ele>359</ele>
        <time>2021-10-14T13:12:53Z</time>
      </trkpt>
      <trkpt lat="46.66283" lon="5.55704">
        <ele>355</ele>
        <time>2021-10-14T13:12:59Z</time>
      </trkpt>
      <trkpt lat="46.66306" lon="5.55685">
        <ele>352</ele>
        <time>2021-10-14T13:13:03Z</time>
      </trkpt>
      <trkpt lat="46.66327" lon="5.55672">
        <ele>348</ele>
        <time>2021-10-14T13:13:07Z</time>
      </trkpt>
      <trkpt lat="46.66338" lon="5.55664">
        <ele>346</ele>
        <time>2021-10-14T13:13:10Z</time>
      </trkpt>
      <trkpt lat="46.66356" lon="5.55634">
        <ele>343</ele>
        <time>2021-10-14T13:13:14Z</time>
      </trkpt>
      <trkpt lat="46.66386" lon="5.55571">
        <ele>336</ele>
        <time>2021-10-14T13:13:24Z</time>
      </trkpt>
      <trkpt lat="46.66391" lon="5.55564">
        <ele>335</ele>
        <time>2021-10-14T13:13:25Z</time>
      </trkpt>
      <trkpt lat="46.66397" lon="5.5556">
        <ele>333</ele>
        <time>2021-10-14T13:13:26Z</time>
      </trkpt>
      <trkpt lat="46.66404" lon="5.55561">
        <ele>332</ele>
        <time>2021-10-14T13:13:27Z</time>
      </trkpt>
      <trkpt lat="46.66415" lon="5.55567">
        <ele>331</ele>
        <time>2021-10-14T13:13:30Z</time>
      </trkpt>
      <trkpt lat="46.66481" lon="5.55648">
        <ele>323</ele>
        <time>2021-10-14T13:13:45Z</time>
      </trkpt>
      <trkpt lat="46.66488" lon="5.55653">
        <ele>322</ele>
        <time>2021-10-14T13:13:46Z</time>
      </trkpt>
      <trkpt lat="46.66495" lon="5.55655">
        <ele>321</ele>
        <time>2021-10-14T13:13:48Z</time>
      </trkpt>
      <trkpt lat="46.66505" lon="5.55652">
        <ele>319</ele>
        <time>2021-10-14T13:13:49Z</time>
      </trkpt>
      <trkpt lat="46.66518" lon="5.55633">
        <ele>318</ele>
        <time>2021-10-14T13:13:53Z</time>
      </trkpt>
      <trkpt lat="46.66543" lon="5.55568">
        <ele>314</ele>
        <time>2021-10-14T13:14:02Z</time>
      </trkpt>
      <trkpt lat="46.66556" lon="5.55542">
        <ele>312</ele>
        <time>2021-10-14T13:14:06Z</time>
      </trkpt>
      <trkpt lat="46.66561" lon="5.55538">
        <ele>311</ele>
        <time>2021-10-14T13:14:07Z</time>
      </trkpt>
      <trkpt lat="46.6657" lon="5.55536">
        <ele>311</ele>
        <time>2021-10-14T13:14:08Z</time>
      </trkpt>
      <trkpt lat="46.66577" lon="5.55539">
        <ele>310</ele>
        <time>2021-10-14T13:14:10Z</time>
      </trkpt>
      <trkpt lat="46.66604" lon="5.55561">
        <ele>308</ele>
        <time>2021-10-14T13:14:15Z</time>
      </trkpt>
      <trkpt lat="46.66634" lon="5.55574">
        <ele>305</ele>
        <time>2021-10-14T13:14:21Z</time>
      </trkpt>
      <trkpt lat="46.66644" lon="5.55574">
        <ele>304</ele>
        <time>2021-10-14T13:14:22Z</time>
      </trkpt>
      <trkpt lat="46.66654" lon="5.5557">
        <ele>303</ele>
        <time>2021-10-14T13:14:24Z</time>
      </trkpt>
      <trkpt lat="46.66662" lon="5.55558">
        <ele>301</ele>
        <time>2021-10-14T13:14:26Z</time>
      </trkpt>
      <trkpt lat="46.66717" lon="5.55454">
        <ele>287</ele>
        <time>2021-10-14T13:14:42Z</time>
      </trkpt>
      <trkpt lat="46.66732" lon="5.55433">
        <ele>285</ele>
        <time>2021-10-14T13:14:46Z</time>
      </trkpt>
      <trkpt lat="46.66746" lon="5.55417">
        <ele>282</ele>
        <time>2021-10-14T13:14:49Z</time>
      </trkpt>
      <trkpt lat="46.66757" lon="5.55407">
        <ele>280</ele>
        <time>2021-10-14T13:14:52Z</time>
      </trkpt>
      <trkpt lat="46.66772" lon="5.55396">
        <ele>279</ele>
        <time>2021-10-14T13:14:55Z</time>
      </trkpt>
      <trkpt lat="46.66781" lon="5.55392">
        <ele>278</ele>
        <time>2021-10-14T13:14:56Z</time>
      </trkpt>
      <trkpt lat="46.6679" lon="5.5539">
        <ele>277</ele>
        <time>2021-10-14T13:14:58Z</time>
      </trkpt>
      <trkpt lat="46.66824" lon="5.55393">
        <ele>273</ele>
        <time>2021-10-14T13:15:04Z</time>
      </trkpt>
      <trkpt lat="46.66824" lon="5.55383">
        <ele>273</ele>
        <time>2021-10-14T13:15:05Z</time>
      </trkpt>
      <trkpt lat="46.66821" lon="5.55364">
        <ele>272</ele>
        <time>2021-10-14T13:15:07Z</time>
      </trkpt>
      <trkpt lat="46.66776" lon="5.55202">
        <ele>272</ele>
        <time>2021-10-14T13:15:29Z</time>
      </trkpt>
      <trkpt lat="46.66765" lon="5.55153">
        <ele>272</ele>
        <time>2021-10-14T13:15:35Z</time>
      </trkpt>
      <trkpt lat="46.66761" lon="5.55123">
        <ele>272</ele>
        <time>2021-10-14T13:15:39Z</time>
      </trkpt>
      <trkpt lat="46.66762" lon="5.55115">
        <ele>272</ele>
        <time>2021-10-14T13:15:40Z</time>
      </trkpt>
      <trkpt lat="46.6676" lon="5.55108">
        <ele>272</ele>
        <time>2021-10-14T13:15:41Z</time>
      </trkpt>
      <trkpt lat="46.66754" lon="5.55103">
        <ele>273</ele>
        <time>2021-10-14T13:15:42Z</time>
      </trkpt>
      <trkpt lat="46.66753" lon="5.55081">
        <ele>273</ele>
        <time>2021-10-14T13:15:45Z</time>
      </trkpt>
      <trkpt lat="46.66759" lon="5.54975">
        <ele>273</ele>
        <time>2021-10-14T13:15:58Z</time>
      </trkpt>
      <trkpt lat="46.66766" lon="5.54936">
        <ele>273</ele>
        <time>2021-10-14T13:16:03Z</time>
      </trkpt>
      <trkpt lat="46.66833" lon="5.54743">
        <ele>267</ele>
        <time>2021-10-14T13:16:29Z</time>
      </trkpt>
      <trkpt lat="46.66838" lon="5.54736">
        <ele>267</ele>
        <time>2021-10-14T13:16:30Z</time>
      </trkpt>
      <trkpt lat="46.66844" lon="5.5472">
        <ele>267</ele>
        <time>2021-10-14T13:16:32Z</time>
      </trkpt>
      <trkpt lat="46.66846" lon="5.54706">
        <ele>267</ele>
        <time>2021-10-14T13:16:34Z</time>
      </trkpt>
      <trkpt lat="46.66849" lon="5.54704">
        <ele>267</ele>
        <time>2021-10-14T13:16:35Z</time>
      </trkpt>
      <trkpt lat="46.66821" lon="5.5463">
        <ele>270</ele>
        <time>2021-10-14T13:16:45Z</time>
      </trkpt>
      <trkpt lat="46.66806" lon="5.54607">
        <ele>272</ele>
        <time>2021-10-14T13:16:49Z</time>
      </trkpt>
      <trkpt lat="46.66794" lon="5.54598">
        <ele>274</ele>
        <time>2021-10-14T13:16:51Z</time>
      </trkpt>
      <trkpt lat="46.66855" lon="5.54436">
        <ele>269</ele>
        <time>2021-10-14T13:17:14Z</time>
      </trkpt>
      <trkpt lat="46.66866" lon="5.54392">
        <ele>268</ele>
        <time>2021-10-14T13:17:20Z</time>
      </trkpt>
      <trkpt lat="46.66874" lon="5.54342">
        <ele>268</ele>
        <time>2021-10-14T13:17:26Z</time>
      </trkpt>
      <trkpt lat="46.66879" lon="5.54332">
        <ele>267</ele>
        <time>2021-10-14T13:17:27Z</time>
      </trkpt>
      <trkpt lat="46.66891" lon="5.54326">
        <ele>266</ele>
        <time>2021-10-14T13:17:30Z</time>
      </trkpt>
      <trkpt lat="46.6689" lon="5.54317">
        <ele>267</ele>
        <time>2021-10-14T13:17:31Z</time>
      </trkpt>
      <trkpt lat="46.66888" lon="5.54312">
        <ele>267</ele>
        <time>2021-10-14T13:17:32Z</time>
      </trkpt>
      <trkpt lat="46.6698" lon="5.54152">
        <ele>269</ele>
        <time>2021-10-14T13:17:57Z</time>
      </trkpt>
      <trkpt lat="46.67014" lon="5.54152">
        <ele>266</ele>
        <time>2021-10-14T13:18:03Z</time>
      </trkpt>
      <trkpt lat="46.67019" lon="5.54157">
        <ele>265</ele>
        <time>2021-10-14T13:18:04Z</time>
      </trkpt>
      <trkpt lat="46.67082" lon="5.54045">
        <ele>267</ele>
        <time>2021-10-14T13:18:22Z</time>
      </trkpt>
      <trkpt lat="46.67105" lon="5.53991">
        <ele>270</ele>
        <time>2021-10-14T13:18:30Z</time>
      </trkpt>
      <trkpt lat="46.67131" lon="5.53901">
        <ele>273</ele>
        <time>2021-10-14T13:18:41Z</time>
      </trkpt>
      <trkpt lat="46.67147" lon="5.5387">
        <ele>272</ele>
        <time>2021-10-14T13:18:46Z</time>
      </trkpt>
      <trkpt lat="46.67156" lon="5.53861">
        <ele>270</ele>
        <time>2021-10-14T13:18:48Z</time>
      </trkpt>
      <trkpt lat="46.67141" lon="5.53764">
        <ele>276</ele>
        <time>2021-10-14T13:19:00Z</time>
      </trkpt>
      <trkpt lat="46.67132" lon="5.53694">
        <ele>284</ele>
        <time>2021-10-14T13:19:09Z</time>
      </trkpt>
      <trkpt lat="46.67128" lon="5.53619">
        <ele>295</ele>
        <time>2021-10-14T13:19:18Z</time>
      </trkpt>
      <trkpt lat="46.67129" lon="5.53566">
        <ele>298</ele>
        <time>2021-10-14T13:19:25Z</time>
      </trkpt>
      <trkpt lat="46.67125" lon="5.53509">
        <ele>300</ele>
        <time>2021-10-14T13:19:32Z</time>
      </trkpt>
      <trkpt lat="46.67101" lon="5.53313">
        <ele>300</ele>
        <time>2021-10-14T13:19:56Z</time>
      </trkpt>
      <trkpt lat="46.6709" lon="5.5325">
        <ele>302</ele>
        <time>2021-10-14T13:20:04Z</time>
      </trkpt>
      <trkpt lat="46.67068" lon="5.53169">
        <ele>299</ele>
        <time>2021-10-14T13:20:15Z</time>
      </trkpt>
      <trkpt lat="46.67048" lon="5.53114">
        <ele>297</ele>
        <time>2021-10-14T13:20:22Z</time>
      </trkpt>
      <trkpt lat="46.67021" lon="5.53047">
        <ele>293</ele>
        <time>2021-10-14T13:20:32Z</time>
      </trkpt>
      <trkpt lat="46.67" lon="5.53008">
        <ele>291</ele>
        <time>2021-10-14T13:20:38Z</time>
      </trkpt>
      <trkpt lat="46.66978" lon="5.5298">
        <ele>288</ele>
        <time>2021-10-14T13:20:43Z</time>
      </trkpt>
      <trkpt lat="46.66915" lon="5.52908">
        <ele>282</ele>
        <time>2021-10-14T13:20:57Z</time>
      </trkpt>
      <trkpt lat="46.66718" lon="5.52693">
        <ele>266</ele>
        <time>2021-10-14T13:21:41Z</time>
      </trkpt>
      <trkpt lat="46.66668" lon="5.5264">
        <ele>262</ele>
        <time>2021-10-14T13:21:52Z</time>
      </trkpt>
      <trkpt lat="46.6663" lon="5.52603">
        <ele>260</ele>
        <time>2021-10-14T13:22:00Z</time>
      </trkpt>
      <trkpt lat="46.66624" lon="5.52592">
        <ele>260</ele>
        <time>2021-10-14T13:22:02Z</time>
      </trkpt>
      <trkpt lat="46.66623" lon="5.52581">
        <ele>260</ele>
        <time>2021-10-14T13:22:03Z</time>
      </trkpt>
      <trkpt lat="46.66626" lon="5.52525">
        <ele>259</ele>
        <time>2021-10-14T13:22:10Z</time>
      </trkpt>
      <trkpt lat="46.6664" lon="5.52533">
        <ele>259</ele>
        <time>2021-10-14T13:22:13Z</time>
      </trkpt>
      <trkpt lat="46.66647" lon="5.5254">
        <ele>259</ele>
        <time>2021-10-14T13:22:14Z</time>
      </trkpt>
      <trkpt lat="46.6665" lon="5.52551">
        <ele>259</ele>
        <time>2021-10-14T13:22:16Z</time>
      </trkpt>
      <trkpt lat="46.66657" lon="5.52561">
        <ele>259</ele>
        <time>2021-10-14T13:22:17Z</time>
      </trkpt>
      <trkpt lat="46.66665" lon="5.52565">
        <ele>259</ele>
        <time>2021-10-14T13:22:19Z</time>
      </trkpt>
      <trkpt lat="46.66675" lon="5.52565">
        <ele>259</ele>
        <time>2021-10-14T13:22:21Z</time>
      </trkpt>
      <trkpt lat="46.66684" lon="5.52558">
        <ele>259</ele>
        <time>2021-10-14T13:22:22Z</time>
      </trkpt>
      <trkpt lat="46.66691" lon="5.52544">
        <ele>259</ele>
        <time>2021-10-14T13:22:25Z</time>
      </trkpt>
      <trkpt lat="46.66693" lon="5.52527">
        <ele>259</ele>
        <time>2021-10-14T13:22:27Z</time>
      </trkpt>
      <trkpt lat="46.6669" lon="5.52516">
        <ele>259</ele>
        <time>2021-10-14T13:22:28Z</time>
      </trkpt>
      <trkpt lat="46.66685" lon="5.52506">
        <ele>259</ele>
        <time>2021-10-14T13:22:30Z</time>
      </trkpt>
      <trkpt lat="46.66678" lon="5.525">
        <ele>259</ele>
        <time>2021-10-14T13:22:31Z</time>
      </trkpt>
      <trkpt lat="46.6667" lon="5.52497">
        <ele>259</ele>
        <time>2021-10-14T13:22:33Z</time>
      </trkpt>
      <trkpt lat="46.66662" lon="5.52484">
        <ele>260</ele>
        <time>2021-10-14T13:22:35Z</time>
      </trkpt>
      <trkpt lat="46.66648" lon="5.52447">
        <ele>262</ele>
        <time>2021-10-14T13:22:40Z</time>
      </trkpt>
      <trkpt lat="46.66631" lon="5.52416">
        <ele>262</ele>
        <time>2021-10-14T13:22:45Z</time>
      </trkpt>
      <trkpt lat="46.66591" lon="5.52322">
        <ele>261</ele>
        <time>2021-10-14T13:22:58Z</time>
      </trkpt>
      <trkpt lat="46.66565" lon="5.52185">
        <ele>257</ele>
        <time>2021-10-14T13:23:16Z</time>
      </trkpt>
      <trkpt lat="46.66558" lon="5.52158">
        <ele>257</ele>
        <time>2021-10-14T13:23:19Z</time>
      </trkpt>
      <trkpt lat="46.66548" lon="5.52136">
        <ele>257</ele>
        <time>2021-10-14T13:23:22Z</time>
      </trkpt>
      <trkpt lat="46.66532" lon="5.52114">
        <ele>257</ele>
        <time>2021-10-14T13:23:26Z</time>
      </trkpt>
      <trkpt lat="46.6651" lon="5.52088">
        <ele>254</ele>
        <time>2021-10-14T13:23:31Z</time>
      </trkpt>
      <trkpt lat="46.66458" lon="5.52005">
        <ele>254</ele>
        <time>2021-10-14T13:23:45Z</time>
      </trkpt>
      <trkpt lat="46.66445" lon="5.51989">
        <ele>253</ele>
        <time>2021-10-14T13:23:48Z</time>
      </trkpt>
      <trkpt lat="46.66413" lon="5.51928">
        <ele>251</ele>
        <time>2021-10-14T13:23:57Z</time>
      </trkpt>
      <trkpt lat="46.66332" lon="5.51724">
        <ele>245</ele>
        <time>2021-10-14T13:24:26Z</time>
      </trkpt>
      <trkpt lat="46.66327" lon="5.51708">
        <ele>245</ele>
        <time>2021-10-14T13:24:28Z</time>
      </trkpt>
      <trkpt lat="46.66324" lon="5.5168">
        <ele>244</ele>
        <time>2021-10-14T13:24:32Z</time>
      </trkpt>
      <trkpt lat="46.66327" lon="5.51646">
        <ele>243</ele>
        <time>2021-10-14T13:24:36Z</time>
      </trkpt>
      <trkpt lat="46.66347" lon="5.5153">
        <ele>245</ele>
        <time>2021-10-14T13:24:51Z</time>
      </trkpt>
      <trkpt lat="46.66351" lon="5.51495">
        <ele>246</ele>
        <time>2021-10-14T13:24:55Z</time>
      </trkpt>
      <trkpt lat="46.66349" lon="5.51444">
        <ele>247</ele>
        <time>2021-10-14T13:25:01Z</time>
      </trkpt>
      <trkpt lat="46.66344" lon="5.51419">
        <ele>247</ele>
        <time>2021-10-14T13:25:04Z</time>
      </trkpt>
      <trkpt lat="46.66337" lon="5.51397">
        <ele>248</ele>
        <time>2021-10-14T13:25:07Z</time>
      </trkpt>
      <trkpt lat="46.66298" lon="5.51315">
        <ele>249</ele>
        <time>2021-10-14T13:25:19Z</time>
      </trkpt>
      <trkpt lat="46.66277" lon="5.51276">
        <ele>248</ele>
        <time>2021-10-14T13:25:25Z</time>
      </trkpt>
      <trkpt lat="46.66254" lon="5.51251">
        <ele>247</ele>
        <time>2021-10-14T13:25:31Z</time>
      </trkpt>
      <trkpt lat="46.66218" lon="5.51227">
        <ele>246</ele>
        <time>2021-10-14T13:25:38Z</time>
      </trkpt>
      <trkpt lat="46.66198" lon="5.51206">
        <ele>245</ele>
        <time>2021-10-14T13:25:42Z</time>
      </trkpt>
      <trkpt lat="46.66183" lon="5.51185">
        <ele>245</ele>
        <time>2021-10-14T13:25:46Z</time>
      </trkpt>
      <trkpt lat="46.66172" lon="5.51162">
        <ele>245</ele>
        <time>2021-10-14T13:25:49Z</time>
      </trkpt>
      <trkpt lat="46.66164" lon="5.51134">
        <ele>246</ele>
        <time>2021-10-14T13:25:53Z</time>
      </trkpt>
      <trkpt lat="46.66156" lon="5.51092">
        <ele>246</ele>
        <time>2021-10-14T13:25:58Z</time>
      </trkpt>
      <trkpt lat="46.66111" lon="5.50761">
        <ele>247</ele>
        <time>2021-10-14T13:26:39Z</time>
      </trkpt>
      <trkpt lat="46.66107" lon="5.50738">
        <ele>247</ele>
        <time>2021-10-14T13:26:42Z</time>
      </trkpt>
      <trkpt lat="46.66113" lon="5.50736">
        <ele>247</ele>
        <time>2021-10-14T13:26:43Z</time>
      </trkpt>
      <trkpt lat="46.66118" lon="5.5073">
        <ele>247</ele>
        <time>2021-10-14T13:26:45Z</time>
      </trkpt>
      <trkpt lat="46.66121" lon="5.50723">
        <ele>248</ele>
        <time>2021-10-14T13:26:46Z</time>
      </trkpt>
      <trkpt lat="46.66123" lon="5.50714">
        <ele>248</ele>
        <time>2021-10-14T13:26:47Z</time>
      </trkpt>
      <trkpt lat="46.66123" lon="5.50705">
        <ele>248</ele>
        <time>2021-10-14T13:26:48Z</time>
      </trkpt>
      <trkpt lat="46.6612" lon="5.50696">
        <ele>249</ele>
        <time>2021-10-14T13:26:49Z</time>
      </trkpt>
      <trkpt lat="46.66116" lon="5.5069">
        <ele>249</ele>
        <time>2021-10-14T13:26:50Z</time>
      </trkpt>
      <trkpt lat="46.6611" lon="5.50685">
        <ele>249</ele>
        <time>2021-10-14T13:26:51Z</time>
      </trkpt>
      <trkpt lat="46.66103" lon="5.50684">
        <ele>249</ele>
        <time>2021-10-14T13:26:53Z</time>
      </trkpt>
      <trkpt lat="46.66097" lon="5.50686">
        <ele>249</ele>
        <time>2021-10-14T13:26:54Z</time>
      </trkpt>
      <trkpt lat="46.66085" lon="5.5062">
        <ele>250</ele>
        <time>2021-10-14T13:27:02Z</time>
      </trkpt>
      <trkpt lat="46.66068" lon="5.50463">
        <ele>248</ele>
        <time>2021-10-14T13:27:21Z</time>
      </trkpt>
      <trkpt lat="46.66037" lon="5.50244">
        <ele>248</ele>
        <time>2021-10-14T13:27:49Z</time>
      </trkpt>
      <trkpt lat="46.66029" lon="5.50216">
        <ele>248</ele>
        <time>2021-10-14T13:27:52Z</time>
      </trkpt>
      <trkpt lat="46.65996" lon="5.50124">
        <ele>247</ele>
        <time>2021-10-14T13:28:05Z</time>
      </trkpt>
      <trkpt lat="46.65971" lon="5.50061">
        <ele>245</ele>
        <time>2021-10-14T13:28:14Z</time>
      </trkpt>
      <trkpt lat="46.65926" lon="5.4996">
        <ele>242</ele>
        <time>2021-10-14T13:28:29Z</time>
      </trkpt>
      <trkpt lat="46.65904" lon="5.499">
        <ele>241</ele>
        <time>2021-10-14T13:28:37Z</time>
      </trkpt>
      <trkpt lat="46.65865" lon="5.49722">
        <ele>240</ele>
        <time>2021-10-14T13:29:00Z</time>
      </trkpt>
      <trkpt lat="46.65834" lon="5.49556">
        <ele>238</ele>
        <time>2021-10-14T13:29:21Z</time>
      </trkpt>
      <trkpt lat="46.65824" lon="5.49516">
        <ele>238</ele>
        <time>2021-10-14T13:29:26Z</time>
      </trkpt>
      <trkpt lat="46.65803" lon="5.49457">
        <ele>238</ele>
        <time>2021-10-14T13:29:34Z</time>
      </trkpt>
      <trkpt lat="46.65721" lon="5.49155">
        <ele>235</ele>
        <time>2021-10-14T13:30:14Z</time>
      </trkpt>
      <trkpt lat="46.65694" lon="5.49038">
        <ele>233</ele>
        <time>2021-10-14T13:30:29Z</time>
      </trkpt>
      <trkpt lat="46.65689" lon="5.48994">
        <ele>233</ele>
        <time>2021-10-14T13:30:34Z</time>
      </trkpt>
      <trkpt lat="46.65682" lon="5.48913">
        <ele>231</ele>
        <time>2021-10-14T13:30:44Z</time>
      </trkpt>
      <trkpt lat="46.65673" lon="5.48859">
        <ele>228</ele>
        <time>2021-10-14T13:30:51Z</time>
      </trkpt>
      <trkpt lat="46.6566" lon="5.48821">
        <ele>225</ele>
        <time>2021-10-14T13:30:56Z</time>
      </trkpt>
      <trkpt lat="46.6565" lon="5.48803">
        <ele>224</ele>
        <time>2021-10-14T13:30:59Z</time>
      </trkpt>
      <trkpt lat="46.6559" lon="5.48726">
        <ele>221</ele>
        <time>2021-10-14T13:31:13Z</time>
      </trkpt>
      <trkpt lat="46.65577" lon="5.48712">
        <ele>221</ele>
        <time>2021-10-14T13:31:16Z</time>
      </trkpt>
      <trkpt lat="46.65568" lon="5.48704">
        <ele>221</ele>
        <time>2021-10-14T13:31:18Z</time>
      </trkpt>
      <trkpt lat="46.65561" lon="5.48701">
        <ele>221</ele>
        <time>2021-10-14T13:31:19Z</time>
      </trkpt>
      <trkpt lat="46.65533" lon="5.48697">
        <ele>222</ele>
        <time>2021-10-14T13:31:24Z</time>
      </trkpt>
      <trkpt lat="46.65454" lon="5.48708">
        <ele>226</ele>
        <time>2021-10-14T13:31:38Z</time>
      </trkpt>
      <trkpt lat="46.65436" lon="5.48707">
        <ele>227</ele>
        <time>2021-10-14T13:31:42Z</time>
      </trkpt>
      <trkpt lat="46.65425" lon="5.48702">
        <ele>228</ele>
        <time>2021-10-14T13:31:44Z</time>
      </trkpt>
      <trkpt lat="46.65372" lon="5.48665">
        <ele>233</ele>
        <time>2021-10-14T13:31:54Z</time>
      </trkpt>
      <trkpt lat="46.65361" lon="5.4866">
        <ele>233</ele>
        <time>2021-10-14T13:31:56Z</time>
      </trkpt>
      <trkpt lat="46.65324" lon="5.48649">
        <ele>235</ele>
        <time>2021-10-14T13:32:03Z</time>
      </trkpt>
      <trkpt lat="46.65302" lon="5.48648">
        <ele>235</ele>
        <time>2021-10-14T13:32:07Z</time>
      </trkpt>
      <trkpt lat="46.6529" lon="5.48643">
        <ele>236</ele>
        <time>2021-10-14T13:32:09Z</time>
      </trkpt>
      <trkpt lat="46.65237" lon="5.48612">
        <ele>236</ele>
        <time>2021-10-14T13:32:19Z</time>
      </trkpt>
      <trkpt lat="46.65204" lon="5.48589">
        <ele>235</ele>
        <time>2021-10-14T13:32:26Z</time>
      </trkpt>
      <trkpt lat="46.6517" lon="5.48578">
        <ele>235</ele>
        <time>2021-10-14T13:32:32Z</time>
      </trkpt>
      <trkpt lat="46.6505" lon="5.48511">
        <ele>235</ele>
        <time>2021-10-14T13:32:55Z</time>
      </trkpt>
      <trkpt lat="46.64964" lon="5.48447">
        <ele>235</ele>
        <time>2021-10-14T13:33:12Z</time>
      </trkpt>
      <trkpt lat="46.64898" lon="5.48385">
        <ele>235</ele>
        <time>2021-10-14T13:33:26Z</time>
      </trkpt>
      <trkpt lat="46.64855" lon="5.48351">
        <ele>235</ele>
        <time>2021-10-14T13:33:35Z</time>
      </trkpt>
      <trkpt lat="46.64711" lon="5.48244">
        <ele>233</ele>
        <time>2021-10-14T13:34:03Z</time>
      </trkpt>
      <trkpt lat="46.64699" lon="5.48241">
        <ele>233</ele>
        <time>2021-10-14T13:34:06Z</time>
      </trkpt>
      <trkpt lat="46.64684" lon="5.48242">
        <ele>233</ele>
        <time>2021-10-14T13:34:08Z</time>
      </trkpt>
      <trkpt lat="46.64629" lon="5.4789">
        <ele>229</ele>
        <time>2021-10-14T13:34:52Z</time>
      </trkpt>
      <trkpt lat="46.6462" lon="5.47853">
        <ele>229</ele>
        <time>2021-10-14T13:34:57Z</time>
      </trkpt>
      <trkpt lat="46.64392" lon="5.47192">
        <ele>223</ele>
        <time>2021-10-14T13:36:28Z</time>
      </trkpt>
      <trkpt lat="46.64367" lon="5.47104">
        <ele>223</ele>
        <time>2021-10-14T13:36:39Z</time>
      </trkpt>
      <trkpt lat="46.64352" lon="5.47071">
        <ele>224</ele>
        <time>2021-10-14T13:36:44Z</time>
      </trkpt>
      <trkpt lat="46.64352" lon="5.47062">
        <ele>223</ele>
        <time>2021-10-14T13:36:45Z</time>
      </trkpt>
      <trkpt lat="46.64361" lon="5.46999">
        <ele>222</ele>
        <time>2021-10-14T13:36:53Z</time>
      </trkpt>
      <trkpt lat="46.64366" lon="5.46978">
        <ele>222</ele>
        <time>2021-10-14T13:36:56Z</time>
      </trkpt>
      <trkpt lat="46.64376" lon="5.46957">
        <ele>221</ele>
        <time>2021-10-14T13:36:59Z</time>
      </trkpt>
      <trkpt lat="46.64415" lon="5.46898">
        <ele>219</ele>
        <time>2021-10-14T13:37:09Z</time>
      </trkpt>
      <trkpt lat="46.64426" lon="5.46869">
        <ele>217</ele>
        <time>2021-10-14T13:37:13Z</time>
      </trkpt>
      <trkpt lat="46.64429" lon="5.4685">
        <ele>217</ele>
        <time>2021-10-14T13:37:15Z</time>
      </trkpt>
      <trkpt lat="46.6443" lon="5.46833">
        <ele>216</ele>
        <time>2021-10-14T13:37:17Z</time>
      </trkpt>
      <trkpt lat="46.64431" lon="5.46613">
        <ele>209</ele>
        <time>2021-10-14T13:37:44Z</time>
      </trkpt>
      <trkpt lat="46.64429" lon="5.46581">
        <ele>208</ele>
        <time>2021-10-14T13:37:48Z</time>
      </trkpt>
      <trkpt lat="46.64408" lon="5.4653">
        <ele>207</ele>
        <time>2021-10-14T13:37:55Z</time>
      </trkpt>
      <trkpt lat="46.64407" lon="5.46507">
        <ele>206</ele>
        <time>2021-10-14T13:37:58Z</time>
      </trkpt>
      <trkpt lat="46.64443" lon="5.46137">
        <ele>201</ele>
        <time>2021-10-14T13:38:44Z</time>
      </trkpt>
      <trkpt lat="46.64463" lon="5.45821">
        <ele>201</ele>
        <time>2021-10-14T13:39:23Z</time>
      </trkpt>
      <trkpt lat="46.64463" lon="5.45804">
        <ele>201</ele>
        <time>2021-10-14T13:39:25Z</time>
      </trkpt>
      <trkpt lat="46.64497" lon="5.45281">
        <ele>203</ele>
        <time>2021-10-14T13:40:29Z</time>
      </trkpt>
      <trkpt lat="46.64501" lon="5.45231">
        <ele>203</ele>
        <time>2021-10-14T13:40:35Z</time>
      </trkpt>
      <trkpt lat="46.64505" lon="5.4521">
        <ele>203</ele>
        <time>2021-10-14T13:40:38Z</time>
      </trkpt>
      <trkpt lat="46.64583" lon="5.44905">
        <ele>202</ele>
        <time>2021-10-14T13:41:17Z</time>
      </trkpt>
      <trkpt lat="46.64586" lon="5.44895">
        <ele>201</ele>
        <time>2021-10-14T13:41:19Z</time>
      </trkpt>
      <trkpt lat="46.64728" lon="5.44332">
        <ele>201</ele>
        <time>2021-10-14T13:42:32Z</time>
      </trkpt>
      <trkpt lat="46.64746" lon="5.44278">
        <ele>200</ele>
        <time>2021-10-14T13:42:39Z</time>
      </trkpt>
      <trkpt lat="46.64755" lon="5.44258">
        <ele>199</ele>
        <time>2021-10-14T13:42:42Z</time>
      </trkpt>
      <trkpt lat="46.64769" lon="5.44231">
        <ele>200</ele>
        <time>2021-10-14T13:42:46Z</time>
      </trkpt>
      <trkpt lat="46.64776" lon="5.44213">
        <ele>200</ele>
        <time>2021-10-14T13:42:49Z</time>
      </trkpt>
      <trkpt lat="46.64781" lon="5.44198">
        <ele>200</ele>
        <time>2021-10-14T13:42:51Z</time>
      </trkpt>
      <trkpt lat="46.64893" lon="5.43905">
        <ele>218</ele>
        <time>2021-10-14T13:43:32Z</time>
      </trkpt>
      <trkpt lat="46.64895" lon="5.43882">
        <ele>219</ele>
        <time>2021-10-14T13:43:35Z</time>
      </trkpt>
      <trkpt lat="46.64882" lon="5.43861">
        <ele>219</ele>
        <time>2021-10-14T13:43:38Z</time>
      </trkpt>
      <trkpt lat="46.6483" lon="5.43817">
        <ele>220</ele>
        <time>2021-10-14T13:43:49Z</time>
      </trkpt>
      <trkpt lat="46.64818" lon="5.43797">
        <ele>220</ele>
        <time>2021-10-14T13:43:52Z</time>
      </trkpt>
      <trkpt lat="46.64809" lon="5.4377">
        <ele>220</ele>
        <time>2021-10-14T13:43:56Z</time>
      </trkpt>
      <trkpt lat="46.64803" lon="5.43737">
        <ele>221</ele>
        <time>2021-10-14T13:44:00Z</time>
      </trkpt>
      <trkpt lat="46.64794" lon="5.43713">
        <ele>221</ele>
        <time>2021-10-14T13:44:03Z</time>
      </trkpt>
      <trkpt lat="46.6478" lon="5.43691">
        <ele>221</ele>
        <time>2021-10-14T13:44:07Z</time>
      </trkpt>
      <trkpt lat="46.64766" lon="5.43677">
        <ele>221</ele>
        <time>2021-10-14T13:44:10Z</time>
      </trkpt>
      <trkpt lat="46.64679" lon="5.43631">
        <ele>218</ele>
        <time>2021-10-14T13:44:26Z</time>
      </trkpt>
      <trkpt lat="46.64629" lon="5.43588">
        <ele>217</ele>
        <time>2021-10-14T13:44:37Z</time>
      </trkpt>
      <trkpt lat="46.64617" lon="5.43581">
        <ele>217</ele>
        <time>2021-10-14T13:44:39Z</time>
      </trkpt>
      <trkpt lat="46.64575" lon="5.43566">
        <ele>215</ele>
        <time>2021-10-14T13:44:47Z</time>
      </trkpt>
      <trkpt lat="46.64556" lon="5.43552">
        <ele>214</ele>
        <time>2021-10-14T13:44:51Z</time>
      </trkpt>
      <trkpt lat="46.64469" lon="5.43464">
        <ele>212</ele>
        <time>2021-10-14T13:45:09Z</time>
      </trkpt>
      <trkpt lat="46.64449" lon="5.43448">
        <ele>212</ele>
        <time>2021-10-14T13:45:13Z</time>
      </trkpt>
      <trkpt lat="46.64431" lon="5.4344">
        <ele>212</ele>
        <time>2021-10-14T13:45:17Z</time>
      </trkpt>
      <trkpt lat="46.64396" lon="5.4343">
        <ele>212</ele>
        <time>2021-10-14T13:45:23Z</time>
      </trkpt>
      <trkpt lat="46.64364" lon="5.43417">
        <ele>212</ele>
        <time>2021-10-14T13:45:29Z</time>
      </trkpt>
      <trkpt lat="46.6434" lon="5.43404">
        <ele>212</ele>
        <time>2021-10-14T13:45:34Z</time>
      </trkpt>
      <trkpt lat="46.64316" lon="5.43381">
        <ele>212</ele>
        <time>2021-10-14T13:45:39Z</time>
      </trkpt>
      <trkpt lat="46.64272" lon="5.43313">
        <ele>215</ele>
        <time>2021-10-14T13:45:50Z</time>
      </trkpt>
      <trkpt lat="46.64231" lon="5.43243">
        <ele>217</ele>
        <time>2021-10-14T13:46:01Z</time>
      </trkpt>
      <trkpt lat="46.64207" lon="5.43198">
        <ele>217</ele>
        <time>2021-10-14T13:46:08Z</time>
      </trkpt>
      <trkpt lat="46.64195" lon="5.43164">
        <ele>218</ele>
        <time>2021-10-14T13:46:13Z</time>
      </trkpt>
      <trkpt lat="46.64188" lon="5.43139">
        <ele>218</ele>
        <time>2021-10-14T13:46:16Z</time>
      </trkpt>
      <trkpt lat="46.64185" lon="5.43119">
        <ele>218</ele>
        <time>2021-10-14T13:46:19Z</time>
      </trkpt>
      <trkpt lat="46.64188" lon="5.43084">
        <ele>218</ele>
        <time>2021-10-14T13:46:23Z</time>
      </trkpt>
      <trkpt lat="46.64193" lon="5.43061">
        <ele>217</ele>
        <time>2021-10-14T13:46:26Z</time>
      </trkpt>
      <trkpt lat="46.64205" lon="5.43024">
        <ele>216</ele>
        <time>2021-10-14T13:46:31Z</time>
      </trkpt>
      <trkpt lat="46.64209" lon="5.43005">
        <ele>216</ele>
        <time>2021-10-14T13:46:34Z</time>
      </trkpt>
      <trkpt lat="46.6421" lon="5.42988">
        <ele>216</ele>
        <time>2021-10-14T13:46:36Z</time>
      </trkpt>
      <trkpt lat="46.64209" lon="5.42974">
        <ele>216</ele>
        <time>2021-10-14T13:46:37Z</time>
      </trkpt>
      <trkpt lat="46.64204" lon="5.42955">
        <ele>215</ele>
        <time>2021-10-14T13:46:40Z</time>
      </trkpt>
      <trkpt lat="46.64191" lon="5.42925">
        <ele>215</ele>
        <time>2021-10-14T13:46:44Z</time>
      </trkpt>
      <trkpt lat="46.64176" lon="5.42876">
        <ele>215</ele>
        <time>2021-10-14T13:46:51Z</time>
      </trkpt>
      <trkpt lat="46.64168" lon="5.42854">
        <ele>216</ele>
        <time>2021-10-14T13:46:54Z</time>
      </trkpt>
      <trkpt lat="46.64148" lon="5.42817">
        <ele>216</ele>
        <time>2021-10-14T13:46:59Z</time>
      </trkpt>
      <trkpt lat="46.64138" lon="5.42804">
        <ele>216</ele>
        <time>2021-10-14T13:47:02Z</time>
      </trkpt>
      <trkpt lat="46.64114" lon="5.42792">
        <ele>215</ele>
        <time>2021-10-14T13:47:06Z</time>
      </trkpt>
      <trkpt lat="46.64102" lon="5.42783">
        <ele>215</ele>
        <time>2021-10-14T13:47:09Z</time>
      </trkpt>
      <trkpt lat="46.64087" lon="5.42772">
        <ele>215</ele>
        <time>2021-10-14T13:47:12Z</time>
      </trkpt>
      <trkpt lat="46.64069" lon="5.42753">
        <ele>216</ele>
        <time>2021-10-14T13:47:16Z</time>
      </trkpt>
      <trkpt lat="46.64048" lon="5.42726">
        <ele>216</ele>
        <time>2021-10-14T13:47:21Z</time>
      </trkpt>
      <trkpt lat="46.64032" lon="5.42702">
        <ele>216</ele>
        <time>2021-10-14T13:47:25Z</time>
      </trkpt>
      <trkpt lat="46.64009" lon="5.4265">
        <ele>218</ele>
        <time>2021-10-14T13:47:32Z</time>
      </trkpt>
      <trkpt lat="46.64004" lon="5.42643">
        <ele>218</ele>
        <time>2021-10-14T13:47:34Z</time>
      </trkpt>
      <trkpt lat="46.63992" lon="5.42629">
        <ele>218</ele>
        <time>2021-10-14T13:47:36Z</time>
      </trkpt>
      <trkpt lat="46.63935" lon="5.4257">
        <ele>219</ele>
        <time>2021-10-14T13:47:49Z</time>
      </trkpt>
      <trkpt lat="46.6391" lon="5.4254">
        <ele>219</ele>
        <time>2021-10-14T13:47:55Z</time>
      </trkpt>
      <trkpt lat="46.63899" lon="5.42523">
        <ele>219</ele>
        <time>2021-10-14T13:47:57Z</time>
      </trkpt>
      <trkpt lat="46.63894" lon="5.42511">
        <ele>219</ele>
        <time>2021-10-14T13:47:59Z</time>
      </trkpt>
      <trkpt lat="46.63888" lon="5.42482">
        <ele>220</ele>
        <time>2021-10-14T13:48:03Z</time>
      </trkpt>
      <trkpt lat="46.63881" lon="5.42463">
        <ele>220</ele>
        <time>2021-10-14T13:48:05Z</time>
      </trkpt>
      <trkpt lat="46.63859" lon="5.4242">
        <ele>221</ele>
        <time>2021-10-14T13:48:12Z</time>
      </trkpt>
      <trkpt lat="46.63815" lon="5.42344">
        <ele>220</ele>
        <time>2021-10-14T13:48:24Z</time>
      </trkpt>
      <trkpt lat="46.63765" lon="5.42294">
        <ele>219</ele>
        <time>2021-10-14T13:48:35Z</time>
      </trkpt>
      <trkpt lat="46.63755" lon="5.42278">
        <ele>219</ele>
        <time>2021-10-14T13:48:38Z</time>
      </trkpt>
      <trkpt lat="46.63751" lon="5.42262">
        <ele>219</ele>
        <time>2021-10-14T13:48:40Z</time>
      </trkpt>
      <trkpt lat="46.63752" lon="5.4224">
        <ele>219</ele>
        <time>2021-10-14T13:48:42Z</time>
      </trkpt>
      <trkpt lat="46.6375" lon="5.42233">
        <ele>219</ele>
        <time>2021-10-14T13:48:43Z</time>
      </trkpt>
      <trkpt lat="46.6374" lon="5.42216">
        <ele>219</ele>
        <time>2021-10-14T13:48:46Z</time>
      </trkpt>
      <trkpt lat="46.6371" lon="5.42189">
        <ele>218</ele>
        <time>2021-10-14T13:48:52Z</time>
      </trkpt>
      <trkpt lat="46.63674" lon="5.42163">
        <ele>219</ele>
        <time>2021-10-14T13:48:59Z</time>
      </trkpt>
      <trkpt lat="46.6366" lon="5.42154">
        <ele>219</ele>
        <time>2021-10-14T13:49:02Z</time>
      </trkpt>
      <trkpt lat="46.63608" lon="5.42133">
        <ele>218</ele>
        <time>2021-10-14T13:49:12Z</time>
      </trkpt>
      <trkpt lat="46.63602" lon="5.42127">
        <ele>218</ele>
        <time>2021-10-14T13:49:13Z</time>
      </trkpt>
      <trkpt lat="46.63597" lon="5.42119">
        <ele>218</ele>
        <time>2021-10-14T13:49:14Z</time>
      </trkpt>
      <trkpt lat="46.63587" lon="5.42085">
        <ele>218</ele>
        <time>2021-10-14T13:49:19Z</time>
      </trkpt>
      <trkpt lat="46.63581" lon="5.42071">
        <ele>218</ele>
        <time>2021-10-14T13:49:21Z</time>
      </trkpt>
      <trkpt lat="46.63573" lon="5.42058">
        <ele>218</ele>
        <time>2021-10-14T13:49:23Z</time>
      </trkpt>
      <trkpt lat="46.6355" lon="5.42036">
        <ele>218</ele>
        <time>2021-10-14T13:49:28Z</time>
      </trkpt>
      <trkpt lat="46.63518" lon="5.42019">
        <ele>218</ele>
        <time>2021-10-14T13:49:34Z</time>
      </trkpt>
      <trkpt lat="46.63498" lon="5.42006">
        <ele>217</ele>
        <time>2021-10-14T13:49:38Z</time>
      </trkpt>
      <trkpt lat="46.63472" lon="5.41982">
        <ele>217</ele>
        <time>2021-10-14T13:49:43Z</time>
      </trkpt>
      <trkpt lat="46.63447" lon="5.41963">
        <ele>217</ele>
        <time>2021-10-14T13:49:48Z</time>
      </trkpt>
      <trkpt lat="46.63433" lon="5.41956">
        <ele>217</ele>
        <time>2021-10-14T13:49:51Z</time>
      </trkpt>
      <trkpt lat="46.63731" lon="5.41005">
        <ele>210</ele>
        <time>2021-10-14T13:51:59Z</time>
      </trkpt>
      <trkpt lat="46.63807" lon="5.40755">
        <ele>209</ele>
        <time>2021-10-14T13:52:32Z</time>
      </trkpt>
      <trkpt lat="46.63832" lon="5.40663">
        <ele>207</ele>
        <time>2021-10-14T13:52:44Z</time>
      </trkpt>
      <trkpt lat="46.63886" lon="5.40518">
        <ele>209</ele>
        <time>2021-10-14T13:53:04Z</time>
      </trkpt>
      <trkpt lat="46.639" lon="5.40471">
        <ele>209</ele>
        <time>2021-10-14T13:53:11Z</time>
      </trkpt>
      <trkpt lat="46.63996" lon="5.40079">
        <ele>219</ele>
        <time>2021-10-14T13:54:01Z</time>
      </trkpt>
      <trkpt lat="46.64049" lon="5.3987">
        <ele>212</ele>
        <time>2021-10-14T13:54:29Z</time>
      </trkpt>
      <trkpt lat="46.64063" lon="5.39815">
        <ele>212</ele>
        <time>2021-10-14T13:54:36Z</time>
      </trkpt>
      <trkpt lat="46.64231" lon="5.39151">
        <ele>207</ele>
        <time>2021-10-14T13:56:02Z</time>
      </trkpt>
      <trkpt lat="46.64263" lon="5.38996">
        <ele>200</ele>
        <time>2021-10-14T13:56:22Z</time>
      </trkpt>
      <trkpt lat="46.64281" lon="5.38938">
        <ele>199</ele>
        <time>2021-10-14T13:56:30Z</time>
      </trkpt>
      <trkpt lat="46.64324" lon="5.38833">
        <ele>199</ele>
        <time>2021-10-14T13:56:45Z</time>
      </trkpt>
      <trkpt lat="46.64347" lon="5.38793">
        <ele>200</ele>
        <time>2021-10-14T13:56:51Z</time>
      </trkpt>
      <trkpt lat="46.64354" lon="5.38775">
        <ele>201</ele>
        <time>2021-10-14T13:56:54Z</time>
      </trkpt>
      <trkpt lat="46.64358" lon="5.38757">
        <ele>202</ele>
        <time>2021-10-14T13:56:56Z</time>
      </trkpt>
      <trkpt lat="46.64356" lon="5.38734">
        <ele>203</ele>
        <time>2021-10-14T13:56:59Z</time>
      </trkpt>
      <trkpt lat="46.64338" lon="5.38647">
        <ele>205</ele>
        <time>2021-10-14T13:57:10Z</time>
      </trkpt>
      <trkpt lat="46.64335" lon="5.38623">
        <ele>206</ele>
        <time>2021-10-14T13:57:13Z</time>
      </trkpt>
      <trkpt lat="46.64326" lon="5.38429">
        <ele>211</ele>
        <time>2021-10-14T13:57:37Z</time>
      </trkpt>
      <trkpt lat="46.64331" lon="5.38347">
        <ele>213</ele>
        <time>2021-10-14T13:57:47Z</time>
      </trkpt>
      <trkpt lat="46.64332" lon="5.38247">
        <ele>212</ele>
        <time>2021-10-14T13:57:59Z</time>
      </trkpt>
      <trkpt lat="46.64312" lon="5.37049">
        <ele>207</ele>
        <time>2021-10-14T14:00:25Z</time>
      </trkpt>
      <trkpt lat="46.64307" lon="5.36556">
        <ele>202</ele>
        <time>2021-10-14T14:01:26Z</time>
      </trkpt>
      <trkpt lat="46.6431" lon="5.36517">
        <ele>201</ele>
        <time>2021-10-14T14:01:30Z</time>
      </trkpt>
      <trkpt lat="46.64399" lon="5.3581">
        <ele>202</ele>
        <time>2021-10-14T14:02:58Z</time>
      </trkpt>
      <trkpt lat="46.64408" lon="5.3577">
        <ele>202</ele>
        <time>2021-10-14T14:03:03Z</time>
      </trkpt>
      <trkpt lat="46.64646" lon="5.35367">
        <ele>191</ele>
        <time>2021-10-14T14:04:08Z</time>
      </trkpt>
      <trkpt lat="46.64645" lon="5.35319">
        <ele>192</ele>
        <time>2021-10-14T14:04:14Z</time>
      </trkpt>
      <trkpt lat="46.6464" lon="5.35256">
        <ele>191</ele>
        <time>2021-10-14T14:04:22Z</time>
      </trkpt>
      <trkpt lat="46.64635" lon="5.35206">
        <ele>192</ele>
        <time>2021-10-14T14:04:28Z</time>
      </trkpt>
      <trkpt lat="46.64618" lon="5.35127">
        <ele>191</ele>
        <time>2021-10-14T14:04:38Z</time>
      </trkpt>
      <trkpt lat="46.64555" lon="5.34862">
        <ele>191</ele>
        <time>2021-10-14T14:05:12Z</time>
      </trkpt>
      <trkpt lat="46.64546" lon="5.34832">
        <ele>192</ele>
        <time>2021-10-14T14:05:16Z</time>
      </trkpt>
      <trkpt lat="46.64515" lon="5.34749">
        <ele>193</ele>
        <time>2021-10-14T14:05:28Z</time>
      </trkpt>
      <trkpt lat="46.644" lon="5.34511">
        <ele>195</ele>
        <time>2021-10-14T14:06:03Z</time>
      </trkpt>
      <trkpt lat="46.64382" lon="5.3447">
        <ele>195</ele>
        <time>2021-10-14T14:06:09Z</time>
      </trkpt>
      <trkpt lat="46.64347" lon="5.34373">
        <ele>195</ele>
        <time>2021-10-14T14:06:23Z</time>
      </trkpt>
      <trkpt lat="46.64336" lon="5.34338">
        <ele>194</ele>
        <time>2021-10-14T14:06:27Z</time>
      </trkpt>
      <trkpt lat="46.64309" lon="5.34232">
        <ele>193</ele>
        <time>2021-10-14T14:06:41Z</time>
      </trkpt>
      <trkpt lat="46.6427" lon="5.34055">
        <ele>190</ele>
        <time>2021-10-14T14:07:04Z</time>
      </trkpt>
      <trkpt lat="46.64256" lon="5.33956">
        <ele>189</ele>
        <time>2021-10-14T14:07:16Z</time>
      </trkpt>
      <trkpt lat="46.64253" lon="5.33917">
        <ele>189</ele>
        <time>2021-10-14T14:07:21Z</time>
      </trkpt>
      <trkpt lat="46.6425" lon="5.33843">
        <ele>188</ele>
        <time>2021-10-14T14:07:30Z</time>
      </trkpt>
      <trkpt lat="46.6425" lon="5.33805">
        <ele>188</ele>
        <time>2021-10-14T14:07:35Z</time>
      </trkpt>
      <trkpt lat="46.64256" lon="5.33705">
        <ele>188</ele>
        <time>2021-10-14T14:07:47Z</time>
      </trkpt>
      <trkpt lat="46.64268" lon="5.33615">
        <ele>188</ele>
        <time>2021-10-14T14:07:58Z</time>
      </trkpt>
      <trkpt lat="46.64297" lon="5.33436">
        <ele>190</ele>
        <time>2021-10-14T14:08:21Z</time>
      </trkpt>
      <trkpt lat="46.64302" lon="5.33391">
        <ele>190</ele>
        <time>2021-10-14T14:08:26Z</time>
      </trkpt>
      <trkpt lat="46.64306" lon="5.33334">
        <ele>189</ele>
        <time>2021-10-14T14:08:33Z</time>
      </trkpt>
      <trkpt lat="46.64307" lon="5.33286">
        <ele>189</ele>
        <time>2021-10-14T14:08:39Z</time>
      </trkpt>
      <trkpt lat="46.64305" lon="5.33245">
        <ele>189</ele>
        <time>2021-10-14T14:08:44Z</time>
      </trkpt>
      <trkpt lat="46.64301" lon="5.33197">
        <ele>189</ele>
        <time>2021-10-14T14:08:50Z</time>
      </trkpt>
      <trkpt lat="46.64293" lon="5.33146">
        <ele>188</ele>
        <time>2021-10-14T14:08:57Z</time>
      </trkpt>
      <trkpt lat="46.64248" lon="5.32947">
        <ele>187</ele>
        <time>2021-10-14T14:09:22Z</time>
      </trkpt>
      <trkpt lat="46.64236" lon="5.32888">
        <ele>187</ele>
        <time>2021-10-14T14:09:30Z</time>
      </trkpt>
      <trkpt lat="46.64228" lon="5.3284">
        <ele>188</ele>
        <time>2021-10-14T14:09:36Z</time>
      </trkpt>
      <trkpt lat="46.64223" lon="5.32796">
        <ele>187</ele>
        <time>2021-10-14T14:09:41Z</time>
      </trkpt>
      <trkpt lat="46.64212" lon="5.32666">
        <ele>189</ele>
        <time>2021-10-14T14:09:57Z</time>
      </trkpt>
      <trkpt lat="46.64189" lon="5.32338">
        <ele>189</ele>
        <time>2021-10-14T14:10:37Z</time>
      </trkpt>
      <trkpt lat="46.6418" lon="5.32267">
        <ele>188</ele>
        <time>2021-10-14T14:10:46Z</time>
      </trkpt>
      <trkpt lat="46.64168" lon="5.32208">
        <ele>188</ele>
        <time>2021-10-14T14:10:54Z</time>
      </trkpt>
      <trkpt lat="46.6415" lon="5.32155">
        <ele>190</ele>
        <time>2021-10-14T14:11:01Z</time>
      </trkpt>
      <trkpt lat="46.64137" lon="5.32121">
        <ele>190</ele>
        <time>2021-10-14T14:11:06Z</time>
      </trkpt>
      <trkpt lat="46.64106" lon="5.3206">
        <ele>190</ele>
        <time>2021-10-14T14:11:15Z</time>
      </trkpt>
      <trkpt lat="46.64085" lon="5.32027">
        <ele>189</ele>
        <time>2021-10-14T14:11:20Z</time>
      </trkpt>
      <trkpt lat="46.64052" lon="5.31985">
        <ele>188</ele>
        <time>2021-10-14T14:11:28Z</time>
      </trkpt>
      <trkpt lat="46.6395" lon="5.31889">
        <ele>187</ele>
        <time>2021-10-14T14:11:50Z</time>
      </trkpt>
      <trkpt lat="46.63909" lon="5.31845">
        <ele>188</ele>
        <time>2021-10-14T14:11:59Z</time>
      </trkpt>
      <trkpt lat="46.63886" lon="5.31812">
        <ele>188</ele>
        <time>2021-10-14T14:12:05Z</time>
      </trkpt>
      <trkpt lat="46.63867" lon="5.31782">
        <ele>188</ele>
        <time>2021-10-14T14:12:10Z</time>
      </trkpt>
      <trkpt lat="46.63849" lon="5.31748">
        <ele>189</ele>
        <time>2021-10-14T14:12:15Z</time>
      </trkpt>
      <trkpt lat="46.63831" lon="5.31711">
        <ele>189</ele>
        <time>2021-10-14T14:12:20Z</time>
      </trkpt>
      <trkpt lat="46.63713" lon="5.31423">
        <ele>188</ele>
        <time>2021-10-14T14:13:01Z</time>
      </trkpt>
      <trkpt lat="46.63686" lon="5.31348">
        <ele>188</ele>
        <time>2021-10-14T14:13:12Z</time>
      </trkpt>
      <trkpt lat="46.63673" lon="5.31302">
        <ele>187</ele>
        <time>2021-10-14T14:13:18Z</time>
      </trkpt>
      <trkpt lat="46.63664" lon="5.31264">
        <ele>186</ele>
        <time>2021-10-14T14:13:23Z</time>
      </trkpt>
      <trkpt lat="46.63658" lon="5.31228">
        <ele>186</ele>
        <time>2021-10-14T14:13:27Z</time>
      </trkpt>
      <trkpt lat="46.63594" lon="5.30753">
        <ele>188</ele>
        <time>2021-10-14T14:14:26Z</time>
      </trkpt>
      <trkpt lat="46.63589" lon="5.30698">
        <ele>188</ele>
        <time>2021-10-14T14:14:33Z</time>
      </trkpt>
      <trkpt lat="46.63588" lon="5.30625">
        <ele>187</ele>
        <time>2021-10-14T14:14:42Z</time>
      </trkpt>
      <trkpt lat="46.63592" lon="5.30544">
        <ele>186</ele>
        <time>2021-10-14T14:14:52Z</time>
      </trkpt>
      <trkpt lat="46.63598" lon="5.30503">
        <ele>187</ele>
        <time>2021-10-14T14:14:57Z</time>
      </trkpt>
      <trkpt lat="46.63609" lon="5.30442">
        <ele>188</ele>
        <time>2021-10-14T14:15:05Z</time>
      </trkpt>
      <trkpt lat="46.63619" lon="5.304">
        <ele>188</ele>
        <time>2021-10-14T14:15:10Z</time>
      </trkpt>
      <trkpt lat="46.63634" lon="5.30356">
        <ele>188</ele>
        <time>2021-10-14T14:15:16Z</time>
      </trkpt>
      <trkpt lat="46.63655" lon="5.30299">
        <ele>188</ele>
        <time>2021-10-14T14:15:24Z</time>
      </trkpt>
      <trkpt lat="46.63674" lon="5.30258">
        <ele>189</ele>
        <time>2021-10-14T14:15:30Z</time>
      </trkpt>
      <trkpt lat="46.63748" lon="5.30124">
        <ele>189</ele>
        <time>2021-10-14T14:15:51Z</time>
      </trkpt>
      <trkpt lat="46.63766" lon="5.30087">
        <ele>188</ele>
        <time>2021-10-14T14:15:57Z</time>
      </trkpt>
      <trkpt lat="46.6378" lon="5.30041">
        <ele>189</ele>
        <time>2021-10-14T14:16:03Z</time>
      </trkpt>
      <trkpt lat="46.63792" lon="5.29994">
        <ele>190</ele>
        <time>2021-10-14T14:16:09Z</time>
      </trkpt>
      <trkpt lat="46.63804" lon="5.29929">
        <ele>191</ele>
        <time>2021-10-14T14:16:17Z</time>
      </trkpt>
      <trkpt lat="46.63808" lon="5.29879">
        <ele>190</ele>
        <time>2021-10-14T14:16:23Z</time>
      </trkpt>
      <trkpt lat="46.63809" lon="5.29834">
        <ele>188</ele>
        <time>2021-10-14T14:16:29Z</time>
      </trkpt>
      <trkpt lat="46.63804" lon="5.29756">
        <ele>186</ele>
        <time>2021-10-14T14:16:39Z</time>
      </trkpt>
      <trkpt lat="46.63781" lon="5.29597">
        <ele>184</ele>
        <time>2021-10-14T14:16:58Z</time>
      </trkpt>
      <trkpt lat="46.63767" lon="5.29533">
        <ele>185</ele>
        <time>2021-10-14T14:17:07Z</time>
      </trkpt>
      <trkpt lat="46.63733" lon="5.29416">
        <ele>187</ele>
        <time>2021-10-14T14:17:22Z</time>
      </trkpt>
      <trkpt lat="46.63721" lon="5.29367">
        <ele>186</ele>
        <time>2021-10-14T14:17:28Z</time>
      </trkpt>
      <trkpt lat="46.63705" lon="5.29288">
        <ele>185</ele>
        <time>2021-10-14T14:17:39Z</time>
      </trkpt>
      <trkpt lat="46.63698" lon="5.29226">
        <ele>185</ele>
        <time>2021-10-14T14:17:46Z</time>
      </trkpt>
      <trkpt lat="46.63696" lon="5.29191">
        <ele>185</ele>
        <time>2021-10-14T14:17:50Z</time>
      </trkpt>
      <trkpt lat="46.63697" lon="5.29104">
        <ele>186</ele>
        <time>2021-10-14T14:18:01Z</time>
      </trkpt>
      <trkpt lat="46.63718" lon="5.28916">
        <ele>193</ele>
        <time>2021-10-14T14:18:24Z</time>
      </trkpt>
      <trkpt lat="46.63721" lon="5.28873">
        <ele>193</ele>
        <time>2021-10-14T14:18:30Z</time>
      </trkpt>
      <trkpt lat="46.63723" lon="5.28823">
        <ele>192</ele>
        <time>2021-10-14T14:18:36Z</time>
      </trkpt>
      <trkpt lat="46.63719" lon="5.28767">
        <ele>191</ele>
        <time>2021-10-14T14:18:43Z</time>
      </trkpt>
      <trkpt lat="46.63713" lon="5.28717">
        <ele>189</ele>
        <time>2021-10-14T14:18:49Z</time>
      </trkpt>
      <trkpt lat="46.63697" lon="5.28647">
        <ele>185</ele>
        <time>2021-10-14T14:18:58Z</time>
      </trkpt>
      <trkpt lat="46.63689" lon="5.28617">
        <ele>185</ele>
        <time>2021-10-14T14:19:02Z</time>
      </trkpt>
      <trkpt lat="46.63678" lon="5.28589">
        <ele>185</ele>
        <time>2021-10-14T14:19:06Z</time>
      </trkpt>
      <trkpt lat="46.63644" lon="5.28513">
        <ele>185</ele>
        <time>2021-10-14T14:19:17Z</time>
      </trkpt>
      <trkpt lat="46.63619" lon="5.28473">
        <ele>185</ele>
        <time>2021-10-14T14:19:23Z</time>
      </trkpt>
      <trkpt lat="46.63564" lon="5.28407">
        <ele>185</ele>
        <time>2021-10-14T14:19:36Z</time>
      </trkpt>
      <trkpt lat="46.6346" lon="5.28302">
        <ele>186</ele>
        <time>2021-10-14T14:19:59Z</time>
      </trkpt>
      <trkpt lat="46.63341" lon="5.28186">
        <ele>185</ele>
        <time>2021-10-14T14:20:24Z</time>
      </trkpt>
      <trkpt lat="46.63328" lon="5.28174">
        <ele>185</ele>
        <time>2021-10-14T14:20:27Z</time>
      </trkpt>
      <trkpt lat="46.63272" lon="5.28122">
        <ele>189</ele>
        <time>2021-10-14T14:20:39Z</time>
      </trkpt>
      <trkpt lat="46.63214" lon="5.28061">
        <ele>192</ele>
        <time>2021-10-14T14:20:51Z</time>
      </trkpt>
      <trkpt lat="46.63187" lon="5.28028">
        <ele>193</ele>
        <time>2021-10-14T14:20:58Z</time>
      </trkpt>
      <trkpt lat="46.63156" lon="5.27983">
        <ele>193</ele>
        <time>2021-10-14T14:21:05Z</time>
      </trkpt>
      <trkpt lat="46.63143" lon="5.2796">
        <ele>193</ele>
        <time>2021-10-14T14:21:09Z</time>
      </trkpt>
      <trkpt lat="46.63089" lon="5.27846">
        <ele>193</ele>
        <time>2021-10-14T14:21:26Z</time>
      </trkpt>
      <trkpt lat="46.6303" lon="5.27646">
        <ele>193</ele>
        <time>2021-10-14T14:21:53Z</time>
      </trkpt>
      <trkpt lat="46.62994" lon="5.2754">
        <ele>192</ele>
        <time>2021-10-14T14:22:07Z</time>
      </trkpt>
      <trkpt lat="46.62978" lon="5.27503">
        <ele>191</ele>
        <time>2021-10-14T14:22:12Z</time>
      </trkpt>
      <trkpt lat="46.62945" lon="5.2744">
        <ele>189</ele>
        <time>2021-10-14T14:22:22Z</time>
      </trkpt>
      <trkpt lat="46.62927" lon="5.27412">
        <ele>188</ele>
        <time>2021-10-14T14:22:27Z</time>
      </trkpt>
      <trkpt lat="46.62897" lon="5.27375">
        <ele>189</ele>
        <time>2021-10-14T14:22:34Z</time>
      </trkpt>
      <trkpt lat="46.62817" lon="5.27267">
        <ele>187</ele>
        <time>2021-10-14T14:22:53Z</time>
      </trkpt>
      <trkpt lat="46.628" lon="5.2724">
        <ele>186</ele>
        <time>2021-10-14T14:22:58Z</time>
      </trkpt>
      <trkpt lat="46.62789" lon="5.27221">
        <ele>185</ele>
        <time>2021-10-14T14:23:01Z</time>
      </trkpt>
      <trkpt lat="46.62641" lon="5.26919">
        <ele>187</ele>
        <time>2021-10-14T14:23:46Z</time>
      </trkpt>
      <trkpt lat="46.62623" lon="5.2688">
        <ele>189</ele>
        <time>2021-10-14T14:23:52Z</time>
      </trkpt>
      <trkpt lat="46.62586" lon="5.26782">
        <ele>189</ele>
        <time>2021-10-14T14:24:05Z</time>
      </trkpt>
      <trkpt lat="46.62578" lon="5.26744">
        <ele>189</ele>
        <time>2021-10-14T14:24:10Z</time>
      </trkpt>
      <trkpt lat="46.62571" lon="5.2669">
        <ele>186</ele>
        <time>2021-10-14T14:24:17Z</time>
      </trkpt>
      <trkpt lat="46.62565" lon="5.2662">
        <ele>185</ele>
        <time>2021-10-14T14:24:26Z</time>
      </trkpt>
      <trkpt lat="46.62566" lon="5.26555">
        <ele>185</ele>
        <time>2021-10-14T14:24:34Z</time>
      </trkpt>
      <trkpt lat="46.62576" lon="5.26472">
        <ele>184</ele>
        <time>2021-10-14T14:24:44Z</time>
      </trkpt>
      <trkpt lat="46.62593" lon="5.26397">
        <ele>185</ele>
        <time>2021-10-14T14:24:54Z</time>
      </trkpt>
      <trkpt lat="46.62606" lon="5.26358">
        <ele>185</ele>
        <time>2021-10-14T14:24:59Z</time>
      </trkpt>
      <trkpt lat="46.62624" lon="5.26312">
        <ele>185</ele>
        <time>2021-10-14T14:25:05Z</time>
      </trkpt>
      <trkpt lat="46.62642" lon="5.26276">
        <ele>186</ele>
        <time>2021-10-14T14:25:11Z</time>
      </trkpt>
      <trkpt lat="46.62663" lon="5.2624">
        <ele>186</ele>
        <time>2021-10-14T14:25:17Z</time>
      </trkpt>
      <trkpt lat="46.62689" lon="5.26203">
        <ele>186</ele>
        <time>2021-10-14T14:25:23Z</time>
      </trkpt>
      <trkpt lat="46.62699" lon="5.26188">
        <ele>185</ele>
        <time>2021-10-14T14:25:26Z</time>
      </trkpt>
      <trkpt lat="46.62726" lon="5.26144">
        <ele>185</ele>
        <time>2021-10-14T14:25:33Z</time>
      </trkpt>
      <trkpt lat="46.62766" lon="5.26068">
        <ele>187</ele>
        <time>2021-10-14T14:25:44Z</time>
      </trkpt>
      <trkpt lat="46.62794" lon="5.25986">
        <ele>191</ele>
        <time>2021-10-14T14:25:56Z</time>
      </trkpt>
      <trkpt lat="46.62812" lon="5.25874">
        <ele>192</ele>
        <time>2021-10-14T14:26:10Z</time>
      </trkpt>
      <trkpt lat="46.62822" lon="5.25764">
        <ele>190</ele>
        <time>2021-10-14T14:26:23Z</time>
      </trkpt>
      <trkpt lat="46.6283" lon="5.25697">
        <ele>191</ele>
        <time>2021-10-14T14:26:32Z</time>
      </trkpt>
      <trkpt lat="46.62834" lon="5.25673">
        <ele>191</ele>
        <time>2021-10-14T14:26:35Z</time>
      </trkpt>
      <trkpt lat="46.62854" lon="5.25607">
        <ele>192</ele>
        <time>2021-10-14T14:26:43Z</time>
      </trkpt>
      <trkpt lat="46.62879" lon="5.25546">
        <ele>191</ele>
        <time>2021-10-14T14:26:52Z</time>
      </trkpt>
      <trkpt lat="46.629" lon="5.25493">
        <ele>189</ele>
        <time>2021-10-14T14:27:00Z</time>
      </trkpt>
      <trkpt lat="46.6293" lon="5.25405">
        <ele>191</ele>
        <time>2021-10-14T14:27:12Z</time>
      </trkpt>
      <trkpt lat="46.62938" lon="5.25372">
        <ele>193</ele>
        <time>2021-10-14T14:27:16Z</time>
      </trkpt>
      <trkpt lat="46.62945" lon="5.25335">
        <ele>194</ele>
        <time>2021-10-14T14:27:21Z</time>
      </trkpt>
      <trkpt lat="46.6295" lon="5.25276">
        <ele>195</ele>
        <time>2021-10-14T14:27:28Z</time>
      </trkpt>
      <trkpt lat="46.62963" lon="5.24956">
        <ele>192</ele>
        <time>2021-10-14T14:28:07Z</time>
      </trkpt>
      <trkpt lat="46.62963" lon="5.24787">
        <ele>198</ele>
        <time>2021-10-14T14:28:28Z</time>
      </trkpt>
      <trkpt lat="46.62961" lon="5.24768">
        <ele>199</ele>
        <time>2021-10-14T14:28:30Z</time>
      </trkpt>
      <trkpt lat="46.62957" lon="5.24765">
        <ele>199</ele>
        <time>2021-10-14T14:28:31Z</time>
      </trkpt>
      <trkpt lat="46.62954" lon="5.24756">
        <ele>199</ele>
        <time>2021-10-14T14:28:32Z</time>
      </trkpt>
      <trkpt lat="46.62954" lon="5.24743">
        <ele>200</ele>
        <time>2021-10-14T14:28:34Z</time>
      </trkpt>
      <trkpt lat="46.62956" lon="5.24736">
        <ele>199</ele>
        <time>2021-10-14T14:28:34Z</time>
      </trkpt>
      <trkpt lat="46.62961" lon="5.24727">
        <ele>199</ele>
        <time>2021-10-14T14:28:36Z</time>
      </trkpt>
      <trkpt lat="46.62972" lon="5.24576">
        <ele>194</ele>
        <time>2021-10-14T14:28:54Z</time>
      </trkpt>
      <trkpt lat="46.62969" lon="5.24527">
        <ele>193</ele>
        <time>2021-10-14T14:29:00Z</time>
      </trkpt>
      <trkpt lat="46.62961" lon="5.24473">
        <ele>193</ele>
        <time>2021-10-14T14:29:07Z</time>
      </trkpt>
      <trkpt lat="46.62949" lon="5.24425">
        <ele>194</ele>
        <time>2021-10-14T14:29:13Z</time>
      </trkpt>
      <trkpt lat="46.62939" lon="5.24389">
        <ele>194</ele>
        <time>2021-10-14T14:29:18Z</time>
      </trkpt>
      <trkpt lat="46.62901" lon="5.24309">
        <ele>195</ele>
        <time>2021-10-14T14:29:30Z</time>
      </trkpt>
      <trkpt lat="46.62861" lon="5.24229">
        <ele>193</ele>
        <time>2021-10-14T14:29:42Z</time>
      </trkpt>
      <trkpt lat="46.62809" lon="5.24133">
        <ele>191</ele>
        <time>2021-10-14T14:29:57Z</time>
      </trkpt>
      <trkpt lat="46.6277" lon="5.24052">
        <ele>190</ele>
        <time>2021-10-14T14:30:09Z</time>
      </trkpt>
      <trkpt lat="46.62762" lon="5.2403">
        <ele>190</ele>
        <time>2021-10-14T14:30:12Z</time>
      </trkpt>
      <trkpt lat="46.62754" lon="5.24023">
        <ele>190</ele>
        <time>2021-10-14T14:30:14Z</time>
      </trkpt>
      <trkpt lat="46.6274" lon="5.23993">
        <ele>190</ele>
        <time>2021-10-14T14:30:18Z</time>
      </trkpt>
      <trkpt lat="46.62731" lon="5.23966">
        <ele>189</ele>
        <time>2021-10-14T14:30:22Z</time>
      </trkpt>
      <trkpt lat="46.62713" lon="5.23915">
        <ele>189</ele>
        <time>2021-10-14T14:30:29Z</time>
      </trkpt>
      <trkpt lat="46.62704" lon="5.23883">
        <ele>188</ele>
        <time>2021-10-14T14:30:33Z</time>
      </trkpt>
      <trkpt lat="46.62693" lon="5.23837">
        <ele>187</ele>
        <time>2021-10-14T14:30:39Z</time>
      </trkpt>
      <trkpt lat="46.62687" lon="5.23778">
        <ele>188</ele>
        <time>2021-10-14T14:30:46Z</time>
      </trkpt>
      <trkpt lat="46.62685" lon="5.23711">
        <ele>189</ele>
        <time>2021-10-14T14:30:55Z</time>
      </trkpt>
      <trkpt lat="46.62687" lon="5.23651">
        <ele>188</ele>
        <time>2021-10-14T14:31:02Z</time>
      </trkpt>
      <trkpt lat="46.62696" lon="5.23587">
        <ele>187</ele>
        <time>2021-10-14T14:31:10Z</time>
      </trkpt>
      <trkpt lat="46.62703" lon="5.23551">
        <ele>187</ele>
        <time>2021-10-14T14:31:15Z</time>
      </trkpt>
      <trkpt lat="46.62728" lon="5.23465">
        <ele>185</ele>
        <time>2021-10-14T14:31:26Z</time>
      </trkpt>
      <trkpt lat="46.62754" lon="5.23406">
        <ele>184</ele>
        <time>2021-10-14T14:31:35Z</time>
      </trkpt>
      <trkpt lat="46.62913" lon="5.23125">
        <ele>183</ele>
        <time>2021-10-14T14:32:19Z</time>
      </trkpt>
      <trkpt lat="46.62951" lon="5.2306">
        <ele>184</ele>
        <time>2021-10-14T14:32:29Z</time>
      </trkpt>
      <trkpt lat="46.62993" lon="5.23012">
        <ele>184</ele>
        <time>2021-10-14T14:32:39Z</time>
      </trkpt>
      <trkpt lat="46.63043" lon="5.22965">
        <ele>184</ele>
        <time>2021-10-14T14:32:50Z</time>
      </trkpt>
      <trkpt lat="46.63021" lon="5.22827">
        <ele>182</ele>
        <time>2021-10-14T14:33:07Z</time>
      </trkpt>
      <trkpt lat="46.63019" lon="5.22801">
        <ele>182</ele>
        <time>2021-10-14T14:33:10Z</time>
      </trkpt>
      <trkpt lat="46.62995" lon="5.22602">
        <ele>180</ele>
        <time>2021-10-14T14:33:35Z</time>
      </trkpt>
      <trkpt lat="46.62971" lon="5.22533">
        <ele>181</ele>
        <time>2021-10-14T14:33:44Z</time>
      </trkpt>
      <trkpt lat="46.62905" lon="5.22561">
        <ele>180</ele>
        <time>2021-10-14T14:33:56Z</time>
      </trkpt>
      <trkpt lat="46.62848" lon="5.22311">
        <ele>184</ele>
        <time>2021-10-14T14:34:29Z</time>
      </trkpt>
      <trkpt lat="46.6284" lon="5.22291">
        <ele>183</ele>
        <time>2021-10-14T14:34:31Z</time>
      </trkpt>
      <trkpt lat="46.6284" lon="5.22278">
        <ele>183</ele>
        <time>2021-10-14T14:34:33Z</time>
      </trkpt>
      <trkpt lat="46.6281" lon="5.22148">
        <ele>181</ele>
        <time>2021-10-14T14:34:50Z</time>
      </trkpt>
      <trkpt lat="46.62815" lon="5.22144">
        <ele>181</ele>
        <time>2021-10-14T14:34:51Z</time>
      </trkpt>
      <trkpt lat="46.62818" lon="5.22138">
        <ele>181</ele>
        <time>2021-10-14T14:34:52Z</time>
      </trkpt>
      <trkpt lat="46.62818" lon="5.22128">
        <ele>181</ele>
        <time>2021-10-14T14:34:53Z</time>
      </trkpt>
      <trkpt lat="46.62812" lon="5.2212">
        <ele>181</ele>
        <time>2021-10-14T14:34:54Z</time>
      </trkpt>
      <trkpt lat="46.62806" lon="5.22118">
        <ele>181</ele>
        <time>2021-10-14T14:34:55Z</time>
      </trkpt>
      <trkpt lat="46.628" lon="5.22124">
        <ele>180</ele>
        <time>2021-10-14T14:34:57Z</time>
      </trkpt>
      <trkpt lat="46.62795" lon="5.22116">
        <ele>180</ele>
        <time>2021-10-14T14:34:58Z</time>
      </trkpt>
      <trkpt lat="46.62791" lon="5.22104">
        <ele>180</ele>
        <time>2021-10-14T14:35:00Z</time>
      </trkpt>
      <trkpt lat="46.62788" lon="5.22083">
        <ele>179</ele>
        <time>2021-10-14T14:35:02Z</time>
      </trkpt>
      <trkpt lat="46.62785" lon="5.22071">
        <ele>179</ele>
        <time>2021-10-14T14:35:04Z</time>
      </trkpt>
      <trkpt lat="46.6278" lon="5.2206">
        <ele>179</ele>
        <time>2021-10-14T14:35:06Z</time>
      </trkpt>
      <trkpt lat="46.62774" lon="5.22038">
        <ele>178</ele>
        <time>2021-10-14T14:35:08Z</time>
      </trkpt>
      <trkpt lat="46.62777" lon="5.22017">
        <ele>178</ele>
        <time>2021-10-14T14:35:11Z</time>
      </trkpt>
      <trkpt lat="46.62783" lon="5.22009">
        <ele>178</ele>
        <time>2021-10-14T14:35:12Z</time>
      </trkpt>
      <trkpt lat="46.62835" lon="5.21972">
        <ele>178</ele>
        <time>2021-10-14T14:35:23Z</time>
      </trkpt>
      <trkpt lat="46.62883" lon="5.21932">
        <ele>178</ele>
        <time>2021-10-14T14:35:33Z</time>
      </trkpt>
      <trkpt lat="46.62902" lon="5.21912">
        <ele>178</ele>
        <time>2021-10-14T14:35:37Z</time>
      </trkpt>
      <trkpt lat="46.62903" lon="5.21903">
        <ele>178</ele>
        <time>2021-10-14T14:35:38Z</time>
      </trkpt>
      <trkpt lat="46.62901" lon="5.21892">
        <ele>177</ele>
        <time>2021-10-14T14:35:39Z</time>
      </trkpt>
      <trkpt lat="46.62868" lon="5.21801">
        <ele>178</ele>
        <time>2021-10-14T14:35:52Z</time>
      </trkpt>
      <trkpt lat="46.62844" lon="5.21752">
        <ele>178</ele>
        <time>2021-10-14T14:35:59Z</time>
      </trkpt>
      <trkpt lat="46.62821" lon="5.21718">
        <ele>179</ele>
        <time>2021-10-14T14:36:05Z</time>
      </trkpt>
      <trkpt lat="46.62788" lon="5.21682">
        <ele>180</ele>
        <time>2021-10-14T14:36:12Z</time>
      </trkpt>
      <trkpt lat="46.62608" lon="5.21531">
        <ele>179</ele>
        <time>2021-10-14T14:36:49Z</time>
      </trkpt>
      <trkpt lat="46.62599" lon="5.21525">
        <ele>179</ele>
        <time>2021-10-14T14:36:51Z</time>
      </trkpt>
      <trkpt lat="46.626" lon="5.21521">
        <ele>179</ele>
        <time>2021-10-14T14:36:52Z</time>
      </trkpt>
      <trkpt lat="46.62599" lon="5.21511">
        <ele>179</ele>
        <time>2021-10-14T14:36:53Z</time>
      </trkpt>
      <trkpt lat="46.62595" lon="5.21505">
        <ele>179</ele>
        <time>2021-10-14T14:36:54Z</time>
      </trkpt>
      <trkpt lat="46.62592" lon="5.21503">
        <ele>179</ele>
        <time>2021-10-14T14:36:54Z</time>
      </trkpt>
      <trkpt lat="46.62596" lon="5.21445">
        <ele>179</ele>
        <time>2021-10-14T14:37:02Z</time>
      </trkpt>
      <trkpt lat="46.62608" lon="5.21087">
        <ele>179</ele>
        <time>2021-10-14T14:37:45Z</time>
      </trkpt>
      <trkpt lat="46.62659" lon="5.1946">
        <ele>185</ele>
        <time>2021-10-14T14:41:04Z</time>
      </trkpt>
      <trkpt lat="46.62644" lon="5.18735">
        <ele>183</ele>
        <time>2021-10-14T14:42:33Z</time>
      </trkpt>
      <trkpt lat="46.62624" lon="5.17906">
        <ele>181</ele>
        <time>2021-10-14T14:44:14Z</time>
      </trkpt>
      <trkpt lat="46.62598" lon="5.16677">
        <ele>194</ele>
        <time>2021-10-14T14:46:45Z</time>
      </trkpt>
      <trkpt lat="46.62599" lon="5.1582">
        <ele>196</ele>
        <time>2021-10-14T14:48:29Z</time>
      </trkpt>
      <trkpt lat="46.62602" lon="5.15292">
        <ele>195</ele>
        <time>2021-10-14T14:49:34Z</time>
      </trkpt>
      <trkpt lat="46.62601" lon="5.15213">
        <ele>195</ele>
        <time>2021-10-14T14:49:44Z</time>
      </trkpt>
      <trkpt lat="46.62597" lon="5.15171">
        <ele>195</ele>
        <time>2021-10-14T14:49:49Z</time>
      </trkpt>
      <trkpt lat="46.62588" lon="5.15124">
        <ele>195</ele>
        <time>2021-10-14T14:49:55Z</time>
      </trkpt>
      <trkpt lat="46.62576" lon="5.15084">
        <ele>195</ele>
        <time>2021-10-14T14:50:00Z</time>
      </trkpt>
      <trkpt lat="46.62518" lon="5.14947">
        <ele>193</ele>
        <time>2021-10-14T14:50:20Z</time>
      </trkpt>
      <trkpt lat="46.61729" lon="5.13095">
        <ele>178</ele>
        <time>2021-10-14T14:54:46Z</time>
      </trkpt>
      <trkpt lat="46.61147" lon="5.11738">
        <ele>184</ele>
        <time>2021-10-14T14:58:02Z</time>
      </trkpt>
      <trkpt lat="46.60998" lon="5.11388">
        <ele>198</ele>
        <time>2021-10-14T14:58:52Z</time>
      </trkpt>
      <trkpt lat="46.60972" lon="5.1132">
        <ele>197</ele>
        <time>2021-10-14T14:59:01Z</time>
      </trkpt>
      <trkpt lat="46.60476" lon="5.09952">
        <ele>194</ele>
        <time>2021-10-14T15:02:10Z</time>
      </trkpt>
      <trkpt lat="46.60463" lon="5.09929">
        <ele>194</ele>
        <time>2021-10-14T15:02:14Z</time>
      </trkpt>
      <trkpt lat="46.60451" lon="5.09915">
        <ele>193</ele>
        <time>2021-10-14T15:02:17Z</time>
      </trkpt>
      <trkpt lat="46.60266" lon="5.097">
        <ele>197</ele>
        <time>2021-10-14T15:02:59Z</time>
      </trkpt>
      <trkpt lat="46.60071" lon="5.09476">
        <ele>196</ele>
        <time>2021-10-14T15:03:43Z</time>
      </trkpt>
      <trkpt lat="46.60076" lon="5.09465">
        <ele>196</ele>
        <time>2021-10-14T15:03:45Z</time>
      </trkpt>
      <trkpt lat="46.60078" lon="5.09456">
        <ele>196</ele>
        <time>2021-10-14T15:03:46Z</time>
      </trkpt>
      <trkpt lat="46.60088" lon="5.09303">
        <ele>194</ele>
        <time>2021-10-14T15:04:05Z</time>
      </trkpt>
      <trkpt lat="46.60088" lon="5.09237">
        <ele>194</ele>
        <time>2021-10-14T15:04:13Z</time>
      </trkpt>
      <trkpt lat="46.60091" lon="5.09213">
        <ele>195</ele>
        <time>2021-10-14T15:04:16Z</time>
      </trkpt>
      <trkpt lat="46.60129" lon="5.08928">
        <ele>195</ele>
        <time>2021-10-14T15:04:51Z</time>
      </trkpt>
      <trkpt lat="46.60126" lon="5.08917">
        <ele>195</ele>
        <time>2021-10-14T15:04:53Z</time>
      </trkpt>
      <trkpt lat="46.60102" lon="5.08877">
        <ele>194</ele>
        <time>2021-10-14T15:04:59Z</time>
      </trkpt>
      <trkpt lat="46.60201" lon="5.08694">
        <ele>187</ele>
        <time>2021-10-14T15:05:28Z</time>
      </trkpt>
      <trkpt lat="46.60234" lon="5.08619">
        <ele>185</ele>
        <time>2021-10-14T15:05:39Z</time>
      </trkpt>
      <trkpt lat="46.60304" lon="5.08489">
        <ele>184</ele>
        <time>2021-10-14T15:05:59Z</time>
      </trkpt>
      <trkpt lat="46.60315" lon="5.08465">
        <ele>184</ele>
        <time>2021-10-14T15:06:02Z</time>
      </trkpt>
      <trkpt lat="46.60332" lon="5.08413">
        <ele>183</ele>
        <time>2021-10-14T15:06:09Z</time>
      </trkpt>
      <trkpt lat="46.60308" lon="5.08399">
        <ele>183</ele>
        <time>2021-10-14T15:06:14Z</time>
      </trkpt>
      <trkpt lat="46.60239" lon="5.08373">
        <ele>183</ele>
        <time>2021-10-14T15:06:27Z</time>
      </trkpt>
      <trkpt lat="46.6018" lon="5.08348">
        <ele>183</ele>
        <time>2021-10-14T15:06:38Z</time>
      </trkpt>
      <trkpt lat="46.60161" lon="5.08338">
        <ele>183</ele>
        <time>2021-10-14T15:06:41Z</time>
      </trkpt>
      <trkpt lat="46.60141" lon="5.0832">
        <ele>183</ele>
        <time>2021-10-14T15:06:45Z</time>
      </trkpt>
      <trkpt lat="46.60106" lon="5.08275">
        <ele>184</ele>
        <time>2021-10-14T15:06:54Z</time>
      </trkpt>
      <trkpt lat="46.60122" lon="5.08241">
        <ele>183</ele>
        <time>2021-10-14T15:06:59Z</time>
      </trkpt>
      <trkpt lat="46.6019" lon="5.08079">
        <ele>180</ele>
        <time>2021-10-14T15:07:22Z</time>
      </trkpt>
      <trkpt lat="46.60253" lon="5.07947">
        <ele>174</ele>
        <time>2021-10-14T15:07:42Z</time>
      </trkpt>
      <trkpt lat="46.60254" lon="5.07934">
        <ele>174</ele>
        <time>2021-10-14T15:07:43Z</time>
      </trkpt>
      <trkpt lat="46.6025" lon="5.07923">
        <ele>174</ele>
        <time>2021-10-14T15:07:45Z</time>
      </trkpt>
      <trkpt lat="46.60219" lon="5.07885">
        <ele>174</ele>
        <time>2021-10-14T15:07:52Z</time>
      </trkpt>
      <trkpt lat="46.60198" lon="5.0785">
        <ele>174</ele>
        <time>2021-10-14T15:07:58Z</time>
      </trkpt>
      <trkpt lat="46.60185" lon="5.07823">
        <ele>174</ele>
        <time>2021-10-14T15:08:02Z</time>
      </trkpt>
      <trkpt lat="46.6017" lon="5.07778">
        <ele>173</ele>
        <time>2021-10-14T15:08:08Z</time>
      </trkpt>
      <trkpt lat="46.60165" lon="5.07752">
        <ele>172</ele>
        <time>2021-10-14T15:08:11Z</time>
      </trkpt>
      <trkpt lat="46.60158" lon="5.07712">
        <ele>173</ele>
        <time>2021-10-14T15:08:16Z</time>
      </trkpt>
      <trkpt lat="46.60124" lon="5.07434">
        <ele>174</ele>
        <time>2021-10-14T15:08:51Z</time>
      </trkpt>
      <trkpt lat="46.60122" lon="5.07416">
        <ele>173</ele>
        <time>2021-10-14T15:08:53Z</time>
      </trkpt>
      <trkpt lat="46.6011" lon="5.07324">
        <ele>173</ele>
        <time>2021-10-14T15:09:04Z</time>
      </trkpt>
      <trkpt lat="46.60105" lon="5.0729">
        <ele>174</ele>
        <time>2021-10-14T15:09:08Z</time>
      </trkpt>
      <trkpt lat="46.60084" lon="5.07108">
        <ele>175</ele>
        <time>2021-10-14T15:09:31Z</time>
      </trkpt>
      <trkpt lat="46.60083" lon="5.07022">
        <ele>175</ele>
        <time>2021-10-14T15:09:42Z</time>
      </trkpt>
      <trkpt lat="46.60085" lon="5.07013">
        <ele>175</ele>
        <time>2021-10-14T15:09:43Z</time>
      </trkpt>
      <trkpt lat="46.60094" lon="5.06992">
        <ele>175</ele>
        <time>2021-10-14T15:09:46Z</time>
      </trkpt>
      <trkpt lat="46.60166" lon="5.06892">
        <ele>174</ele>
        <time>2021-10-14T15:10:03Z</time>
      </trkpt>
      <trkpt lat="46.60176" lon="5.06866">
        <ele>175</ele>
        <time>2021-10-14T15:10:07Z</time>
      </trkpt>
      <trkpt lat="46.60178" lon="5.06854">
        <ele>175</ele>
        <time>2021-10-14T15:10:09Z</time>
      </trkpt>
      <trkpt lat="46.60178" lon="5.06837">
        <ele>175</ele>
        <time>2021-10-14T15:10:11Z</time>
      </trkpt>
      <trkpt lat="46.60172" lon="5.06751">
        <ele>177</ele>
        <time>2021-10-14T15:10:21Z</time>
      </trkpt>
      <trkpt lat="46.6017" lon="5.0672">
        <ele>181</ele>
        <time>2021-10-14T15:10:25Z</time>
      </trkpt>
      <trkpt lat="46.60125" lon="5.06738">
        <ele>179</ele>
        <time>2021-10-14T15:10:33Z</time>
      </trkpt>
      <trkpt lat="46.60042" lon="5.06776">
        <ele>178</ele>
        <time>2021-10-14T15:10:49Z</time>
      </trkpt>
      <trkpt lat="46.60011" lon="5.06785">
        <ele>178</ele>
        <time>2021-10-14T15:10:54Z</time>
      </trkpt>
      <trkpt lat="46.60001" lon="5.06785">
        <ele>178</ele>
        <time>2021-10-14T15:10:56Z</time>
      </trkpt>
      <trkpt lat="46.59962" lon="5.06772">
        <ele>178</ele>
        <time>2021-10-14T15:11:03Z</time>
      </trkpt>
      <trkpt lat="46.59885" lon="5.06757">
        <ele>178</ele>
        <time>2021-10-14T15:11:17Z</time>
      </trkpt>
      <trkpt lat="46.59872" lon="5.06751">
        <ele>178</ele>
        <time>2021-10-14T15:11:20Z</time>
      </trkpt>
      <trkpt lat="46.59861" lon="5.06743">
        <ele>179</ele>
        <time>2021-10-14T15:11:22Z</time>
      </trkpt>
      <trkpt lat="46.59786" lon="5.06669">
        <ele>185</ele>
        <time>2021-10-14T15:11:38Z</time>
      </trkpt>
      <trkpt lat="46.59771" lon="5.06659">
        <ele>184</ele>
        <time>2021-10-14T15:11:41Z</time>
      </trkpt>
      <trkpt lat="46.59705" lon="5.06624">
        <ele>184</ele>
        <time>2021-10-14T15:11:53Z</time>
      </trkpt>
      <trkpt lat="46.59654" lon="5.0658">
        <ele>184</ele>
        <time>2021-10-14T15:12:04Z</time>
      </trkpt>
      <trkpt lat="46.59629" lon="5.06554">
        <ele>185</ele>
        <time>2021-10-14T15:12:09Z</time>
      </trkpt>
      <trkpt lat="46.59614" lon="5.06533">
        <ele>185</ele>
        <time>2021-10-14T15:12:13Z</time>
      </trkpt>
      <trkpt lat="46.59602" lon="5.06511">
        <ele>186</ele>
        <time>2021-10-14T15:12:16Z</time>
      </trkpt>
      <trkpt lat="46.59484" lon="5.06261">
        <ele>185</ele>
        <time>2021-10-14T15:12:54Z</time>
      </trkpt>
      <trkpt lat="46.59423" lon="5.06094">
        <ele>185</ele>
        <time>2021-10-14T15:13:17Z</time>
      </trkpt>
      <trkpt lat="46.59396" lon="5.06005">
        <ele>185</ele>
        <time>2021-10-14T15:13:29Z</time>
      </trkpt>
      <trkpt lat="46.59383" lon="5.05983">
        <ele>185</ele>
        <time>2021-10-14T15:13:32Z</time>
      </trkpt>
      <trkpt lat="46.59338" lon="5.05924">
        <ele>184</ele>
        <time>2021-10-14T15:13:43Z</time>
      </trkpt>
      <trkpt lat="46.59314" lon="5.05886">
        <ele>185</ele>
        <time>2021-10-14T15:13:49Z</time>
      </trkpt>
      <trkpt lat="46.59284" lon="5.05814">
        <ele>189</ele>
        <time>2021-10-14T15:14:00Z</time>
      </trkpt>
      <trkpt lat="46.59244" lon="5.05716">
        <ele>194</ele>
        <time>2021-10-14T15:14:13Z</time>
      </trkpt>
      <trkpt lat="46.59228" lon="5.05661">
        <ele>196</ele>
        <time>2021-10-14T15:14:21Z</time>
      </trkpt>
      <trkpt lat="46.59216" lon="5.05581">
        <ele>198</ele>
        <time>2021-10-14T15:14:31Z</time>
      </trkpt>
      <trkpt lat="46.59177" lon="5.05317">
        <ele>201</ele>
        <time>2021-10-14T15:15:04Z</time>
      </trkpt>
      <trkpt lat="46.5916" lon="5.05187">
        <ele>203</ele>
        <time>2021-10-14T15:15:20Z</time>
      </trkpt>
      <trkpt lat="46.59157" lon="5.05149">
        <ele>203</ele>
        <time>2021-10-14T15:15:25Z</time>
      </trkpt>
      <trkpt lat="46.59158" lon="5.0503">
        <ele>203</ele>
        <time>2021-10-14T15:15:39Z</time>
      </trkpt>
      <trkpt lat="46.59173" lon="5.04611">
        <ele>205</ele>
        <time>2021-10-14T15:16:30Z</time>
      </trkpt>
      <trkpt lat="46.59192" lon="5.04111">
        <ele>201</ele>
        <time>2021-10-14T15:17:32Z</time>
      </trkpt>
      <trkpt lat="46.59191" lon="5.04081">
        <ele>202</ele>
        <time>2021-10-14T15:17:35Z</time>
      </trkpt>
      <trkpt lat="46.59142" lon="5.0382">
        <ele>204</ele>
        <time>2021-10-14T15:18:08Z</time>
      </trkpt>
      <trkpt lat="46.59057" lon="5.03389">
        <ele>208</ele>
        <time>2021-10-14T15:19:03Z</time>
      </trkpt>
      <trkpt lat="46.59049" lon="5.03361">
        <ele>208</ele>
        <time>2021-10-14T15:19:07Z</time>
      </trkpt>
      <trkpt lat="46.5901" lon="5.0326">
        <ele>210</ele>
        <time>2021-10-14T15:19:21Z</time>
      </trkpt>
      <trkpt lat="46.58994" lon="5.03207">
        <ele>211</ele>
        <time>2021-10-14T15:19:28Z</time>
      </trkpt>
      <trkpt lat="46.58983" lon="5.03163">
        <ele>212</ele>
        <time>2021-10-14T15:19:34Z</time>
      </trkpt>
      <trkpt lat="46.58963" lon="5.03058">
        <ele>210</ele>
        <time>2021-10-14T15:19:47Z</time>
      </trkpt>
      <trkpt lat="46.58955" lon="5.03033">
        <ele>210</ele>
        <time>2021-10-14T15:19:51Z</time>
      </trkpt>
      <trkpt lat="46.5895" lon="5.03022">
        <ele>210</ele>
        <time>2021-10-14T15:19:52Z</time>
      </trkpt>
      <trkpt lat="46.58935" lon="5.03003">
        <ele>210</ele>
        <time>2021-10-14T15:19:56Z</time>
      </trkpt>
      <trkpt lat="46.58919" lon="5.02993">
        <ele>210</ele>
        <time>2021-10-14T15:19:59Z</time>
      </trkpt>
      <trkpt lat="46.58899" lon="5.02992">
        <ele>210</ele>
        <time>2021-10-14T15:20:02Z</time>
      </trkpt>
      <trkpt lat="46.58881" lon="5.02999">
        <ele>210</ele>
        <time>2021-10-14T15:20:06Z</time>
      </trkpt>
      <trkpt lat="46.58748" lon="5.03081">
        <ele>211</ele>
        <time>2021-10-14T15:20:31Z</time>
      </trkpt>
      <trkpt lat="46.58702" lon="5.03103">
        <ele>210</ele>
        <time>2021-10-14T15:20:40Z</time>
      </trkpt>
      <trkpt lat="46.58688" lon="5.03107">
        <ele>210</ele>
        <time>2021-10-14T15:20:43Z</time>
      </trkpt>
      <trkpt lat="46.5866" lon="5.03107">
        <ele>210</ele>
        <time>2021-10-14T15:20:48Z</time>
      </trkpt>
      <trkpt lat="46.58644" lon="5.03102">
        <ele>211</ele>
        <time>2021-10-14T15:20:51Z</time>
      </trkpt>
      <trkpt lat="46.58326" lon="5.02909">
        <ele>212</ele>
        <time>2021-10-14T15:21:52Z</time>
      </trkpt>
      <trkpt lat="46.58307" lon="5.02895">
        <ele>212</ele>
        <time>2021-10-14T15:21:56Z</time>
      </trkpt>
      <trkpt lat="46.58291" lon="5.0288">
        <ele>212</ele>
        <time>2021-10-14T15:21:59Z</time>
      </trkpt>
      <trkpt lat="46.58266" lon="5.02846">
        <ele>213</ele>
        <time>2021-10-14T15:22:05Z</time>
      </trkpt>
      <trkpt lat="46.5825" lon="5.02822">
        <ele>213</ele>
        <time>2021-10-14T15:22:09Z</time>
      </trkpt>
      <trkpt lat="46.58232" lon="5.02787">
        <ele>213</ele>
        <time>2021-10-14T15:22:15Z</time>
      </trkpt>
      <trkpt lat="46.58214" lon="5.02743">
        <ele>212</ele>
        <time>2021-10-14T15:22:21Z</time>
      </trkpt>
      <trkpt lat="46.58083" lon="5.02368">
        <ele>203</ele>
        <time>2021-10-14T15:23:12Z</time>
      </trkpt>
      <trkpt lat="46.5777" lon="5.01405">
        <ele>178</ele>
        <time>2021-10-14T15:25:23Z</time>
      </trkpt>
      <trkpt lat="46.57761" lon="5.01366">
        <ele>177</ele>
        <time>2021-10-14T15:25:28Z</time>
      </trkpt>
      <trkpt lat="46.57657" lon="5.00811">
        <ele>176</ele>
        <time>2021-10-14T15:26:38Z</time>
      </trkpt>
      <trkpt lat="46.57649" lon="5.00779">
        <ele>175</ele>
        <time>2021-10-14T15:26:42Z</time>
      </trkpt>
      <trkpt lat="46.57581" lon="5.00589">
        <ele>173</ele>
        <time>2021-10-14T15:27:08Z</time>
      </trkpt>
      <trkpt lat="46.57565" lon="5.00538">
        <ele>173</ele>
        <time>2021-10-14T15:27:15Z</time>
      </trkpt>
      <trkpt lat="46.57509" lon="5.00324">
        <ele>175</ele>
        <time>2021-10-14T15:27:43Z</time>
      </trkpt>
      <trkpt lat="46.57502" lon="5.00303">
        <ele>175</ele>
        <time>2021-10-14T15:27:46Z</time>
      </trkpt>
      <trkpt lat="46.57487" lon="5.00273">
        <ele>176</ele>
        <time>2021-10-14T15:27:51Z</time>
      </trkpt>
      <trkpt lat="46.573" lon="5.00009">
        <ele>175</ele>
        <time>2021-10-14T15:28:37Z</time>
      </trkpt>
      <trkpt lat="46.57287" lon="4.99986">
        <ele>175</ele>
        <time>2021-10-14T15:28:41Z</time>
      </trkpt>
      <trkpt lat="46.57269" lon="4.99939">
        <ele>175</ele>
        <time>2021-10-14T15:28:47Z</time>
      </trkpt>
      <trkpt lat="46.57171" lon="4.99605">
        <ele>186</ele>
        <time>2021-10-14T15:29:32Z</time>
      </trkpt>
      <trkpt lat="46.5714" lon="4.99475">
        <ele>194</ele>
        <time>2021-10-14T15:29:48Z</time>
      </trkpt>
      <trkpt lat="46.57134" lon="4.99443">
        <ele>195</ele>
        <time>2021-10-14T15:29:52Z</time>
      </trkpt>
      <trkpt lat="46.57115" lon="4.99294">
        <ele>198</ele>
        <time>2021-10-14T15:30:11Z</time>
      </trkpt>
      <trkpt lat="46.57113" lon="4.99255">
        <ele>198</ele>
        <time>2021-10-14T15:30:16Z</time>
      </trkpt>
      <trkpt lat="46.57125" lon="4.98924">
        <ele>196</ele>
        <time>2021-10-14T15:30:56Z</time>
      </trkpt>
      <trkpt lat="46.57125" lon="4.98882">
        <ele>195</ele>
        <time>2021-10-14T15:31:01Z</time>
      </trkpt>
      <trkpt lat="46.57121" lon="4.98743">
        <ele>195</ele>
        <time>2021-10-14T15:31:18Z</time>
      </trkpt>
      <trkpt lat="46.57118" lon="4.98714">
        <ele>195</ele>
        <time>2021-10-14T15:31:22Z</time>
      </trkpt>
      <trkpt lat="46.57113" lon="4.98695">
        <ele>195</ele>
        <time>2021-10-14T15:31:25Z</time>
      </trkpt>
      <trkpt lat="46.57083" lon="4.9862">
        <ele>194</ele>
        <time>2021-10-14T15:31:35Z</time>
      </trkpt>
      <trkpt lat="46.57074" lon="4.98588">
        <ele>194</ele>
        <time>2021-10-14T15:31:39Z</time>
      </trkpt>
      <trkpt lat="46.57073" lon="4.98568">
        <ele>194</ele>
        <time>2021-10-14T15:31:42Z</time>
      </trkpt>
      <trkpt lat="46.57078" lon="4.98491">
        <ele>195</ele>
        <time>2021-10-14T15:31:51Z</time>
      </trkpt>
      <trkpt lat="46.57044" lon="4.9804">
        <ele>194</ele>
        <time>2021-10-14T15:32:47Z</time>
      </trkpt>
      <trkpt lat="46.5692" lon="4.96539">
        <ele>195</ele>
        <time>2021-10-14T15:35:52Z</time>
      </trkpt>
      <trkpt lat="46.56918" lon="4.96498">
        <ele>195</ele>
        <time>2021-10-14T15:35:57Z</time>
      </trkpt>
      <trkpt lat="46.56903" lon="4.9599">
        <ele>190</ele>
        <time>2021-10-14T15:36:59Z</time>
      </trkpt>
      <trkpt lat="46.569" lon="4.95969">
        <ele>190</ele>
        <time>2021-10-14T15:37:02Z</time>
      </trkpt>
      <trkpt lat="46.56889" lon="4.95935">
        <ele>190</ele>
        <time>2021-10-14T15:37:06Z</time>
      </trkpt>
      <trkpt lat="46.56834" lon="4.95804">
        <ele>188</ele>
        <time>2021-10-14T15:37:25Z</time>
      </trkpt>
      <trkpt lat="46.56808" lon="4.95747">
        <ele>186</ele>
        <time>2021-10-14T15:37:33Z</time>
      </trkpt>
      <trkpt lat="46.56799" lon="4.95722">
        <ele>185</ele>
        <time>2021-10-14T15:37:37Z</time>
      </trkpt>
      <trkpt lat="46.5679" lon="4.95694">
        <ele>184</ele>
        <time>2021-10-14T15:37:41Z</time>
      </trkpt>
      <trkpt lat="46.56741" lon="4.95514">
        <ele>179</ele>
        <time>2021-10-14T15:38:04Z</time>
      </trkpt>
      <trkpt lat="46.56737" lon="4.95488">
        <ele>180</ele>
        <time>2021-10-14T15:38:07Z</time>
      </trkpt>
      <trkpt lat="46.56739" lon="4.95452">
        <ele>180</ele>
        <time>2021-10-14T15:38:12Z</time>
      </trkpt>
      <trkpt lat="46.56787" lon="4.95183">
        <ele>180</ele>
        <time>2021-10-14T15:38:46Z</time>
      </trkpt>
      <trkpt lat="46.56795" lon="4.9513">
        <ele>180</ele>
        <time>2021-10-14T15:38:53Z</time>
      </trkpt>
      <trkpt lat="46.56836" lon="4.94532">
        <ele>178</ele>
        <time>2021-10-14T15:40:06Z</time>
      </trkpt>
      <trkpt lat="46.56837" lon="4.94469">
        <ele>178</ele>
        <time>2021-10-14T15:40:14Z</time>
      </trkpt>
      <trkpt lat="46.56839" lon="4.94454">
        <ele>177</ele>
        <time>2021-10-14T15:40:16Z</time>
      </trkpt>
      <trkpt lat="46.56841" lon="4.94447">
        <ele>177</ele>
        <time>2021-10-14T15:40:17Z</time>
      </trkpt>
      <trkpt lat="46.56823" lon="4.94422">
        <ele>177</ele>
        <time>2021-10-14T15:40:21Z</time>
      </trkpt>
      <trkpt lat="46.5681" lon="4.94394">
        <ele>177</ele>
        <time>2021-10-14T15:40:25Z</time>
      </trkpt>
      <trkpt lat="46.5655" lon="4.93626">
        <ele>180</ele>
        <time>2021-10-14T15:42:10Z</time>
      </trkpt>
      <trkpt lat="46.5649" lon="4.93454">
        <ele>177</ele>
        <time>2021-10-14T15:42:33Z</time>
      </trkpt>
      <trkpt lat="46.56462" lon="4.93382">
        <ele>176</ele>
        <time>2021-10-14T15:42:44Z</time>
      </trkpt>
      <trkpt lat="46.56437" lon="4.93331">
        <ele>176</ele>
        <time>2021-10-14T15:42:51Z</time>
      </trkpt>
      <trkpt lat="46.56359" lon="4.93196">
        <ele>177</ele>
        <time>2021-10-14T15:43:13Z</time>
      </trkpt>
      <trkpt lat="46.56329" lon="4.93158">
        <ele>178</ele>
        <time>2021-10-14T15:43:20Z</time>
      </trkpt>
      <trkpt lat="46.56166" lon="4.92991">
        <ele>177</ele>
        <time>2021-10-14T15:43:55Z</time>
      </trkpt>
      <trkpt lat="46.5606" lon="4.92904">
        <ele>175</ele>
        <time>2021-10-14T15:44:17Z</time>
      </trkpt>
      <trkpt lat="46.5604" lon="4.92881">
        <ele>176</ele>
        <time>2021-10-14T15:44:22Z</time>
      </trkpt>
      <trkpt lat="46.56046" lon="4.92875">
        <ele>176</ele>
        <time>2021-10-14T15:44:23Z</time>
      </trkpt>
      <trkpt lat="46.56051" lon="4.92867">
        <ele>175</ele>
        <time>2021-10-14T15:44:24Z</time>
      </trkpt>
      <trkpt lat="46.5606" lon="4.92844">
        <ele>174</ele>
        <time>2021-10-14T15:44:27Z</time>
      </trkpt>
      <trkpt lat="46.56074" lon="4.92799">
        <ele>173</ele>
        <time>2021-10-14T15:44:33Z</time>
      </trkpt>
      <trkpt lat="46.56082" lon="4.92772">
        <ele>173</ele>
        <time>2021-10-14T15:44:37Z</time>
      </trkpt>
      <trkpt lat="46.56235" lon="4.92244">
        <ele>171</ele>
        <time>2021-10-14T15:45:47Z</time>
      </trkpt>
      <trkpt lat="46.56237" lon="4.92236">
        <ele>171</ele>
        <time>2021-10-14T15:45:48Z</time>
      </trkpt>
      <trkpt lat="46.56302" lon="4.92013">
        <ele>171</ele>
        <time>2021-10-14T15:46:18Z</time>
      </trkpt>
      <trkpt lat="46.56309" lon="4.91988">
        <ele>172</ele>
        <time>2021-10-14T15:46:21Z</time>
      </trkpt>
      <trkpt lat="46.56353" lon="4.91834">
        <ele>172</ele>
        <time>2021-10-14T15:46:41Z</time>
      </trkpt>
      <trkpt lat="46.56452" lon="4.91495">
        <ele>175</ele>
        <time>2021-10-14T15:47:27Z</time>
      </trkpt>
      <trkpt lat="46.5646" lon="4.91461">
        <ele>174</ele>
        <time>2021-10-14T15:47:31Z</time>
      </trkpt>
      <trkpt lat="46.56462" lon="4.91435">
        <ele>173</ele>
        <time>2021-10-14T15:47:34Z</time>
      </trkpt>
      <trkpt lat="46.56462" lon="4.91421">
        <ele>172</ele>
        <time>2021-10-14T15:47:36Z</time>
      </trkpt>
      <trkpt lat="46.56459" lon="4.91404">
        <ele>172</ele>
        <time>2021-10-14T15:47:38Z</time>
      </trkpt>
      <trkpt lat="46.56402" lon="4.91217">
        <ele>177</ele>
        <time>2021-10-14T15:48:03Z</time>
      </trkpt>
      <trkpt lat="46.56366" lon="4.91103">
        <ele>185</ele>
        <time>2021-10-14T15:48:18Z</time>
      </trkpt>
      <trkpt lat="46.56349" lon="4.91059">
        <ele>185</ele>
        <time>2021-10-14T15:48:25Z</time>
      </trkpt>
      <trkpt lat="46.56336" lon="4.91014">
        <ele>184</ele>
        <time>2021-10-14T15:48:31Z</time>
      </trkpt>
      <trkpt lat="46.56321" lon="4.90964">
        <ele>184</ele>
        <time>2021-10-14T15:48:37Z</time>
      </trkpt>
      <trkpt lat="46.56316" lon="4.90919">
        <ele>185</ele>
        <time>2021-10-14T15:48:43Z</time>
      </trkpt>
      <trkpt lat="46.5634" lon="4.90901">
        <ele>186</ele>
        <time>2021-10-14T15:48:48Z</time>
      </trkpt>
      <trkpt lat="46.56392" lon="4.90868">
        <ele>189</ele>
        <time>2021-10-14T15:48:58Z</time>
      </trkpt>
      <trkpt lat="46.56378" lon="4.90828">
        <ele>188</ele>
        <time>2021-10-14T15:49:03Z</time>
      </trkpt>
      <trkpt lat="46.56448" lon="4.90778">
        <ele>191</ele>
        <time>2021-10-14T15:49:17Z</time>
      </trkpt>
      <trkpt lat="46.56459" lon="4.90774">
        <ele>191</ele>
        <time>2021-10-14T15:49:19Z</time>
      </trkpt>
      <trkpt lat="46.56464" lon="4.90732">
        <ele>192</ele>
        <time>2021-10-14T15:49:24Z</time>
      </trkpt>
      <trkpt lat="46.56478" lon="4.90687">
        <ele>192</ele>
        <time>2021-10-14T15:49:30Z</time>
      </trkpt>
      <trkpt lat="46.56486" lon="4.90663">
        <ele>192</ele>
        <time>2021-10-14T15:49:34Z</time>
      </trkpt>
      <trkpt lat="46.5652" lon="4.9048">
        <ele>194</ele>
        <time>2021-10-14T15:49:57Z</time>
      </trkpt>
      <trkpt lat="46.56545" lon="4.90379">
        <ele>196</ele>
        <time>2021-10-14T15:50:10Z</time>
      </trkpt>
      <trkpt lat="46.56574" lon="4.90272">
        <ele>197</ele>
        <time>2021-10-14T15:50:24Z</time>
      </trkpt>
      <trkpt lat="46.56609" lon="4.90131">
        <ele>199</ele>
        <time>2021-10-14T15:50:42Z</time>
      </trkpt>
      <trkpt lat="46.56602" lon="4.90119">
        <ele>199</ele>
        <time>2021-10-14T15:50:44Z</time>
      </trkpt>
      <trkpt lat="46.56589" lon="4.90103">
        <ele>200</ele>
        <time>2021-10-14T15:50:47Z</time>
      </trkpt>
      <trkpt lat="46.56494" lon="4.89883">
        <ele>199</ele>
        <time>2021-10-14T15:51:19Z</time>
      </trkpt>
      <trkpt lat="46.56468" lon="4.89815">
        <ele>201</ele>
        <time>2021-10-14T15:51:29Z</time>
      </trkpt>
      <trkpt lat="46.56462" lon="4.89792">
        <ele>201</ele>
        <time>2021-10-14T15:51:32Z</time>
      </trkpt>
      <trkpt lat="46.56451" lon="4.89676">
        <ele>205</ele>
        <time>2021-10-14T15:51:46Z</time>
      </trkpt>
      <trkpt lat="46.56454" lon="4.89621">
        <ele>205</ele>
        <time>2021-10-14T15:51:53Z</time>
      </trkpt>
      <trkpt lat="46.56458" lon="4.8957">
        <ele>204</ele>
        <time>2021-10-14T15:51:59Z</time>
      </trkpt>
      <trkpt lat="46.56463" lon="4.89501">
        <ele>203</ele>
        <time>2021-10-14T15:52:07Z</time>
      </trkpt>
      <trkpt lat="46.56463" lon="4.89467">
        <ele>203</ele>
        <time>2021-10-14T15:52:12Z</time>
      </trkpt>
      <trkpt lat="46.56458" lon="4.89435">
        <ele>204</ele>
        <time>2021-10-14T15:52:16Z</time>
      </trkpt>
      <trkpt lat="46.56449" lon="4.89381">
        <ele>204</ele>
        <time>2021-10-14T15:52:22Z</time>
      </trkpt>
      <trkpt lat="46.5644" lon="4.89342">
        <ele>205</ele>
        <time>2021-10-14T15:52:27Z</time>
      </trkpt>
      <trkpt lat="46.56366" lon="4.89077">
        <ele>215</ele>
        <time>2021-10-14T15:53:02Z</time>
      </trkpt>
      <trkpt lat="46.56323" lon="4.8895">
        <ele>219</ele>
        <time>2021-10-14T15:53:20Z</time>
      </trkpt>
      <trkpt lat="46.56277" lon="4.88824">
        <ele>219</ele>
        <time>2021-10-14T15:53:37Z</time>
      </trkpt>
      <trkpt lat="46.56261" lon="4.88732">
        <ele>223</ele>
        <time>2021-10-14T15:53:49Z</time>
      </trkpt>
      <trkpt lat="46.56264" lon="4.88702">
        <ele>222</ele>
        <time>2021-10-14T15:53:52Z</time>
      </trkpt>
      <trkpt lat="46.56278" lon="4.8867">
        <ele>222</ele>
        <time>2021-10-14T15:53:57Z</time>
      </trkpt>
      <trkpt lat="46.56345" lon="4.88558">
        <ele>222</ele>
        <time>2021-10-14T15:54:15Z</time>
      </trkpt>
      <trkpt lat="46.5655" lon="4.88229">
        <ele>230</ele>
        <time>2021-10-14T15:55:10Z</time>
      </trkpt>
      <trkpt lat="46.56557" lon="4.88209">
        <ele>231</ele>
        <time>2021-10-14T15:55:12Z</time>
      </trkpt>
      <trkpt lat="46.5656" lon="4.88188">
        <ele>232</ele>
        <time>2021-10-14T15:55:15Z</time>
      </trkpt>
      <trkpt lat="46.56559" lon="4.88166">
        <ele>234</ele>
        <time>2021-10-14T15:55:18Z</time>
      </trkpt>
      <trkpt lat="46.56554" lon="4.88149">
        <ele>237</ele>
        <time>2021-10-14T15:55:20Z</time>
      </trkpt>
      <trkpt lat="46.56547" lon="4.88133">
        <ele>239</ele>
        <time>2021-10-14T15:55:22Z</time>
      </trkpt>
      <trkpt lat="46.56533" lon="4.88117">
        <ele>242</ele>
        <time>2021-10-14T15:55:25Z</time>
      </trkpt>
      <trkpt lat="46.56523" lon="4.88111">
        <ele>243</ele>
        <time>2021-10-14T15:55:27Z</time>
      </trkpt>
      <trkpt lat="46.56499" lon="4.88102">
        <ele>243</ele>
        <time>2021-10-14T15:55:32Z</time>
      </trkpt>
      <trkpt lat="46.56483" lon="4.88099">
        <ele>243</ele>
        <time>2021-10-14T15:55:35Z</time>
      </trkpt>
      <trkpt lat="46.56461" lon="4.88089">
        <ele>243</ele>
        <time>2021-10-14T15:55:39Z</time>
      </trkpt>
      <trkpt lat="46.56447" lon="4.88079">
        <ele>244</ele>
        <time>2021-10-14T15:55:42Z</time>
      </trkpt>
      <trkpt lat="46.56397" lon="4.8803">
        <ele>251</ele>
        <time>2021-10-14T15:55:52Z</time>
      </trkpt>
      <trkpt lat="46.56378" lon="4.88015">
        <ele>252</ele>
        <time>2021-10-14T15:55:56Z</time>
      </trkpt>
      <trkpt lat="46.56299" lon="4.87982">
        <ele>249</ele>
        <time>2021-10-14T15:56:11Z</time>
      </trkpt>
      <trkpt lat="46.56288" lon="4.87976">
        <ele>249</ele>
        <time>2021-10-14T15:56:13Z</time>
      </trkpt>
      <trkpt lat="46.56242" lon="4.87939">
        <ele>252</ele>
        <time>2021-10-14T15:56:22Z</time>
      </trkpt>
      <trkpt lat="46.56208" lon="4.87918">
        <ele>254</ele>
        <time>2021-10-14T15:56:29Z</time>
      </trkpt>
      <trkpt lat="46.56026" lon="4.87829">
        <ele>261</ele>
        <time>2021-10-14T15:57:03Z</time>
      </trkpt>
      <trkpt lat="46.56007" lon="4.87817">
        <ele>262</ele>
        <time>2021-10-14T15:57:07Z</time>
      </trkpt>
      <trkpt lat="46.5599" lon="4.87803">
        <ele>264</ele>
        <time>2021-10-14T15:57:10Z</time>
      </trkpt>
      <trkpt lat="46.55968" lon="4.87776">
        <ele>266</ele>
        <time>2021-10-14T15:57:15Z</time>
      </trkpt>
      <trkpt lat="46.55959" lon="4.87767">
        <ele>267</ele>
        <time>2021-10-14T15:57:17Z</time>
      </trkpt>
      <trkpt lat="46.55948" lon="4.87763">
        <ele>267</ele>
        <time>2021-10-14T15:57:19Z</time>
      </trkpt>
      <trkpt lat="46.55908" lon="4.87759">
        <ele>266</ele>
        <time>2021-10-14T15:57:26Z</time>
      </trkpt>
      <trkpt lat="46.5587" lon="4.87751">
        <ele>267</ele>
        <time>2021-10-14T15:57:33Z</time>
      </trkpt>
      <trkpt lat="46.55781" lon="4.87685">
        <ele>278</ele>
        <time>2021-10-14T15:57:51Z</time>
      </trkpt>
      <trkpt lat="46.55736" lon="4.87658">
        <ele>282</ele>
        <time>2021-10-14T15:58:00Z</time>
      </trkpt>
      <trkpt lat="46.55692" lon="4.87635">
        <ele>284</ele>
        <time>2021-10-14T15:58:08Z</time>
      </trkpt>
      <trkpt lat="46.55668" lon="4.87627">
        <ele>284</ele>
        <time>2021-10-14T15:58:12Z</time>
      </trkpt>
      <trkpt lat="46.55641" lon="4.87621">
        <ele>285</ele>
        <time>2021-10-14T15:58:17Z</time>
      </trkpt>
      <trkpt lat="46.55623" lon="4.87622">
        <ele>284</ele>
        <time>2021-10-14T15:58:20Z</time>
      </trkpt>
      <trkpt lat="46.55606" lon="4.87625">
        <ele>283</ele>
        <time>2021-10-14T15:58:23Z</time>
      </trkpt>
      <trkpt lat="46.55526" lon="4.8765">
        <ele>279</ele>
        <time>2021-10-14T15:58:38Z</time>
      </trkpt>
      <trkpt lat="46.55504" lon="4.87653">
        <ele>279</ele>
        <time>2021-10-14T15:58:42Z</time>
      </trkpt>
      <trkpt lat="46.55477" lon="4.87652">
        <ele>280</ele>
        <time>2021-10-14T15:58:47Z</time>
      </trkpt>
      <trkpt lat="46.55446" lon="4.87648">
        <ele>282</ele>
        <time>2021-10-14T15:58:52Z</time>
      </trkpt>
      <trkpt lat="46.55376" lon="4.87628">
        <ele>285</ele>
        <time>2021-10-14T15:59:05Z</time>
      </trkpt>
      <trkpt lat="46.55264" lon="4.87585">
        <ele>289</ele>
        <time>2021-10-14T15:59:25Z</time>
      </trkpt>
      <trkpt lat="46.55216" lon="4.87562">
        <ele>291</ele>
        <time>2021-10-14T15:59:34Z</time>
      </trkpt>
      <trkpt lat="46.55112" lon="4.87498">
        <ele>297</ele>
        <time>2021-10-14T15:59:55Z</time>
      </trkpt>
      <trkpt lat="46.55087" lon="4.87478">
        <ele>298</ele>
        <time>2021-10-14T16:00:00Z</time>
      </trkpt>
      <trkpt lat="46.55066" lon="4.87454">
        <ele>300</ele>
        <time>2021-10-14T16:00:04Z</time>
      </trkpt>
      <trkpt lat="46.55032" lon="4.87406">
        <ele>302</ele>
        <time>2021-10-14T16:00:13Z</time>
      </trkpt>
      <trkpt lat="46.54985" lon="4.87312">
        <ele>306</ele>
        <time>2021-10-14T16:00:27Z</time>
      </trkpt>
      <trkpt lat="46.54974" lon="4.87285">
        <ele>308</ele>
        <time>2021-10-14T16:00:31Z</time>
      </trkpt>
      <trkpt lat="46.54971" lon="4.87262">
        <ele>309</ele>
        <time>2021-10-14T16:00:34Z</time>
      </trkpt>
      <trkpt lat="46.54943" lon="4.87259">
        <ele>312</ele>
        <time>2021-10-14T16:00:39Z</time>
      </trkpt>
      <trkpt lat="46.54933" lon="4.87264">
        <ele>313</ele>
        <time>2021-10-14T16:00:41Z</time>
      </trkpt>
      <trkpt lat="46.54926" lon="4.87275">
        <ele>313</ele>
        <time>2021-10-14T16:00:42Z</time>
      </trkpt>
      <trkpt lat="46.54885" lon="4.87381">
        <ele>314</ele>
        <time>2021-10-14T16:00:57Z</time>
      </trkpt>
      <trkpt lat="46.54877" lon="4.87397">
        <ele>314</ele>
        <time>2021-10-14T16:01:00Z</time>
      </trkpt>
      <trkpt lat="46.54859" lon="4.87413">
        <ele>315</ele>
        <time>2021-10-14T16:01:04Z</time>
      </trkpt>
      <trkpt lat="46.54847" lon="4.87414">
        <ele>316</ele>
        <time>2021-10-14T16:01:06Z</time>
      </trkpt>
      <trkpt lat="46.54813" lon="4.87405">
        <ele>318</ele>
        <time>2021-10-14T16:01:12Z</time>
      </trkpt>
      <trkpt lat="46.54733" lon="4.87378">
        <ele>321</ele>
        <time>2021-10-14T16:01:26Z</time>
      </trkpt>
      <trkpt lat="46.54534" lon="4.87318">
        <ele>320</ele>
        <time>2021-10-14T16:02:03Z</time>
      </trkpt>
      <trkpt lat="46.54451" lon="4.87296">
        <ele>317</ele>
        <time>2021-10-14T16:02:18Z</time>
      </trkpt>
      <trkpt lat="46.54433" lon="4.87295">
        <ele>316</ele>
        <time>2021-10-14T16:02:21Z</time>
      </trkpt>
      <trkpt lat="46.54386" lon="4.873">
        <ele>313</ele>
        <time>2021-10-14T16:02:29Z</time>
      </trkpt>
      <trkpt lat="46.54355" lon="4.87294">
        <ele>313</ele>
        <time>2021-10-14T16:02:35Z</time>
      </trkpt>
      <trkpt lat="46.54318" lon="4.87274">
        <ele>314</ele>
        <time>2021-10-14T16:02:42Z</time>
      </trkpt>
      <trkpt lat="46.54304" lon="4.8727">
        <ele>314</ele>
        <time>2021-10-14T16:02:44Z</time>
      </trkpt>
      <trkpt lat="46.54253" lon="4.87274">
        <ele>311</ele>
        <time>2021-10-14T16:02:53Z</time>
      </trkpt>
      <trkpt lat="46.54237" lon="4.8727">
        <ele>311</ele>
        <time>2021-10-14T16:02:56Z</time>
      </trkpt>
      <trkpt lat="46.53976" lon="4.87178">
        <ele>300</ele>
        <time>2021-10-14T16:03:44Z</time>
      </trkpt>
      <trkpt lat="46.53945" lon="4.8718">
        <ele>299</ele>
        <time>2021-10-14T16:03:50Z</time>
      </trkpt>
      <trkpt lat="46.53874" lon="4.87193">
        <ele>295</ele>
        <time>2021-10-14T16:04:02Z</time>
      </trkpt>
      <trkpt lat="46.53851" lon="4.87193">
        <ele>294</ele>
        <time>2021-10-14T16:04:06Z</time>
      </trkpt>
      <trkpt lat="46.53755" lon="4.87185">
        <ele>288</ele>
        <time>2021-10-14T16:04:24Z</time>
      </trkpt>
      <trkpt lat="46.53501" lon="4.872">
        <ele>276</ele>
        <time>2021-10-14T16:05:09Z</time>
      </trkpt>
      <trkpt lat="46.53364" lon="4.87202">
        <ele>272</ele>
        <time>2021-10-14T16:05:33Z</time>
      </trkpt>
      <trkpt lat="46.53324" lon="4.87195">
        <ele>272</ele>
        <time>2021-10-14T16:05:40Z</time>
      </trkpt>
      <trkpt lat="46.53283" lon="4.87183">
        <ele>271</ele>
        <time>2021-10-14T16:05:48Z</time>
      </trkpt>
      <trkpt lat="46.53157" lon="4.8716">
        <ele>269</ele>
        <time>2021-10-14T16:06:10Z</time>
      </trkpt>
      <trkpt lat="46.53149" lon="4.87165">
        <ele>269</ele>
        <time>2021-10-14T16:06:12Z</time>
      </trkpt>
      <trkpt lat="46.53126" lon="4.87187">
        <ele>270</ele>
        <time>2021-10-14T16:06:17Z</time>
      </trkpt>
      <trkpt lat="46.53104" lon="4.87178">
        <ele>270</ele>
        <time>2021-10-14T16:06:21Z</time>
      </trkpt>
      <trkpt lat="46.53096" lon="4.87168">
        <ele>271</ele>
        <time>2021-10-14T16:06:23Z</time>
      </trkpt>
      <trkpt lat="46.53065" lon="4.87151">
        <ele>271</ele>
        <time>2021-10-14T16:06:29Z</time>
      </trkpt>
      <trkpt lat="46.53043" lon="4.87145">
        <ele>270</ele>
        <time>2021-10-14T16:06:33Z</time>
      </trkpt>
      <trkpt lat="46.53022" lon="4.87144">
        <ele>270</ele>
        <time>2021-10-14T16:06:36Z</time>
      </trkpt>
      <trkpt lat="46.5301" lon="4.87147">
        <ele>270</ele>
        <time>2021-10-14T16:06:39Z</time>
      </trkpt>
      <trkpt lat="46.52988" lon="4.87148">
        <ele>269</ele>
        <time>2021-10-14T16:06:42Z</time>
      </trkpt>
      <trkpt lat="46.5298" lon="4.8715">
        <ele>269</ele>
        <time>2021-10-14T16:06:44Z</time>
      </trkpt>
      <trkpt lat="46.52954" lon="4.87164">
        <ele>266</ele>
        <time>2021-10-14T16:06:49Z</time>
      </trkpt>
      <trkpt lat="46.52928" lon="4.87171">
        <ele>263</ele>
        <time>2021-10-14T16:06:54Z</time>
      </trkpt>
      <trkpt lat="46.52919" lon="4.87178">
        <ele>262</ele>
        <time>2021-10-14T16:06:55Z</time>
      </trkpt>
      <trkpt lat="46.5291" lon="4.87193">
        <ele>261</ele>
        <time>2021-10-14T16:06:58Z</time>
      </trkpt>
      <trkpt lat="46.5289" lon="4.87241">
        <ele>258</ele>
        <time>2021-10-14T16:07:05Z</time>
      </trkpt>
      <trkpt lat="46.52844" lon="4.87327">
        <ele>254</ele>
        <time>2021-10-14T16:07:18Z</time>
      </trkpt>
      <trkpt lat="46.52828" lon="4.87351">
        <ele>253</ele>
        <time>2021-10-14T16:07:22Z</time>
      </trkpt>
      <trkpt lat="46.5277" lon="4.87412">
        <ele>250</ele>
        <time>2021-10-14T16:07:35Z</time>
      </trkpt>
      <trkpt lat="46.52741" lon="4.87438">
        <ele>249</ele>
        <time>2021-10-14T16:07:41Z</time>
      </trkpt>
      <trkpt lat="46.52739" lon="4.87432">
        <ele>249</ele>
        <time>2021-10-14T16:07:42Z</time>
      </trkpt>
      <trkpt lat="46.52731" lon="4.87423">
        <ele>249</ele>
        <time>2021-10-14T16:07:43Z</time>
      </trkpt>
      <trkpt lat="46.52682" lon="4.87394">
        <ele>250</ele>
        <time>2021-10-14T16:07:53Z</time>
      </trkpt>
      <trkpt lat="46.52673" lon="4.87383">
        <ele>250</ele>
        <time>2021-10-14T16:07:55Z</time>
      </trkpt>
      <trkpt lat="46.52655" lon="4.87353">
        <ele>251</ele>
        <time>2021-10-14T16:08:00Z</time>
      </trkpt>
      <trkpt lat="46.52551" lon="4.87206">
        <ele>257</ele>
        <time>2021-10-14T16:08:26Z</time>
      </trkpt>
      <trkpt lat="46.52534" lon="4.87187">
        <ele>258</ele>
        <time>2021-10-14T16:08:29Z</time>
      </trkpt>
      <trkpt lat="46.52518" lon="4.87175">
        <ele>258</ele>
        <time>2021-10-14T16:08:33Z</time>
      </trkpt>
      <trkpt lat="46.5245" lon="4.87138">
        <ele>261</ele>
        <time>2021-10-14T16:08:46Z</time>
      </trkpt>
      <trkpt lat="46.52432" lon="4.87126">
        <ele>262</ele>
        <time>2021-10-14T16:08:49Z</time>
      </trkpt>
      <trkpt lat="46.52379" lon="4.87081">
        <ele>265</ele>
        <time>2021-10-14T16:09:00Z</time>
      </trkpt>
      <trkpt lat="46.52368" lon="4.87075">
        <ele>265</ele>
        <time>2021-10-14T16:09:02Z</time>
      </trkpt>
      <trkpt lat="46.52358" lon="4.8707">
        <ele>265</ele>
        <time>2021-10-14T16:09:04Z</time>
      </trkpt>
      <trkpt lat="46.52303" lon="4.8707">
        <ele>268</ele>
        <time>2021-10-14T16:09:14Z</time>
      </trkpt>
      <trkpt lat="46.52266" lon="4.87063">
        <ele>270</ele>
        <time>2021-10-14T16:09:20Z</time>
      </trkpt>
      <trkpt lat="46.52181" lon="4.8703">
        <ele>278</ele>
        <time>2021-10-14T16:09:36Z</time>
      </trkpt>
      <trkpt lat="46.52039" lon="4.86988">
        <ele>284</ele>
        <time>2021-10-14T16:10:02Z</time>
      </trkpt>
      <trkpt lat="46.52021" lon="4.86981">
        <ele>285</ele>
        <time>2021-10-14T16:10:05Z</time>
      </trkpt>
      <trkpt lat="46.51948" lon="4.86939">
        <ele>288</ele>
        <time>2021-10-14T16:10:19Z</time>
      </trkpt>
      <trkpt lat="46.51915" lon="4.86916">
        <ele>289</ele>
        <time>2021-10-14T16:10:26Z</time>
      </trkpt>
      <trkpt lat="46.51892" lon="4.86896">
        <ele>290</ele>
        <time>2021-10-14T16:10:30Z</time>
      </trkpt>
      <trkpt lat="46.51848" lon="4.86873">
        <ele>292</ele>
        <time>2021-10-14T16:10:39Z</time>
      </trkpt>
      <trkpt lat="46.51718" lon="4.8681">
        <ele>284</ele>
        <time>2021-10-14T16:11:03Z</time>
      </trkpt>
      <trkpt lat="46.51705" lon="4.86807">
        <ele>283</ele>
        <time>2021-10-14T16:11:05Z</time>
      </trkpt>
      <trkpt lat="46.51691" lon="4.86807">
        <ele>283</ele>
        <time>2021-10-14T16:11:08Z</time>
      </trkpt>
      <trkpt lat="46.51605" lon="4.86821">
        <ele>276</ele>
        <time>2021-10-14T16:11:23Z</time>
      </trkpt>
      <trkpt lat="46.51585" lon="4.86822">
        <ele>275</ele>
        <time>2021-10-14T16:11:27Z</time>
      </trkpt>
      <trkpt lat="46.5157" lon="4.8682">
        <ele>274</ele>
        <time>2021-10-14T16:11:30Z</time>
      </trkpt>
      <trkpt lat="46.51551" lon="4.86815">
        <ele>273</ele>
        <time>2021-10-14T16:11:33Z</time>
      </trkpt>
      <trkpt lat="46.51525" lon="4.86804">
        <ele>271</ele>
        <time>2021-10-14T16:11:38Z</time>
      </trkpt>
      <trkpt lat="46.51398" lon="4.86744">
        <ele>263</ele>
        <time>2021-10-14T16:12:02Z</time>
      </trkpt>
      <trkpt lat="46.51373" lon="4.86726">
        <ele>261</ele>
        <time>2021-10-14T16:12:07Z</time>
      </trkpt>
      <trkpt lat="46.51351" lon="4.86706">
        <ele>260</ele>
        <time>2021-10-14T16:12:11Z</time>
      </trkpt>
      <trkpt lat="46.51211" lon="4.86563">
        <ele>253</ele>
        <time>2021-10-14T16:12:42Z</time>
      </trkpt>
      <trkpt lat="46.51184" lon="4.86542">
        <ele>251</ele>
        <time>2021-10-14T16:12:47Z</time>
      </trkpt>
      <trkpt lat="46.51164" lon="4.86531">
        <ele>250</ele>
        <time>2021-10-14T16:12:51Z</time>
      </trkpt>
      <trkpt lat="46.51141" lon="4.86522">
        <ele>248</ele>
        <time>2021-10-14T16:12:55Z</time>
      </trkpt>
      <trkpt lat="46.51019" lon="4.86482">
        <ele>240</ele>
        <time>2021-10-14T16:13:17Z</time>
      </trkpt>
      <trkpt lat="46.51009" lon="4.86474">
        <ele>239</ele>
        <time>2021-10-14T16:13:19Z</time>
      </trkpt>
      <trkpt lat="46.51" lon="4.86463">
        <ele>238</ele>
        <time>2021-10-14T16:13:22Z</time>
      </trkpt>
      <trkpt lat="46.50994" lon="4.86447">
        <ele>237</ele>
        <time>2021-10-14T16:13:24Z</time>
      </trkpt>
      <trkpt lat="46.5099" lon="4.86428">
        <ele>237</ele>
        <time>2021-10-14T16:13:26Z</time>
      </trkpt>
      <trkpt lat="46.50981" lon="4.86275">
        <ele>235</ele>
        <time>2021-10-14T16:13:45Z</time>
      </trkpt>
      <trkpt lat="46.50982" lon="4.86245">
        <ele>234</ele>
        <time>2021-10-14T16:13:49Z</time>
      </trkpt>
      <trkpt lat="46.50991" lon="4.8622">
        <ele>235</ele>
        <time>2021-10-14T16:13:52Z</time>
      </trkpt>
      <trkpt lat="46.51002" lon="4.86176">
        <ele>236</ele>
        <time>2021-10-14T16:13:58Z</time>
      </trkpt>
      <trkpt lat="46.51005" lon="4.86154">
        <ele>237</ele>
        <time>2021-10-14T16:14:01Z</time>
      </trkpt>
      <trkpt lat="46.51004" lon="4.86146">
        <ele>237</ele>
        <time>2021-10-14T16:14:02Z</time>
      </trkpt>
      <trkpt lat="46.50989" lon="4.86103">
        <ele>239</ele>
        <time>2021-10-14T16:14:08Z</time>
      </trkpt>
      <trkpt lat="46.50988" lon="4.8609">
        <ele>240</ele>
        <time>2021-10-14T16:14:09Z</time>
      </trkpt>
      <trkpt lat="46.50998" lon="4.85819">
        <ele>245</ele>
        <time>2021-10-14T16:14:42Z</time>
      </trkpt>
      <trkpt lat="46.51002" lon="4.85675">
        <ele>249</ele>
        <time>2021-10-14T16:15:00Z</time>
      </trkpt>
      <trkpt lat="46.50999" lon="4.85646">
        <ele>251</ele>
        <time>2021-10-14T16:15:04Z</time>
      </trkpt>
      <trkpt lat="46.50994" lon="4.85625">
        <ele>253</ele>
        <time>2021-10-14T16:15:06Z</time>
      </trkpt>
      <trkpt lat="46.5088" lon="4.85396">
        <ele>268</ele>
        <time>2021-10-14T16:15:41Z</time>
      </trkpt>
      <trkpt lat="46.50845" lon="4.85333">
        <ele>265</ele>
        <time>2021-10-14T16:15:51Z</time>
      </trkpt>
      <trkpt lat="46.50829" lon="4.85311">
        <ele>264</ele>
        <time>2021-10-14T16:15:55Z</time>
      </trkpt>
      <trkpt lat="46.50817" lon="4.85302">
        <ele>263</ele>
        <time>2021-10-14T16:15:57Z</time>
      </trkpt>
      <trkpt lat="46.50791" lon="4.85288">
        <ele>262</ele>
        <time>2021-10-14T16:16:02Z</time>
      </trkpt>
      <trkpt lat="46.50614" lon="4.85232">
        <ele>254</ele>
        <time>2021-10-14T16:16:34Z</time>
      </trkpt>
      <trkpt lat="46.50564" lon="4.85212">
        <ele>252</ele>
        <time>2021-10-14T16:16:44Z</time>
      </trkpt>
      <trkpt lat="46.50547" lon="4.85201">
        <ele>252</ele>
        <time>2021-10-14T16:16:47Z</time>
      </trkpt>
      <trkpt lat="46.50402" lon="4.85083">
        <ele>245</ele>
        <time>2021-10-14T16:17:16Z</time>
      </trkpt>
      <trkpt lat="46.50375" lon="4.85059">
        <ele>245</ele>
        <time>2021-10-14T16:17:22Z</time>
      </trkpt>
      <trkpt lat="46.50359" lon="4.85038">
        <ele>243</ele>
        <time>2021-10-14T16:17:26Z</time>
      </trkpt>
      <trkpt lat="46.50347" lon="4.85007">
        <ele>241</ele>
        <time>2021-10-14T16:17:30Z</time>
      </trkpt>
      <trkpt lat="46.50341" lon="4.84978">
        <ele>239</ele>
        <time>2021-10-14T16:17:34Z</time>
      </trkpt>
      <trkpt lat="46.50337" lon="4.84946">
        <ele>239</ele>
        <time>2021-10-14T16:17:38Z</time>
      </trkpt>
      <trkpt lat="46.50322" lon="4.84771">
        <ele>242</ele>
        <time>2021-10-14T16:18:00Z</time>
      </trkpt>
      <trkpt lat="46.50302" lon="4.84567">
        <ele>256</ele>
        <time>2021-10-14T16:18:25Z</time>
      </trkpt>
      <trkpt lat="46.50289" lon="4.84395">
        <ele>264</ele>
        <time>2021-10-14T16:18:46Z</time>
      </trkpt>
      <trkpt lat="46.50291" lon="4.84366">
        <ele>264</ele>
        <time>2021-10-14T16:18:50Z</time>
      </trkpt>
      <trkpt lat="46.50295" lon="4.84339">
        <ele>265</ele>
        <time>2021-10-14T16:18:53Z</time>
      </trkpt>
      <trkpt lat="46.50391" lon="4.83929">
        <ele>279</ele>
        <time>2021-10-14T16:19:46Z</time>
      </trkpt>
      <trkpt lat="46.50397" lon="4.83892">
        <ele>281</ele>
        <time>2021-10-14T16:19:51Z</time>
      </trkpt>
      <trkpt lat="46.504" lon="4.8386">
        <ele>283</ele>
        <time>2021-10-14T16:19:55Z</time>
      </trkpt>
      <trkpt lat="46.50401" lon="4.83827">
        <ele>284</ele>
        <time>2021-10-14T16:19:59Z</time>
      </trkpt>
      <trkpt lat="46.50399" lon="4.83795">
        <ele>285</ele>
        <time>2021-10-14T16:20:03Z</time>
      </trkpt>
      <trkpt lat="46.50396" lon="4.83766">
        <ele>286</ele>
        <time>2021-10-14T16:20:06Z</time>
      </trkpt>
      <trkpt lat="46.50364" lon="4.83614">
        <ele>288</ele>
        <time>2021-10-14T16:20:26Z</time>
      </trkpt>
      <trkpt lat="46.50354" lon="4.83549">
        <ele>288</ele>
        <time>2021-10-14T16:20:34Z</time>
      </trkpt>
      <trkpt lat="46.50347" lon="4.83521">
        <ele>288</ele>
        <time>2021-10-14T16:20:37Z</time>
      </trkpt>
      <trkpt lat="46.5034" lon="4.83498">
        <ele>288</ele>
        <time>2021-10-14T16:20:41Z</time>
      </trkpt>
      <trkpt lat="46.50327" lon="4.83473">
        <ele>288</ele>
        <time>2021-10-14T16:20:44Z</time>
      </trkpt>
      <trkpt lat="46.50252" lon="4.83349">
        <ele>283</ele>
        <time>2021-10-14T16:21:05Z</time>
      </trkpt>
      <trkpt lat="46.50237" lon="4.83327">
        <ele>282</ele>
        <time>2021-10-14T16:21:08Z</time>
      </trkpt>
      <trkpt lat="46.50209" lon="4.83298">
        <ele>280</ele>
        <time>2021-10-14T16:21:14Z</time>
      </trkpt>
      <trkpt lat="46.50136" lon="4.83253">
        <ele>277</ele>
        <time>2021-10-14T16:21:29Z</time>
      </trkpt>
      <trkpt lat="46.50067" lon="4.83213">
        <ele>273</ele>
        <time>2021-10-14T16:21:42Z</time>
      </trkpt>
      <trkpt lat="46.49878" lon="4.83117">
        <ele>266</ele>
        <time>2021-10-14T16:22:17Z</time>
      </trkpt>
      <trkpt lat="46.49832" lon="4.83084">
        <ele>263</ele>
        <time>2021-10-14T16:22:27Z</time>
      </trkpt>
      <trkpt lat="46.49435" lon="4.82756">
        <ele>243</ele>
        <time>2021-10-14T16:23:48Z</time>
      </trkpt>
      <trkpt lat="46.493" lon="4.82618">
        <ele>239</ele>
        <time>2021-10-14T16:24:17Z</time>
      </trkpt>
      <trkpt lat="46.49183" lon="4.82504">
        <ele>237</ele>
        <time>2021-10-14T16:24:42Z</time>
      </trkpt>
      <trkpt lat="46.49078" lon="4.82403">
        <ele>238</ele>
        <time>2021-10-14T16:25:05Z</time>
      </trkpt>
      <trkpt lat="46.4906" lon="4.82389">
        <ele>238</ele>
        <time>2021-10-14T16:25:08Z</time>
      </trkpt>
      <trkpt lat="46.49021" lon="4.82369">
        <ele>238</ele>
        <time>2021-10-14T16:25:16Z</time>
      </trkpt>
      <trkpt lat="46.48939" lon="4.82332">
        <ele>239</ele>
        <time>2021-10-14T16:25:31Z</time>
      </trkpt>
      <trkpt lat="46.48761" lon="4.82246">
        <ele>246</ele>
        <time>2021-10-14T16:26:04Z</time>
      </trkpt>
      <trkpt lat="46.48717" lon="4.82221">
        <ele>247</ele>
        <time>2021-10-14T16:26:13Z</time>
      </trkpt>
      <trkpt lat="46.48448" lon="4.82047">
        <ele>242</ele>
        <time>2021-10-14T16:27:05Z</time>
      </trkpt>
      <trkpt lat="46.48383" lon="4.82015">
        <ele>240</ele>
        <time>2021-10-14T16:27:17Z</time>
      </trkpt>
      <trkpt lat="46.48348" lon="4.81994">
        <ele>239</ele>
        <time>2021-10-14T16:27:24Z</time>
      </trkpt>
      <trkpt lat="46.4826" lon="4.81934">
        <ele>237</ele>
        <time>2021-10-14T16:27:41Z</time>
      </trkpt>
      <trkpt lat="46.48237" lon="4.81913">
        <ele>237</ele>
        <time>2021-10-14T16:27:46Z</time>
      </trkpt>
      <trkpt lat="46.48213" lon="4.81888">
        <ele>237</ele>
        <time>2021-10-14T16:27:51Z</time>
      </trkpt>
      <trkpt lat="46.48183" lon="4.81837">
        <ele>235</ele>
        <time>2021-10-14T16:28:00Z</time>
      </trkpt>
      <trkpt lat="46.48158" lon="4.81801">
        <ele>235</ele>
        <time>2021-10-14T16:28:06Z</time>
      </trkpt>
      <trkpt lat="46.48096" lon="4.81737">
        <ele>233</ele>
        <time>2021-10-14T16:28:19Z</time>
      </trkpt>
      <trkpt lat="46.48067" lon="4.81698">
        <ele>232</ele>
        <time>2021-10-14T16:28:26Z</time>
      </trkpt>
      <trkpt lat="46.48034" lon="4.81601">
        <ele>229</ele>
        <time>2021-10-14T16:28:40Z</time>
      </trkpt>
      <trkpt lat="46.48027" lon="4.81586">
        <ele>228</ele>
        <time>2021-10-14T16:28:42Z</time>
      </trkpt>
      <trkpt lat="46.4798" lon="4.81507">
        <ele>227</ele>
        <time>2021-10-14T16:28:55Z</time>
      </trkpt>
      <trkpt lat="46.47936" lon="4.81438">
        <ele>226</ele>
        <time>2021-10-14T16:29:06Z</time>
      </trkpt>
      <trkpt lat="46.47926" lon="4.8142">
        <ele>226</ele>
        <time>2021-10-14T16:29:09Z</time>
      </trkpt>
      <trkpt lat="46.47906" lon="4.81366">
        <ele>228</ele>
        <time>2021-10-14T16:29:17Z</time>
      </trkpt>
      <trkpt lat="46.47874" lon="4.8131">
        <ele>231</ele>
        <time>2021-10-14T16:29:26Z</time>
      </trkpt>
      <trkpt lat="46.47868" lon="4.81304">
        <ele>231</ele>
        <time>2021-10-14T16:29:27Z</time>
      </trkpt>
      <trkpt lat="46.47861" lon="4.81302">
        <ele>231</ele>
        <time>2021-10-14T16:29:28Z</time>
      </trkpt>
      <trkpt lat="46.47835" lon="4.81301">
        <ele>231</ele>
        <time>2021-10-14T16:29:33Z</time>
      </trkpt>
      <trkpt lat="46.47764" lon="4.81306">
        <ele>231</ele>
        <time>2021-10-14T16:29:45Z</time>
      </trkpt>
      <trkpt lat="46.47722" lon="4.81303">
        <ele>232</ele>
        <time>2021-10-14T16:29:53Z</time>
      </trkpt>
      <trkpt lat="46.47566" lon="4.81282">
        <ele>232</ele>
        <time>2021-10-14T16:30:21Z</time>
      </trkpt>
      <trkpt lat="46.47516" lon="4.81262">
        <ele>232</ele>
        <time>2021-10-14T16:30:30Z</time>
      </trkpt>
      <trkpt lat="46.4748" lon="4.81238">
        <ele>231</ele>
        <time>2021-10-14T16:30:37Z</time>
      </trkpt>
      <trkpt lat="46.47464" lon="4.81223">
        <ele>230</ele>
        <time>2021-10-14T16:30:40Z</time>
      </trkpt>
      <trkpt lat="46.47448" lon="4.81195">
        <ele>229</ele>
        <time>2021-10-14T16:30:45Z</time>
      </trkpt>
      <trkpt lat="46.47438" lon="4.81163">
        <ele>229</ele>
        <time>2021-10-14T16:30:49Z</time>
      </trkpt>
      <trkpt lat="46.47403" lon="4.81033">
        <ele>232</ele>
        <time>2021-10-14T16:31:06Z</time>
      </trkpt>
      <trkpt lat="46.47392" lon="4.80981">
        <ele>233</ele>
        <time>2021-10-14T16:31:13Z</time>
      </trkpt>
      <trkpt lat="46.47386" lon="4.80918">
        <ele>235</ele>
        <time>2021-10-14T16:31:21Z</time>
      </trkpt>
      <trkpt lat="46.4738" lon="4.80875">
        <ele>235</ele>
        <time>2021-10-14T16:31:26Z</time>
      </trkpt>
      <trkpt lat="46.47382" lon="4.80824">
        <ele>235</ele>
        <time>2021-10-14T16:31:32Z</time>
      </trkpt>
      <trkpt lat="46.47391" lon="4.80745">
        <ele>233</ele>
        <time>2021-10-14T16:31:42Z</time>
      </trkpt>
      <trkpt lat="46.474" lon="4.80715">
        <ele>233</ele>
        <time>2021-10-14T16:31:46Z</time>
      </trkpt>
      <trkpt lat="46.47413" lon="4.807">
        <ele>233</ele>
        <time>2021-10-14T16:31:49Z</time>
      </trkpt>
      <trkpt lat="46.47437" lon="4.80683">
        <ele>234</ele>
        <time>2021-10-14T16:31:54Z</time>
      </trkpt>
      <trkpt lat="46.47459" lon="4.80677">
        <ele>235</ele>
        <time>2021-10-14T16:31:58Z</time>
      </trkpt>
      <trkpt lat="46.47488" lon="4.80682">
        <ele>238</ele>
        <time>2021-10-14T16:32:03Z</time>
      </trkpt>
      <trkpt lat="46.47501" lon="4.80687">
        <ele>240</ele>
        <time>2021-10-14T16:32:05Z</time>
      </trkpt>
      <trkpt lat="46.47527" lon="4.80692">
        <ele>244</ele>
        <time>2021-10-14T16:32:10Z</time>
      </trkpt>
      <trkpt lat="46.47537" lon="4.80689">
        <ele>244</ele>
        <time>2021-10-14T16:32:12Z</time>
      </trkpt>
      <trkpt lat="46.47549" lon="4.8068">
        <ele>244</ele>
        <time>2021-10-14T16:32:14Z</time>
      </trkpt>
      <trkpt lat="46.47577" lon="4.8065">
        <ele>243</ele>
        <time>2021-10-14T16:32:21Z</time>
      </trkpt>
      <trkpt lat="46.47613" lon="4.80596">
        <ele>244</ele>
        <time>2021-10-14T16:32:30Z</time>
      </trkpt>
      <trkpt lat="46.4763" lon="4.80576">
        <ele>245</ele>
        <time>2021-10-14T16:32:34Z</time>
      </trkpt>
      <trkpt lat="46.47639" lon="4.8057">
        <ele>246</ele>
        <time>2021-10-14T16:32:35Z</time>
      </trkpt>
      <trkpt lat="46.47657" lon="4.80565">
        <ele>247</ele>
        <time>2021-10-14T16:32:39Z</time>
      </trkpt>
      <trkpt lat="46.47702" lon="4.80569">
        <ele>253</ele>
        <time>2021-10-14T16:32:47Z</time>
      </trkpt>
      <trkpt lat="46.47714" lon="4.80566">
        <ele>254</ele>
        <time>2021-10-14T16:32:49Z</time>
      </trkpt>
      <trkpt lat="46.47722" lon="4.80562">
        <ele>255</ele>
        <time>2021-10-14T16:32:50Z</time>
      </trkpt>
      <trkpt lat="46.47729" lon="4.80555">
        <ele>255</ele>
        <time>2021-10-14T16:32:52Z</time>
      </trkpt>
      <trkpt lat="46.47739" lon="4.8054">
        <ele>253</ele>
        <time>2021-10-14T16:32:54Z</time>
      </trkpt>
      <trkpt lat="46.47743" lon="4.80529">
        <ele>252</ele>
        <time>2021-10-14T16:32:56Z</time>
      </trkpt>
      <trkpt lat="46.47751" lon="4.80504">
        <ele>249</ele>
        <time>2021-10-14T16:32:59Z</time>
      </trkpt>
      <trkpt lat="46.47778" lon="4.80386">
        <ele>251</ele>
        <time>2021-10-14T16:33:15Z</time>
      </trkpt>
      <trkpt lat="46.47812" lon="4.80261">
        <ele>247</ele>
        <time>2021-10-14T16:33:31Z</time>
      </trkpt>
      <trkpt lat="46.47816" lon="4.80226">
        <ele>246</ele>
        <time>2021-10-14T16:33:35Z</time>
      </trkpt>
      <trkpt lat="46.47816" lon="4.80181">
        <ele>247</ele>
        <time>2021-10-14T16:33:41Z</time>
      </trkpt>
      <trkpt lat="46.47781" lon="4.79889">
        <ele>257</ele>
        <time>2021-10-14T16:34:17Z</time>
      </trkpt>
      <trkpt lat="46.47764" lon="4.79805">
        <ele>259</ele>
        <time>2021-10-14T16:34:28Z</time>
      </trkpt>
      <trkpt lat="46.47728" lon="4.79595">
        <ele>262</ele>
        <time>2021-10-14T16:34:54Z</time>
      </trkpt>
      <trkpt lat="46.47722" lon="4.7954">
        <ele>262</ele>
        <time>2021-10-14T16:35:01Z</time>
      </trkpt>
      <trkpt lat="46.4772" lon="4.79506">
        <ele>262</ele>
        <time>2021-10-14T16:35:05Z</time>
      </trkpt>
      <trkpt lat="46.4772" lon="4.79466">
        <ele>261</ele>
        <time>2021-10-14T16:35:10Z</time>
      </trkpt>
      <trkpt lat="46.47724" lon="4.79437">
        <ele>260</ele>
        <time>2021-10-14T16:35:14Z</time>
      </trkpt>
      <trkpt lat="46.47728" lon="4.79416">
        <ele>260</ele>
        <time>2021-10-14T16:35:17Z</time>
      </trkpt>
      <trkpt lat="46.47734" lon="4.794">
        <ele>259</ele>
        <time>2021-10-14T16:35:19Z</time>
      </trkpt>
      <trkpt lat="46.47749" lon="4.79377">
        <ele>255</ele>
        <time>2021-10-14T16:35:23Z</time>
      </trkpt>
      <trkpt lat="46.4781" lon="4.79312">
        <ele>261</ele>
        <time>2021-10-14T16:35:36Z</time>
      </trkpt>
      <trkpt lat="46.47876" lon="4.79194">
        <ele>258</ele>
        <time>2021-10-14T16:35:55Z</time>
      </trkpt>
      <trkpt lat="46.479" lon="4.79142">
        <ele>257</ele>
        <time>2021-10-14T16:36:03Z</time>
      </trkpt>
      <trkpt lat="46.47952" lon="4.79013">
        <ele>252</ele>
        <time>2021-10-14T16:36:21Z</time>
      </trkpt>
      <trkpt lat="46.48014" lon="4.78896">
        <ele>252</ele>
        <time>2021-10-14T16:36:39Z</time>
      </trkpt>
      <trkpt lat="46.48055" lon="4.78786">
        <ele>255</ele>
        <time>2021-10-14T16:36:54Z</time>
      </trkpt>
      <trkpt lat="46.48078" lon="4.7872">
        <ele>256</ele>
        <time>2021-10-14T16:37:03Z</time>
      </trkpt>
      <trkpt lat="46.4808" lon="4.78701">
        <ele>256</ele>
        <time>2021-10-14T16:37:06Z</time>
      </trkpt>
      <trkpt lat="46.48077" lon="4.7868">
        <ele>256</ele>
        <time>2021-10-14T16:37:08Z</time>
      </trkpt>
      <trkpt lat="46.48073" lon="4.78666">
        <ele>256</ele>
        <time>2021-10-14T16:37:10Z</time>
      </trkpt>
      <trkpt lat="46.47996" lon="4.78573">
        <ele>259</ele>
        <time>2021-10-14T16:37:28Z</time>
      </trkpt>
      <trkpt lat="46.47974" lon="4.78555">
        <ele>260</ele>
        <time>2021-10-14T16:37:32Z</time>
      </trkpt>
      <trkpt lat="46.47916" lon="4.78514">
        <ele>264</ele>
        <time>2021-10-14T16:37:44Z</time>
      </trkpt>
      <trkpt lat="46.47904" lon="4.78494">
        <ele>265</ele>
        <time>2021-10-14T16:37:47Z</time>
      </trkpt>
      <trkpt lat="46.47894" lon="4.78457">
        <ele>267</ele>
        <time>2021-10-14T16:37:52Z</time>
      </trkpt>
      <trkpt lat="46.47879" lon="4.78428">
        <ele>269</ele>
        <time>2021-10-14T16:37:57Z</time>
      </trkpt>
      <trkpt lat="46.47869" lon="4.78415">
        <ele>269</ele>
        <time>2021-10-14T16:37:59Z</time>
      </trkpt>
      <trkpt lat="46.47843" lon="4.78392">
        <ele>269</ele>
        <time>2021-10-14T16:38:04Z</time>
      </trkpt>
      <trkpt lat="46.47722" lon="4.78325">
        <ele>268</ele>
        <time>2021-10-14T16:38:27Z</time>
      </trkpt>
      <trkpt lat="46.47664" lon="4.78289">
        <ele>268</ele>
        <time>2021-10-14T16:38:39Z</time>
      </trkpt>
      <trkpt lat="46.47643" lon="4.7828">
        <ele>268</ele>
        <time>2021-10-14T16:38:42Z</time>
      </trkpt>
      <trkpt lat="46.47607" lon="4.78274">
        <ele>268</ele>
        <time>2021-10-14T16:38:49Z</time>
      </trkpt>
      <trkpt lat="46.47555" lon="4.78254">
        <ele>267</ele>
        <time>2021-10-14T16:38:59Z</time>
      </trkpt>
      <trkpt lat="46.47518" lon="4.78232">
        <ele>267</ele>
        <time>2021-10-14T16:39:06Z</time>
      </trkpt>
      <trkpt lat="46.47503" lon="4.78218">
        <ele>268</ele>
        <time>2021-10-14T16:39:09Z</time>
      </trkpt>
      <trkpt lat="46.47472" lon="4.78173">
        <ele>269</ele>
        <time>2021-10-14T16:39:17Z</time>
      </trkpt>
      <trkpt lat="46.47456" lon="4.78158">
        <ele>269</ele>
        <time>2021-10-14T16:39:20Z</time>
      </trkpt>
      <trkpt lat="46.47437" lon="4.78148">
        <ele>269</ele>
        <time>2021-10-14T16:39:24Z</time>
      </trkpt>
      <trkpt lat="46.47414" lon="4.78145">
        <ele>269</ele>
        <time>2021-10-14T16:39:28Z</time>
      </trkpt>
      <trkpt lat="46.47395" lon="4.78145">
        <ele>268</ele>
        <time>2021-10-14T16:39:31Z</time>
      </trkpt>
      <trkpt lat="46.47361" lon="4.78151">
        <ele>268</ele>
        <time>2021-10-14T16:39:37Z</time>
      </trkpt>
      <trkpt lat="46.47264" lon="4.78134">
        <ele>270</ele>
        <time>2021-10-14T16:39:55Z</time>
      </trkpt>
      <trkpt lat="46.47244" lon="4.78125">
        <ele>271</ele>
        <time>2021-10-14T16:39:58Z</time>
      </trkpt>
      <trkpt lat="46.4722" lon="4.78109">
        <ele>271</ele>
        <time>2021-10-14T16:40:03Z</time>
      </trkpt>
      <trkpt lat="46.47201" lon="4.78091">
        <ele>272</ele>
        <time>2021-10-14T16:40:07Z</time>
      </trkpt>
      <trkpt lat="46.47155" lon="4.78039">
        <ele>273</ele>
        <time>2021-10-14T16:40:17Z</time>
      </trkpt>
      <trkpt lat="46.47137" lon="4.78026">
        <ele>274</ele>
        <time>2021-10-14T16:40:21Z</time>
      </trkpt>
      <trkpt lat="46.47082" lon="4.78009">
        <ele>274</ele>
        <time>2021-10-14T16:40:31Z</time>
      </trkpt>
      <trkpt lat="46.4706" lon="4.77997">
        <ele>275</ele>
        <time>2021-10-14T16:40:35Z</time>
      </trkpt>
      <trkpt lat="46.47029" lon="4.77962">
        <ele>277</ele>
        <time>2021-10-14T16:40:42Z</time>
      </trkpt>
      <trkpt lat="46.46998" lon="4.77905">
        <ele>281</ele>
        <time>2021-10-14T16:40:51Z</time>
      </trkpt>
      <trkpt lat="46.46985" lon="4.77888">
        <ele>282</ele>
        <time>2021-10-14T16:40:54Z</time>
      </trkpt>
      <trkpt lat="46.46897" lon="4.77821">
        <ele>285</ele>
        <time>2021-10-14T16:41:12Z</time>
      </trkpt>
      <trkpt lat="46.46878" lon="4.77802">
        <ele>286</ele>
        <time>2021-10-14T16:41:16Z</time>
      </trkpt>
      <trkpt lat="46.46862" lon="4.7778">
        <ele>287</ele>
        <time>2021-10-14T16:41:20Z</time>
      </trkpt>
      <trkpt lat="46.46833" lon="4.77732">
        <ele>289</ele>
        <time>2021-10-14T16:41:28Z</time>
      </trkpt>
      <trkpt lat="46.46795" lon="4.77673">
        <ele>291</ele>
        <time>2021-10-14T16:41:38Z</time>
      </trkpt>
      <trkpt lat="46.46728" lon="4.77616">
        <ele>293</ele>
        <time>2021-10-14T16:41:51Z</time>
      </trkpt>
      <trkpt lat="46.46679" lon="4.77585">
        <ele>294</ele>
        <time>2021-10-14T16:42:01Z</time>
      </trkpt>
      <trkpt lat="46.4653" lon="4.77509">
        <ele>289</ele>
        <time>2021-10-14T16:42:29Z</time>
      </trkpt>
      <trkpt lat="46.46451" lon="4.7747">
        <ele>287</ele>
        <time>2021-10-14T16:42:44Z</time>
      </trkpt>
      <trkpt lat="46.46387" lon="4.77442">
        <ele>286</ele>
        <time>2021-10-14T16:42:56Z</time>
      </trkpt>
      <trkpt lat="46.46342" lon="4.7742">
        <ele>284</ele>
        <time>2021-10-14T16:43:04Z</time>
      </trkpt>
      <trkpt lat="46.46303" lon="4.77405">
        <ele>284</ele>
        <time>2021-10-14T16:43:11Z</time>
      </trkpt>
      <trkpt lat="46.46242" lon="4.77398">
        <ele>283</ele>
        <time>2021-10-14T16:43:22Z</time>
      </trkpt>
      <trkpt lat="46.46233" lon="4.77388">
        <ele>283</ele>
        <time>2021-10-14T16:43:24Z</time>
      </trkpt>
      <trkpt lat="46.46206" lon="4.77327">
        <ele>283</ele>
        <time>2021-10-14T16:43:33Z</time>
      </trkpt>
      <trkpt lat="46.46199" lon="4.77316">
        <ele>283</ele>
        <time>2021-10-14T16:43:35Z</time>
      </trkpt>
      <trkpt lat="46.46188" lon="4.77304">
        <ele>283</ele>
        <time>2021-10-14T16:43:37Z</time>
      </trkpt>
      <trkpt lat="46.46122" lon="4.77266">
        <ele>281</ele>
        <time>2021-10-14T16:43:50Z</time>
      </trkpt>
      <trkpt lat="46.45967" lon="4.77136">
        <ele>278</ele>
        <time>2021-10-14T16:44:22Z</time>
      </trkpt>
      <trkpt lat="46.45948" lon="4.77122">
        <ele>279</ele>
        <time>2021-10-14T16:44:26Z</time>
      </trkpt>
      <trkpt lat="46.45905" lon="4.771">
        <ele>279</ele>
        <time>2021-10-14T16:44:34Z</time>
      </trkpt>
      <trkpt lat="46.45784" lon="4.77059">
        <ele>278</ele>
        <time>2021-10-14T16:44:56Z</time>
      </trkpt>
      <trkpt lat="46.45715" lon="4.77038">
        <ele>277</ele>
        <time>2021-10-14T16:45:08Z</time>
      </trkpt>
      <trkpt lat="46.45698" lon="4.77034">
        <ele>277</ele>
        <time>2021-10-14T16:45:12Z</time>
      </trkpt>
      <trkpt lat="46.45647" lon="4.77028">
        <ele>276</ele>
        <time>2021-10-14T16:45:21Z</time>
      </trkpt>
      <trkpt lat="46.45563" lon="4.77004">
        <ele>275</ele>
        <time>2021-10-14T16:45:36Z</time>
      </trkpt>
      <trkpt lat="46.45512" lon="4.76993">
        <ele>274</ele>
        <time>2021-10-14T16:45:45Z</time>
      </trkpt>
      <trkpt lat="46.45498" lon="4.76984">
        <ele>273</ele>
        <time>2021-10-14T16:45:48Z</time>
      </trkpt>
      <trkpt lat="46.45469" lon="4.76961">
        <ele>274</ele>
        <time>2021-10-14T16:45:54Z</time>
      </trkpt>
      <trkpt lat="46.45447" lon="4.76948">
        <ele>275</ele>
        <time>2021-10-14T16:45:58Z</time>
      </trkpt>
      <trkpt lat="46.45424" lon="4.76938">
        <ele>276</ele>
        <time>2021-10-14T16:46:02Z</time>
      </trkpt>
      <trkpt lat="46.45382" lon="4.76928">
        <ele>277</ele>
        <time>2021-10-14T16:46:10Z</time>
      </trkpt>
      <trkpt lat="46.4537" lon="4.76931">
        <ele>277</ele>
        <time>2021-10-14T16:46:12Z</time>
      </trkpt>
      <trkpt lat="46.45363" lon="4.76937">
        <ele>276</ele>
        <time>2021-10-14T16:46:13Z</time>
      </trkpt>
      <trkpt lat="46.45358" lon="4.76944">
        <ele>276</ele>
        <time>2021-10-14T16:46:15Z</time>
      </trkpt>
      <trkpt lat="46.45344" lon="4.7697">
        <ele>275</ele>
        <time>2021-10-14T16:46:19Z</time>
      </trkpt>
      <trkpt lat="46.45333" lon="4.76984">
        <ele>274</ele>
        <time>2021-10-14T16:46:21Z</time>
      </trkpt>
      <trkpt lat="46.45317" lon="4.76994">
        <ele>274</ele>
        <time>2021-10-14T16:46:24Z</time>
      </trkpt>
      <trkpt lat="46.45217" lon="4.77014">
        <ele>277</ele>
        <time>2021-10-14T16:46:42Z</time>
      </trkpt>
      <trkpt lat="46.45146" lon="4.77033">
        <ele>276</ele>
        <time>2021-10-14T16:46:55Z</time>
      </trkpt>
      <trkpt lat="46.45126" lon="4.77036">
        <ele>275</ele>
        <time>2021-10-14T16:46:59Z</time>
      </trkpt>
      <trkpt lat="46.45072" lon="4.77031">
        <ele>272</ele>
        <time>2021-10-14T16:47:08Z</time>
      </trkpt>
      <trkpt lat="46.45035" lon="4.77031">
        <ele>271</ele>
        <time>2021-10-14T16:47:15Z</time>
      </trkpt>
      <trkpt lat="46.44916" lon="4.7705">
        <ele>269</ele>
        <time>2021-10-14T16:47:36Z</time>
      </trkpt>
      <trkpt lat="46.44884" lon="4.7705">
        <ele>269</ele>
        <time>2021-10-14T16:47:42Z</time>
      </trkpt>
      <trkpt lat="46.44847" lon="4.77041">
        <ele>269</ele>
        <time>2021-10-14T16:47:49Z</time>
      </trkpt>
      <trkpt lat="46.44785" lon="4.77021">
        <ele>270</ele>
        <time>2021-10-14T16:48:00Z</time>
      </trkpt>
      <trkpt lat="46.44683" lon="4.76949">
        <ele>271</ele>
        <time>2021-10-14T16:48:20Z</time>
      </trkpt>
      <trkpt lat="46.44573" lon="4.76858">
        <ele>271</ele>
        <time>2021-10-14T16:48:43Z</time>
      </trkpt>
      <trkpt lat="46.44548" lon="4.76841">
        <ele>271</ele>
        <time>2021-10-14T16:48:48Z</time>
      </trkpt>
      <trkpt lat="46.44486" lon="4.76809">
        <ele>271</ele>
        <time>2021-10-14T16:48:59Z</time>
      </trkpt>
      <trkpt lat="46.4437" lon="4.76753">
        <ele>269</ele>
        <time>2021-10-14T16:49:21Z</time>
      </trkpt>
      <trkpt lat="46.44255" lon="4.76704">
        <ele>265</ele>
        <time>2021-10-14T16:49:42Z</time>
      </trkpt>
      <trkpt lat="46.4422" lon="4.76685">
        <ele>264</ele>
        <time>2021-10-14T16:49:49Z</time>
      </trkpt>
      <trkpt lat="46.44053" lon="4.76581">
        <ele>261</ele>
        <time>2021-10-14T16:50:21Z</time>
      </trkpt>
      <trkpt lat="46.44007" lon="4.76563">
        <ele>259</ele>
        <time>2021-10-14T16:50:30Z</time>
      </trkpt>
      <trkpt lat="46.43991" lon="4.76562">
        <ele>258</ele>
        <time>2021-10-14T16:50:33Z</time>
      </trkpt>
      <trkpt lat="46.43976" lon="4.76565">
        <ele>257</ele>
        <time>2021-10-14T16:50:35Z</time>
      </trkpt>
      <trkpt lat="46.43961" lon="4.76571">
        <ele>257</ele>
        <time>2021-10-14T16:50:38Z</time>
      </trkpt>
      <trkpt lat="46.43904" lon="4.76608">
        <ele>255</ele>
        <time>2021-10-14T16:50:49Z</time>
      </trkpt>
      <trkpt lat="46.43872" lon="4.76607">
        <ele>254</ele>
        <time>2021-10-14T16:50:55Z</time>
      </trkpt>
      <trkpt lat="46.4386" lon="4.76538">
        <ele>252</ele>
        <time>2021-10-14T16:51:04Z</time>
      </trkpt>
      <trkpt lat="46.43855" lon="4.76522">
        <ele>251</ele>
        <time>2021-10-14T16:51:06Z</time>
      </trkpt>
      <trkpt lat="46.43845" lon="4.76501">
        <ele>250</ele>
        <time>2021-10-14T16:51:09Z</time>
      </trkpt>
      <trkpt lat="46.43841" lon="4.76493">
        <ele>249</ele>
        <time>2021-10-14T16:51:10Z</time>
      </trkpt>
      <trkpt lat="46.43803" lon="4.76444">
        <ele>247</ele>
        <time>2021-10-14T16:51:19Z</time>
      </trkpt>
      <trkpt lat="46.43793" lon="4.76429">
        <ele>246</ele>
        <time>2021-10-14T16:51:22Z</time>
      </trkpt>
      <trkpt lat="46.4377" lon="4.76383">
        <ele>245</ele>
        <time>2021-10-14T16:51:29Z</time>
      </trkpt>
      <trkpt lat="46.43744" lon="4.7634">
        <ele>245</ele>
        <time>2021-10-14T16:51:36Z</time>
      </trkpt>
      <trkpt lat="46.43731" lon="4.7632">
        <ele>245</ele>
        <time>2021-10-14T16:51:39Z</time>
      </trkpt>
      <trkpt lat="46.43671" lon="4.76228">
        <ele>246</ele>
        <time>2021-10-14T16:51:55Z</time>
      </trkpt>
      <trkpt lat="46.43656" lon="4.76212">
        <ele>247</ele>
        <time>2021-10-14T16:51:58Z</time>
      </trkpt>
      <trkpt lat="46.43643" lon="4.76205">
        <ele>248</ele>
        <time>2021-10-14T16:52:00Z</time>
      </trkpt>
      <trkpt lat="46.43606" lon="4.76192">
        <ele>248</ele>
        <time>2021-10-14T16:52:07Z</time>
      </trkpt>
      <trkpt lat="46.43355" lon="4.76122">
        <ele>247</ele>
        <time>2021-10-14T16:52:53Z</time>
      </trkpt>
      <trkpt lat="46.43228" lon="4.76084">
        <ele>249</ele>
        <time>2021-10-14T16:53:16Z</time>
      </trkpt>
      <trkpt lat="46.43212" lon="4.76083">
        <ele>249</ele>
        <time>2021-10-14T16:53:19Z</time>
      </trkpt>
      <trkpt lat="46.43184" lon="4.76086">
        <ele>248</ele>
        <time>2021-10-14T16:53:24Z</time>
      </trkpt>
      <trkpt lat="46.43168" lon="4.76095">
        <ele>247</ele>
        <time>2021-10-14T16:53:27Z</time>
      </trkpt>
      <trkpt lat="46.43161" lon="4.76105">
        <ele>247</ele>
        <time>2021-10-14T16:53:28Z</time>
      </trkpt>
      <trkpt lat="46.43152" lon="4.76075">
        <ele>247</ele>
        <time>2021-10-14T16:53:32Z</time>
      </trkpt>
      <trkpt lat="46.43146" lon="4.76004">
        <ele>247</ele>
        <time>2021-10-14T16:53:41Z</time>
      </trkpt>
      <trkpt lat="46.43156" lon="4.75825">
        <ele>254</ele>
        <time>2021-10-14T16:54:03Z</time>
      </trkpt>
      <trkpt lat="46.43157" lon="4.75721">
        <ele>260</ele>
        <time>2021-10-14T16:54:16Z</time>
      </trkpt>
      <trkpt lat="46.43154" lon="4.75698">
        <ele>261</ele>
        <time>2021-10-14T16:54:19Z</time>
      </trkpt>
      <trkpt lat="46.4315" lon="4.75684">
        <ele>262</ele>
        <time>2021-10-14T16:54:21Z</time>
      </trkpt>
      <trkpt lat="46.43111" lon="4.75617">
        <ele>267</ele>
        <time>2021-10-14T16:54:31Z</time>
      </trkpt>
      <trkpt lat="46.43103" lon="4.75607">
        <ele>268</ele>
        <time>2021-10-14T16:54:33Z</time>
      </trkpt>
      <trkpt lat="46.43071" lon="4.75578">
        <ele>271</ele>
        <time>2021-10-14T16:54:40Z</time>
      </trkpt>
      <trkpt lat="46.43009" lon="4.75533">
        <ele>276</ele>
        <time>2021-10-14T16:54:52Z</time>
      </trkpt>
      <trkpt lat="46.42936" lon="4.75446">
        <ele>286</ele>
        <time>2021-10-14T16:55:09Z</time>
      </trkpt>
      <trkpt lat="46.42916" lon="4.7542">
        <ele>288</ele>
        <time>2021-10-14T16:55:14Z</time>
      </trkpt>
      <trkpt lat="46.42896" lon="4.75382">
        <ele>293</ele>
        <time>2021-10-14T16:55:20Z</time>
      </trkpt>
      <trkpt lat="46.42839" lon="4.75311">
        <ele>297</ele>
        <time>2021-10-14T16:55:33Z</time>
      </trkpt>
      <trkpt lat="46.42825" lon="4.75286">
        <ele>299</ele>
        <time>2021-10-14T16:55:37Z</time>
      </trkpt>
      <trkpt lat="46.42816" lon="4.75264">
        <ele>300</ele>
        <time>2021-10-14T16:55:40Z</time>
      </trkpt>
      <trkpt lat="46.42807" lon="4.75231">
        <ele>303</ele>
        <time>2021-10-14T16:55:45Z</time>
      </trkpt>
      <trkpt lat="46.42806" lon="4.75195">
        <ele>307</ele>
        <time>2021-10-14T16:55:49Z</time>
      </trkpt>
      <trkpt lat="46.42801" lon="4.75174">
        <ele>308</ele>
        <time>2021-10-14T16:55:52Z</time>
      </trkpt>
      <trkpt lat="46.42791" lon="4.75143">
        <ele>309</ele>
        <time>2021-10-14T16:55:56Z</time>
      </trkpt>
      <trkpt lat="46.42798" lon="4.75109">
        <ele>313</ele>
        <time>2021-10-14T16:56:00Z</time>
      </trkpt>
      <trkpt lat="46.42804" lon="4.75057">
        <ele>316</ele>
        <time>2021-10-14T16:56:07Z</time>
      </trkpt>
      <trkpt lat="46.42816" lon="4.74995">
        <ele>321</ele>
        <time>2021-10-14T16:56:15Z</time>
      </trkpt>
      <trkpt lat="46.42823" lon="4.74973">
        <ele>323</ele>
        <time>2021-10-14T16:56:18Z</time>
      </trkpt>
      <trkpt lat="46.42834" lon="4.74949">
        <ele>325</ele>
        <time>2021-10-14T16:56:21Z</time>
      </trkpt>
      <trkpt lat="46.42851" lon="4.74925">
        <ele>328</ele>
        <time>2021-10-14T16:56:25Z</time>
      </trkpt>
      <trkpt lat="46.42864" lon="4.74916">
        <ele>330</ele>
        <time>2021-10-14T16:56:28Z</time>
      </trkpt>
      <trkpt lat="46.42881" lon="4.74896">
        <ele>333</ele>
        <time>2021-10-14T16:56:32Z</time>
      </trkpt>
      <trkpt lat="46.42889" lon="4.74874">
        <ele>335</ele>
        <time>2021-10-14T16:56:35Z</time>
      </trkpt>
      <trkpt lat="46.42892" lon="4.74852">
        <ele>337</ele>
        <time>2021-10-14T16:56:38Z</time>
      </trkpt>
      <trkpt lat="46.42895" lon="4.74794">
        <ele>340</ele>
        <time>2021-10-14T16:56:45Z</time>
      </trkpt>
      <trkpt lat="46.42895" lon="4.74779">
        <ele>341</ele>
        <time>2021-10-14T16:56:47Z</time>
      </trkpt>
      <trkpt lat="46.42914" lon="4.74445">
        <ele>366</ele>
        <time>2021-10-14T16:57:28Z</time>
      </trkpt>
      <trkpt lat="46.42915" lon="4.74339">
        <ele>375</ele>
        <time>2021-10-14T16:57:41Z</time>
      </trkpt>
      <trkpt lat="46.42902" lon="4.74298">
        <ele>374</ele>
        <time>2021-10-14T16:57:46Z</time>
      </trkpt>
      <trkpt lat="46.42897" lon="4.74293">
        <ele>374</ele>
        <time>2021-10-14T16:57:47Z</time>
      </trkpt>
      <trkpt lat="46.42885" lon="4.74286">
        <ele>374</ele>
        <time>2021-10-14T16:57:50Z</time>
      </trkpt>
      <trkpt lat="46.42847" lon="4.74251">
        <ele>378</ele>
        <time>2021-10-14T16:57:58Z</time>
      </trkpt>
      <trkpt lat="46.42812" lon="4.74239">
        <ele>378</ele>
        <time>2021-10-14T16:58:04Z</time>
      </trkpt>
      <trkpt lat="46.42774" lon="4.74205">
        <ele>380</ele>
        <time>2021-10-14T16:58:12Z</time>
      </trkpt>
      <trkpt lat="46.42732" lon="4.74154">
        <ele>383</ele>
        <time>2021-10-14T16:58:22Z</time>
      </trkpt>
      <trkpt lat="46.4272" lon="4.74124">
        <ele>383</ele>
        <time>2021-10-14T16:58:26Z</time>
      </trkpt>
      <trkpt lat="46.42714" lon="4.74094">
        <ele>383</ele>
        <time>2021-10-14T16:58:30Z</time>
      </trkpt>
      <trkpt lat="46.42705" lon="4.74059">
        <ele>383</ele>
        <time>2021-10-14T16:58:34Z</time>
      </trkpt>
      <trkpt lat="46.42699" lon="4.74019">
        <ele>384</ele>
        <time>2021-10-14T16:58:39Z</time>
      </trkpt>
      <trkpt lat="46.42686" lon="4.73981">
        <ele>386</ele>
        <time>2021-10-14T16:58:45Z</time>
      </trkpt>
      <trkpt lat="46.4268" lon="4.73936">
        <ele>390</ele>
        <time>2021-10-14T16:58:50Z</time>
      </trkpt>
      <trkpt lat="46.4269" lon="4.73872">
        <ele>393</ele>
        <time>2021-10-14T16:58:58Z</time>
      </trkpt>
      <trkpt lat="46.42695" lon="4.73771">
        <ele>400</ele>
        <time>2021-10-14T16:59:11Z</time>
      </trkpt>
      <trkpt lat="46.42695" lon="4.73747">
        <ele>402</ele>
        <time>2021-10-14T16:59:14Z</time>
      </trkpt>
      <trkpt lat="46.42693" lon="4.73738">
        <ele>402</ele>
        <time>2021-10-14T16:59:15Z</time>
      </trkpt>
      <trkpt lat="46.42686" lon="4.73766">
        <ele>403</ele>
        <time>2021-10-14T16:59:18Z</time>
      </trkpt>
      <trkpt lat="46.4268" lon="4.73781">
        <ele>403</ele>
        <time>2021-10-14T16:59:21Z</time>
      </trkpt>
      <trkpt lat="46.42666" lon="4.738">
        <ele>405</ele>
        <time>2021-10-14T16:59:24Z</time>
      </trkpt>
      <trkpt lat="46.4265" lon="4.73818">
        <ele>404</ele>
        <time>2021-10-14T16:59:28Z</time>
      </trkpt>
      <trkpt lat="46.42633" lon="4.73826">
        <ele>404</ele>
        <time>2021-10-14T16:59:31Z</time>
      </trkpt>
      <trkpt lat="46.42566" lon="4.73822">
        <ele>406</ele>
        <time>2021-10-14T16:59:43Z</time>
      </trkpt>
      <trkpt lat="46.42545" lon="4.73817">
        <ele>404</ele>
        <time>2021-10-14T16:59:46Z</time>
      </trkpt>
      <trkpt lat="46.42443" lon="4.73786">
        <ele>398</ele>
        <time>2021-10-14T17:00:05Z</time>
      </trkpt>
      <trkpt lat="46.42409" lon="4.73773">
        <ele>397</ele>
        <time>2021-10-14T17:00:11Z</time>
      </trkpt>
      <trkpt lat="46.4237" lon="4.73752">
        <ele>396</ele>
        <time>2021-10-14T17:00:19Z</time>
      </trkpt>
      <trkpt lat="46.42358" lon="4.73751">
        <ele>394</ele>
        <time>2021-10-14T17:00:21Z</time>
      </trkpt>
      <trkpt lat="46.42329" lon="4.73754">
        <ele>390</ele>
        <time>2021-10-14T17:00:26Z</time>
      </trkpt>
      <trkpt lat="46.42264" lon="4.73776">
        <ele>389</ele>
        <time>2021-10-14T17:00:38Z</time>
      </trkpt>
      <trkpt lat="46.42239" lon="4.73781">
        <ele>389</ele>
        <time>2021-10-14T17:00:42Z</time>
      </trkpt>
      <trkpt lat="46.42076" lon="4.73798">
        <ele>389</ele>
        <time>2021-10-14T17:01:11Z</time>
      </trkpt>
      <trkpt lat="46.42033" lon="4.73808">
        <ele>388</ele>
        <time>2021-10-14T17:01:19Z</time>
      </trkpt>
      <trkpt lat="46.41958" lon="4.7383">
        <ele>388</ele>
        <time>2021-10-14T17:01:33Z</time>
      </trkpt>
      <trkpt lat="46.41953" lon="4.73762">
        <ele>390</ele>
        <time>2021-10-14T17:01:41Z</time>
      </trkpt>
      <trkpt lat="46.4195" lon="4.73748">
        <ele>390</ele>
        <time>2021-10-14T17:01:43Z</time>
      </trkpt>
      <trkpt lat="46.41945" lon="4.7373">
        <ele>391</ele>
        <time>2021-10-14T17:01:45Z</time>
      </trkpt>
      <trkpt lat="46.41928" lon="4.73694">
        <ele>393</ele>
        <time>2021-10-14T17:01:51Z</time>
      </trkpt>
      <trkpt lat="46.4192" lon="4.73674">
        <ele>395</ele>
        <time>2021-10-14T17:01:54Z</time>
      </trkpt>
      <trkpt lat="46.4191" lon="4.73613">
        <ele>398</ele>
        <time>2021-10-14T17:02:01Z</time>
      </trkpt>
      <trkpt lat="46.41889" lon="4.7353">
        <ele>404</ele>
        <time>2021-10-14T17:02:12Z</time>
      </trkpt>
      <trkpt lat="46.41876" lon="4.73434">
        <ele>414</ele>
        <time>2021-10-14T17:02:24Z</time>
      </trkpt>
      <trkpt lat="46.41869" lon="4.73398">
        <ele>418</ele>
        <time>2021-10-14T17:02:29Z</time>
      </trkpt>
      <trkpt lat="46.41839" lon="4.73331">
        <ele>423</ele>
        <time>2021-10-14T17:02:38Z</time>
      </trkpt>
      <trkpt lat="46.41823" lon="4.73277">
        <ele>426</ele>
        <time>2021-10-14T17:02:46Z</time>
      </trkpt>
      <trkpt lat="46.41806" lon="4.73195">
        <ele>431</ele>
        <time>2021-10-14T17:02:56Z</time>
      </trkpt>
      <trkpt lat="46.41805" lon="4.73187">
        <ele>431</ele>
        <time>2021-10-14T17:02:57Z</time>
      </trkpt>
      <trkpt lat="46.41813" lon="4.73152">
        <ele>435</ele>
        <time>2021-10-14T17:03:02Z</time>
      </trkpt>
      <trkpt lat="46.41821" lon="4.73076">
        <ele>441</ele>
        <time>2021-10-14T17:03:11Z</time>
      </trkpt>
      <trkpt lat="46.4178" lon="4.73065">
        <ele>438</ele>
        <time>2021-10-14T17:03:19Z</time>
      </trkpt>
      <trkpt lat="46.41766" lon="4.73058">
        <ele>437</ele>
        <time>2021-10-14T17:03:21Z</time>
      </trkpt>
      <trkpt lat="46.41749" lon="4.73042">
        <ele>436</ele>
        <time>2021-10-14T17:03:25Z</time>
      </trkpt>
      <trkpt lat="46.41743" lon="4.73025">
        <ele>436</ele>
        <time>2021-10-14T17:03:27Z</time>
      </trkpt>
      <trkpt lat="46.41744" lon="4.73019">
        <ele>436</ele>
        <time>2021-10-14T17:03:28Z</time>
      </trkpt>
      <trkpt lat="46.4175" lon="4.73011">
        <ele>437</ele>
        <time>2021-10-14T17:03:29Z</time>
      </trkpt>
      <trkpt lat="46.4178" lon="4.72987">
        <ele>436</ele>
        <time>2021-10-14T17:03:35Z</time>
      </trkpt>
      <trkpt lat="46.41797" lon="4.72969">
        <ele>435</ele>
        <time>2021-10-14T17:03:39Z</time>
      </trkpt>
      <trkpt lat="46.41807" lon="4.72949">
        <ele>433</ele>
        <time>2021-10-14T17:03:42Z</time>
      </trkpt>
      <trkpt lat="46.41809" lon="4.7294">
        <ele>432</ele>
        <time>2021-10-14T17:03:43Z</time>
      </trkpt>
      <trkpt lat="46.41803" lon="4.72933">
        <ele>431</ele>
        <time>2021-10-14T17:03:45Z</time>
      </trkpt>
      <trkpt lat="46.41757" lon="4.72907">
        <ele>427</ele>
        <time>2021-10-14T17:03:54Z</time>
      </trkpt>
      <trkpt lat="46.41645" lon="4.72833">
        <ele>414</ele>
        <time>2021-10-14T17:04:15Z</time>
      </trkpt>
      <trkpt lat="46.41611" lon="4.72805">
        <ele>411</ele>
        <time>2021-10-14T17:04:22Z</time>
      </trkpt>
      <trkpt lat="46.41582" lon="4.72773">
        <ele>406</ele>
        <time>2021-10-14T17:04:29Z</time>
      </trkpt>
      <trkpt lat="46.41566" lon="4.72747">
        <ele>402</ele>
        <time>2021-10-14T17:04:33Z</time>
      </trkpt>
      <trkpt lat="46.41559" lon="4.72733">
        <ele>401</ele>
        <time>2021-10-14T17:04:35Z</time>
      </trkpt>
      <trkpt lat="46.41558" lon="4.72725">
        <ele>401</ele>
        <time>2021-10-14T17:04:36Z</time>
      </trkpt>
      <trkpt lat="46.41558" lon="4.72707">
        <ele>400</ele>
        <time>2021-10-14T17:04:38Z</time>
      </trkpt>
      <trkpt lat="46.4157" lon="4.72666">
        <ele>398</ele>
        <time>2021-10-14T17:04:44Z</time>
      </trkpt>
      <trkpt lat="46.4157" lon="4.72648">
        <ele>396</ele>
        <time>2021-10-14T17:04:46Z</time>
      </trkpt>
      <trkpt lat="46.41567" lon="4.72641">
        <ele>396</ele>
        <time>2021-10-14T17:04:47Z</time>
      </trkpt>
      <trkpt lat="46.41555" lon="4.72629">
        <ele>394</ele>
        <time>2021-10-14T17:04:50Z</time>
      </trkpt>
      <trkpt lat="46.41475" lon="4.72599">
        <ele>389</ele>
        <time>2021-10-14T17:05:04Z</time>
      </trkpt>
      <trkpt lat="46.41456" lon="4.72598">
        <ele>387</ele>
        <time>2021-10-14T17:05:08Z</time>
      </trkpt>
      <trkpt lat="46.41442" lon="4.72601">
        <ele>386</ele>
        <time>2021-10-14T17:05:10Z</time>
      </trkpt>
      <trkpt lat="46.41383" lon="4.72601">
        <ele>381</ele>
        <time>2021-10-14T17:05:21Z</time>
      </trkpt>
      <trkpt lat="46.41372" lon="4.72605">
        <ele>380</ele>
        <time>2021-10-14T17:05:23Z</time>
      </trkpt>
      <trkpt lat="46.4136" lon="4.72616">
        <ele>380</ele>
        <time>2021-10-14T17:05:25Z</time>
      </trkpt>
      <trkpt lat="46.41343" lon="4.72638">
        <ele>380</ele>
        <time>2021-10-14T17:05:29Z</time>
      </trkpt>
      <trkpt lat="46.41268" lon="4.72738">
        <ele>376</ele>
        <time>2021-10-14T17:05:48Z</time>
      </trkpt>
      <trkpt lat="46.4126" lon="4.72757">
        <ele>376</ele>
        <time>2021-10-14T17:05:50Z</time>
      </trkpt>
      <trkpt lat="46.41252" lon="4.72798">
        <ele>382</ele>
        <time>2021-10-14T17:05:56Z</time>
      </trkpt>
      <trkpt lat="46.41243" lon="4.72815">
        <ele>383</ele>
        <time>2021-10-14T17:05:58Z</time>
      </trkpt>
      <trkpt lat="46.41227" lon="4.72826">
        <ele>383</ele>
        <time>2021-10-14T17:06:01Z</time>
      </trkpt>
      <trkpt lat="46.41191" lon="4.7284">
        <ele>380</ele>
        <time>2021-10-14T17:06:08Z</time>
      </trkpt>
      <trkpt lat="46.41095" lon="4.72863">
        <ele>372</ele>
        <time>2021-10-14T17:06:25Z</time>
      </trkpt>
      <trkpt lat="46.41013" lon="4.72869">
        <ele>362</ele>
        <time>2021-10-14T17:06:40Z</time>
      </trkpt>
      <trkpt lat="46.40913" lon="4.72861">
        <ele>354</ele>
        <time>2021-10-14T17:06:58Z</time>
      </trkpt>
      <trkpt lat="46.40794" lon="4.72842">
        <ele>339</ele>
        <time>2021-10-14T17:07:19Z</time>
      </trkpt>
      <trkpt lat="46.4076" lon="4.72828">
        <ele>333</ele>
        <time>2021-10-14T17:07:25Z</time>
      </trkpt>
      <trkpt lat="46.40746" lon="4.72825">
        <ele>332</ele>
        <time>2021-10-14T17:07:28Z</time>
      </trkpt>
      <trkpt lat="46.40719" lon="4.72828">
        <ele>328</ele>
        <time>2021-10-14T17:07:33Z</time>
      </trkpt>
      <trkpt lat="46.40695" lon="4.72837">
        <ele>326</ele>
        <time>2021-10-14T17:07:37Z</time>
      </trkpt>
      <trkpt lat="46.40641" lon="4.72868">
        <ele>321</ele>
        <time>2021-10-14T17:07:47Z</time>
      </trkpt>
      <trkpt lat="46.40567" lon="4.72924">
        <ele>311</ele>
        <time>2021-10-14T17:08:02Z</time>
      </trkpt>
      <trkpt lat="46.40533" lon="4.72959">
        <ele>309</ele>
        <time>2021-10-14T17:08:10Z</time>
      </trkpt>
      <trkpt lat="46.40521" lon="4.72967">
        <ele>307</ele>
        <time>2021-10-14T17:08:12Z</time>
      </trkpt>
      <trkpt lat="46.40523" lon="4.72954">
        <ele>306</ele>
        <time>2021-10-14T17:08:14Z</time>
      </trkpt>
      <trkpt lat="46.40534" lon="4.72945">
        <ele>307</ele>
        <time>2021-10-14T17:08:16Z</time>
      </trkpt>
      <trkpt lat="46.40543" lon="4.72932">
        <ele>307</ele>
        <time>2021-10-14T17:08:18Z</time>
      </trkpt>
      <trkpt lat="46.40593" lon="4.72812">
        <ele>302</ele>
        <time>2021-10-14T17:08:35Z</time>
      </trkpt>
      <trkpt lat="46.4065" lon="4.72668">
        <ele>296</ele>
        <time>2021-10-14T17:08:56Z</time>
      </trkpt>
      <trkpt lat="46.40661" lon="4.72626">
        <ele>296</ele>
        <time>2021-10-14T17:09:01Z</time>
      </trkpt>
      <trkpt lat="46.40663" lon="4.72584">
        <ele>294</ele>
        <time>2021-10-14T17:09:06Z</time>
      </trkpt>
      <trkpt lat="46.40668" lon="4.72563">
        <ele>294</ele>
        <time>2021-10-14T17:09:09Z</time>
      </trkpt>
      <trkpt lat="46.40684" lon="4.72509">
        <ele>294</ele>
        <time>2021-10-14T17:09:16Z</time>
      </trkpt>
      <trkpt lat="46.40687" lon="4.72484">
        <ele>295</ele>
        <time>2021-10-14T17:09:19Z</time>
      </trkpt>
      <trkpt lat="46.40684" lon="4.72466">
        <ele>295</ele>
        <time>2021-10-14T17:09:22Z</time>
      </trkpt>
      <trkpt lat="46.40645" lon="4.7238">
        <ele>297</ele>
        <time>2021-10-14T17:09:34Z</time>
      </trkpt>
      <trkpt lat="46.40702" lon="4.72245">
        <ele>312</ele>
        <time>2021-10-14T17:09:54Z</time>
      </trkpt>
      <trkpt lat="46.40712" lon="4.72216">
        <ele>316</ele>
        <time>2021-10-14T17:09:58Z</time>
      </trkpt>
      <trkpt lat="46.4072" lon="4.72182">
        <ele>318</ele>
        <time>2021-10-14T17:10:02Z</time>
      </trkpt>
      <trkpt lat="46.4073" lon="4.72108">
        <ele>319</ele>
        <time>2021-10-14T17:10:11Z</time>
      </trkpt>
      <trkpt lat="46.4074" lon="4.72065">
        <ele>318</ele>
        <time>2021-10-14T17:10:17Z</time>
      </trkpt>
      <trkpt lat="46.40777" lon="4.71981">
        <ele>325</ele>
        <time>2021-10-14T17:10:29Z</time>
      </trkpt>
      <trkpt lat="46.40834" lon="4.71879">
        <ele>327</ele>
        <time>2021-10-14T17:10:45Z</time>
      </trkpt>
      <trkpt lat="46.40857" lon="4.71848">
        <ele>329</ele>
        <time>2021-10-14T17:10:51Z</time>
      </trkpt>
      <trkpt lat="46.40864" lon="4.71842">
        <ele>330</ele>
        <time>2021-10-14T17:10:52Z</time>
      </trkpt>
      <trkpt lat="46.40875" lon="4.7184">
        <ele>332</ele>
        <time>2021-10-14T17:10:54Z</time>
      </trkpt>
      <trkpt lat="46.40884" lon="4.71843">
        <ele>333</ele>
        <time>2021-10-14T17:10:56Z</time>
      </trkpt>
      <trkpt lat="46.40895" lon="4.71855">
        <ele>335</ele>
        <time>2021-10-14T17:10:58Z</time>
      </trkpt>
      <trkpt lat="46.40898" lon="4.71867">
        <ele>336</ele>
        <time>2021-10-14T17:11:00Z</time>
      </trkpt>
      <trkpt lat="46.40897" lon="4.71876">
        <ele>337</ele>
        <time>2021-10-14T17:11:01Z</time>
      </trkpt>
      <trkpt lat="46.40893" lon="4.71884">
        <ele>336</ele>
        <time>2021-10-14T17:11:02Z</time>
      </trkpt>
      <trkpt lat="46.40887" lon="4.71887">
        <ele>336</ele>
        <time>2021-10-14T17:11:03Z</time>
      </trkpt>
      <trkpt lat="46.40873" lon="4.71889">
        <ele>334</ele>
        <time>2021-10-14T17:11:06Z</time>
      </trkpt>
      <trkpt lat="46.4086" lon="4.71897">
        <ele>332</ele>
        <time>2021-10-14T17:11:08Z</time>
      </trkpt>
      <trkpt lat="46.40845" lon="4.71914">
        <ele>331</ele>
        <time>2021-10-14T17:11:12Z</time>
      </trkpt>
      <trkpt lat="46.40831" lon="4.71943">
        <ele>331</ele>
        <time>2021-10-14T17:11:16Z</time>
      </trkpt>
      <trkpt lat="46.40809" lon="4.72033">
        <ele>331</ele>
        <time>2021-10-14T17:11:28Z</time>
      </trkpt>
      <trkpt lat="46.40802" lon="4.72083">
        <ele>331</ele>
        <time>2021-10-14T17:11:34Z</time>
      </trkpt>
      <trkpt lat="46.40801" lon="4.721">
        <ele>331</ele>
        <time>2021-10-14T17:11:36Z</time>
      </trkpt>
      <trkpt lat="46.40804" lon="4.72117">
        <ele>333</ele>
        <time>2021-10-14T17:11:38Z</time>
      </trkpt>
      <trkpt lat="46.40811" lon="4.72125">
        <ele>335</ele>
        <time>2021-10-14T17:11:40Z</time>
      </trkpt>
      <trkpt lat="46.40819" lon="4.72126">
        <ele>337</ele>
        <time>2021-10-14T17:11:41Z</time>
      </trkpt>
      <trkpt lat="46.40827" lon="4.72112">
        <ele>339</ele>
        <time>2021-10-14T17:11:44Z</time>
      </trkpt>
      <trkpt lat="46.40854" lon="4.71975">
        <ele>337</ele>
        <time>2021-10-14T17:12:01Z</time>
      </trkpt>
      <trkpt lat="46.40865" lon="4.71958">
        <ele>338</ele>
        <time>2021-10-14T17:12:04Z</time>
      </trkpt>
      <trkpt lat="46.4088" lon="4.71951">
        <ele>340</ele>
        <time>2021-10-14T17:12:07Z</time>
      </trkpt>
      <trkpt lat="46.40896" lon="4.71953">
        <ele>343</ele>
        <time>2021-10-14T17:12:10Z</time>
      </trkpt>
      <trkpt lat="46.40919" lon="4.71967">
        <ele>349</ele>
        <time>2021-10-14T17:12:14Z</time>
      </trkpt>
      <trkpt lat="46.40948" lon="4.71972">
        <ele>355</ele>
        <time>2021-10-14T17:12:19Z</time>
      </trkpt>
      <trkpt lat="46.40962" lon="4.71964">
        <ele>357</ele>
        <time>2021-10-14T17:12:22Z</time>
      </trkpt>
      <trkpt lat="46.40974" lon="4.71949">
        <ele>357</ele>
        <time>2021-10-14T17:12:25Z</time>
      </trkpt>
      <trkpt lat="46.40983" lon="4.71924">
        <ele>356</ele>
        <time>2021-10-14T17:12:28Z</time>
      </trkpt>
      <trkpt lat="46.40982" lon="4.71902">
        <ele>355</ele>
        <time>2021-10-14T17:12:31Z</time>
      </trkpt>
      <trkpt lat="46.40968" lon="4.71863">
        <ele>351</ele>
        <time>2021-10-14T17:12:36Z</time>
      </trkpt>
      <trkpt lat="46.40949" lon="4.71827">
        <ele>346</ele>
        <time>2021-10-14T17:12:42Z</time>
      </trkpt>
      <trkpt lat="46.40936" lon="4.71797">
        <ele>344</ele>
        <time>2021-10-14T17:12:46Z</time>
      </trkpt>
      <trkpt lat="46.40924" lon="4.71645">
        <ele>353</ele>
        <time>2021-10-14T17:13:05Z</time>
      </trkpt>
      <trkpt lat="46.4094" lon="4.71553">
        <ele>361</ele>
        <time>2021-10-14T17:13:17Z</time>
      </trkpt>
      <trkpt lat="46.4094" lon="4.71501">
        <ele>365</ele>
        <time>2021-10-14T17:13:23Z</time>
      </trkpt>
      <trkpt lat="46.40931" lon="4.71454">
        <ele>364</ele>
        <time>2021-10-14T17:13:29Z</time>
      </trkpt>
      <trkpt lat="46.40933" lon="4.71421">
        <ele>367</ele>
        <time>2021-10-14T17:13:33Z</time>
      </trkpt>
      <trkpt lat="46.40946" lon="4.71366">
        <ele>368</ele>
        <time>2021-10-14T17:13:40Z</time>
      </trkpt>
      <trkpt lat="46.41011" lon="4.71271">
        <ele>376</ele>
        <time>2021-10-14T17:13:57Z</time>
      </trkpt>
      <trkpt lat="46.41043" lon="4.71246">
        <ele>381</ele>
        <time>2021-10-14T17:14:03Z</time>
      </trkpt>
      <trkpt lat="46.41065" lon="4.71219">
        <ele>383</ele>
        <time>2021-10-14T17:14:08Z</time>
      </trkpt>
      <trkpt lat="46.41092" lon="4.712">
        <ele>386</ele>
        <time>2021-10-14T17:14:14Z</time>
      </trkpt>
      <trkpt lat="46.41114" lon="4.71181">
        <ele>389</ele>
        <time>2021-10-14T17:14:18Z</time>
      </trkpt>
      <trkpt lat="46.41134" lon="4.71153">
        <ele>391</ele>
        <time>2021-10-14T17:14:23Z</time>
      </trkpt>
      <trkpt lat="46.41171" lon="4.71085">
        <ele>391</ele>
        <time>2021-10-14T17:14:34Z</time>
      </trkpt>
      <trkpt lat="46.412" lon="4.71061">
        <ele>395</ele>
        <time>2021-10-14T17:14:40Z</time>
      </trkpt>
      <trkpt lat="46.41232" lon="4.71046">
        <ele>398</ele>
        <time>2021-10-14T17:14:46Z</time>
      </trkpt>
      <trkpt lat="46.41263" lon="4.71043">
        <ele>401</ele>
        <time>2021-10-14T17:14:51Z</time>
      </trkpt>
      <trkpt lat="46.413" lon="4.71045">
        <ele>404</ele>
        <time>2021-10-14T17:14:58Z</time>
      </trkpt>
      <trkpt lat="46.41357" lon="4.71066">
        <ele>413</ele>
        <time>2021-10-14T17:15:08Z</time>
      </trkpt>
      <trkpt lat="46.41471" lon="4.71057">
        <ele>421</ele>
        <time>2021-10-14T17:15:28Z</time>
      </trkpt>
      <trkpt lat="46.41486" lon="4.71044">
        <ele>419</ele>
        <time>2021-10-14T17:15:32Z</time>
      </trkpt>
      <trkpt lat="46.41499" lon="4.71022">
        <ele>415</ele>
        <time>2021-10-14T17:15:35Z</time>
      </trkpt>
      <trkpt lat="46.41514" lon="4.71009">
        <ele>416</ele>
        <time>2021-10-14T17:15:38Z</time>
      </trkpt>
      <trkpt lat="46.4157" lon="4.70978">
        <ele>425</ele>
        <time>2021-10-14T17:15:49Z</time>
      </trkpt>
      <trkpt lat="46.41602" lon="4.70955">
        <ele>428</ele>
        <time>2021-10-14T17:15:55Z</time>
      </trkpt>
      <trkpt lat="46.41731" lon="4.7085">
        <ele>443</ele>
        <time>2021-10-14T17:16:22Z</time>
      </trkpt>
      <trkpt lat="46.41764" lon="4.70813">
        <ele>446</ele>
        <time>2021-10-14T17:16:29Z</time>
      </trkpt>
      <trkpt lat="46.41769" lon="4.70795">
        <ele>447</ele>
        <time>2021-10-14T17:16:31Z</time>
      </trkpt>
      <trkpt lat="46.41767" lon="4.70783">
        <ele>447</ele>
        <time>2021-10-14T17:16:33Z</time>
      </trkpt>
      <trkpt lat="46.41762" lon="4.70773">
        <ele>447</ele>
        <time>2021-10-14T17:16:34Z</time>
      </trkpt>
      <trkpt lat="46.41747" lon="4.70767">
        <ele>446</ele>
        <time>2021-10-14T17:16:37Z</time>
      </trkpt>
      <trkpt lat="46.41685" lon="4.7079">
        <ele>447</ele>
        <time>2021-10-14T17:16:49Z</time>
      </trkpt>
      <trkpt lat="46.4166" lon="4.70805">
        <ele>444</ele>
        <time>2021-10-14T17:16:53Z</time>
      </trkpt>
      <trkpt lat="46.41633" lon="4.70817">
        <ele>442</ele>
        <time>2021-10-14T17:16:58Z</time>
      </trkpt>
      <trkpt lat="46.41619" lon="4.70818">
        <ele>442</ele>
        <time>2021-10-14T17:17:01Z</time>
      </trkpt>
      <trkpt lat="46.41599" lon="4.70816">
        <ele>444</ele>
        <time>2021-10-14T17:17:04Z</time>
      </trkpt>
      <trkpt lat="46.41565" lon="4.70806">
        <ele>447</ele>
        <time>2021-10-14T17:17:11Z</time>
      </trkpt>
      <trkpt lat="46.41545" lon="4.70804">
        <ele>447</ele>
        <time>2021-10-14T17:17:14Z</time>
      </trkpt>
      <trkpt lat="46.41524" lon="4.70814">
        <ele>443</ele>
        <time>2021-10-14T17:17:18Z</time>
      </trkpt>
      <trkpt lat="46.41502" lon="4.70817">
        <ele>442</ele>
        <time>2021-10-14T17:17:22Z</time>
      </trkpt>
      <trkpt lat="46.41477" lon="4.70815">
        <ele>444</ele>
        <time>2021-10-14T17:17:27Z</time>
      </trkpt>
      <trkpt lat="46.41441" lon="4.70821">
        <ele>445</ele>
        <time>2021-10-14T17:17:33Z</time>
      </trkpt>
      <trkpt lat="46.41425" lon="4.7082">
        <ele>446</ele>
        <time>2021-10-14T17:17:36Z</time>
      </trkpt>
      <trkpt lat="46.41406" lon="4.70809">
        <ele>447</ele>
        <time>2021-10-14T17:17:39Z</time>
      </trkpt>
      <trkpt lat="46.41389" lon="4.70792">
        <ele>448</ele>
        <time>2021-10-14T17:17:43Z</time>
      </trkpt>
      <trkpt lat="46.41375" lon="4.70763">
        <ele>451</ele>
        <time>2021-10-14T17:17:47Z</time>
      </trkpt>
      <trkpt lat="46.41362" lon="4.7073">
        <ele>454</ele>
        <time>2021-10-14T17:17:52Z</time>
      </trkpt>
      <trkpt lat="46.41341" lon="4.70642">
        <ele>456</ele>
        <time>2021-10-14T17:18:04Z</time>
      </trkpt>
      <trkpt lat="46.41345" lon="4.70592">
        <ele>460</ele>
        <time>2021-10-14T17:18:10Z</time>
      </trkpt>
      <trkpt lat="46.41353" lon="4.70545">
        <ele>461</ele>
        <time>2021-10-14T17:18:16Z</time>
      </trkpt>
      <trkpt lat="46.41368" lon="4.70483">
        <ele>463</ele>
        <time>2021-10-14T17:18:24Z</time>
      </trkpt>
      <trkpt lat="46.41387" lon="4.70438">
        <ele>467</ele>
        <time>2021-10-14T17:18:30Z</time>
      </trkpt>
      <trkpt lat="46.41388" lon="4.70424">
        <ele>467</ele>
        <time>2021-10-14T17:18:32Z</time>
      </trkpt>
      <trkpt lat="46.41387" lon="4.704">
        <ele>467</ele>
        <time>2021-10-14T17:18:35Z</time>
      </trkpt>
      <trkpt lat="46.4138" lon="4.70364">
        <ele>467</ele>
        <time>2021-10-14T17:18:39Z</time>
      </trkpt>
      <trkpt lat="46.41378" lon="4.7025">
        <ele>480</ele>
        <time>2021-10-14T17:18:53Z</time>
      </trkpt>
      <trkpt lat="46.41374" lon="4.70232">
        <ele>483</ele>
        <time>2021-10-14T17:18:56Z</time>
      </trkpt>
      <trkpt lat="46.41369" lon="4.70224">
        <ele>484</ele>
        <time>2021-10-14T17:18:57Z</time>
      </trkpt>
      <trkpt lat="46.41358" lon="4.7022">
        <ele>483</ele>
        <time>2021-10-14T17:18:59Z</time>
      </trkpt>
      <trkpt lat="46.41331" lon="4.70215">
        <ele>480</ele>
        <time>2021-10-14T17:19:04Z</time>
      </trkpt>
      <trkpt lat="46.41316" lon="4.7021">
        <ele>480</ele>
        <time>2021-10-14T17:19:07Z</time>
      </trkpt>
      <trkpt lat="46.41303" lon="4.70198">
        <ele>482</ele>
        <time>2021-10-14T17:19:09Z</time>
      </trkpt>
      <trkpt lat="46.4127" lon="4.70151">
        <ele>491</ele>
        <time>2021-10-14T17:19:18Z</time>
      </trkpt>
      <trkpt lat="46.41247" lon="4.70129">
        <ele>493</ele>
        <time>2021-10-14T17:19:23Z</time>
      </trkpt>
      <trkpt lat="46.41229" lon="4.70121">
        <ele>494</ele>
        <time>2021-10-14T17:19:26Z</time>
      </trkpt>
      <trkpt lat="46.41183" lon="4.70112">
        <ele>492</ele>
        <time>2021-10-14T17:19:34Z</time>
      </trkpt>
      <trkpt lat="46.41161" lon="4.70101">
        <ele>492</ele>
        <time>2021-10-14T17:19:38Z</time>
      </trkpt>
      <trkpt lat="46.41142" lon="4.70086">
        <ele>492</ele>
        <time>2021-10-14T17:19:42Z</time>
      </trkpt>
      <trkpt lat="46.41118" lon="4.70051">
        <ele>493</ele>
        <time>2021-10-14T17:19:48Z</time>
      </trkpt>
      <trkpt lat="46.41102" lon="4.70005">
        <ele>494</ele>
        <time>2021-10-14T17:19:55Z</time>
      </trkpt>
      <trkpt lat="46.41093" lon="4.69945">
        <ele>496</ele>
        <time>2021-10-14T17:20:02Z</time>
      </trkpt>
      <trkpt lat="46.4109" lon="4.69915">
        <ele>497</ele>
        <time>2021-10-14T17:20:06Z</time>
      </trkpt>
      <trkpt lat="46.41091" lon="4.69787">
        <ele>505</ele>
        <time>2021-10-14T17:20:22Z</time>
      </trkpt>
      <trkpt lat="46.41094" lon="4.69767">
        <ele>506</ele>
        <time>2021-10-14T17:20:24Z</time>
      </trkpt>
      <trkpt lat="46.41061" lon="4.69752">
        <ele>505</ele>
        <time>2021-10-14T17:20:30Z</time>
      </trkpt>
      <trkpt lat="46.41046" lon="4.69749">
        <ele>505</ele>
        <time>2021-10-14T17:20:33Z</time>
      </trkpt>
      <trkpt lat="46.41022" lon="4.69749">
        <ele>504</ele>
        <time>2021-10-14T17:20:37Z</time>
      </trkpt>
      <trkpt lat="46.41007" lon="4.69753">
        <ele>503</ele>
        <time>2021-10-14T17:20:40Z</time>
      </trkpt>
      <trkpt lat="46.40907" lon="4.69816">
        <ele>506</ele>
        <time>2021-10-14T17:20:59Z</time>
      </trkpt>
      <trkpt lat="46.40796" lon="4.69905">
        <ele>501</ele>
        <time>2021-10-14T17:21:22Z</time>
      </trkpt>
      <trkpt lat="46.4076" lon="4.69963">
        <ele>493</ele>
        <time>2021-10-14T17:21:31Z</time>
      </trkpt>
      <trkpt lat="46.40742" lon="4.69997">
        <ele>486</ele>
        <time>2021-10-14T17:21:37Z</time>
      </trkpt>
      <trkpt lat="46.40723" lon="4.70023">
        <ele>482</ele>
        <time>2021-10-14T17:21:41Z</time>
      </trkpt>
      <trkpt lat="46.40706" lon="4.70045">
        <ele>480</ele>
        <time>2021-10-14T17:21:45Z</time>
      </trkpt>
      <trkpt lat="46.40685" lon="4.70056">
        <ele>481</ele>
        <time>2021-10-14T17:21:49Z</time>
      </trkpt>
      <trkpt lat="46.40676" lon="4.70057">
        <ele>482</ele>
        <time>2021-10-14T17:21:51Z</time>
      </trkpt>
      <trkpt lat="46.40656" lon="4.70049">
        <ele>483</ele>
        <time>2021-10-14T17:21:55Z</time>
      </trkpt>
      <trkpt lat="46.40643" lon="4.70019">
        <ele>486</ele>
        <time>2021-10-14T17:21:59Z</time>
      </trkpt>
      <trkpt lat="46.40627" lon="4.69974">
        <ele>489</ele>
        <time>2021-10-14T17:22:05Z</time>
      </trkpt>
      <trkpt lat="46.40615" lon="4.69954">
        <ele>490</ele>
        <time>2021-10-14T17:22:08Z</time>
      </trkpt>
      <trkpt lat="46.40591" lon="4.69941">
        <ele>488</ele>
        <time>2021-10-14T17:22:13Z</time>
      </trkpt>
      <trkpt lat="46.40565" lon="4.69923">
        <ele>488</ele>
        <time>2021-10-14T17:22:18Z</time>
      </trkpt>
      <trkpt lat="46.40542" lon="4.69917">
        <ele>487</ele>
        <time>2021-10-14T17:22:22Z</time>
      </trkpt>
      <trkpt lat="46.40514" lon="4.69921">
        <ele>484</ele>
        <time>2021-10-14T17:22:27Z</time>
      </trkpt>
      <trkpt lat="46.40474" lon="4.69957">
        <ele>478</ele>
        <time>2021-10-14T17:22:36Z</time>
      </trkpt>
      <trkpt lat="46.40411" lon="4.69947">
        <ele>482</ele>
        <time>2021-10-14T17:22:47Z</time>
      </trkpt>
      <trkpt lat="46.40394" lon="4.69948">
        <ele>485</ele>
        <time>2021-10-14T17:22:50Z</time>
      </trkpt>
      <trkpt lat="46.40359" lon="4.69977">
        <ele>486</ele>
        <time>2021-10-14T17:22:57Z</time>
      </trkpt>
      <trkpt lat="46.40344" lon="4.7002">
        <ele>484</ele>
        <time>2021-10-14T17:23:03Z</time>
      </trkpt>
      <trkpt lat="46.40342" lon="4.7004">
        <ele>484</ele>
        <time>2021-10-14T17:23:06Z</time>
      </trkpt>
      <trkpt lat="46.40354" lon="4.70132">
        <ele>478</ele>
        <time>2021-10-14T17:23:17Z</time>
      </trkpt>
      <trkpt lat="46.4034" lon="4.70233">
        <ele>480</ele>
        <time>2021-10-14T17:23:30Z</time>
      </trkpt>
      <trkpt lat="46.4035" lon="4.7035">
        <ele>479</ele>
        <time>2021-10-14T17:23:44Z</time>
      </trkpt>
      <trkpt lat="46.40347" lon="4.70376">
        <ele>478</ele>
        <time>2021-10-14T17:23:47Z</time>
      </trkpt>
      <trkpt lat="46.40341" lon="4.70399">
        <ele>478</ele>
        <time>2021-10-14T17:23:50Z</time>
      </trkpt>
      <trkpt lat="46.40324" lon="4.70431">
        <ele>476</ele>
        <time>2021-10-14T17:23:55Z</time>
      </trkpt>
      <trkpt lat="46.40302" lon="4.70456">
        <ele>474</ele>
        <time>2021-10-14T17:24:00Z</time>
      </trkpt>
      <trkpt lat="46.40284" lon="4.70461">
        <ele>474</ele>
        <time>2021-10-14T17:24:04Z</time>
      </trkpt>
      <trkpt lat="46.4025" lon="4.7046">
        <ele>474</ele>
        <time>2021-10-14T17:24:10Z</time>
      </trkpt>
      <trkpt lat="46.40198" lon="4.70443">
        <ele>476</ele>
        <time>2021-10-14T17:24:19Z</time>
      </trkpt>
      <trkpt lat="46.40173" lon="4.70445">
        <ele>476</ele>
        <time>2021-10-14T17:24:24Z</time>
      </trkpt>
      <trkpt lat="46.39875" lon="4.70529">
        <ele>463</ele>
        <time>2021-10-14T17:25:18Z</time>
      </trkpt>
      <trkpt lat="46.39812" lon="4.70545">
        <ele>464</ele>
        <time>2021-10-14T17:25:29Z</time>
      </trkpt>
      <trkpt lat="46.39762" lon="4.7056">
        <ele>462</ele>
        <time>2021-10-14T17:25:38Z</time>
      </trkpt>
      <trkpt lat="46.39736" lon="4.70562">
        <ele>461</ele>
        <time>2021-10-14T17:25:43Z</time>
      </trkpt>
      <trkpt lat="46.39706" lon="4.70554">
        <ele>459</ele>
        <time>2021-10-14T17:25:48Z</time>
      </trkpt>
      <trkpt lat="46.39681" lon="4.70539">
        <ele>458</ele>
        <time>2021-10-14T17:25:53Z</time>
      </trkpt>
      <trkpt lat="46.3966" lon="4.70521">
        <ele>458</ele>
        <time>2021-10-14T17:25:57Z</time>
      </trkpt>
      <trkpt lat="46.39629" lon="4.70504">
        <ele>457</ele>
        <time>2021-10-14T17:26:03Z</time>
      </trkpt>
      <trkpt lat="46.39575" lon="4.70465">
        <ele>456</ele>
        <time>2021-10-14T17:26:14Z</time>
      </trkpt>
      <trkpt lat="46.39539" lon="4.70457">
        <ele>454</ele>
        <time>2021-10-14T17:26:20Z</time>
      </trkpt>
      <trkpt lat="46.39506" lon="4.70462">
        <ele>451</ele>
        <time>2021-10-14T17:26:26Z</time>
      </trkpt>
      <trkpt lat="46.39446" lon="4.7045">
        <ele>447</ele>
        <time>2021-10-14T17:26:37Z</time>
      </trkpt>
      <trkpt lat="46.3936" lon="4.70419">
        <ele>442</ele>
        <time>2021-10-14T17:26:53Z</time>
      </trkpt>
      <trkpt lat="46.39326" lon="4.704">
        <ele>441</ele>
        <time>2021-10-14T17:26:59Z</time>
      </trkpt>
      <trkpt lat="46.39311" lon="4.70395">
        <ele>441</ele>
        <time>2021-10-14T17:27:02Z</time>
      </trkpt>
      <trkpt lat="46.39222" lon="4.7038">
        <ele>437</ele>
        <time>2021-10-14T17:27:18Z</time>
      </trkpt>
      <trkpt lat="46.39207" lon="4.7038">
        <ele>437</ele>
        <time>2021-10-14T17:27:21Z</time>
      </trkpt>
      <trkpt lat="46.39194" lon="4.70385">
        <ele>435</ele>
        <time>2021-10-14T17:27:23Z</time>
      </trkpt>
      <trkpt lat="46.39187" lon="4.70391">
        <ele>434</ele>
        <time>2021-10-14T17:27:25Z</time>
      </trkpt>
      <trkpt lat="46.39151" lon="4.70438">
        <ele>425</ele>
        <time>2021-10-14T17:27:33Z</time>
      </trkpt>
      <trkpt lat="46.39144" lon="4.70446">
        <ele>424</ele>
        <time>2021-10-14T17:27:35Z</time>
      </trkpt>
      <trkpt lat="46.39126" lon="4.70457">
        <ele>421</ele>
        <time>2021-10-14T17:27:38Z</time>
      </trkpt>
      <trkpt lat="46.39106" lon="4.7046">
        <ele>420</ele>
        <time>2021-10-14T17:27:42Z</time>
      </trkpt>
      <trkpt lat="46.39022" lon="4.7045">
        <ele>416</ele>
        <time>2021-10-14T17:27:57Z</time>
      </trkpt>
      <trkpt lat="46.39015" lon="4.70453">
        <ele>415</ele>
        <time>2021-10-14T17:27:58Z</time>
      </trkpt>
      <trkpt lat="46.38994" lon="4.7048">
        <ele>411</ele>
        <time>2021-10-14T17:28:03Z</time>
      </trkpt>
      <trkpt lat="46.38986" lon="4.70483">
        <ele>410</ele>
        <time>2021-10-14T17:28:05Z</time>
      </trkpt>
      <trkpt lat="46.38978" lon="4.70483">
        <ele>410</ele>
        <time>2021-10-14T17:28:06Z</time>
      </trkpt>
      <trkpt lat="46.38899" lon="4.70453">
        <ele>411</ele>
        <time>2021-10-14T17:28:20Z</time>
      </trkpt>
      <trkpt lat="46.38872" lon="4.7045">
        <ele>410</ele>
        <time>2021-10-14T17:28:25Z</time>
      </trkpt>
      <trkpt lat="46.38863" lon="4.70447">
        <ele>410</ele>
        <time>2021-10-14T17:28:27Z</time>
      </trkpt>
      <trkpt lat="46.38843" lon="4.70435">
        <ele>410</ele>
        <time>2021-10-14T17:28:31Z</time>
      </trkpt>
      <trkpt lat="46.38836" lon="4.70434">
        <ele>410</ele>
        <time>2021-10-14T17:28:32Z</time>
      </trkpt>
      <trkpt lat="46.38829" lon="4.70437">
        <ele>409</ele>
        <time>2021-10-14T17:28:33Z</time>
      </trkpt>
      <trkpt lat="46.38821" lon="4.70451">
        <ele>409</ele>
        <time>2021-10-14T17:28:36Z</time>
      </trkpt>
      <trkpt lat="46.38817" lon="4.70464">
        <ele>408</ele>
        <time>2021-10-14T17:28:37Z</time>
      </trkpt>
      <trkpt lat="46.38802" lon="4.70537">
        <ele>405</ele>
        <time>2021-10-14T17:28:47Z</time>
      </trkpt>
      <trkpt lat="46.38796" lon="4.70533">
        <ele>406</ele>
        <time>2021-10-14T17:28:48Z</time>
      </trkpt>
      <trkpt lat="46.3875" lon="4.70469">
        <ele>412</ele>
        <time>2021-10-14T17:28:59Z</time>
      </trkpt>
      <trkpt lat="46.38748" lon="4.7046">
        <ele>413</ele>
        <time>2021-10-14T17:29:00Z</time>
      </trkpt>
      <trkpt lat="46.3875" lon="4.70438">
        <ele>413</ele>
        <time>2021-10-14T17:29:03Z</time>
      </trkpt>
      <trkpt lat="46.38749" lon="4.70432">
        <ele>414</ele>
        <time>2021-10-14T17:29:04Z</time>
      </trkpt>
      <trkpt lat="46.3867" lon="4.70367">
        <ele>421</ele>
        <time>2021-10-14T17:29:20Z</time>
      </trkpt>
      <trkpt lat="46.38638" lon="4.70336">
        <ele>424</ele>
        <time>2021-10-14T17:29:27Z</time>
      </trkpt>
      <trkpt lat="46.38594" lon="4.70285">
        <ele>430</ele>
        <time>2021-10-14T17:29:37Z</time>
      </trkpt>
      <trkpt lat="46.38553" lon="4.70244">
        <ele>434</ele>
        <time>2021-10-14T17:29:46Z</time>
      </trkpt>
      <trkpt lat="46.38533" lon="4.70227">
        <ele>436</ele>
        <time>2021-10-14T17:29:50Z</time>
      </trkpt>
      <trkpt lat="46.38449" lon="4.70165">
        <ele>443</ele>
        <time>2021-10-14T17:30:07Z</time>
      </trkpt>
      <trkpt lat="46.38428" lon="4.70141">
        <ele>445</ele>
        <time>2021-10-14T17:30:11Z</time>
      </trkpt>
      <trkpt lat="46.38415" lon="4.70113">
        <ele>445</ele>
        <time>2021-10-14T17:30:16Z</time>
      </trkpt>
      <trkpt lat="46.38409" lon="4.70105">
        <ele>445</ele>
        <time>2021-10-14T17:30:17Z</time>
      </trkpt>
      <trkpt lat="46.38346" lon="4.70077">
        <ele>446</ele>
        <time>2021-10-14T17:30:29Z</time>
      </trkpt>
      <trkpt lat="46.38338" lon="4.7007">
        <ele>446</ele>
        <time>2021-10-14T17:30:30Z</time>
      </trkpt>
      <trkpt lat="46.38332" lon="4.7006">
        <ele>446</ele>
        <time>2021-10-14T17:30:32Z</time>
      </trkpt>
      <trkpt lat="46.38325" lon="4.70027">
        <ele>447</ele>
        <time>2021-10-14T17:30:36Z</time>
      </trkpt>
      <trkpt lat="46.38323" lon="4.69984">
        <ele>446</ele>
        <time>2021-10-14T17:30:42Z</time>
      </trkpt>
      <trkpt lat="46.38314" lon="4.69942">
        <ele>444</ele>
        <time>2021-10-14T17:30:47Z</time>
      </trkpt>
      <trkpt lat="46.38281" lon="4.69974">
        <ele>445</ele>
        <time>2021-10-14T17:30:54Z</time>
      </trkpt>
      <trkpt lat="46.38264" lon="4.69984">
        <ele>445</ele>
        <time>2021-10-14T17:30:57Z</time>
      </trkpt>
      <trkpt lat="46.3825" lon="4.69989">
        <ele>445</ele>
        <time>2021-10-14T17:31:00Z</time>
      </trkpt>
      <trkpt lat="46.38219" lon="4.69992">
        <ele>445</ele>
        <time>2021-10-14T17:31:05Z</time>
      </trkpt>
      <trkpt lat="46.38187" lon="4.69986">
        <ele>444</ele>
        <time>2021-10-14T17:31:11Z</time>
      </trkpt>
      <trkpt lat="46.38035" lon="4.69931">
        <ele>438</ele>
        <time>2021-10-14T17:31:39Z</time>
      </trkpt>
      <trkpt lat="46.37996" lon="4.69915">
        <ele>436</ele>
        <time>2021-10-14T17:31:46Z</time>
      </trkpt>
      <trkpt lat="46.37916" lon="4.69886">
        <ele>432</ele>
        <time>2021-10-14T17:32:01Z</time>
      </trkpt>
      <trkpt lat="46.37865" lon="4.69879">
        <ele>430</ele>
        <time>2021-10-14T17:32:10Z</time>
      </trkpt>
      <trkpt lat="46.37821" lon="4.69868">
        <ele>427</ele>
        <time>2021-10-14T17:32:18Z</time>
      </trkpt>
      <trkpt lat="46.3771" lon="4.69817">
        <ele>416</ele>
        <time>2021-10-14T17:32:39Z</time>
      </trkpt>
      <trkpt lat="46.37668" lon="4.69805">
        <ele>413</ele>
        <time>2021-10-14T17:32:46Z</time>
      </trkpt>
      <trkpt lat="46.37647" lon="4.69802">
        <ele>412</ele>
        <time>2021-10-14T17:32:50Z</time>
      </trkpt>
      <trkpt lat="46.37616" lon="4.69802">
        <ele>412</ele>
        <time>2021-10-14T17:32:55Z</time>
      </trkpt>
      <trkpt lat="46.37452" lon="4.69811">
        <ele>414</ele>
        <time>2021-10-14T17:33:25Z</time>
      </trkpt>
      <trkpt lat="46.37378" lon="4.69815">
        <ele>416</ele>
        <time>2021-10-14T17:33:38Z</time>
      </trkpt>
      <trkpt lat="46.37364" lon="4.69814">
        <ele>416</ele>
        <time>2021-10-14T17:33:40Z</time>
      </trkpt>
      <trkpt lat="46.3733" lon="4.69806">
        <ele>415</ele>
        <time>2021-10-14T17:33:46Z</time>
      </trkpt>
      <trkpt lat="46.37289" lon="4.69802">
        <ele>411</ele>
        <time>2021-10-14T17:33:54Z</time>
      </trkpt>
      <trkpt lat="46.37226" lon="4.69816">
        <ele>405</ele>
        <time>2021-10-14T17:34:05Z</time>
      </trkpt>
      <trkpt lat="46.37201" lon="4.69828">
        <ele>403</ele>
        <time>2021-10-14T17:34:10Z</time>
      </trkpt>
      <trkpt lat="46.37124" lon="4.69875">
        <ele>395</ele>
        <time>2021-10-14T17:34:25Z</time>
      </trkpt>
      <trkpt lat="46.37111" lon="4.6988">
        <ele>394</ele>
        <time>2021-10-14T17:34:27Z</time>
      </trkpt>
      <trkpt lat="46.37028" lon="4.69893">
        <ele>383</ele>
        <time>2021-10-14T17:34:42Z</time>
      </trkpt>
      <trkpt lat="46.37" lon="4.69902">
        <ele>380</ele>
        <time>2021-10-14T17:34:47Z</time>
      </trkpt>
      <trkpt lat="46.36973" lon="4.69915">
        <ele>377</ele>
        <time>2021-10-14T17:34:52Z</time>
      </trkpt>
      <trkpt lat="46.36947" lon="4.69935">
        <ele>374</ele>
        <time>2021-10-14T17:34:57Z</time>
      </trkpt>
      <trkpt lat="46.36872" lon="4.70007">
        <ele>365</ele>
        <time>2021-10-14T17:35:13Z</time>
      </trkpt>
      <trkpt lat="46.36864" lon="4.70018">
        <ele>365</ele>
        <time>2021-10-14T17:35:15Z</time>
      </trkpt>
      <trkpt lat="46.36854" lon="4.70037">
        <ele>364</ele>
        <time>2021-10-14T17:35:18Z</time>
      </trkpt>
      <trkpt lat="46.36834" lon="4.70096">
        <ele>363</ele>
        <time>2021-10-14T17:35:26Z</time>
      </trkpt>
      <trkpt lat="46.36825" lon="4.70116">
        <ele>362</ele>
        <time>2021-10-14T17:35:29Z</time>
      </trkpt>
      <trkpt lat="46.36819" lon="4.70126">
        <ele>362</ele>
        <time>2021-10-14T17:35:31Z</time>
      </trkpt>
      <trkpt lat="46.36766" lon="4.70172">
        <ele>358</ele>
        <time>2021-10-14T17:35:42Z</time>
      </trkpt>
      <trkpt lat="46.36716" lon="4.7023">
        <ele>359</ele>
        <time>2021-10-14T17:35:53Z</time>
      </trkpt>
      <trkpt lat="46.36558" lon="4.70378">
        <ele>347</ele>
        <time>2021-10-14T17:36:27Z</time>
      </trkpt>
      <trkpt lat="46.36504" lon="4.70374">
        <ele>343</ele>
        <time>2021-10-14T17:36:36Z</time>
      </trkpt>
      <trkpt lat="46.36431" lon="4.7036">
        <ele>338</ele>
        <time>2021-10-14T17:36:49Z</time>
      </trkpt>
      <trkpt lat="46.36394" lon="4.70361">
        <ele>335</ele>
        <time>2021-10-14T17:36:56Z</time>
      </trkpt>
      <trkpt lat="46.36382" lon="4.70364">
        <ele>334</ele>
        <time>2021-10-14T17:36:58Z</time>
      </trkpt>
      <trkpt lat="46.36357" lon="4.70376">
        <ele>332</ele>
        <time>2021-10-14T17:37:03Z</time>
      </trkpt>
      <trkpt lat="46.36339" lon="4.70371">
        <ele>331</ele>
        <time>2021-10-14T17:37:06Z</time>
      </trkpt>
      <trkpt lat="46.36316" lon="4.70354">
        <ele>328</ele>
        <time>2021-10-14T17:37:11Z</time>
      </trkpt>
      <trkpt lat="46.36306" lon="4.70371">
        <ele>326</ele>
        <time>2021-10-14T17:37:14Z</time>
      </trkpt>
      <trkpt lat="46.36256" lon="4.70406">
        <ele>320</ele>
        <time>2021-10-14T17:37:23Z</time>
      </trkpt>
      <trkpt lat="46.36241" lon="4.70422">
        <ele>319</ele>
        <time>2021-10-14T17:37:27Z</time>
      </trkpt>
      <trkpt lat="46.36229" lon="4.70449">
        <ele>319</ele>
        <time>2021-10-14T17:37:31Z</time>
      </trkpt>
      <trkpt lat="46.36223" lon="4.70471">
        <ele>320</ele>
        <time>2021-10-14T17:37:34Z</time>
      </trkpt>
      <trkpt lat="46.36198" lon="4.70479">
        <ele>319</ele>
        <time>2021-10-14T17:37:38Z</time>
      </trkpt>
      <trkpt lat="46.36177" lon="4.70481">
        <ele>318</ele>
        <time>2021-10-14T17:37:42Z</time>
      </trkpt>
      <trkpt lat="46.36137" lon="4.7048">
        <ele>314</ele>
        <time>2021-10-14T17:37:49Z</time>
      </trkpt>
      <trkpt lat="46.3612" lon="4.70486">
        <ele>313</ele>
        <time>2021-10-14T17:37:52Z</time>
      </trkpt>
      <trkpt lat="46.3611" lon="4.70492">
        <ele>312</ele>
        <time>2021-10-14T17:37:54Z</time>
      </trkpt>
      <trkpt lat="46.3599" lon="4.70604">
        <ele>304</ele>
        <time>2021-10-14T17:38:19Z</time>
      </trkpt>
      <trkpt lat="46.35977" lon="4.70612">
        <ele>303</ele>
        <time>2021-10-14T17:38:22Z</time>
      </trkpt>
      <trkpt lat="46.35965" lon="4.70617">
        <ele>302</ele>
        <time>2021-10-14T17:38:24Z</time>
      </trkpt>
      <trkpt lat="46.3592" lon="4.70627">
        <ele>296</ele>
        <time>2021-10-14T17:38:32Z</time>
      </trkpt>
      <trkpt lat="46.358" lon="4.70646">
        <ele>288</ele>
        <time>2021-10-14T17:38:54Z</time>
      </trkpt>
      <trkpt lat="46.35598" lon="4.70681">
        <ele>276</ele>
        <time>2021-10-14T17:39:30Z</time>
      </trkpt>
      <trkpt lat="46.35564" lon="4.70692">
        <ele>273</ele>
        <time>2021-10-14T17:39:36Z</time>
      </trkpt>
      <trkpt lat="46.35485" lon="4.70725">
        <ele>265</ele>
        <time>2021-10-14T17:39:51Z</time>
      </trkpt>
      <trkpt lat="46.35432" lon="4.7074">
        <ele>259</ele>
        <time>2021-10-14T17:40:00Z</time>
      </trkpt>
      <trkpt lat="46.35413" lon="4.70749">
        <ele>257</ele>
        <time>2021-10-14T17:40:04Z</time>
      </trkpt>
      <trkpt lat="46.35393" lon="4.7075">
        <ele>255</ele>
        <time>2021-10-14T17:40:07Z</time>
      </trkpt>
      <trkpt lat="46.35297" lon="4.70773">
        <ele>250</ele>
        <time>2021-10-14T17:40:25Z</time>
      </trkpt>
      <trkpt lat="46.35246" lon="4.70788">
        <ele>248</ele>
        <time>2021-10-14T17:40:34Z</time>
      </trkpt>
      <trkpt lat="46.35238" lon="4.70788">
        <ele>248</ele>
        <time>2021-10-14T17:40:35Z</time>
      </trkpt>
      <trkpt lat="46.35229" lon="4.70779">
        <ele>247</ele>
        <time>2021-10-14T17:40:37Z</time>
      </trkpt>
      <trkpt lat="46.35209" lon="4.7078">
        <ele>246</ele>
        <time>2021-10-14T17:40:41Z</time>
      </trkpt>
      <trkpt lat="46.35162" lon="4.70799">
        <ele>244</ele>
        <time>2021-10-14T17:40:50Z</time>
      </trkpt>
      <trkpt lat="46.35147" lon="4.70808">
        <ele>243</ele>
        <time>2021-10-14T17:40:53Z</time>
      </trkpt>
      <trkpt lat="46.35119" lon="4.70844">
        <ele>241</ele>
        <time>2021-10-14T17:40:59Z</time>
      </trkpt>
      <trkpt lat="46.3511" lon="4.708">
        <ele>241</ele>
        <time>2021-10-14T17:41:05Z</time>
      </trkpt>
      <trkpt lat="46.35098" lon="4.70762">
        <ele>242</ele>
        <time>2021-10-14T17:41:10Z</time>
      </trkpt>
      <trkpt lat="46.35093" lon="4.70749">
        <ele>242</ele>
        <time>2021-10-14T17:41:12Z</time>
      </trkpt>
      <trkpt lat="46.35092" lon="4.70746">
        <ele>242</ele>
        <time>2021-10-14T17:41:12Z</time>
      </trkpt>
      <trkpt lat="46.35085" lon="4.70733">
        <ele>242</ele>
        <time>2021-10-14T17:41:14Z</time>
      </trkpt>
      <trkpt lat="46.35058" lon="4.7067">
        <ele>242</ele>
        <time>2021-10-14T17:41:23Z</time>
      </trkpt>
      <trkpt lat="46.35047" lon="4.70644">
        <ele>242</ele>
        <time>2021-10-14T17:41:27Z</time>
      </trkpt>
      <trkpt lat="46.35043" lon="4.70607">
        <ele>241</ele>
        <time>2021-10-14T17:41:32Z</time>
      </trkpt>
      <trkpt lat="46.35046" lon="4.70442">
        <ele>245</ele>
        <time>2021-10-14T17:41:52Z</time>
      </trkpt>
      <trkpt lat="46.35053" lon="4.70409">
        <ele>246</ele>
        <time>2021-10-14T17:41:56Z</time>
      </trkpt>
      <trkpt lat="46.35063" lon="4.70389">
        <ele>247</ele>
        <time>2021-10-14T17:41:59Z</time>
      </trkpt>
      <trkpt lat="46.35096" lon="4.70357">
        <ele>250</ele>
        <time>2021-10-14T17:42:06Z</time>
      </trkpt>
      <trkpt lat="46.35107" lon="4.70348">
        <ele>250</ele>
        <time>2021-10-14T17:42:09Z</time>
      </trkpt>
      <trkpt lat="46.35117" lon="4.70332">
        <ele>251</ele>
        <time>2021-10-14T17:42:11Z</time>
      </trkpt>
      <trkpt lat="46.35125" lon="4.70306">
        <ele>253</ele>
        <time>2021-10-14T17:42:15Z</time>
      </trkpt>
      <trkpt lat="46.35127" lon="4.70282">
        <ele>256</ele>
        <time>2021-10-14T17:42:18Z</time>
      </trkpt>
      <trkpt lat="46.35127" lon="4.70264">
        <ele>257</ele>
        <time>2021-10-14T17:42:20Z</time>
      </trkpt>
      <trkpt lat="46.35122" lon="4.70241">
        <ele>259</ele>
        <time>2021-10-14T17:42:23Z</time>
      </trkpt>
      <trkpt lat="46.35098" lon="4.70198">
        <ele>261</ele>
        <time>2021-10-14T17:42:30Z</time>
      </trkpt>
      <trkpt lat="46.35091" lon="4.70181">
        <ele>262</ele>
        <time>2021-10-14T17:42:32Z</time>
      </trkpt>
      <trkpt lat="46.35085" lon="4.7015">
        <ele>263</ele>
        <time>2021-10-14T17:42:36Z</time>
      </trkpt>
      <trkpt lat="46.35081" lon="4.70069">
        <ele>270</ele>
        <time>2021-10-14T17:42:46Z</time>
      </trkpt>
      <trkpt lat="46.35071" lon="4.70059">
        <ele>272</ele>
        <time>2021-10-14T17:42:48Z</time>
      </trkpt>
      <trkpt lat="46.35051" lon="4.70019">
        <ele>276</ele>
        <time>2021-10-14T17:42:54Z</time>
      </trkpt>
      <trkpt lat="46.35029" lon="4.70003">
        <ele>278</ele>
        <time>2021-10-14T17:42:59Z</time>
      </trkpt>
      <trkpt lat="46.34988" lon="4.69979">
        <ele>282</ele>
        <time>2021-10-14T17:43:06Z</time>
      </trkpt>
      <trkpt lat="46.34966" lon="4.69944">
        <ele>286</ele>
        <time>2021-10-14T17:43:12Z</time>
      </trkpt>
      <trkpt lat="46.34945" lon="4.69925">
        <ele>289</ele>
        <time>2021-10-14T17:43:17Z</time>
      </trkpt>
      <trkpt lat="46.34927" lon="4.69912">
        <ele>292</ele>
        <time>2021-10-14T17:43:20Z</time>
      </trkpt>
      <trkpt lat="46.3492" lon="4.69903">
        <ele>293</ele>
        <time>2021-10-14T17:43:22Z</time>
      </trkpt>
      <trkpt lat="46.34915" lon="4.69888">
        <ele>295</ele>
        <time>2021-10-14T17:43:24Z</time>
      </trkpt>
      <trkpt lat="46.34913" lon="4.69866">
        <ele>296</ele>
        <time>2021-10-14T17:43:27Z</time>
      </trkpt>
      <trkpt lat="46.34915" lon="4.69839">
        <ele>298</ele>
        <time>2021-10-14T17:43:30Z</time>
      </trkpt>
      <trkpt lat="46.3492" lon="4.69804">
        <ele>299</ele>
        <time>2021-10-14T17:43:34Z</time>
      </trkpt>
      <trkpt lat="46.34893" lon="4.69802">
        <ele>302</ele>
        <time>2021-10-14T17:43:39Z</time>
      </trkpt>
      <trkpt lat="46.34892" lon="4.69768">
        <ele>303</ele>
        <time>2021-10-14T17:43:43Z</time>
      </trkpt>
      <trkpt lat="46.34826" lon="4.69768">
        <ele>308</ele>
        <time>2021-10-14T17:43:55Z</time>
      </trkpt>
      <trkpt lat="46.34798" lon="4.69771">
        <ele>310</ele>
        <time>2021-10-14T17:44:00Z</time>
      </trkpt>
      <trkpt lat="46.34782" lon="4.69778">
        <ele>312</ele>
        <time>2021-10-14T17:44:03Z</time>
      </trkpt>
      <trkpt lat="46.34729" lon="4.69831">
        <ele>314</ele>
        <time>2021-10-14T17:44:15Z</time>
      </trkpt>
      <trkpt lat="46.34713" lon="4.69839">
        <ele>315</ele>
        <time>2021-10-14T17:44:18Z</time>
      </trkpt>
      <trkpt lat="46.34703" lon="4.6984">
        <ele>315</ele>
        <time>2021-10-14T17:44:19Z</time>
      </trkpt>
      <trkpt lat="46.34564" lon="4.69826">
        <ele>326</ele>
        <time>2021-10-14T17:44:44Z</time>
      </trkpt>
      <trkpt lat="46.34551" lon="4.69819">
        <ele>327</ele>
        <time>2021-10-14T17:44:47Z</time>
      </trkpt>
      <trkpt lat="46.34534" lon="4.69806">
        <ele>329</ele>
        <time>2021-10-14T17:44:50Z</time>
      </trkpt>
      <trkpt lat="46.34522" lon="4.69806">
        <ele>329</ele>
        <time>2021-10-14T17:44:52Z</time>
      </trkpt>
      <trkpt lat="46.34468" lon="4.69823">
        <ele>329</ele>
        <time>2021-10-14T17:45:02Z</time>
      </trkpt>
      <trkpt lat="46.34436" lon="4.69822">
        <ele>329</ele>
        <time>2021-10-14T17:45:08Z</time>
      </trkpt>
      <trkpt lat="46.34414" lon="4.69816">
        <ele>329</ele>
        <time>2021-10-14T17:45:12Z</time>
      </trkpt>
      <trkpt lat="46.34366" lon="4.69778">
        <ele>328</ele>
        <time>2021-10-14T17:45:21Z</time>
      </trkpt>
      <trkpt lat="46.34355" lon="4.69772">
        <ele>328</ele>
        <time>2021-10-14T17:45:24Z</time>
      </trkpt>
      <trkpt lat="46.34345" lon="4.6977">
        <ele>328</ele>
        <time>2021-10-14T17:45:25Z</time>
      </trkpt>
      <trkpt lat="46.34285" lon="4.69767">
        <ele>323</ele>
        <time>2021-10-14T17:45:36Z</time>
      </trkpt>
      <trkpt lat="46.34235" lon="4.69751">
        <ele>322</ele>
        <time>2021-10-14T17:45:45Z</time>
      </trkpt>
      <trkpt lat="46.34217" lon="4.69749">
        <ele>322</ele>
        <time>2021-10-14T17:45:48Z</time>
      </trkpt>
      <trkpt lat="46.34158" lon="4.69758">
        <ele>319</ele>
        <time>2021-10-14T17:45:59Z</time>
      </trkpt>
      <trkpt lat="46.34146" lon="4.69755">
        <ele>319</ele>
        <time>2021-10-14T17:46:01Z</time>
      </trkpt>
      <trkpt lat="46.34133" lon="4.69748">
        <ele>321</ele>
        <time>2021-10-14T17:46:04Z</time>
      </trkpt>
      <trkpt lat="46.34113" lon="4.69728">
        <ele>323</ele>
        <time>2021-10-14T17:46:08Z</time>
      </trkpt>
      <trkpt lat="46.34086" lon="4.69698">
        <ele>325</ele>
        <time>2021-10-14T17:46:14Z</time>
      </trkpt>
      <trkpt lat="46.34068" lon="4.6967">
        <ele>326</ele>
        <time>2021-10-14T17:46:19Z</time>
      </trkpt>
      <trkpt lat="46.34067" lon="4.6965">
        <ele>326</ele>
        <time>2021-10-14T17:46:21Z</time>
      </trkpt>
      <trkpt lat="46.34069" lon="4.6957">
        <ele>325</ele>
        <time>2021-10-14T17:46:31Z</time>
      </trkpt>
      <trkpt lat="46.34068" lon="4.69554">
        <ele>325</ele>
        <time>2021-10-14T17:46:33Z</time>
      </trkpt>
      <trkpt lat="46.34063" lon="4.69535">
        <ele>325</ele>
        <time>2021-10-14T17:46:35Z</time>
      </trkpt>
      <trkpt lat="46.34055" lon="4.69524">
        <ele>324</ele>
        <time>2021-10-14T17:46:37Z</time>
      </trkpt>
      <trkpt lat="46.34018" lon="4.69506">
        <ele>322</ele>
        <time>2021-10-14T17:46:44Z</time>
      </trkpt>
      <trkpt lat="46.33997" lon="4.69499">
        <ele>321</ele>
        <time>2021-10-14T17:46:48Z</time>
      </trkpt>
      <trkpt lat="46.33974" lon="4.69485">
        <ele>321</ele>
        <time>2021-10-14T17:46:53Z</time>
      </trkpt>
      <trkpt lat="46.33854" lon="4.69379">
        <ele>316</ele>
        <time>2021-10-14T17:47:18Z</time>
      </trkpt>
      <trkpt lat="46.33843" lon="4.69364">
        <ele>315</ele>
        <time>2021-10-14T17:47:20Z</time>
      </trkpt>
      <trkpt lat="46.33816" lon="4.69299">
        <ele>313</ele>
        <time>2021-10-14T17:47:30Z</time>
      </trkpt>
      <trkpt lat="46.33805" lon="4.69277">
        <ele>312</ele>
        <time>2021-10-14T17:47:33Z</time>
      </trkpt>
      <trkpt lat="46.33765" lon="4.69226">
        <ele>307</ele>
        <time>2021-10-14T17:47:42Z</time>
      </trkpt>
      <trkpt lat="46.33754" lon="4.69196">
        <ele>306</ele>
        <time>2021-10-14T17:47:47Z</time>
      </trkpt>
      <trkpt lat="46.33743" lon="4.69143">
        <ele>304</ele>
        <time>2021-10-14T17:47:53Z</time>
      </trkpt>
      <trkpt lat="46.3373" lon="4.69027">
        <ele>304</ele>
        <time>2021-10-14T17:48:08Z</time>
      </trkpt>
      <trkpt lat="46.33721" lon="4.68996">
        <ele>304</ele>
        <time>2021-10-14T17:48:12Z</time>
      </trkpt>
      <trkpt lat="46.33714" lon="4.68981">
        <ele>304</ele>
        <time>2021-10-14T17:48:14Z</time>
      </trkpt>
      <trkpt lat="46.33706" lon="4.68969">
        <ele>304</ele>
        <time>2021-10-14T17:48:16Z</time>
      </trkpt>
      <trkpt lat="46.33694" lon="4.6896">
        <ele>303</ele>
        <time>2021-10-14T17:48:19Z</time>
      </trkpt>
      <trkpt lat="46.33684" lon="4.68956">
        <ele>301</ele>
        <time>2021-10-14T17:48:20Z</time>
      </trkpt>
      <trkpt lat="46.33654" lon="4.68956">
        <ele>297</ele>
        <time>2021-10-14T17:48:26Z</time>
      </trkpt>
      <trkpt lat="46.33617" lon="4.68961">
        <ele>294</ele>
        <time>2021-10-14T17:48:32Z</time>
      </trkpt>
      <trkpt lat="46.33572" lon="4.68981">
        <ele>288</ele>
        <time>2021-10-14T17:48:41Z</time>
      </trkpt>
      <trkpt lat="46.33528" lon="4.68997">
        <ele>284</ele>
        <time>2021-10-14T17:48:49Z</time>
      </trkpt>
      <trkpt lat="46.33521" lon="4.68997">
        <ele>284</ele>
        <time>2021-10-14T17:48:50Z</time>
      </trkpt>
      <trkpt lat="46.33508" lon="4.68993">
        <ele>284</ele>
        <time>2021-10-14T17:48:52Z</time>
      </trkpt>
      <trkpt lat="46.33504" lon="4.68989">
        <ele>283</ele>
        <time>2021-10-14T17:48:53Z</time>
      </trkpt>
      <trkpt lat="46.33502" lon="4.68981">
        <ele>284</ele>
        <time>2021-10-14T17:48:54Z</time>
      </trkpt>
      <trkpt lat="46.335" lon="4.68965">
        <ele>284</ele>
        <time>2021-10-14T17:48:56Z</time>
      </trkpt>
      <trkpt lat="46.33498" lon="4.68757">
        <ele>280</ele>
        <time>2021-10-14T17:49:22Z</time>
      </trkpt>
      <trkpt lat="46.33462" lon="4.68726">
        <ele>275</ele>
        <time>2021-10-14T17:49:29Z</time>
      </trkpt>
      <trkpt lat="46.33442" lon="4.68702">
        <ele>273</ele>
        <time>2021-10-14T17:49:34Z</time>
      </trkpt>
      <trkpt lat="46.33415" lon="4.68741">
        <ele>272</ele>
        <time>2021-10-14T17:49:41Z</time>
      </trkpt>
      <trkpt lat="46.33367" lon="4.68723">
        <ele>271</ele>
        <time>2021-10-14T17:49:50Z</time>
      </trkpt>
      <trkpt lat="46.3335" lon="4.6871">
        <ele>271</ele>
        <time>2021-10-14T17:49:53Z</time>
      </trkpt>
      <trkpt lat="46.33342" lon="4.687">
        <ele>271</ele>
        <time>2021-10-14T17:49:55Z</time>
      </trkpt>
      <trkpt lat="46.33316" lon="4.68643">
        <ele>272</ele>
        <time>2021-10-14T17:50:03Z</time>
      </trkpt>
      <trkpt lat="46.3329" lon="4.68583">
        <ele>274</ele>
        <time>2021-10-14T17:50:12Z</time>
      </trkpt>
      <trkpt lat="46.33258" lon="4.68447">
        <ele>277</ele>
        <time>2021-10-14T17:50:30Z</time>
      </trkpt>
      <trkpt lat="46.33246" lon="4.68428">
        <ele>278</ele>
        <time>2021-10-14T17:50:33Z</time>
      </trkpt>
      <trkpt lat="46.33241" lon="4.68425">
        <ele>278</ele>
        <time>2021-10-14T17:50:34Z</time>
      </trkpt>
      <trkpt lat="46.33194" lon="4.68402">
        <ele>281</ele>
        <time>2021-10-14T17:50:43Z</time>
      </trkpt>
      <trkpt lat="46.33157" lon="4.68394">
        <ele>282</ele>
        <time>2021-10-14T17:50:49Z</time>
      </trkpt>
      <trkpt lat="46.33118" lon="4.68398">
        <ele>280</ele>
        <time>2021-10-14T17:50:56Z</time>
      </trkpt>
      <trkpt lat="46.33038" lon="4.68391">
        <ele>275</ele>
        <time>2021-10-14T17:51:10Z</time>
      </trkpt>
      <trkpt lat="46.3299" lon="4.68373">
        <ele>273</ele>
        <time>2021-10-14T17:51:19Z</time>
      </trkpt>
      <trkpt lat="46.32903" lon="4.68326">
        <ele>271</ele>
        <time>2021-10-14T17:51:36Z</time>
      </trkpt>
      <trkpt lat="46.32892" lon="4.68324">
        <ele>271</ele>
        <time>2021-10-14T17:51:38Z</time>
      </trkpt>
      <trkpt lat="46.32815" lon="4.68334">
        <ele>267</ele>
        <time>2021-10-14T17:51:52Z</time>
      </trkpt>
      <trkpt lat="46.32769" lon="4.68334">
        <ele>266</ele>
        <time>2021-10-14T17:52:00Z</time>
      </trkpt>
      <trkpt lat="46.32723" lon="4.68331">
        <ele>267</ele>
        <time>2021-10-14T17:52:08Z</time>
      </trkpt>
      <trkpt lat="46.32708" lon="4.68333">
        <ele>267</ele>
        <time>2021-10-14T17:52:11Z</time>
      </trkpt>
      <trkpt lat="46.32674" lon="4.68342">
        <ele>267</ele>
        <time>2021-10-14T17:52:17Z</time>
      </trkpt>
      <trkpt lat="46.32657" lon="4.68341">
        <ele>267</ele>
        <time>2021-10-14T17:52:20Z</time>
      </trkpt>
      <trkpt lat="46.32633" lon="4.68332">
        <ele>267</ele>
        <time>2021-10-14T17:52:24Z</time>
      </trkpt>
      <trkpt lat="46.32586" lon="4.68305">
        <ele>269</ele>
        <time>2021-10-14T17:52:33Z</time>
      </trkpt>
      <trkpt lat="46.32559" lon="4.68286">
        <ele>269</ele>
        <time>2021-10-14T17:52:39Z</time>
      </trkpt>
      <trkpt lat="46.32526" lon="4.68249">
        <ele>270</ele>
        <time>2021-10-14T17:52:46Z</time>
      </trkpt>
      <trkpt lat="46.32507" lon="4.6824">
        <ele>270</ele>
        <time>2021-10-14T17:52:49Z</time>
      </trkpt>
      <trkpt lat="46.32488" lon="4.68237">
        <ele>270</ele>
        <time>2021-10-14T17:52:53Z</time>
      </trkpt>
      <trkpt lat="46.32477" lon="4.68233">
        <ele>270</ele>
        <time>2021-10-14T17:52:55Z</time>
      </trkpt>
      <trkpt lat="46.32438" lon="4.68205">
        <ele>270</ele>
        <time>2021-10-14T17:53:03Z</time>
      </trkpt>
      <trkpt lat="46.32397" lon="4.68189">
        <ele>270</ele>
        <time>2021-10-14T17:53:10Z</time>
      </trkpt>
      <trkpt lat="46.3236" lon="4.68178">
        <ele>270</ele>
        <time>2021-10-14T17:53:17Z</time>
      </trkpt>
      <trkpt lat="46.32314" lon="4.68168">
        <ele>270</ele>
        <time>2021-10-14T17:53:25Z</time>
      </trkpt>
      <trkpt lat="46.32275" lon="4.68164">
        <ele>271</ele>
        <time>2021-10-14T17:53:32Z</time>
      </trkpt>
      <trkpt lat="46.32258" lon="4.68165">
        <ele>271</ele>
        <time>2021-10-14T17:53:35Z</time>
      </trkpt>
      <trkpt lat="46.32249" lon="4.68168">
        <ele>271</ele>
        <time>2021-10-14T17:53:37Z</time>
      </trkpt>
      <trkpt lat="46.32139" lon="4.68223">
        <ele>275</ele>
        <time>2021-10-14T17:53:58Z</time>
      </trkpt>
      <trkpt lat="46.32119" lon="4.6823">
        <ele>276</ele>
        <time>2021-10-14T17:54:01Z</time>
      </trkpt>
      <trkpt lat="46.32105" lon="4.68231">
        <ele>277</ele>
        <time>2021-10-14T17:54:04Z</time>
      </trkpt>
      <trkpt lat="46.32088" lon="4.6823">
        <ele>278</ele>
        <time>2021-10-14T17:54:07Z</time>
      </trkpt>
      <trkpt lat="46.32058" lon="4.68222">
        <ele>279</ele>
        <time>2021-10-14T17:54:12Z</time>
      </trkpt>
      <trkpt lat="46.31918" lon="4.68175">
        <ele>286</ele>
        <time>2021-10-14T17:54:38Z</time>
      </trkpt>
      <trkpt lat="46.31896" lon="4.68172">
        <ele>287</ele>
        <time>2021-10-14T17:54:42Z</time>
      </trkpt>
      <trkpt lat="46.31791" lon="4.68179">
        <ele>290</ele>
        <time>2021-10-14T17:55:00Z</time>
      </trkpt>
      <trkpt lat="46.31743" lon="4.68178">
        <ele>292</ele>
        <time>2021-10-14T17:55:09Z</time>
      </trkpt>
      <trkpt lat="46.31723" lon="4.68182">
        <ele>292</ele>
        <time>2021-10-14T17:55:12Z</time>
      </trkpt>
      <trkpt lat="46.31697" lon="4.68188">
        <ele>293</ele>
        <time>2021-10-14T17:55:17Z</time>
      </trkpt>
      <trkpt lat="46.31678" lon="4.68188">
        <ele>293</ele>
        <time>2021-10-14T17:55:21Z</time>
      </trkpt>
      <trkpt lat="46.31664" lon="4.68185">
        <ele>293</ele>
        <time>2021-10-14T17:55:23Z</time>
      </trkpt>
      <trkpt lat="46.31649" lon="4.68179">
        <ele>294</ele>
        <time>2021-10-14T17:55:26Z</time>
      </trkpt>
      <trkpt lat="46.31609" lon="4.68156">
        <ele>296</ele>
        <time>2021-10-14T17:55:34Z</time>
      </trkpt>
      <trkpt lat="46.31572" lon="4.6813">
        <ele>297</ele>
        <time>2021-10-14T17:55:41Z</time>
      </trkpt>
      <trkpt lat="46.31551" lon="4.6812">
        <ele>298</ele>
        <time>2021-10-14T17:55:45Z</time>
      </trkpt>
      <trkpt lat="46.31529" lon="4.68116">
        <ele>299</ele>
        <time>2021-10-14T17:55:49Z</time>
      </trkpt>
      <trkpt lat="46.31451" lon="4.68116">
        <ele>303</ele>
        <time>2021-10-14T17:56:03Z</time>
      </trkpt>
      <trkpt lat="46.31296" lon="4.68066">
        <ele>306</ele>
        <time>2021-10-14T17:56:31Z</time>
      </trkpt>
      <trkpt lat="46.31233" lon="4.68036">
        <ele>305</ele>
        <time>2021-10-14T17:56:43Z</time>
      </trkpt>
      <trkpt lat="46.31179" lon="4.68017">
        <ele>304</ele>
        <time>2021-10-14T17:56:53Z</time>
      </trkpt>
      <trkpt lat="46.31163" lon="4.68002">
        <ele>304</ele>
        <time>2021-10-14T17:56:56Z</time>
      </trkpt>
      <trkpt lat="46.31124" lon="4.67946">
        <ele>304</ele>
        <time>2021-10-14T17:57:06Z</time>
      </trkpt>
      <trkpt lat="46.311" lon="4.67917">
        <ele>304</ele>
        <time>2021-10-14T17:57:11Z</time>
      </trkpt>
      <trkpt lat="46.30988" lon="4.6779">
        <ele>302</ele>
        <time>2021-10-14T17:57:37Z</time>
      </trkpt>
      <trkpt lat="46.30893" lon="4.67679">
        <ele>303</ele>
        <time>2021-10-14T17:57:58Z</time>
      </trkpt>
      <trkpt lat="46.30831" lon="4.67937">
        <ele>318</ele>
        <time>2021-10-14T17:58:32Z</time>
      </trkpt>
      <trkpt lat="46.30823" lon="4.67957">
        <ele>320</ele>
        <time>2021-10-14T17:58:35Z</time>
      </trkpt>
      <trkpt lat="46.30815" lon="4.6797">
        <ele>321</ele>
        <time>2021-10-14T17:58:37Z</time>
      </trkpt>
      <trkpt lat="46.30806" lon="4.67979">
        <ele>322</ele>
        <time>2021-10-14T17:58:39Z</time>
      </trkpt>
      <trkpt lat="46.30695" lon="4.68071">
        <ele>335</ele>
        <time>2021-10-14T17:59:02Z</time>
      </trkpt>
      <trkpt lat="46.30623" lon="4.68125">
        <ele>340</ele>
        <time>2021-10-14T17:59:16Z</time>
      </trkpt>
      <trkpt lat="46.30606" lon="4.68133">
        <ele>341</ele>
        <time>2021-10-14T17:59:19Z</time>
      </trkpt>
      <trkpt lat="46.30566" lon="4.68139">
        <ele>343</ele>
        <time>2021-10-14T17:59:26Z</time>
      </trkpt>
      <trkpt lat="46.30549" lon="4.68144">
        <ele>344</ele>
        <time>2021-10-14T17:59:29Z</time>
      </trkpt>
      <trkpt lat="46.30534" lon="4.68158">
        <ele>344</ele>
        <time>2021-10-14T17:59:33Z</time>
      </trkpt>
      <trkpt lat="46.30498" lon="4.68214">
        <ele>349</ele>
        <time>2021-10-14T17:59:42Z</time>
      </trkpt>
      <trkpt lat="46.30483" lon="4.6823">
        <ele>350</ele>
        <time>2021-10-14T17:59:45Z</time>
      </trkpt>
      <trkpt lat="46.30468" lon="4.68243">
        <ele>352</ele>
        <time>2021-10-14T17:59:48Z</time>
      </trkpt>
      <trkpt lat="46.30441" lon="4.68258">
        <ele>354</ele>
        <time>2021-10-14T17:59:54Z</time>
      </trkpt>
      <trkpt lat="46.30339" lon="4.68276">
        <ele>359</ele>
        <time>2021-10-14T18:00:12Z</time>
      </trkpt>
      <trkpt lat="46.30323" lon="4.68277">
        <ele>360</ele>
        <time>2021-10-14T18:00:15Z</time>
      </trkpt>
      <trkpt lat="46.30301" lon="4.68273">
        <ele>360</ele>
        <time>2021-10-14T18:00:19Z</time>
      </trkpt>
      <trkpt lat="46.30284" lon="4.68272">
        <ele>360</ele>
        <time>2021-10-14T18:00:22Z</time>
      </trkpt>
      <trkpt lat="46.30232" lon="4.68285">
        <ele>364</ele>
        <time>2021-10-14T18:00:31Z</time>
      </trkpt>
      <trkpt lat="46.30214" lon="4.68288">
        <ele>366</ele>
        <time>2021-10-14T18:00:34Z</time>
      </trkpt>
      <trkpt lat="46.30196" lon="4.68285">
        <ele>368</ele>
        <time>2021-10-14T18:00:37Z</time>
      </trkpt>
      <trkpt lat="46.30156" lon="4.68271">
        <ele>371</ele>
        <time>2021-10-14T18:00:45Z</time>
      </trkpt>
      <trkpt lat="46.30131" lon="4.68255">
        <ele>373</ele>
        <time>2021-10-14T18:00:50Z</time>
      </trkpt>
      <trkpt lat="46.30113" lon="4.6825">
        <ele>374</ele>
        <time>2021-10-14T18:00:53Z</time>
      </trkpt>
      <trkpt lat="46.30102" lon="4.68253">
        <ele>376</ele>
        <time>2021-10-14T18:00:55Z</time>
      </trkpt>
      <trkpt lat="46.30081" lon="4.68271">
        <ele>380</ele>
        <time>2021-10-14T18:00:59Z</time>
      </trkpt>
      <trkpt lat="46.30047" lon="4.68292">
        <ele>384</ele>
        <time>2021-10-14T18:01:06Z</time>
      </trkpt>
      <trkpt lat="46.29972" lon="4.68333">
        <ele>392</ele>
        <time>2021-10-14T18:01:20Z</time>
      </trkpt>
      <trkpt lat="46.29961" lon="4.68337">
        <ele>393</ele>
        <time>2021-10-14T18:01:22Z</time>
      </trkpt>
      <trkpt lat="46.29953" lon="4.68334">
        <ele>393</ele>
        <time>2021-10-14T18:01:24Z</time>
      </trkpt>
      <trkpt lat="46.29948" lon="4.6833">
        <ele>393</ele>
        <time>2021-10-14T18:01:25Z</time>
      </trkpt>
      <trkpt lat="46.29944" lon="4.68323">
        <ele>393</ele>
        <time>2021-10-14T18:01:26Z</time>
      </trkpt>
      <trkpt lat="46.29944" lon="4.68308">
        <ele>394</ele>
        <time>2021-10-14T18:01:28Z</time>
      </trkpt>
      <trkpt lat="46.2996" lon="4.68202">
        <ele>394</ele>
        <time>2021-10-14T18:01:41Z</time>
      </trkpt>
      <trkpt lat="46.29961" lon="4.68143">
        <ele>397</ele>
        <time>2021-10-14T18:01:48Z</time>
      </trkpt>
      <trkpt lat="46.29958" lon="4.68097">
        <ele>401</ele>
        <time>2021-10-14T18:01:54Z</time>
      </trkpt>
      <trkpt lat="46.2996" lon="4.68085">
        <ele>402</ele>
        <time>2021-10-14T18:01:55Z</time>
      </trkpt>
      <trkpt lat="46.29973" lon="4.68065">
        <ele>402</ele>
        <time>2021-10-14T18:01:59Z</time>
      </trkpt>
      <trkpt lat="46.29986" lon="4.68015">
        <ele>406</ele>
        <time>2021-10-14T18:02:05Z</time>
      </trkpt>
      <trkpt lat="46.29991" lon="4.68002">
        <ele>407</ele>
        <time>2021-10-14T18:02:07Z</time>
      </trkpt>
      <trkpt lat="46.29998" lon="4.67993">
        <ele>407</ele>
        <time>2021-10-14T18:02:09Z</time>
      </trkpt>
      <trkpt lat="46.30006" lon="4.67988">
        <ele>407</ele>
        <time>2021-10-14T18:02:10Z</time>
      </trkpt>
      <trkpt lat="46.30047" lon="4.67987">
        <ele>407</ele>
        <time>2021-10-14T18:02:18Z</time>
      </trkpt>
      <trkpt lat="46.30052" lon="4.67985">
        <ele>407</ele>
        <time>2021-10-14T18:02:19Z</time>
      </trkpt>
      <trkpt lat="46.30061" lon="4.67972">
        <ele>408</ele>
        <time>2021-10-14T18:02:21Z</time>
      </trkpt>
      <trkpt lat="46.30066" lon="4.67957">
        <ele>410</ele>
        <time>2021-10-14T18:02:23Z</time>
      </trkpt>
      <trkpt lat="46.30062" lon="4.67897">
        <ele>413</ele>
        <time>2021-10-14T18:02:30Z</time>
      </trkpt>
      <trkpt lat="46.30055" lon="4.67861">
        <ele>413</ele>
        <time>2021-10-14T18:02:35Z</time>
      </trkpt>
      <trkpt lat="46.3005" lon="4.67845">
        <ele>414</ele>
        <time>2021-10-14T18:02:37Z</time>
      </trkpt>
      <trkpt lat="46.30043" lon="4.67834">
        <ele>414</ele>
        <time>2021-10-14T18:02:39Z</time>
      </trkpt>
      <trkpt lat="46.30032" lon="4.67829">
        <ele>415</ele>
        <time>2021-10-14T18:02:41Z</time>
      </trkpt>
      <trkpt lat="46.30025" lon="4.67827">
        <ele>416</ele>
        <time>2021-10-14T18:02:42Z</time>
      </trkpt>
      <trkpt lat="46.30012" lon="4.67833">
        <ele>417</ele>
        <time>2021-10-14T18:02:45Z</time>
      </trkpt>
      <trkpt lat="46.30005" lon="4.67843">
        <ele>417</ele>
        <time>2021-10-14T18:02:46Z</time>
      </trkpt>
      <trkpt lat="46.29991" lon="4.67876">
        <ele>417</ele>
        <time>2021-10-14T18:02:51Z</time>
      </trkpt>
      <trkpt lat="46.29976" lon="4.679">
        <ele>418</ele>
        <time>2021-10-14T18:02:55Z</time>
      </trkpt>
      <trkpt lat="46.29961" lon="4.67915">
        <ele>419</ele>
        <time>2021-10-14T18:02:58Z</time>
      </trkpt>
      <trkpt lat="46.29943" lon="4.67929">
        <ele>420</ele>
        <time>2021-10-14T18:03:02Z</time>
      </trkpt>
      <trkpt lat="46.29923" lon="4.67939">
        <ele>422</ele>
        <time>2021-10-14T18:03:06Z</time>
      </trkpt>
      <trkpt lat="46.2991" lon="4.67943">
        <ele>423</ele>
        <time>2021-10-14T18:03:08Z</time>
      </trkpt>
      <trkpt lat="46.29891" lon="4.67943">
        <ele>426</ele>
        <time>2021-10-14T18:03:12Z</time>
      </trkpt>
      <trkpt lat="46.29867" lon="4.6794">
        <ele>429</ele>
        <time>2021-10-14T18:03:16Z</time>
      </trkpt>
      <trkpt lat="46.29849" lon="4.67942">
        <ele>432</ele>
        <time>2021-10-14T18:03:19Z</time>
      </trkpt>
      <trkpt lat="46.29838" lon="4.67949">
        <ele>432</ele>
        <time>2021-10-14T18:03:21Z</time>
      </trkpt>
      <trkpt lat="46.29823" lon="4.67965">
        <ele>434</ele>
        <time>2021-10-14T18:03:24Z</time>
      </trkpt>
      <trkpt lat="46.29804" lon="4.68001">
        <ele>436</ele>
        <time>2021-10-14T18:03:30Z</time>
      </trkpt>
      <trkpt lat="46.29727" lon="4.68134">
        <ele>443</ele>
        <time>2021-10-14T18:03:51Z</time>
      </trkpt>
      <trkpt lat="46.29701" lon="4.68165">
        <ele>446</ele>
        <time>2021-10-14T18:03:57Z</time>
      </trkpt>
      <trkpt lat="46.29662" lon="4.68218">
        <ele>450</ele>
        <time>2021-10-14T18:04:07Z</time>
      </trkpt>
      <trkpt lat="46.29612" lon="4.68274">
        <ele>461</ele>
        <time>2021-10-14T18:04:18Z</time>
      </trkpt>
      <trkpt lat="46.29597" lon="4.68299">
        <ele>462</ele>
        <time>2021-10-14T18:04:22Z</time>
      </trkpt>
      <trkpt lat="46.29584" lon="4.68325">
        <ele>463</ele>
        <time>2021-10-14T18:04:26Z</time>
      </trkpt>
      <trkpt lat="46.2957" lon="4.68363">
        <ele>464</ele>
        <time>2021-10-14T18:04:31Z</time>
      </trkpt>
      <trkpt lat="46.29556" lon="4.68413">
        <ele>465</ele>
        <time>2021-10-14T18:04:38Z</time>
      </trkpt>
      <trkpt lat="46.29545" lon="4.68474">
        <ele>465</ele>
        <time>2021-10-14T18:04:46Z</time>
      </trkpt>
      <trkpt lat="46.29519" lon="4.68548">
        <ele>468</ele>
        <time>2021-10-14T18:04:56Z</time>
      </trkpt>
      <trkpt lat="46.29505" lon="4.68578">
        <ele>470</ele>
        <time>2021-10-14T18:05:00Z</time>
      </trkpt>
      <trkpt lat="46.29493" lon="4.68599">
        <ele>471</ele>
        <time>2021-10-14T18:05:04Z</time>
      </trkpt>
      <trkpt lat="46.29383" lon="4.68712">
        <ele>482</ele>
        <time>2021-10-14T18:05:28Z</time>
      </trkpt>
      <trkpt lat="46.29347" lon="4.68745">
        <ele>484</ele>
        <time>2021-10-14T18:05:35Z</time>
      </trkpt>
      <trkpt lat="46.29179" lon="4.68854">
        <ele>501</ele>
        <time>2021-10-14T18:06:08Z</time>
      </trkpt>
      <trkpt lat="46.29158" lon="4.6887">
        <ele>504</ele>
        <time>2021-10-14T18:06:12Z</time>
      </trkpt>
      <trkpt lat="46.2914" lon="4.68893">
        <ele>504</ele>
        <time>2021-10-14T18:06:17Z</time>
      </trkpt>
      <trkpt lat="46.29132" lon="4.68919">
        <ele>502</ele>
        <time>2021-10-14T18:06:20Z</time>
      </trkpt>
      <trkpt lat="46.29129" lon="4.6894">
        <ele>503</ele>
        <time>2021-10-14T18:06:23Z</time>
      </trkpt>
      <trkpt lat="46.29131" lon="4.69">
        <ele>503</ele>
        <time>2021-10-14T18:06:30Z</time>
      </trkpt>
      <trkpt lat="46.29134" lon="4.69022">
        <ele>505</ele>
        <time>2021-10-14T18:06:33Z</time>
      </trkpt>
      <trkpt lat="46.2914" lon="4.69042">
        <ele>506</ele>
        <time>2021-10-14T18:06:36Z</time>
      </trkpt>
      <trkpt lat="46.29162" lon="4.69089">
        <ele>506</ele>
        <time>2021-10-14T18:06:43Z</time>
      </trkpt>
      <trkpt lat="46.29169" lon="4.69111">
        <ele>508</ele>
        <time>2021-10-14T18:06:46Z</time>
      </trkpt>
      <trkpt lat="46.29175" lon="4.69141">
        <ele>510</ele>
        <time>2021-10-14T18:06:49Z</time>
      </trkpt>
      <trkpt lat="46.29189" lon="4.6929">
        <ele>518</ele>
        <time>2021-10-14T18:07:08Z</time>
      </trkpt>
      <trkpt lat="46.29193" lon="4.69361">
        <ele>521</ele>
        <time>2021-10-14T18:07:17Z</time>
      </trkpt>
      <trkpt lat="46.29204" lon="4.69476">
        <ele>524</ele>
        <time>2021-10-14T18:07:31Z</time>
      </trkpt>
      <trkpt lat="46.29189" lon="4.69481">
        <ele>525</ele>
        <time>2021-10-14T18:07:34Z</time>
      </trkpt>
      <trkpt lat="46.29182" lon="4.69487">
        <ele>526</ele>
        <time>2021-10-14T18:07:35Z</time>
      </trkpt>
      <trkpt lat="46.29173" lon="4.69499">
        <ele>526</ele>
        <time>2021-10-14T18:07:37Z</time>
      </trkpt>
      <trkpt lat="46.29165" lon="4.69521">
        <ele>526</ele>
        <time>2021-10-14T18:07:40Z</time>
      </trkpt>
      <trkpt lat="46.29146" lon="4.6956">
        <ele>528</ele>
        <time>2021-10-14T18:07:46Z</time>
      </trkpt>
      <trkpt lat="46.29134" lon="4.69575">
        <ele>528</ele>
        <time>2021-10-14T18:07:49Z</time>
      </trkpt>
      <trkpt lat="46.2912" lon="4.6959">
        <ele>529</ele>
        <time>2021-10-14T18:07:52Z</time>
      </trkpt>
      <trkpt lat="46.29107" lon="4.69598">
        <ele>530</ele>
        <time>2021-10-14T18:07:55Z</time>
      </trkpt>
      <trkpt lat="46.29096" lon="4.69601">
        <ele>532</ele>
        <time>2021-10-14T18:07:57Z</time>
      </trkpt>
      <trkpt lat="46.29082" lon="4.696">
        <ele>533</ele>
        <time>2021-10-14T18:07:59Z</time>
      </trkpt>
      <trkpt lat="46.29062" lon="4.69595">
        <ele>535</ele>
        <time>2021-10-14T18:08:03Z</time>
      </trkpt>
      <trkpt lat="46.29012" lon="4.69575">
        <ele>540</ele>
        <time>2021-10-14T18:08:12Z</time>
      </trkpt>
      <trkpt lat="46.28983" lon="4.6957">
        <ele>543</ele>
        <time>2021-10-14T18:08:17Z</time>
      </trkpt>
      <trkpt lat="46.28946" lon="4.69574">
        <ele>547</ele>
        <time>2021-10-14T18:08:24Z</time>
      </trkpt>
      <trkpt lat="46.289" lon="4.69572">
        <ele>552</ele>
        <time>2021-10-14T18:08:32Z</time>
      </trkpt>
      <trkpt lat="46.28818" lon="4.69555">
        <ele>558</ele>
        <time>2021-10-14T18:08:47Z</time>
      </trkpt>
      <trkpt lat="46.288" lon="4.69546">
        <ele>560</ele>
        <time>2021-10-14T18:08:50Z</time>
      </trkpt>
      <trkpt lat="46.28756" lon="4.69516">
        <ele>564</ele>
        <time>2021-10-14T18:08:59Z</time>
      </trkpt>
      <trkpt lat="46.28734" lon="4.69503">
        <ele>566</ele>
        <time>2021-10-14T18:09:03Z</time>
      </trkpt>
      <trkpt lat="46.2869" lon="4.69488">
        <ele>571</ele>
        <time>2021-10-14T18:09:11Z</time>
      </trkpt>
      <trkpt lat="46.28619" lon="4.69457">
        <ele>576</ele>
        <time>2021-10-14T18:09:24Z</time>
      </trkpt>
      <trkpt lat="46.28567" lon="4.69445">
        <ele>578</ele>
        <time>2021-10-14T18:09:34Z</time>
      </trkpt>
      <trkpt lat="46.28551" lon="4.69438">
        <ele>580</ele>
        <time>2021-10-14T18:09:37Z</time>
      </trkpt>
      <trkpt lat="46.28532" lon="4.69425">
        <ele>582</ele>
        <time>2021-10-14T18:09:40Z</time>
      </trkpt>
      <trkpt lat="46.28515" lon="4.69416">
        <ele>583</ele>
        <time>2021-10-14T18:09:44Z</time>
      </trkpt>
      <trkpt lat="46.28481" lon="4.69407">
        <ele>586</ele>
        <time>2021-10-14T18:09:50Z</time>
      </trkpt>
      <trkpt lat="46.28442" lon="4.69399">
        <ele>588</ele>
        <time>2021-10-14T18:09:57Z</time>
      </trkpt>
      <trkpt lat="46.28415" lon="4.69388">
        <ele>590</ele>
        <time>2021-10-14T18:10:02Z</time>
      </trkpt>
      <trkpt lat="46.28404" lon="4.69381">
        <ele>590</ele>
        <time>2021-10-14T18:10:04Z</time>
      </trkpt>
      <trkpt lat="46.28393" lon="4.69371">
        <ele>590</ele>
        <time>2021-10-14T18:10:06Z</time>
      </trkpt>
      <trkpt lat="46.28372" lon="4.69344">
        <ele>590</ele>
        <time>2021-10-14T18:10:11Z</time>
      </trkpt>
      <trkpt lat="46.2836" lon="4.69326">
        <ele>590</ele>
        <time>2021-10-14T18:10:14Z</time>
      </trkpt>
      <trkpt lat="46.28353" lon="4.69311">
        <ele>591</ele>
        <time>2021-10-14T18:10:16Z</time>
      </trkpt>
      <trkpt lat="46.28345" lon="4.69285">
        <ele>593</ele>
        <time>2021-10-14T18:10:20Z</time>
      </trkpt>
      <trkpt lat="46.28333" lon="4.69238">
        <ele>595</ele>
        <time>2021-10-14T18:10:26Z</time>
      </trkpt>
      <trkpt lat="46.28331" lon="4.69218">
        <ele>596</ele>
        <time>2021-10-14T18:10:29Z</time>
      </trkpt>
      <trkpt lat="46.28331" lon="4.69195">
        <ele>598</ele>
        <time>2021-10-14T18:10:31Z</time>
      </trkpt>
      <trkpt lat="46.28333" lon="4.69176">
        <ele>599</ele>
        <time>2021-10-14T18:10:34Z</time>
      </trkpt>
      <trkpt lat="46.28375" lon="4.68996">
        <ele>613</ele>
        <time>2021-10-14T18:10:57Z</time>
      </trkpt>
      <trkpt lat="46.28378" lon="4.68972">
        <ele>615</ele>
        <time>2021-10-14T18:11:00Z</time>
      </trkpt>
      <trkpt lat="46.28377" lon="4.68947">
        <ele>617</ele>
        <time>2021-10-14T18:11:03Z</time>
      </trkpt>
      <trkpt lat="46.28369" lon="4.68903">
        <ele>620</ele>
        <time>2021-10-14T18:11:09Z</time>
      </trkpt>
      <trkpt lat="46.28346" lon="4.68845">
        <ele>625</ele>
        <time>2021-10-14T18:11:17Z</time>
      </trkpt>
      <trkpt lat="46.28305" lon="4.68781">
        <ele>634</ele>
        <time>2021-10-14T18:11:28Z</time>
      </trkpt>
      <trkpt lat="46.28249" lon="4.68728">
        <ele>636</ele>
        <time>2021-10-14T18:11:40Z</time>
      </trkpt>
      <trkpt lat="46.28229" lon="4.68702">
        <ele>634</ele>
        <time>2021-10-14T18:11:44Z</time>
      </trkpt>
      <trkpt lat="46.28212" lon="4.68656">
        <ele>636</ele>
        <time>2021-10-14T18:11:51Z</time>
      </trkpt>
      <trkpt lat="46.28195" lon="4.68587">
        <ele>641</ele>
        <time>2021-10-14T18:12:00Z</time>
      </trkpt>
      <trkpt lat="46.2818" lon="4.68541">
        <ele>644</ele>
        <time>2021-10-14T18:12:06Z</time>
      </trkpt>
      <trkpt lat="46.28167" lon="4.68513">
        <ele>645</ele>
        <time>2021-10-14T18:12:10Z</time>
      </trkpt>
      <trkpt lat="46.28112" lon="4.6844">
        <ele>654</ele>
        <time>2021-10-14T18:12:24Z</time>
      </trkpt>
      <trkpt lat="46.28093" lon="4.68428">
        <ele>654</ele>
        <time>2021-10-14T18:12:27Z</time>
      </trkpt>
      <trkpt lat="46.28073" lon="4.68424">
        <ele>654</ele>
        <time>2021-10-14T18:12:31Z</time>
      </trkpt>
      <trkpt lat="46.2802" lon="4.68433">
        <ele>654</ele>
        <time>2021-10-14T18:12:40Z</time>
      </trkpt>
      <trkpt lat="46.27987" lon="4.68433">
        <ele>654</ele>
        <time>2021-10-14T18:12:46Z</time>
      </trkpt>
      <trkpt lat="46.27967" lon="4.68427">
        <ele>653</ele>
        <time>2021-10-14T18:12:50Z</time>
      </trkpt>
      <trkpt lat="46.27948" lon="4.68411">
        <ele>653</ele>
        <time>2021-10-14T18:12:54Z</time>
      </trkpt>
      <trkpt lat="46.27937" lon="4.68393">
        <ele>654</ele>
        <time>2021-10-14T18:12:57Z</time>
      </trkpt>
      <trkpt lat="46.27934" lon="4.68366">
        <ele>656</ele>
        <time>2021-10-14T18:13:00Z</time>
      </trkpt>
      <trkpt lat="46.27929" lon="4.68207">
        <ele>668</ele>
        <time>2021-10-14T18:13:20Z</time>
      </trkpt>
      <trkpt lat="46.27927" lon="4.68179">
        <ele>670</ele>
        <time>2021-10-14T18:13:23Z</time>
      </trkpt>
      <trkpt lat="46.27911" lon="4.68137">
        <ele>673</ele>
        <time>2021-10-14T18:13:29Z</time>
      </trkpt>
      <trkpt lat="46.27884" lon="4.68081">
        <ele>677</ele>
        <time>2021-10-14T18:13:37Z</time>
      </trkpt>
      <trkpt lat="46.27865" lon="4.6806">
        <ele>677</ele>
        <time>2021-10-14T18:13:42Z</time>
      </trkpt>
      <trkpt lat="46.27843" lon="4.6804">
        <ele>676</ele>
        <time>2021-10-14T18:13:46Z</time>
      </trkpt>
      <trkpt lat="46.27768" lon="4.68001">
        <ele>674</ele>
        <time>2021-10-14T18:14:00Z</time>
      </trkpt>
      <trkpt lat="46.27749" lon="4.67989">
        <ele>672</ele>
        <time>2021-10-14T18:14:04Z</time>
      </trkpt>
      <trkpt lat="46.27735" lon="4.67974">
        <ele>673</ele>
        <time>2021-10-14T18:14:07Z</time>
      </trkpt>
      <trkpt lat="46.27714" lon="4.67946">
        <ele>675</ele>
        <time>2021-10-14T18:14:12Z</time>
      </trkpt>
      <trkpt lat="46.27696" lon="4.67911">
        <ele>679</ele>
        <time>2021-10-14T18:14:18Z</time>
      </trkpt>
      <trkpt lat="46.27678" lon="4.67867">
        <ele>682</ele>
        <time>2021-10-14T18:14:24Z</time>
      </trkpt>
      <trkpt lat="46.27664" lon="4.6785">
        <ele>683</ele>
        <time>2021-10-14T18:14:27Z</time>
      </trkpt>
      <trkpt lat="46.27637" lon="4.67837">
        <ele>686</ele>
        <time>2021-10-14T18:14:32Z</time>
      </trkpt>
      <trkpt lat="46.27569" lon="4.67847">
        <ele>687</ele>
        <time>2021-10-14T18:14:44Z</time>
      </trkpt>
      <trkpt lat="46.27528" lon="4.67842">
        <ele>688</ele>
        <time>2021-10-14T18:14:52Z</time>
      </trkpt>
      <trkpt lat="46.27496" lon="4.67826">
        <ele>688</ele>
        <time>2021-10-14T18:14:58Z</time>
      </trkpt>
      <trkpt lat="46.2748" lon="4.67812">
        <ele>685</ele>
        <time>2021-10-14T18:15:01Z</time>
      </trkpt>
      <trkpt lat="46.27468" lon="4.67795">
        <ele>682</ele>
        <time>2021-10-14T18:15:04Z</time>
      </trkpt>
      <trkpt lat="46.27456" lon="4.67754">
        <ele>680</ele>
        <time>2021-10-14T18:15:10Z</time>
      </trkpt>
      <trkpt lat="46.27449" lon="4.67707">
        <ele>677</ele>
        <time>2021-10-14T18:15:15Z</time>
      </trkpt>
      <trkpt lat="46.27396" lon="4.67534">
        <ele>674</ele>
        <time>2021-10-14T18:15:39Z</time>
      </trkpt>
      <trkpt lat="46.27381" lon="4.67506">
        <ele>675</ele>
        <time>2021-10-14T18:15:43Z</time>
      </trkpt>
      <trkpt lat="46.2736" lon="4.67486">
        <ele>675</ele>
        <time>2021-10-14T18:15:48Z</time>
      </trkpt>
      <trkpt lat="46.2735" lon="4.67482">
        <ele>674</ele>
        <time>2021-10-14T18:15:49Z</time>
      </trkpt>
      <trkpt lat="46.27334" lon="4.6748">
        <ele>674</ele>
        <time>2021-10-14T18:15:52Z</time>
      </trkpt>
      <trkpt lat="46.27292" lon="4.67493">
        <ele>675</ele>
        <time>2021-10-14T18:16:00Z</time>
      </trkpt>
      <trkpt lat="46.27271" lon="4.67487">
        <ele>676</ele>
        <time>2021-10-14T18:16:04Z</time>
      </trkpt>
      <trkpt lat="46.27249" lon="4.67473">
        <ele>677</ele>
        <time>2021-10-14T18:16:08Z</time>
      </trkpt>
      <trkpt lat="46.27222" lon="4.67441">
        <ele>681</ele>
        <time>2021-10-14T18:16:14Z</time>
      </trkpt>
      <trkpt lat="46.27181" lon="4.67406">
        <ele>685</ele>
        <time>2021-10-14T18:16:23Z</time>
      </trkpt>
      <trkpt lat="46.27141" lon="4.67365">
        <ele>686</ele>
        <time>2021-10-14T18:16:31Z</time>
      </trkpt>
      <trkpt lat="46.27114" lon="4.6735">
        <ele>687</ele>
        <time>2021-10-14T18:16:37Z</time>
      </trkpt>
      <trkpt lat="46.27062" lon="4.67326">
        <ele>689</ele>
        <time>2021-10-14T18:16:46Z</time>
      </trkpt>
      <trkpt lat="46.27041" lon="4.67311">
        <ele>689</ele>
        <time>2021-10-14T18:16:50Z</time>
      </trkpt>
      <trkpt lat="46.27008" lon="4.67291">
        <ele>691</ele>
        <time>2021-10-14T18:16:57Z</time>
      </trkpt>
      <trkpt lat="46.2697" lon="4.67276">
        <ele>691</ele>
        <time>2021-10-14T18:17:04Z</time>
      </trkpt>
      <trkpt lat="46.26911" lon="4.67257">
        <ele>690</ele>
        <time>2021-10-14T18:17:15Z</time>
      </trkpt>
      <trkpt lat="46.26889" lon="4.67244">
        <ele>688</ele>
        <time>2021-10-14T18:17:19Z</time>
      </trkpt>
      <trkpt lat="46.26841" lon="4.67207">
        <ele>687</ele>
        <time>2021-10-14T18:17:28Z</time>
      </trkpt>
      <trkpt lat="46.26768" lon="4.67157">
        <ele>684</ele>
        <time>2021-10-14T18:17:43Z</time>
      </trkpt>
      <trkpt lat="46.26727" lon="4.67138">
        <ele>683</ele>
        <time>2021-10-14T18:17:51Z</time>
      </trkpt>
      <trkpt lat="46.26677" lon="4.67126">
        <ele>680</ele>
        <time>2021-10-14T18:18:00Z</time>
      </trkpt>
      <trkpt lat="46.26615" lon="4.67116">
        <ele>672</ele>
        <time>2021-10-14T18:18:11Z</time>
      </trkpt>
      <trkpt lat="46.26603" lon="4.67109">
        <ele>671</ele>
        <time>2021-10-14T18:18:13Z</time>
      </trkpt>
      <trkpt lat="46.26593" lon="4.67096">
        <ele>671</ele>
        <time>2021-10-14T18:18:15Z</time>
      </trkpt>
      <trkpt lat="46.26573" lon="4.67054">
        <ele>669</ele>
        <time>2021-10-14T18:18:22Z</time>
      </trkpt>
      <trkpt lat="46.26556" lon="4.66995">
        <ele>668</ele>
        <time>2021-10-14T18:18:29Z</time>
      </trkpt>
      <trkpt lat="46.26479" lon="4.66855">
        <ele>658</ele>
        <time>2021-10-14T18:18:51Z</time>
      </trkpt>
      <trkpt lat="46.2647" lon="4.66846">
        <ele>657</ele>
        <time>2021-10-14T18:18:53Z</time>
      </trkpt>
      <trkpt lat="46.26466" lon="4.66835">
        <ele>658</ele>
        <time>2021-10-14T18:18:55Z</time>
      </trkpt>
      <trkpt lat="46.26457" lon="4.66795">
        <ele>656</ele>
        <time>2021-10-14T18:19:00Z</time>
      </trkpt>
      <trkpt lat="46.26445" lon="4.66696">
        <ele>649</ele>
        <time>2021-10-14T18:19:12Z</time>
      </trkpt>
      <trkpt lat="46.26439" lon="4.66679">
        <ele>647</ele>
        <time>2021-10-14T18:19:15Z</time>
      </trkpt>
      <trkpt lat="46.26417" lon="4.6665">
        <ele>644</ele>
        <time>2021-10-14T18:19:20Z</time>
      </trkpt>
      <trkpt lat="46.2634" lon="4.66588">
        <ele>641</ele>
        <time>2021-10-14T18:19:36Z</time>
      </trkpt>
      <trkpt lat="46.26323" lon="4.66568">
        <ele>640</ele>
        <time>2021-10-14T18:19:40Z</time>
      </trkpt>
      <trkpt lat="46.26299" lon="4.6651">
        <ele>637</ele>
        <time>2021-10-14T18:19:48Z</time>
      </trkpt>
      <trkpt lat="46.26266" lon="4.6645">
        <ele>633</ele>
        <time>2021-10-14T18:19:57Z</time>
      </trkpt>
      <trkpt lat="46.26233" lon="4.66359">
        <ele>625</ele>
        <time>2021-10-14T18:20:10Z</time>
      </trkpt>
      <trkpt lat="46.26223" lon="4.66338">
        <ele>624</ele>
        <time>2021-10-14T18:20:13Z</time>
      </trkpt>
      <trkpt lat="46.26193" lon="4.6629">
        <ele>623</ele>
        <time>2021-10-14T18:20:21Z</time>
      </trkpt>
      <trkpt lat="46.26183" lon="4.66264">
        <ele>621</ele>
        <time>2021-10-14T18:20:25Z</time>
      </trkpt>
      <trkpt lat="46.26177" lon="4.66235">
        <ele>619</ele>
        <time>2021-10-14T18:20:29Z</time>
      </trkpt>
      <trkpt lat="46.26176" lon="4.66209">
        <ele>617</ele>
        <time>2021-10-14T18:20:32Z</time>
      </trkpt>
      <trkpt lat="46.26177" lon="4.66158">
        <ele>613</ele>
        <time>2021-10-14T18:20:38Z</time>
      </trkpt>
      <trkpt lat="46.26174" lon="4.6613">
        <ele>611</ele>
        <time>2021-10-14T18:20:42Z</time>
      </trkpt>
      <trkpt lat="46.26165" lon="4.66104">
        <ele>610</ele>
        <time>2021-10-14T18:20:45Z</time>
      </trkpt>
      <trkpt lat="46.26135" lon="4.66062">
        <ele>609</ele>
        <time>2021-10-14T18:20:53Z</time>
      </trkpt>
      <trkpt lat="46.26113" lon="4.66037">
        <ele>611</ele>
        <time>2021-10-14T18:20:58Z</time>
      </trkpt>
      <trkpt lat="46.26107" lon="4.66026">
        <ele>611</ele>
        <time>2021-10-14T18:20:59Z</time>
      </trkpt>
      <trkpt lat="46.26048" lon="4.66035">
        <ele>611</ele>
        <time>2021-10-14T18:21:10Z</time>
      </trkpt>
      <trkpt lat="46.26037" lon="4.66027">
        <ele>611</ele>
        <time>2021-10-14T18:21:12Z</time>
      </trkpt>
      <trkpt lat="46.25997" lon="4.6599">
        <ele>610</ele>
        <time>2021-10-14T18:21:20Z</time>
      </trkpt>
      <trkpt lat="46.25978" lon="4.65978">
        <ele>608</ele>
        <time>2021-10-14T18:21:24Z</time>
      </trkpt>
      <trkpt lat="46.25954" lon="4.65969">
        <ele>607</ele>
        <time>2021-10-14T18:21:29Z</time>
      </trkpt>
      <trkpt lat="46.25911" lon="4.65963">
        <ele>604</ele>
        <time>2021-10-14T18:21:36Z</time>
      </trkpt>
      <trkpt lat="46.25853" lon="4.65964">
        <ele>602</ele>
        <time>2021-10-14T18:21:47Z</time>
      </trkpt>
      <trkpt lat="46.25797" lon="4.6597">
        <ele>597</ele>
        <time>2021-10-14T18:21:57Z</time>
      </trkpt>
      <trkpt lat="46.25775" lon="4.65975">
        <ele>594</ele>
        <time>2021-10-14T18:22:01Z</time>
      </trkpt>
      <trkpt lat="46.25757" lon="4.65984">
        <ele>591</ele>
        <time>2021-10-14T18:22:04Z</time>
      </trkpt>
      <trkpt lat="46.2574" lon="4.65997">
        <ele>586</ele>
        <time>2021-10-14T18:22:07Z</time>
      </trkpt>
      <trkpt lat="46.25727" lon="4.66">
        <ele>583</ele>
        <time>2021-10-14T18:22:10Z</time>
      </trkpt>
      <trkpt lat="46.25715" lon="4.65995">
        <ele>582</ele>
        <time>2021-10-14T18:22:12Z</time>
      </trkpt>
      <trkpt lat="46.25705" lon="4.65984">
        <ele>581</ele>
        <time>2021-10-14T18:22:14Z</time>
      </trkpt>
      <trkpt lat="46.25696" lon="4.65965">
        <ele>582</ele>
        <time>2021-10-14T18:22:17Z</time>
      </trkpt>
      <trkpt lat="46.25677" lon="4.65913">
        <ele>582</ele>
        <time>2021-10-14T18:22:24Z</time>
      </trkpt>
      <trkpt lat="46.25664" lon="4.6589">
        <ele>581</ele>
        <time>2021-10-14T18:22:28Z</time>
      </trkpt>
      <trkpt lat="46.25657" lon="4.65885">
        <ele>581</ele>
        <time>2021-10-14T18:22:29Z</time>
      </trkpt>
      <trkpt lat="46.25648" lon="4.65883">
        <ele>579</ele>
        <time>2021-10-14T18:22:31Z</time>
      </trkpt>
      <trkpt lat="46.25642" lon="4.65853">
        <ele>581</ele>
        <time>2021-10-14T18:22:35Z</time>
      </trkpt>
      <trkpt lat="46.25634" lon="4.65819">
        <ele>585</ele>
        <time>2021-10-14T18:22:39Z</time>
      </trkpt>
      <trkpt lat="46.25624" lon="4.65798">
        <ele>588</ele>
        <time>2021-10-14T18:22:42Z</time>
      </trkpt>
      <trkpt lat="46.2561" lon="4.65781">
        <ele>590</ele>
        <time>2021-10-14T18:22:45Z</time>
      </trkpt>
      <trkpt lat="46.25597" lon="4.65771">
        <ele>592</ele>
        <time>2021-10-14T18:22:48Z</time>
      </trkpt>
      <trkpt lat="46.2558" lon="4.65764">
        <ele>593</ele>
        <time>2021-10-14T18:22:51Z</time>
      </trkpt>
      <trkpt lat="46.25563" lon="4.65763">
        <ele>593</ele>
        <time>2021-10-14T18:22:54Z</time>
      </trkpt>
      <trkpt lat="46.25552" lon="4.65757">
        <ele>595</ele>
        <time>2021-10-14T18:22:56Z</time>
      </trkpt>
      <trkpt lat="46.2553" lon="4.65729">
        <ele>602</ele>
        <time>2021-10-14T18:23:02Z</time>
      </trkpt>
      <trkpt lat="46.25517" lon="4.65718">
        <ele>604</ele>
        <time>2021-10-14T18:23:04Z</time>
      </trkpt>
      <trkpt lat="46.25501" lon="4.65714">
        <ele>604</ele>
        <time>2021-10-14T18:23:07Z</time>
      </trkpt>
      <trkpt lat="46.25484" lon="4.65716">
        <ele>604</ele>
        <time>2021-10-14T18:23:10Z</time>
      </trkpt>
      <trkpt lat="46.2546" lon="4.65725">
        <ele>603</ele>
        <time>2021-10-14T18:23:15Z</time>
      </trkpt>
      <trkpt lat="46.25404" lon="4.65769">
        <ele>597</ele>
        <time>2021-10-14T18:23:26Z</time>
      </trkpt>
      <trkpt lat="46.25392" lon="4.65776">
        <ele>596</ele>
        <time>2021-10-14T18:23:28Z</time>
      </trkpt>
      <trkpt lat="46.25379" lon="4.65777">
        <ele>595</ele>
        <time>2021-10-14T18:23:31Z</time>
      </trkpt>
      <trkpt lat="46.25367" lon="4.65771">
        <ele>595</ele>
        <time>2021-10-14T18:23:33Z</time>
      </trkpt>
      <trkpt lat="46.25354" lon="4.65761">
        <ele>595</ele>
        <time>2021-10-14T18:23:35Z</time>
      </trkpt>
      <trkpt lat="46.2534" lon="4.65746">
        <ele>595</ele>
        <time>2021-10-14T18:23:39Z</time>
      </trkpt>
      <trkpt lat="46.25322" lon="4.65713">
        <ele>597</ele>
        <time>2021-10-14T18:23:44Z</time>
      </trkpt>
      <trkpt lat="46.25289" lon="4.65639">
        <ele>599</ele>
        <time>2021-10-14T18:23:55Z</time>
      </trkpt>
      <trkpt lat="46.25283" lon="4.65618">
        <ele>600</ele>
        <time>2021-10-14T18:23:57Z</time>
      </trkpt>
      <trkpt lat="46.25281" lon="4.65602">
        <ele>601</ele>
        <time>2021-10-14T18:23:59Z</time>
      </trkpt>
      <trkpt lat="46.25283" lon="4.65582">
        <ele>603</ele>
        <time>2021-10-14T18:24:02Z</time>
      </trkpt>
      <trkpt lat="46.25289" lon="4.65567">
        <ele>603</ele>
        <time>2021-10-14T18:24:04Z</time>
      </trkpt>
      <trkpt lat="46.25297" lon="4.65552">
        <ele>603</ele>
        <time>2021-10-14T18:24:06Z</time>
      </trkpt>
      <trkpt lat="46.25325" lon="4.65525">
        <ele>605</ele>
        <time>2021-10-14T18:24:12Z</time>
      </trkpt>
      <trkpt lat="46.25342" lon="4.65514">
        <ele>607</ele>
        <time>2021-10-14T18:24:16Z</time>
      </trkpt>
      <trkpt lat="46.25364" lon="4.65504">
        <ele>609</ele>
        <time>2021-10-14T18:24:20Z</time>
      </trkpt>
      <trkpt lat="46.2541" lon="4.65488">
        <ele>614</ele>
        <time>2021-10-14T18:24:28Z</time>
      </trkpt>
      <trkpt lat="46.25427" lon="4.65478">
        <ele>617</ele>
        <time>2021-10-14T18:24:31Z</time>
      </trkpt>
      <trkpt lat="46.25443" lon="4.65461">
        <ele>621</ele>
        <time>2021-10-14T18:24:35Z</time>
      </trkpt>
      <trkpt lat="46.25458" lon="4.65439">
        <ele>624</ele>
        <time>2021-10-14T18:24:39Z</time>
      </trkpt>
      <trkpt lat="46.25467" lon="4.65422">
        <ele>626</ele>
        <time>2021-10-14T18:24:41Z</time>
      </trkpt>
      <trkpt lat="46.25473" lon="4.65403">
        <ele>627</ele>
        <time>2021-10-14T18:24:44Z</time>
      </trkpt>
      <trkpt lat="46.25473" lon="4.6537">
        <ele>624</ele>
        <time>2021-10-14T18:24:48Z</time>
      </trkpt>
      <trkpt lat="46.25465" lon="4.65317">
        <ele>615</ele>
        <time>2021-10-14T18:24:55Z</time>
      </trkpt>
      <trkpt lat="46.25468" lon="4.65283">
        <ele>613</ele>
        <time>2021-10-14T18:24:59Z</time>
      </trkpt>
      <trkpt lat="46.2548" lon="4.65232">
        <ele>611</ele>
        <time>2021-10-14T18:25:06Z</time>
      </trkpt>
      <trkpt lat="46.25549" lon="4.64981">
        <ele>602</ele>
        <time>2021-10-14T18:25:39Z</time>
      </trkpt>
      <trkpt lat="46.25567" lon="4.64899">
        <ele>601</ele>
        <time>2021-10-14T18:25:49Z</time>
      </trkpt>
      <trkpt lat="46.25573" lon="4.64854">
        <ele>602</ele>
        <time>2021-10-14T18:25:55Z</time>
      </trkpt>
      <trkpt lat="46.25568" lon="4.64739">
        <ele>606</ele>
        <time>2021-10-14T18:26:09Z</time>
      </trkpt>
      <trkpt lat="46.25556" lon="4.64696">
        <ele>607</ele>
        <time>2021-10-14T18:26:15Z</time>
      </trkpt>
      <trkpt lat="46.25536" lon="4.64653">
        <ele>609</ele>
        <time>2021-10-14T18:26:21Z</time>
      </trkpt>
      <trkpt lat="46.25523" lon="4.64641">
        <ele>608</ele>
        <time>2021-10-14T18:26:24Z</time>
      </trkpt>
      <trkpt lat="46.25491" lon="4.64632">
        <ele>603</ele>
        <time>2021-10-14T18:26:30Z</time>
      </trkpt>
      <trkpt lat="46.25459" lon="4.64629">
        <ele>598</ele>
        <time>2021-10-14T18:26:35Z</time>
      </trkpt>
      <trkpt lat="46.2545" lon="4.64624">
        <ele>598</ele>
        <time>2021-10-14T18:26:37Z</time>
      </trkpt>
      <trkpt lat="46.25442" lon="4.64615">
        <ele>598</ele>
        <time>2021-10-14T18:26:39Z</time>
      </trkpt>
      <trkpt lat="46.25436" lon="4.64598">
        <ele>599</ele>
        <time>2021-10-14T18:26:41Z</time>
      </trkpt>
      <trkpt lat="46.25434" lon="4.64582">
        <ele>600</ele>
        <time>2021-10-14T18:26:43Z</time>
      </trkpt>
      <trkpt lat="46.25436" lon="4.64548">
        <ele>599</ele>
        <time>2021-10-14T18:26:48Z</time>
      </trkpt>
      <trkpt lat="46.25464" lon="4.6436">
        <ele>607</ele>
        <time>2021-10-14T18:27:11Z</time>
      </trkpt>
      <trkpt lat="46.25463" lon="4.64335">
        <ele>608</ele>
        <time>2021-10-14T18:27:14Z</time>
      </trkpt>
      <trkpt lat="46.25474" lon="4.64307">
        <ele>610</ele>
        <time>2021-10-14T18:27:18Z</time>
      </trkpt>
      <trkpt lat="46.25482" lon="4.64271">
        <ele>612</ele>
        <time>2021-10-14T18:27:23Z</time>
      </trkpt>
      <trkpt lat="46.25499" lon="4.64159">
        <ele>613</ele>
        <time>2021-10-14T18:27:37Z</time>
      </trkpt>
      <trkpt lat="46.25503" lon="4.64123">
        <ele>614</ele>
        <time>2021-10-14T18:27:41Z</time>
      </trkpt>
      <trkpt lat="46.25505" lon="4.64086">
        <ele>614</ele>
        <time>2021-10-14T18:27:46Z</time>
      </trkpt>
      <trkpt lat="46.25516" lon="4.64087">
        <ele>612</ele>
        <time>2021-10-14T18:27:48Z</time>
      </trkpt>
      <trkpt lat="46.25527" lon="4.64082">
        <ele>609</ele>
        <time>2021-10-14T18:27:50Z</time>
      </trkpt>
      <trkpt lat="46.25531" lon="4.64053">
        <ele>609</ele>
        <time>2021-10-14T18:27:54Z</time>
      </trkpt>
      <trkpt lat="46.25533" lon="4.64027">
        <ele>609</ele>
        <time>2021-10-14T18:27:57Z</time>
      </trkpt>
      <trkpt lat="46.25542" lon="4.64">
        <ele>607</ele>
        <time>2021-10-14T18:28:01Z</time>
      </trkpt>
      <trkpt lat="46.25536" lon="4.63948">
        <ele>605</ele>
        <time>2021-10-14T18:28:07Z</time>
      </trkpt>
      <trkpt lat="46.25536" lon="4.63912">
        <ele>603</ele>
        <time>2021-10-14T18:28:12Z</time>
      </trkpt>
      <trkpt lat="46.25522" lon="4.63858">
        <ele>601</ele>
        <time>2021-10-14T18:28:19Z</time>
      </trkpt>
      <trkpt lat="46.25513" lon="4.63833">
        <ele>601</ele>
        <time>2021-10-14T18:28:22Z</time>
      </trkpt>
      <trkpt lat="46.25513" lon="4.63794">
        <ele>599</ele>
        <time>2021-10-14T18:28:27Z</time>
      </trkpt>
      <trkpt lat="46.25513" lon="4.63833">
        <ele>601</ele>
        <time>2021-10-14T18:28:32Z</time>
      </trkpt>
      <trkpt lat="46.25522" lon="4.63858">
        <ele>601</ele>
        <time>2021-10-14T18:28:35Z</time>
      </trkpt>
      <trkpt lat="46.25536" lon="4.63912">
        <ele>603</ele>
        <time>2021-10-14T18:28:42Z</time>
      </trkpt>
      <trkpt lat="46.25536" lon="4.63948">
        <ele>605</ele>
        <time>2021-10-14T18:28:47Z</time>
      </trkpt>
      <trkpt lat="46.25542" lon="4.64">
        <ele>607</ele>
        <time>2021-10-14T18:28:53Z</time>
      </trkpt>
      <trkpt lat="46.25533" lon="4.64027">
        <ele>609</ele>
        <time>2021-10-14T18:28:57Z</time>
      </trkpt>
      <trkpt lat="46.25531" lon="4.64053">
        <ele>609</ele>
        <time>2021-10-14T18:29:00Z</time>
      </trkpt>
      <trkpt lat="46.25527" lon="4.64082">
        <ele>609</ele>
        <time>2021-10-14T18:29:04Z</time>
      </trkpt>
      <trkpt lat="46.25516" lon="4.64087">
        <ele>612</ele>
        <time>2021-10-14T18:29:06Z</time>
      </trkpt>
      <trkpt lat="46.25505" lon="4.64086">
        <ele>614</ele>
        <time>2021-10-14T18:29:08Z</time>
      </trkpt>
      <trkpt lat="46.25503" lon="4.64061">
        <ele>614</ele>
        <time>2021-10-14T18:29:11Z</time>
      </trkpt>
      <trkpt lat="46.25498" lon="4.64029">
        <ele>615</ele>
        <time>2021-10-14T18:29:15Z</time>
      </trkpt>
      <trkpt lat="46.25441" lon="4.6379">
        <ele>611</ele>
        <time>2021-10-14T18:29:46Z</time>
      </trkpt>
      <trkpt lat="46.25425" lon="4.63716">
        <ele>613</ele>
        <time>2021-10-14T18:29:55Z</time>
      </trkpt>
      <trkpt lat="46.25424" lon="4.63684">
        <ele>614</ele>
        <time>2021-10-14T18:29:59Z</time>
      </trkpt>
      <trkpt lat="46.25428" lon="4.63655">
        <ele>614</ele>
        <time>2021-10-14T18:30:03Z</time>
      </trkpt>
      <trkpt lat="46.25439" lon="4.63618">
        <ele>613</ele>
        <time>2021-10-14T18:30:08Z</time>
      </trkpt>
      <trkpt lat="46.25517" lon="4.63425">
        <ele>612</ele>
        <time>2021-10-14T18:30:36Z</time>
      </trkpt>
      <trkpt lat="46.25527" lon="4.63395">
        <ele>611</ele>
        <time>2021-10-14T18:30:40Z</time>
      </trkpt>
      <trkpt lat="46.25534" lon="4.63366">
        <ele>611</ele>
        <time>2021-10-14T18:30:43Z</time>
      </trkpt>
      <trkpt lat="46.25538" lon="4.63339">
        <ele>610</ele>
        <time>2021-10-14T18:30:47Z</time>
      </trkpt>
      <trkpt lat="46.25538" lon="4.63308">
        <ele>611</ele>
        <time>2021-10-14T18:30:51Z</time>
      </trkpt>
      <trkpt lat="46.25521" lon="4.62983">
        <ele>613</ele>
        <time>2021-10-14T18:31:31Z</time>
      </trkpt>
      <trkpt lat="46.255" lon="4.62635">
        <ele>621</ele>
        <time>2021-10-14T18:32:14Z</time>
      </trkpt>
      <trkpt lat="46.255" lon="4.62607">
        <ele>623</ele>
        <time>2021-10-14T18:32:17Z</time>
      </trkpt>
      <trkpt lat="46.25503" lon="4.62576">
        <ele>626</ele>
        <time>2021-10-14T18:32:21Z</time>
      </trkpt>
      <trkpt lat="46.25511" lon="4.62545">
        <ele>629</ele>
        <time>2021-10-14T18:32:25Z</time>
      </trkpt>
      <trkpt lat="46.2556" lon="4.62418">
        <ele>634</ele>
        <time>2021-10-14T18:32:43Z</time>
      </trkpt>
      <trkpt lat="46.25588" lon="4.62337">
        <ele>635</ele>
        <time>2021-10-14T18:32:54Z</time>
      </trkpt>
      <trkpt lat="46.25613" lon="4.62275">
        <ele>636</ele>
        <time>2021-10-14T18:33:03Z</time>
      </trkpt>
      <trkpt lat="46.25632" lon="4.62236">
        <ele>638</ele>
        <time>2021-10-14T18:33:09Z</time>
      </trkpt>
      <trkpt lat="46.25651" lon="4.62211">
        <ele>641</ele>
        <time>2021-10-14T18:33:13Z</time>
      </trkpt>
      <trkpt lat="46.25669" lon="4.62194">
        <ele>642</ele>
        <time>2021-10-14T18:33:17Z</time>
      </trkpt>
      <trkpt lat="46.25697" lon="4.62179">
        <ele>643</ele>
        <time>2021-10-14T18:33:22Z</time>
      </trkpt>
      <trkpt lat="46.25715" lon="4.62177">
        <ele>644</ele>
        <time>2021-10-14T18:33:26Z</time>
      </trkpt>
      <trkpt lat="46.25732" lon="4.62181">
        <ele>644</ele>
        <time>2021-10-14T18:33:29Z</time>
      </trkpt>
      <trkpt lat="46.25802" lon="4.6223">
        <ele>645</ele>
        <time>2021-10-14T18:33:43Z</time>
      </trkpt>
      <trkpt lat="46.25831" lon="4.62243">
        <ele>647</ele>
        <time>2021-10-14T18:33:48Z</time>
      </trkpt>
      <trkpt lat="46.25841" lon="4.62209">
        <ele>644</ele>
        <time>2021-10-14T18:33:53Z</time>
      </trkpt>
      <trkpt lat="46.25844" lon="4.62179">
        <ele>642</ele>
        <time>2021-10-14T18:33:56Z</time>
      </trkpt>
      <trkpt lat="46.25843" lon="4.6215">
        <ele>642</ele>
        <time>2021-10-14T18:34:00Z</time>
      </trkpt>
      <trkpt lat="46.25833" lon="4.62085">
        <ele>645</ele>
        <time>2021-10-14T18:34:08Z</time>
      </trkpt>
      <trkpt lat="46.25828" lon="4.62064">
        <ele>646</ele>
        <time>2021-10-14T18:34:11Z</time>
      </trkpt>
      <trkpt lat="46.25821" lon="4.62046">
        <ele>647</ele>
        <time>2021-10-14T18:34:13Z</time>
      </trkpt>
      <trkpt lat="46.25814" lon="4.62033">
        <ele>648</ele>
        <time>2021-10-14T18:34:15Z</time>
      </trkpt>
      <trkpt lat="46.25806" lon="4.62022">
        <ele>649</ele>
        <time>2021-10-14T18:34:17Z</time>
      </trkpt>
      <trkpt lat="46.25793" lon="4.62012">
        <ele>651</ele>
        <time>2021-10-14T18:34:20Z</time>
      </trkpt>
      <trkpt lat="46.25748" lon="4.61993">
        <ele>655</ele>
        <time>2021-10-14T18:34:28Z</time>
      </trkpt>
      <trkpt lat="46.25692" lon="4.61975">
        <ele>659</ele>
        <time>2021-10-14T18:34:38Z</time>
      </trkpt>
      <trkpt lat="46.25676" lon="4.61967">
        <ele>660</ele>
        <time>2021-10-14T18:34:41Z</time>
      </trkpt>
      <trkpt lat="46.25649" lon="4.61949">
        <ele>662</ele>
        <time>2021-10-14T18:34:47Z</time>
      </trkpt>
      <trkpt lat="46.25638" lon="4.61945">
        <ele>663</ele>
        <time>2021-10-14T18:34:49Z</time>
      </trkpt>
      <trkpt lat="46.25623" lon="4.61942">
        <ele>663</ele>
        <time>2021-10-14T18:34:51Z</time>
      </trkpt>
      <trkpt lat="46.25595" lon="4.61941">
        <ele>664</ele>
        <time>2021-10-14T18:34:56Z</time>
      </trkpt>
      <trkpt lat="46.25577" lon="4.61942">
        <ele>665</ele>
        <time>2021-10-14T18:35:00Z</time>
      </trkpt>
      <trkpt lat="46.25539" lon="4.61948">
        <ele>665</ele>
        <time>2021-10-14T18:35:06Z</time>
      </trkpt>
      <trkpt lat="46.25517" lon="4.61947">
        <ele>665</ele>
        <time>2021-10-14T18:35:10Z</time>
      </trkpt>
      <trkpt lat="46.25498" lon="4.6193">
        <ele>665</ele>
        <time>2021-10-14T18:35:14Z</time>
      </trkpt>
      <trkpt lat="46.25433" lon="4.61854">
        <ele>662</ele>
        <time>2021-10-14T18:35:29Z</time>
      </trkpt>
      <trkpt lat="46.25371" lon="4.61787">
        <ele>663</ele>
        <time>2021-10-14T18:35:43Z</time>
      </trkpt>
      <trkpt lat="46.25321" lon="4.61666">
        <ele>662</ele>
        <time>2021-10-14T18:36:00Z</time>
      </trkpt>
      <trkpt lat="46.2532" lon="4.61652">
        <ele>663</ele>
        <time>2021-10-14T18:36:02Z</time>
      </trkpt>
      <trkpt lat="46.25321" lon="4.6161">
        <ele>664</ele>
        <time>2021-10-14T18:36:07Z</time>
      </trkpt>
      <trkpt lat="46.25325" lon="4.6158">
        <ele>664</ele>
        <time>2021-10-14T18:36:11Z</time>
      </trkpt>
      <trkpt lat="46.25339" lon="4.61521">
        <ele>661</ele>
        <time>2021-10-14T18:36:19Z</time>
      </trkpt>
      <trkpt lat="46.25342" lon="4.615">
        <ele>661</ele>
        <time>2021-10-14T18:36:21Z</time>
      </trkpt>
      <trkpt lat="46.2534" lon="4.61471">
        <ele>661</ele>
        <time>2021-10-14T18:36:25Z</time>
      </trkpt>
      <trkpt lat="46.25335" lon="4.61454">
        <ele>661</ele>
        <time>2021-10-14T18:36:27Z</time>
      </trkpt>
      <trkpt lat="46.2532" lon="4.61428">
        <ele>663</ele>
        <time>2021-10-14T18:36:31Z</time>
      </trkpt>
      <trkpt lat="46.2528" lon="4.61388">
        <ele>667</ele>
        <time>2021-10-14T18:36:40Z</time>
      </trkpt>
      <trkpt lat="46.25262" lon="4.61367">
        <ele>668</ele>
        <time>2021-10-14T18:36:44Z</time>
      </trkpt>
      <trkpt lat="46.25254" lon="4.61361">
        <ele>669</ele>
        <time>2021-10-14T18:36:46Z</time>
      </trkpt>
      <trkpt lat="46.25239" lon="4.61358">
        <ele>670</ele>
        <time>2021-10-14T18:36:48Z</time>
      </trkpt>
      <trkpt lat="46.25201" lon="4.61363">
        <ele>673</ele>
        <time>2021-10-14T18:36:55Z</time>
      </trkpt>
      <trkpt lat="46.25166" lon="4.61364">
        <ele>675</ele>
        <time>2021-10-14T18:37:01Z</time>
      </trkpt>
      <trkpt lat="46.25139" lon="4.6137">
        <ele>679</ele>
        <time>2021-10-14T18:37:06Z</time>
      </trkpt>
      <trkpt lat="46.25108" lon="4.61386">
        <ele>683</ele>
        <time>2021-10-14T18:37:12Z</time>
      </trkpt>
      <trkpt lat="46.251" lon="4.61388">
        <ele>684</ele>
        <time>2021-10-14T18:37:14Z</time>
      </trkpt>
      <trkpt lat="46.25094" lon="4.61385">
        <ele>684</ele>
        <time>2021-10-14T18:37:15Z</time>
      </trkpt>
      <trkpt lat="46.25087" lon="4.61377">
        <ele>685</ele>
        <time>2021-10-14T18:37:16Z</time>
      </trkpt>
      <trkpt lat="46.25084" lon="4.61368">
        <ele>685</ele>
        <time>2021-10-14T18:37:18Z</time>
      </trkpt>
      <trkpt lat="46.25082" lon="4.61357">
        <ele>685</ele>
        <time>2021-10-14T18:37:19Z</time>
      </trkpt>
      <trkpt lat="46.25082" lon="4.61342">
        <ele>685</ele>
        <time>2021-10-14T18:37:21Z</time>
      </trkpt>
      <trkpt lat="46.25087" lon="4.61315">
        <ele>682</ele>
        <time>2021-10-14T18:37:24Z</time>
      </trkpt>
      <trkpt lat="46.25099" lon="4.61269">
        <ele>676</ele>
        <time>2021-10-14T18:37:30Z</time>
      </trkpt>
      <trkpt lat="46.25099" lon="4.61242">
        <ele>673</ele>
        <time>2021-10-14T18:37:34Z</time>
      </trkpt>
      <trkpt lat="46.25096" lon="4.61223">
        <ele>671</ele>
        <time>2021-10-14T18:37:36Z</time>
      </trkpt>
      <trkpt lat="46.2509" lon="4.61207">
        <ele>670</ele>
        <time>2021-10-14T18:37:38Z</time>
      </trkpt>
      <trkpt lat="46.25079" lon="4.61189">
        <ele>668</ele>
        <time>2021-10-14T18:37:41Z</time>
      </trkpt>
      <trkpt lat="46.25066" lon="4.61174">
        <ele>667</ele>
        <time>2021-10-14T18:37:44Z</time>
      </trkpt>
      <trkpt lat="46.25047" lon="4.61159">
        <ele>666</ele>
        <time>2021-10-14T18:37:48Z</time>
      </trkpt>
      <trkpt lat="46.25024" lon="4.61146">
        <ele>666</ele>
        <time>2021-10-14T18:37:52Z</time>
      </trkpt>
      <trkpt lat="46.25" lon="4.61135">
        <ele>665</ele>
        <time>2021-10-14T18:37:57Z</time>
      </trkpt>
      <trkpt lat="46.24986" lon="4.61132">
        <ele>664</ele>
        <time>2021-10-14T18:37:59Z</time>
      </trkpt>
      <trkpt lat="46.24959" lon="4.61134">
        <ele>663</ele>
        <time>2021-10-14T18:38:04Z</time>
      </trkpt>
      <trkpt lat="46.2493" lon="4.61142">
        <ele>665</ele>
        <time>2021-10-14T18:38:09Z</time>
      </trkpt>
      <trkpt lat="46.24907" lon="4.61153">
        <ele>666</ele>
        <time>2021-10-14T18:38:14Z</time>
      </trkpt>
      <trkpt lat="46.24857" lon="4.61184">
        <ele>670</ele>
        <time>2021-10-14T18:38:23Z</time>
      </trkpt>
      <trkpt lat="46.24824" lon="4.61197">
        <ele>672</ele>
        <time>2021-10-14T18:38:30Z</time>
      </trkpt>
      <trkpt lat="46.24802" lon="4.61201">
        <ele>674</ele>
        <time>2021-10-14T18:38:33Z</time>
      </trkpt>
      <trkpt lat="46.24778" lon="4.61201">
        <ele>675</ele>
        <time>2021-10-14T18:38:38Z</time>
      </trkpt>
      <trkpt lat="46.24715" lon="4.61191">
        <ele>675</ele>
        <time>2021-10-14T18:38:49Z</time>
      </trkpt>
      <trkpt lat="46.24686" lon="4.61195">
        <ele>675</ele>
        <time>2021-10-14T18:38:54Z</time>
      </trkpt>
      <trkpt lat="46.24674" lon="4.61201">
        <ele>676</ele>
        <time>2021-10-14T18:38:56Z</time>
      </trkpt>
      <trkpt lat="46.2466" lon="4.61214">
        <ele>675</ele>
        <time>2021-10-14T18:38:59Z</time>
      </trkpt>
      <trkpt lat="46.2466" lon="4.61304">
        <ele>678</ele>
        <time>2021-10-14T18:39:11Z</time>
      </trkpt>
      <trkpt lat="46.24666" lon="4.61366">
        <ele>681</ele>
        <time>2021-10-14T18:39:18Z</time>
      </trkpt>
      <trkpt lat="46.24664" lon="4.6138">
        <ele>681</ele>
        <time>2021-10-14T18:39:20Z</time>
      </trkpt>
      <trkpt lat="46.24657" lon="4.61395">
        <ele>679</ele>
        <time>2021-10-14T18:39:22Z</time>
      </trkpt>
      <trkpt lat="46.24631" lon="4.61432">
        <ele>675</ele>
        <time>2021-10-14T18:39:29Z</time>
      </trkpt>
      <trkpt lat="46.24598" lon="4.61468">
        <ele>671</ele>
        <time>2021-10-14T18:39:36Z</time>
      </trkpt>
      <trkpt lat="46.24556" lon="4.6149">
        <ele>668</ele>
        <time>2021-10-14T18:39:44Z</time>
      </trkpt>
      <trkpt lat="46.24525" lon="4.61503">
        <ele>667</ele>
        <time>2021-10-14T18:39:50Z</time>
      </trkpt>
      <trkpt lat="46.24442" lon="4.61522">
        <ele>664</ele>
        <time>2021-10-14T18:40:05Z</time>
      </trkpt>
      <trkpt lat="46.24389" lon="4.61542">
        <ele>665</ele>
        <time>2021-10-14T18:40:14Z</time>
      </trkpt>
      <trkpt lat="46.24373" lon="4.61546">
        <ele>666</ele>
        <time>2021-10-14T18:40:17Z</time>
      </trkpt>
      <trkpt lat="46.24355" lon="4.61545">
        <ele>665</ele>
        <time>2021-10-14T18:40:21Z</time>
      </trkpt>
      <trkpt lat="46.24278" lon="4.61533">
        <ele>662</ele>
        <time>2021-10-14T18:40:34Z</time>
      </trkpt>
      <trkpt lat="46.24264" lon="4.61535">
        <ele>662</ele>
        <time>2021-10-14T18:40:37Z</time>
      </trkpt>
      <trkpt lat="46.24255" lon="4.61541">
        <ele>662</ele>
        <time>2021-10-14T18:40:39Z</time>
      </trkpt>
      <trkpt lat="46.24249" lon="4.61554">
        <ele>662</ele>
        <time>2021-10-14T18:40:40Z</time>
      </trkpt>
      <trkpt lat="46.24243" lon="4.61581">
        <ele>662</ele>
        <time>2021-10-14T18:40:44Z</time>
      </trkpt>
      <trkpt lat="46.24241" lon="4.61614">
        <ele>661</ele>
        <time>2021-10-14T18:40:48Z</time>
      </trkpt>
      <trkpt lat="46.24241" lon="4.6166">
        <ele>660</ele>
        <time>2021-10-14T18:40:54Z</time>
      </trkpt>
      <trkpt lat="46.24246" lon="4.6171">
        <ele>660</ele>
        <time>2021-10-14T18:41:00Z</time>
      </trkpt>
      <trkpt lat="46.24242" lon="4.61727">
        <ele>659</ele>
        <time>2021-10-14T18:41:02Z</time>
      </trkpt>
      <trkpt lat="46.24234" lon="4.61738">
        <ele>658</ele>
        <time>2021-10-14T18:41:04Z</time>
      </trkpt>
      <trkpt lat="46.24224" lon="4.61739">
        <ele>657</ele>
        <time>2021-10-14T18:41:06Z</time>
      </trkpt>
      <trkpt lat="46.24217" lon="4.61738">
        <ele>657</ele>
        <time>2021-10-14T18:41:07Z</time>
      </trkpt>
      <trkpt lat="46.24203" lon="4.61731">
        <ele>655</ele>
        <time>2021-10-14T18:41:10Z</time>
      </trkpt>
      <trkpt lat="46.24176" lon="4.61713">
        <ele>651</ele>
        <time>2021-10-14T18:41:15Z</time>
      </trkpt>
      <trkpt lat="46.24161" lon="4.61707">
        <ele>649</ele>
        <time>2021-10-14T18:41:18Z</time>
      </trkpt>
      <trkpt lat="46.24149" lon="4.61705">
        <ele>647</ele>
        <time>2021-10-14T18:41:20Z</time>
      </trkpt>
      <trkpt lat="46.24126" lon="4.61713">
        <ele>644</ele>
        <time>2021-10-14T18:41:24Z</time>
      </trkpt>
      <trkpt lat="46.24107" lon="4.61725">
        <ele>642</ele>
        <time>2021-10-14T18:41:28Z</time>
      </trkpt>
      <trkpt lat="46.24092" lon="4.61737">
        <ele>641</ele>
        <time>2021-10-14T18:41:31Z</time>
      </trkpt>
      <trkpt lat="46.24064" lon="4.61775">
        <ele>640</ele>
        <time>2021-10-14T18:41:38Z</time>
      </trkpt>
      <trkpt lat="46.24066" lon="4.61788">
        <ele>642</ele>
        <time>2021-10-14T18:41:39Z</time>
      </trkpt>
      <trkpt lat="46.24062" lon="4.61806">
        <ele>643</ele>
        <time>2021-10-14T18:41:42Z</time>
      </trkpt>
      <trkpt lat="46.2403" lon="4.6188">
        <ele>646</ele>
        <time>2021-10-14T18:41:52Z</time>
      </trkpt>
      <trkpt lat="46.24" lon="4.61983">
        <ele>650</ele>
        <time>2021-10-14T18:42:06Z</time>
      </trkpt>
      <trkpt lat="46.23987" lon="4.62045">
        <ele>654</ele>
        <time>2021-10-14T18:42:14Z</time>
      </trkpt>
      <trkpt lat="46.2397" lon="4.62147">
        <ele>662</ele>
        <time>2021-10-14T18:42:27Z</time>
      </trkpt>
      <trkpt lat="46.23964" lon="4.62199">
        <ele>664</ele>
        <time>2021-10-14T18:42:34Z</time>
      </trkpt>
      <trkpt lat="46.23974" lon="4.62279">
        <ele>665</ele>
        <time>2021-10-14T18:42:44Z</time>
      </trkpt>
      <trkpt lat="46.2397" lon="4.62308">
        <ele>665</ele>
        <time>2021-10-14T18:42:47Z</time>
      </trkpt>
      <trkpt lat="46.23965" lon="4.62327">
        <ele>664</ele>
        <time>2021-10-14T18:42:50Z</time>
      </trkpt>
      <trkpt lat="46.2391" lon="4.62395">
        <ele>658</ele>
        <time>2021-10-14T18:43:03Z</time>
      </trkpt>
      <trkpt lat="46.23857" lon="4.62537">
        <ele>649</ele>
        <time>2021-10-14T18:43:22Z</time>
      </trkpt>
      <trkpt lat="46.23836" lon="4.62581">
        <ele>645</ele>
        <time>2021-10-14T18:43:29Z</time>
      </trkpt>
      <trkpt lat="46.23784" lon="4.62656">
        <ele>640</ele>
        <time>2021-10-14T18:43:42Z</time>
      </trkpt>
      <trkpt lat="46.23751" lon="4.62692">
        <ele>635</ele>
        <time>2021-10-14T18:43:49Z</time>
      </trkpt>
      <trkpt lat="46.23734" lon="4.62703">
        <ele>635</ele>
        <time>2021-10-14T18:43:53Z</time>
      </trkpt>
      <trkpt lat="46.23695" lon="4.6271">
        <ele>640</ele>
        <time>2021-10-14T18:44:00Z</time>
      </trkpt>
      <trkpt lat="46.23667" lon="4.62711">
        <ele>644</ele>
        <time>2021-10-14T18:44:05Z</time>
      </trkpt>
      <trkpt lat="46.23657" lon="4.62722">
        <ele>646</ele>
        <time>2021-10-14T18:44:07Z</time>
      </trkpt>
      <trkpt lat="46.23649" lon="4.62741">
        <ele>646</ele>
        <time>2021-10-14T18:44:10Z</time>
      </trkpt>
      <trkpt lat="46.23647" lon="4.62774">
        <ele>643</ele>
        <time>2021-10-14T18:44:14Z</time>
      </trkpt>
      <trkpt lat="46.2366" lon="4.62828">
        <ele>634</ele>
        <time>2021-10-14T18:44:21Z</time>
      </trkpt>
      <trkpt lat="46.23663" lon="4.62859">
        <ele>631</ele>
        <time>2021-10-14T18:44:25Z</time>
      </trkpt>
      <trkpt lat="46.23663" lon="4.62896">
        <ele>628</ele>
        <time>2021-10-14T18:44:29Z</time>
      </trkpt>
      <trkpt lat="46.23657" lon="4.62918">
        <ele>627</ele>
        <time>2021-10-14T18:44:32Z</time>
      </trkpt>
      <trkpt lat="46.23648" lon="4.62933">
        <ele>627</ele>
        <time>2021-10-14T18:44:35Z</time>
      </trkpt>
      <trkpt lat="46.23611" lon="4.62979">
        <ele>630</ele>
        <time>2021-10-14T18:44:43Z</time>
      </trkpt>
      <trkpt lat="46.23593" lon="4.63021">
        <ele>631</ele>
        <time>2021-10-14T18:44:49Z</time>
      </trkpt>
      <trkpt lat="46.23593" lon="4.63129">
        <ele>621</ele>
        <time>2021-10-14T18:45:03Z</time>
      </trkpt>
      <trkpt lat="46.23587" lon="4.63173">
        <ele>617</ele>
        <time>2021-10-14T18:45:08Z</time>
      </trkpt>
      <trkpt lat="46.23581" lon="4.63241">
        <ele>613</ele>
        <time>2021-10-14T18:45:17Z</time>
      </trkpt>
      <trkpt lat="46.23573" lon="4.63278">
        <ele>610</ele>
        <time>2021-10-14T18:45:21Z</time>
      </trkpt>
      <trkpt lat="46.2356" lon="4.63304">
        <ele>608</ele>
        <time>2021-10-14T18:45:25Z</time>
      </trkpt>
      <trkpt lat="46.23543" lon="4.63326">
        <ele>607</ele>
        <time>2021-10-14T18:45:29Z</time>
      </trkpt>
      <trkpt lat="46.23522" lon="4.63339">
        <ele>606</ele>
        <time>2021-10-14T18:45:33Z</time>
      </trkpt>
      <trkpt lat="46.23493" lon="4.63349">
        <ele>605</ele>
        <time>2021-10-14T18:45:39Z</time>
      </trkpt>
      <trkpt lat="46.23413" lon="4.63352">
        <ele>603</ele>
        <time>2021-10-14T18:45:53Z</time>
      </trkpt>
      <trkpt lat="46.23379" lon="4.63344">
        <ele>601</ele>
        <time>2021-10-14T18:45:59Z</time>
      </trkpt>
      <trkpt lat="46.2334" lon="4.6333">
        <ele>599</ele>
        <time>2021-10-14T18:46:06Z</time>
      </trkpt>
      <trkpt lat="46.23323" lon="4.63314">
        <ele>598</ele>
        <time>2021-10-14T18:46:10Z</time>
      </trkpt>
      <trkpt lat="46.23304" lon="4.63281">
        <ele>597</ele>
        <time>2021-10-14T18:46:15Z</time>
      </trkpt>
      <trkpt lat="46.23244" lon="4.6312">
        <ele>598</ele>
        <time>2021-10-14T18:46:38Z</time>
      </trkpt>
      <trkpt lat="46.23236" lon="4.63102">
        <ele>597</ele>
        <time>2021-10-14T18:46:40Z</time>
      </trkpt>
      <trkpt lat="46.23223" lon="4.63087">
        <ele>595</ele>
        <time>2021-10-14T18:46:43Z</time>
      </trkpt>
      <trkpt lat="46.23187" lon="4.63069">
        <ele>588</ele>
        <time>2021-10-14T18:46:50Z</time>
      </trkpt>
      <trkpt lat="46.23171" lon="4.63046">
        <ele>587</ele>
        <time>2021-10-14T18:46:54Z</time>
      </trkpt>
      <trkpt lat="46.23156" lon="4.62987">
        <ele>595</ele>
        <time>2021-10-14T18:47:02Z</time>
      </trkpt>
      <trkpt lat="46.23145" lon="4.62975">
        <ele>597</ele>
        <time>2021-10-14T18:47:04Z</time>
      </trkpt>
      <trkpt lat="46.23132" lon="4.62973">
        <ele>598</ele>
        <time>2021-10-14T18:47:07Z</time>
      </trkpt>
      <trkpt lat="46.2312" lon="4.62981">
        <ele>597</ele>
        <time>2021-10-14T18:47:09Z</time>
      </trkpt>
      <trkpt lat="46.23104" lon="4.63005">
        <ele>594</ele>
        <time>2021-10-14T18:47:13Z</time>
      </trkpt>
      <trkpt lat="46.23089" lon="4.63043">
        <ele>591</ele>
        <time>2021-10-14T18:47:18Z</time>
      </trkpt>
      <trkpt lat="46.23081" lon="4.63073">
        <ele>589</ele>
        <time>2021-10-14T18:47:22Z</time>
      </trkpt>
      <trkpt lat="46.23079" lon="4.63216">
        <ele>584</ele>
        <time>2021-10-14T18:47:40Z</time>
      </trkpt>
      <trkpt lat="46.23076" lon="4.6332">
        <ele>577</ele>
        <time>2021-10-14T18:47:53Z</time>
      </trkpt>
      <trkpt lat="46.23073" lon="4.63351">
        <ele>575</ele>
        <time>2021-10-14T18:47:57Z</time>
      </trkpt>
      <trkpt lat="46.23049" lon="4.63458">
        <ele>568</ele>
        <time>2021-10-14T18:48:11Z</time>
      </trkpt>
      <trkpt lat="46.23035" lon="4.63497">
        <ele>566</ele>
        <time>2021-10-14T18:48:16Z</time>
      </trkpt>
      <trkpt lat="46.23001" lon="4.63562">
        <ele>563</ele>
        <time>2021-10-14T18:48:26Z</time>
      </trkpt>
      <trkpt lat="46.22976" lon="4.636">
        <ele>554</ele>
        <time>2021-10-14T18:48:32Z</time>
      </trkpt>
      <trkpt lat="46.22962" lon="4.63614">
        <ele>550</ele>
        <time>2021-10-14T18:48:35Z</time>
      </trkpt>
      <trkpt lat="46.22946" lon="4.63624">
        <ele>547</ele>
        <time>2021-10-14T18:48:39Z</time>
      </trkpt>
      <trkpt lat="46.22933" lon="4.63621">
        <ele>547</ele>
        <time>2021-10-14T18:48:41Z</time>
      </trkpt>
      <trkpt lat="46.22918" lon="4.63608">
        <ele>549</ele>
        <time>2021-10-14T18:48:44Z</time>
      </trkpt>
      <trkpt lat="46.22884" lon="4.63566">
        <ele>548</ele>
        <time>2021-10-14T18:48:52Z</time>
      </trkpt>
      <trkpt lat="46.22858" lon="4.63525">
        <ele>549</ele>
        <time>2021-10-14T18:48:59Z</time>
      </trkpt>
      <trkpt lat="46.22841" lon="4.63481">
        <ele>551</ele>
        <time>2021-10-14T18:49:05Z</time>
      </trkpt>
      <trkpt lat="46.22823" lon="4.63459">
        <ele>551</ele>
        <time>2021-10-14T18:49:09Z</time>
      </trkpt>
      <trkpt lat="46.22801" lon="4.63446">
        <ele>550</ele>
        <time>2021-10-14T18:49:13Z</time>
      </trkpt>
      <trkpt lat="46.22779" lon="4.63442">
        <ele>548</ele>
        <time>2021-10-14T18:49:17Z</time>
      </trkpt>
      <trkpt lat="46.22756" lon="4.63443">
        <ele>545</ele>
        <time>2021-10-14T18:49:21Z</time>
      </trkpt>
      <trkpt lat="46.22741" lon="4.63446">
        <ele>544</ele>
        <time>2021-10-14T18:49:24Z</time>
      </trkpt>
      <trkpt lat="46.22657" lon="4.63484">
        <ele>545</ele>
        <time>2021-10-14T18:49:40Z</time>
      </trkpt>
      <trkpt lat="46.22633" lon="4.63514">
        <ele>545</ele>
        <time>2021-10-14T18:49:45Z</time>
      </trkpt>
      <trkpt lat="46.22583" lon="4.63626">
        <ele>538</ele>
        <time>2021-10-14T18:50:02Z</time>
      </trkpt>
      <trkpt lat="46.22571" lon="4.63646">
        <ele>537</ele>
        <time>2021-10-14T18:50:05Z</time>
      </trkpt>
      <trkpt lat="46.22557" lon="4.63664">
        <ele>535</ele>
        <time>2021-10-14T18:50:08Z</time>
      </trkpt>
      <trkpt lat="46.2254" lon="4.63675">
        <ele>535</ele>
        <time>2021-10-14T18:50:12Z</time>
      </trkpt>
      <trkpt lat="46.2248" lon="4.63698">
        <ele>534</ele>
        <time>2021-10-14T18:50:23Z</time>
      </trkpt>
      <trkpt lat="46.22421" lon="4.63704">
        <ele>538</ele>
        <time>2021-10-14T18:50:33Z</time>
      </trkpt>
      <trkpt lat="46.22408" lon="4.63715">
        <ele>538</ele>
        <time>2021-10-14T18:50:36Z</time>
      </trkpt>
      <trkpt lat="46.22336" lon="4.63826">
        <ele>527</ele>
        <time>2021-10-14T18:50:55Z</time>
      </trkpt>
      <trkpt lat="46.22284" lon="4.6391">
        <ele>520</ele>
        <time>2021-10-14T18:51:09Z</time>
      </trkpt>
      <trkpt lat="46.22282" lon="4.63905">
        <ele>521</ele>
        <time>2021-10-14T18:51:09Z</time>
      </trkpt>
      <trkpt lat="46.22275" lon="4.63905">
        <ele>522</ele>
        <time>2021-10-14T18:51:11Z</time>
      </trkpt>
      <trkpt lat="46.22264" lon="4.63917">
        <ele>521</ele>
        <time>2021-10-14T18:51:13Z</time>
      </trkpt>
      <trkpt lat="46.22234" lon="4.63944">
        <ele>521</ele>
        <time>2021-10-14T18:51:19Z</time>
      </trkpt>
      <trkpt lat="46.2221" lon="4.63959">
        <ele>522</ele>
        <time>2021-10-14T18:51:24Z</time>
      </trkpt>
      <trkpt lat="46.2214" lon="4.63986">
        <ele>526</ele>
        <time>2021-10-14T18:51:37Z</time>
      </trkpt>
      <trkpt lat="46.22114" lon="4.64003">
        <ele>526</ele>
        <time>2021-10-14T18:51:42Z</time>
      </trkpt>
      <trkpt lat="46.22026" lon="4.64075">
        <ele>526</ele>
        <time>2021-10-14T18:52:00Z</time>
      </trkpt>
      <trkpt lat="46.21966" lon="4.6413">
        <ele>523</ele>
        <time>2021-10-14T18:52:13Z</time>
      </trkpt>
      <trkpt lat="46.21956" lon="4.64135">
        <ele>523</ele>
        <time>2021-10-14T18:52:14Z</time>
      </trkpt>
      <trkpt lat="46.21935" lon="4.64139">
        <ele>523</ele>
        <time>2021-10-14T18:52:18Z</time>
      </trkpt>
      <trkpt lat="46.21903" lon="4.64134">
        <ele>524</ele>
        <time>2021-10-14T18:52:24Z</time>
      </trkpt>
      <trkpt lat="46.21849" lon="4.64121">
        <ele>521</ele>
        <time>2021-10-14T18:52:34Z</time>
      </trkpt>
      <trkpt lat="46.21815" lon="4.64082">
        <ele>526</ele>
        <time>2021-10-14T18:52:41Z</time>
      </trkpt>
      <trkpt lat="46.2178" lon="4.63996">
        <ele>535</ele>
        <time>2021-10-14T18:52:54Z</time>
      </trkpt>
      <trkpt lat="46.21771" lon="4.63983">
        <ele>537</ele>
        <time>2021-10-14T18:52:56Z</time>
      </trkpt>
      <trkpt lat="46.21753" lon="4.63965">
        <ele>538</ele>
        <time>2021-10-14T18:53:00Z</time>
      </trkpt>
      <trkpt lat="46.21737" lon="4.63961">
        <ele>539</ele>
        <time>2021-10-14T18:53:03Z</time>
      </trkpt>
      <trkpt lat="46.21686" lon="4.63968">
        <ele>540</ele>
        <time>2021-10-14T18:53:12Z</time>
      </trkpt>
      <trkpt lat="46.21641" lon="4.63988">
        <ele>540</ele>
        <time>2021-10-14T18:53:20Z</time>
      </trkpt>
      <trkpt lat="46.21632" lon="4.63998">
        <ele>540</ele>
        <time>2021-10-14T18:53:22Z</time>
      </trkpt>
      <trkpt lat="46.21624" lon="4.64006">
        <ele>540</ele>
        <time>2021-10-14T18:53:24Z</time>
      </trkpt>
      <trkpt lat="46.21617" lon="4.64023">
        <ele>539</ele>
        <time>2021-10-14T18:53:26Z</time>
      </trkpt>
      <trkpt lat="46.21594" lon="4.64161">
        <ele>535</ele>
        <time>2021-10-14T18:53:44Z</time>
      </trkpt>
      <trkpt lat="46.21566" lon="4.64359">
        <ele>535</ele>
        <time>2021-10-14T18:54:09Z</time>
      </trkpt>
      <trkpt lat="46.21567" lon="4.64425">
        <ele>532</ele>
        <time>2021-10-14T18:54:17Z</time>
      </trkpt>
      <trkpt lat="46.21566" lon="4.64499">
        <ele>528</ele>
        <time>2021-10-14T18:54:26Z</time>
      </trkpt>
      <trkpt lat="46.21564" lon="4.64525">
        <ele>525</ele>
        <time>2021-10-14T18:54:29Z</time>
      </trkpt>
      <trkpt lat="46.21558" lon="4.64549">
        <ele>522</ele>
        <time>2021-10-14T18:54:32Z</time>
      </trkpt>
      <trkpt lat="46.21551" lon="4.64564">
        <ele>521</ele>
        <time>2021-10-14T18:54:35Z</time>
      </trkpt>
      <trkpt lat="46.21535" lon="4.6459">
        <ele>520</ele>
        <time>2021-10-14T18:54:39Z</time>
      </trkpt>
      <trkpt lat="46.21493" lon="4.64637">
        <ele>520</ele>
        <time>2021-10-14T18:54:48Z</time>
      </trkpt>
      <trkpt lat="46.21478" lon="4.64662">
        <ele>520</ele>
        <time>2021-10-14T18:54:52Z</time>
      </trkpt>
      <trkpt lat="46.21468" lon="4.64694">
        <ele>519</ele>
        <time>2021-10-14T18:54:57Z</time>
      </trkpt>
      <trkpt lat="46.21454" lon="4.64746">
        <ele>516</ele>
        <time>2021-10-14T18:55:04Z</time>
      </trkpt>
      <trkpt lat="46.21443" lon="4.64767">
        <ele>516</ele>
        <time>2021-10-14T18:55:07Z</time>
      </trkpt>
      <trkpt lat="46.21428" lon="4.64785">
        <ele>516</ele>
        <time>2021-10-14T18:55:10Z</time>
      </trkpt>
      <trkpt lat="46.2139" lon="4.64819">
        <ele>518</ele>
        <time>2021-10-14T18:55:18Z</time>
      </trkpt>
      <trkpt lat="46.21337" lon="4.64925">
        <ele>510</ele>
        <time>2021-10-14T18:55:34Z</time>
      </trkpt>
      <trkpt lat="46.21327" lon="4.64938">
        <ele>509</ele>
        <time>2021-10-14T18:55:37Z</time>
      </trkpt>
      <trkpt lat="46.21319" lon="4.64943">
        <ele>508</ele>
        <time>2021-10-14T18:55:38Z</time>
      </trkpt>
      <trkpt lat="46.21308" lon="4.64942">
        <ele>507</ele>
        <time>2021-10-14T18:55:40Z</time>
      </trkpt>
      <trkpt lat="46.21293" lon="4.64926">
        <ele>507</ele>
        <time>2021-10-14T18:55:44Z</time>
      </trkpt>
      <trkpt lat="46.2124" lon="4.64859">
        <ele>509</ele>
        <time>2021-10-14T18:55:56Z</time>
      </trkpt>
      <trkpt lat="46.21234" lon="4.64849">
        <ele>509</ele>
        <time>2021-10-14T18:55:58Z</time>
      </trkpt>
      <trkpt lat="46.21222" lon="4.6481">
        <ele>509</ele>
        <time>2021-10-14T18:56:03Z</time>
      </trkpt>
      <trkpt lat="46.21206" lon="4.64707">
        <ele>512</ele>
        <time>2021-10-14T18:56:16Z</time>
      </trkpt>
      <trkpt lat="46.21201" lon="4.64679">
        <ele>512</ele>
        <time>2021-10-14T18:56:20Z</time>
      </trkpt>
      <trkpt lat="46.21194" lon="4.64656">
        <ele>512</ele>
        <time>2021-10-14T18:56:23Z</time>
      </trkpt>
      <trkpt lat="46.21175" lon="4.64626">
        <ele>509</ele>
        <time>2021-10-14T18:56:28Z</time>
      </trkpt>
      <trkpt lat="46.21108" lon="4.64545">
        <ele>507</ele>
        <time>2021-10-14T18:56:43Z</time>
      </trkpt>
      <trkpt lat="46.21091" lon="4.64512">
        <ele>509</ele>
        <time>2021-10-14T18:56:48Z</time>
      </trkpt>
      <trkpt lat="46.21067" lon="4.6445">
        <ele>512</ele>
        <time>2021-10-14T18:56:57Z</time>
      </trkpt>
      <trkpt lat="46.21051" lon="4.64427">
        <ele>513</ele>
        <time>2021-10-14T18:57:01Z</time>
      </trkpt>
      <trkpt lat="46.21031" lon="4.6441">
        <ele>512</ele>
        <time>2021-10-14T18:57:05Z</time>
      </trkpt>
      <trkpt lat="46.20991" lon="4.64392">
        <ele>509</ele>
        <time>2021-10-14T18:57:13Z</time>
      </trkpt>
      <trkpt lat="46.20969" lon="4.64375">
        <ele>508</ele>
        <time>2021-10-14T18:57:17Z</time>
      </trkpt>
      <trkpt lat="46.20944" lon="4.64345">
        <ele>507</ele>
        <time>2021-10-14T18:57:23Z</time>
      </trkpt>
      <trkpt lat="46.20917" lon="4.64331">
        <ele>505</ele>
        <time>2021-10-14T18:57:28Z</time>
      </trkpt>
      <trkpt lat="46.20879" lon="4.64276">
        <ele>506</ele>
        <time>2021-10-14T18:57:38Z</time>
      </trkpt>
      <trkpt lat="46.20867" lon="4.64262">
        <ele>506</ele>
        <time>2021-10-14T18:57:40Z</time>
      </trkpt>
      <trkpt lat="46.20855" lon="4.64254">
        <ele>505</ele>
        <time>2021-10-14T18:57:43Z</time>
      </trkpt>
      <trkpt lat="46.20836" lon="4.64247">
        <ele>504</ele>
        <time>2021-10-14T18:57:46Z</time>
      </trkpt>
      <trkpt lat="46.20826" lon="4.64248">
        <ele>504</ele>
        <time>2021-10-14T18:57:48Z</time>
      </trkpt>
      <trkpt lat="46.20817" lon="4.64251">
        <ele>503</ele>
        <time>2021-10-14T18:57:50Z</time>
      </trkpt>
      <trkpt lat="46.2081" lon="4.64259">
        <ele>503</ele>
        <time>2021-10-14T18:57:51Z</time>
      </trkpt>
      <trkpt lat="46.20767" lon="4.64339">
        <ele>496</ele>
        <time>2021-10-14T18:58:04Z</time>
      </trkpt>
      <trkpt lat="46.20761" lon="4.64362">
        <ele>494</ele>
        <time>2021-10-14T18:58:07Z</time>
      </trkpt>
      <trkpt lat="46.20753" lon="4.64368">
        <ele>494</ele>
        <time>2021-10-14T18:58:08Z</time>
      </trkpt>
      <trkpt lat="46.20744" lon="4.6438">
        <ele>494</ele>
        <time>2021-10-14T18:58:10Z</time>
      </trkpt>
      <trkpt lat="46.20725" lon="4.64417">
        <ele>495</ele>
        <time>2021-10-14T18:58:16Z</time>
      </trkpt>
      <trkpt lat="46.20703" lon="4.64445">
        <ele>496</ele>
        <time>2021-10-14T18:58:21Z</time>
      </trkpt>
      <trkpt lat="46.20658" lon="4.64493">
        <ele>498</ele>
        <time>2021-10-14T18:58:31Z</time>
      </trkpt>
      <trkpt lat="46.20646" lon="4.64502">
        <ele>498</ele>
        <time>2021-10-14T18:58:34Z</time>
      </trkpt>
      <trkpt lat="46.20634" lon="4.64508">
        <ele>499</ele>
        <time>2021-10-14T18:58:36Z</time>
      </trkpt>
      <trkpt lat="46.20613" lon="4.64509">
        <ele>501</ele>
        <time>2021-10-14T18:58:40Z</time>
      </trkpt>
      <trkpt lat="46.20596" lon="4.64508">
        <ele>502</ele>
        <time>2021-10-14T18:58:43Z</time>
      </trkpt>
      <trkpt lat="46.20579" lon="4.64499">
        <ele>505</ele>
        <time>2021-10-14T18:58:46Z</time>
      </trkpt>
      <trkpt lat="46.20527" lon="4.6446">
        <ele>508</ele>
        <time>2021-10-14T18:58:56Z</time>
      </trkpt>
      <trkpt lat="46.20519" lon="4.64448">
        <ele>510</ele>
        <time>2021-10-14T18:58:58Z</time>
      </trkpt>
      <trkpt lat="46.2051" lon="4.6443">
        <ele>513</ele>
        <time>2021-10-14T18:59:01Z</time>
      </trkpt>
      <trkpt lat="46.20498" lon="4.64412">
        <ele>517</ele>
        <time>2021-10-14T18:59:04Z</time>
      </trkpt>
      <trkpt lat="46.20482" lon="4.64399">
        <ele>520</ele>
        <time>2021-10-14T18:59:07Z</time>
      </trkpt>
      <trkpt lat="46.20464" lon="4.64395">
        <ele>520</ele>
        <time>2021-10-14T18:59:11Z</time>
      </trkpt>
      <trkpt lat="46.20442" lon="4.64394">
        <ele>519</ele>
        <time>2021-10-14T18:59:15Z</time>
      </trkpt>
      <trkpt lat="46.20422" lon="4.64391">
        <ele>518</ele>
        <time>2021-10-14T18:59:18Z</time>
      </trkpt>
      <trkpt lat="46.20405" lon="4.6438">
        <ele>521</ele>
        <time>2021-10-14T18:59:22Z</time>
      </trkpt>
      <trkpt lat="46.20388" lon="4.64377">
        <ele>522</ele>
        <time>2021-10-14T18:59:25Z</time>
      </trkpt>
      <trkpt lat="46.20368" lon="4.64381">
        <ele>521</ele>
        <time>2021-10-14T18:59:28Z</time>
      </trkpt>
      <trkpt lat="46.20351" lon="4.64389">
        <ele>519</ele>
        <time>2021-10-14T18:59:31Z</time>
      </trkpt>
      <trkpt lat="46.20334" lon="4.64392">
        <ele>519</ele>
        <time>2021-10-14T18:59:34Z</time>
      </trkpt>
      <trkpt lat="46.20313" lon="4.64395">
        <ele>518</ele>
        <time>2021-10-14T18:59:38Z</time>
      </trkpt>
      <trkpt lat="46.20285" lon="4.64393">
        <ele>517</ele>
        <time>2021-10-14T18:59:43Z</time>
      </trkpt>
      <trkpt lat="46.20262" lon="4.64376">
        <ele>520</ele>
        <time>2021-10-14T18:59:48Z</time>
      </trkpt>
      <trkpt lat="46.20235" lon="4.64345">
        <ele>523</ele>
        <time>2021-10-14T18:59:54Z</time>
      </trkpt>
      <trkpt lat="46.20191" lon="4.64279">
        <ele>525</ele>
        <time>2021-10-14T19:00:05Z</time>
      </trkpt>
      <trkpt lat="46.20169" lon="4.64204">
        <ele>530</ele>
        <time>2021-10-14T19:00:15Z</time>
      </trkpt>
      <trkpt lat="46.20157" lon="4.64193">
        <ele>533</ele>
        <time>2021-10-14T19:00:18Z</time>
      </trkpt>
      <trkpt lat="46.2015" lon="4.64189">
        <ele>535</ele>
        <time>2021-10-14T19:00:19Z</time>
      </trkpt>
      <trkpt lat="46.20137" lon="4.64192">
        <ele>537</ele>
        <time>2021-10-14T19:00:21Z</time>
      </trkpt>
      <trkpt lat="46.20129" lon="4.64208">
        <ele>537</ele>
        <time>2021-10-14T19:00:24Z</time>
      </trkpt>
      <trkpt lat="46.20109" lon="4.64297">
        <ele>533</ele>
        <time>2021-10-14T19:00:35Z</time>
      </trkpt>
      <trkpt lat="46.20093" lon="4.64333">
        <ele>533</ele>
        <time>2021-10-14T19:00:41Z</time>
      </trkpt>
      <trkpt lat="46.20077" lon="4.64364">
        <ele>531</ele>
        <time>2021-10-14T19:00:45Z</time>
      </trkpt>
      <trkpt lat="46.20048" lon="4.6441">
        <ele>528</ele>
        <time>2021-10-14T19:00:53Z</time>
      </trkpt>
      <trkpt lat="46.20014" lon="4.6445">
        <ele>529</ele>
        <time>2021-10-14T19:01:01Z</time>
      </trkpt>
      <trkpt lat="46.2" lon="4.64461">
        <ele>531</ele>
        <time>2021-10-14T19:01:04Z</time>
      </trkpt>
      <trkpt lat="46.19981" lon="4.64465">
        <ele>529</ele>
        <time>2021-10-14T19:01:07Z</time>
      </trkpt>
      <trkpt lat="46.19962" lon="4.64453">
        <ele>528</ele>
        <time>2021-10-14T19:01:11Z</time>
      </trkpt>
      <trkpt lat="46.19942" lon="4.64431">
        <ele>528</ele>
        <time>2021-10-14T19:01:15Z</time>
      </trkpt>
      <trkpt lat="46.1992" lon="4.64419">
        <ele>527</ele>
        <time>2021-10-14T19:01:19Z</time>
      </trkpt>
      <trkpt lat="46.1984" lon="4.64395">
        <ele>523</ele>
        <time>2021-10-14T19:01:34Z</time>
      </trkpt>
      <trkpt lat="46.19824" lon="4.64385">
        <ele>522</ele>
        <time>2021-10-14T19:01:37Z</time>
      </trkpt>
      <trkpt lat="46.19815" lon="4.64373">
        <ele>522</ele>
        <time>2021-10-14T19:01:39Z</time>
      </trkpt>
      <trkpt lat="46.19803" lon="4.6434">
        <ele>523</ele>
        <time>2021-10-14T19:01:44Z</time>
      </trkpt>
      <trkpt lat="46.19777" lon="4.64221">
        <ele>522</ele>
        <time>2021-10-14T19:01:59Z</time>
      </trkpt>
      <trkpt lat="46.19748" lon="4.64127">
        <ele>520</ele>
        <time>2021-10-14T19:02:12Z</time>
      </trkpt>
      <trkpt lat="46.19736" lon="4.64109">
        <ele>520</ele>
        <time>2021-10-14T19:02:15Z</time>
      </trkpt>
      <trkpt lat="46.19726" lon="4.64101">
        <ele>520</ele>
        <time>2021-10-14T19:02:17Z</time>
      </trkpt>
      <trkpt lat="46.19719" lon="4.641">
        <ele>521</ele>
        <time>2021-10-14T19:02:18Z</time>
      </trkpt>
      <trkpt lat="46.19711" lon="4.64101">
        <ele>521</ele>
        <time>2021-10-14T19:02:20Z</time>
      </trkpt>
      <trkpt lat="46.19699" lon="4.64112">
        <ele>521</ele>
        <time>2021-10-14T19:02:22Z</time>
      </trkpt>
      <trkpt lat="46.19632" lon="4.6422">
        <ele>523</ele>
        <time>2021-10-14T19:02:40Z</time>
      </trkpt>
      <trkpt lat="46.19563" lon="4.64327">
        <ele>525</ele>
        <time>2021-10-14T19:02:58Z</time>
      </trkpt>
      <trkpt lat="46.19543" lon="4.6435">
        <ele>530</ele>
        <time>2021-10-14T19:03:03Z</time>
      </trkpt>
      <trkpt lat="46.1954" lon="4.64367">
        <ele>529</ele>
        <time>2021-10-14T19:03:05Z</time>
      </trkpt>
      <trkpt lat="46.19548" lon="4.64431">
        <ele>523</ele>
        <time>2021-10-14T19:03:13Z</time>
      </trkpt>
      <trkpt lat="46.19551" lon="4.64491">
        <ele>525</ele>
        <time>2021-10-14T19:03:20Z</time>
      </trkpt>
      <trkpt lat="46.19559" lon="4.64543">
        <ele>524</ele>
        <time>2021-10-14T19:03:27Z</time>
      </trkpt>
      <trkpt lat="46.19559" lon="4.64578">
        <ele>525</ele>
        <time>2021-10-14T19:03:31Z</time>
      </trkpt>
      <trkpt lat="46.19551" lon="4.64651">
        <ele>524</ele>
        <time>2021-10-14T19:03:40Z</time>
      </trkpt>
      <trkpt lat="46.19545" lon="4.64675">
        <ele>523</ele>
        <time>2021-10-14T19:03:43Z</time>
      </trkpt>
      <trkpt lat="46.19539" lon="4.64691">
        <ele>522</ele>
        <time>2021-10-14T19:03:46Z</time>
      </trkpt>
      <trkpt lat="46.19533" lon="4.64697">
        <ele>522</ele>
        <time>2021-10-14T19:03:47Z</time>
      </trkpt>
      <trkpt lat="46.19512" lon="4.64708">
        <ele>522</ele>
        <time>2021-10-14T19:03:51Z</time>
      </trkpt>
      <trkpt lat="46.19451" lon="4.64717">
        <ele>528</ele>
        <time>2021-10-14T19:04:02Z</time>
      </trkpt>
      <trkpt lat="46.19419" lon="4.64704">
        <ele>535</ele>
        <time>2021-10-14T19:04:08Z</time>
      </trkpt>
      <trkpt lat="46.19402" lon="4.64702">
        <ele>538</ele>
        <time>2021-10-14T19:04:11Z</time>
      </trkpt>
      <trkpt lat="46.19379" lon="4.64711">
        <ele>540</ele>
        <time>2021-10-14T19:04:15Z</time>
      </trkpt>
      <trkpt lat="46.19362" lon="4.64719">
        <ele>542</ele>
        <time>2021-10-14T19:04:18Z</time>
      </trkpt>
      <trkpt lat="46.19338" lon="4.64741">
        <ele>541</ele>
        <time>2021-10-14T19:04:23Z</time>
      </trkpt>
      <trkpt lat="46.19313" lon="4.6477">
        <ele>539</ele>
        <time>2021-10-14T19:04:29Z</time>
      </trkpt>
      <trkpt lat="46.19291" lon="4.64791">
        <ele>538</ele>
        <time>2021-10-14T19:04:34Z</time>
      </trkpt>
      <trkpt lat="46.19272" lon="4.64815">
        <ele>537</ele>
        <time>2021-10-14T19:04:38Z</time>
      </trkpt>
      <trkpt lat="46.19253" lon="4.64836">
        <ele>537</ele>
        <time>2021-10-14T19:04:42Z</time>
      </trkpt>
      <trkpt lat="46.19241" lon="4.64844">
        <ele>536</ele>
        <time>2021-10-14T19:04:45Z</time>
      </trkpt>
      <trkpt lat="46.19227" lon="4.64835">
        <ele>533</ele>
        <time>2021-10-14T19:04:47Z</time>
      </trkpt>
      <trkpt lat="46.19217" lon="4.64819">
        <ele>531</ele>
        <time>2021-10-14T19:04:50Z</time>
      </trkpt>
      <trkpt lat="46.19207" lon="4.64788">
        <ele>531</ele>
        <time>2021-10-14T19:04:54Z</time>
      </trkpt>
      <trkpt lat="46.1919" lon="4.64754">
        <ele>528</ele>
        <time>2021-10-14T19:04:59Z</time>
      </trkpt>
      <trkpt lat="46.19152" lon="4.647">
        <ele>523</ele>
        <time>2021-10-14T19:05:09Z</time>
      </trkpt>
      <trkpt lat="46.19143" lon="4.64676">
        <ele>523</ele>
        <time>2021-10-14T19:05:12Z</time>
      </trkpt>
      <trkpt lat="46.19137" lon="4.6463">
        <ele>529</ele>
        <time>2021-10-14T19:05:18Z</time>
      </trkpt>
      <trkpt lat="46.19133" lon="4.64606">
        <ele>533</ele>
        <time>2021-10-14T19:05:21Z</time>
      </trkpt>
      <trkpt lat="46.19124" lon="4.6458">
        <ele>536</ele>
        <time>2021-10-14T19:05:25Z</time>
      </trkpt>
      <trkpt lat="46.19107" lon="4.6457">
        <ele>534</ele>
        <time>2021-10-14T19:05:28Z</time>
      </trkpt>
      <trkpt lat="46.19084" lon="4.64563">
        <ele>530</ele>
        <time>2021-10-14T19:05:32Z</time>
      </trkpt>
      <trkpt lat="46.1906" lon="4.64574">
        <ele>525</ele>
        <time>2021-10-14T19:05:37Z</time>
      </trkpt>
      <trkpt lat="46.19084" lon="4.64563">
        <ele>530</ele>
        <time>2021-10-14T19:05:41Z</time>
      </trkpt>
      <trkpt lat="46.19107" lon="4.6457">
        <ele>534</ele>
        <time>2021-10-14T19:05:45Z</time>
      </trkpt>
      <trkpt lat="46.19124" lon="4.6458">
        <ele>536</ele>
        <time>2021-10-14T19:05:49Z</time>
      </trkpt>
      <trkpt lat="46.19133" lon="4.64606">
        <ele>533</ele>
        <time>2021-10-14T19:05:52Z</time>
      </trkpt>
      <trkpt lat="46.19137" lon="4.6463">
        <ele>529</ele>
        <time>2021-10-14T19:05:55Z</time>
      </trkpt>
      <trkpt lat="46.19143" lon="4.64676">
        <ele>523</ele>
        <time>2021-10-14T19:06:01Z</time>
      </trkpt>
      <trkpt lat="46.19152" lon="4.647">
        <ele>523</ele>
        <time>2021-10-14T19:06:04Z</time>
      </trkpt>
      <trkpt lat="46.1919" lon="4.64754">
        <ele>528</ele>
        <time>2021-10-14T19:06:14Z</time>
      </trkpt>
      <trkpt lat="46.19207" lon="4.64788">
        <ele>531</ele>
        <time>2021-10-14T19:06:19Z</time>
      </trkpt>
      <trkpt lat="46.19217" lon="4.64819">
        <ele>531</ele>
        <time>2021-10-14T19:06:23Z</time>
      </trkpt>
      <trkpt lat="46.19227" lon="4.64835">
        <ele>533</ele>
        <time>2021-10-14T19:06:26Z</time>
      </trkpt>
      <trkpt lat="46.19241" lon="4.64844">
        <ele>536</ele>
        <time>2021-10-14T19:06:29Z</time>
      </trkpt>
      <trkpt lat="46.19253" lon="4.64836">
        <ele>537</ele>
        <time>2021-10-14T19:06:31Z</time>
      </trkpt>
      <trkpt lat="46.19225" lon="4.64763">
        <ele>537</ele>
        <time>2021-10-14T19:06:41Z</time>
      </trkpt>
      <trkpt lat="46.19176" lon="4.6468">
        <ele>534</ele>
        <time>2021-10-14T19:06:55Z</time>
      </trkpt>
      <trkpt lat="46.19172" lon="4.64648">
        <ele>537</ele>
        <time>2021-10-14T19:06:59Z</time>
      </trkpt>
      <trkpt lat="46.19169" lon="4.64594">
        <ele>544</ele>
        <time>2021-10-14T19:07:05Z</time>
      </trkpt>
      <trkpt lat="46.19162" lon="4.64576">
        <ele>545</ele>
        <time>2021-10-14T19:07:08Z</time>
      </trkpt>
      <trkpt lat="46.19132" lon="4.64543">
        <ele>546</ele>
        <time>2021-10-14T19:07:15Z</time>
      </trkpt>
      <trkpt lat="46.19116" lon="4.64535">
        <ele>544</ele>
        <time>2021-10-14T19:07:18Z</time>
      </trkpt>
      <trkpt lat="46.191" lon="4.64534">
        <ele>541</ele>
        <time>2021-10-14T19:07:20Z</time>
      </trkpt>
      <trkpt lat="46.19044" lon="4.64553">
        <ele>529</ele>
        <time>2021-10-14T19:07:31Z</time>
      </trkpt>
      <trkpt lat="46.19025" lon="4.64554">
        <ele>527</ele>
        <time>2021-10-14T19:07:34Z</time>
      </trkpt>
      <trkpt lat="46.19004" lon="4.64547">
        <ele>526</ele>
        <time>2021-10-14T19:07:38Z</time>
      </trkpt>
      <trkpt lat="46.18983" lon="4.64533">
        <ele>524</ele>
        <time>2021-10-14T19:07:42Z</time>
      </trkpt>
      <trkpt lat="46.18964" lon="4.64508">
        <ele>523</ele>
        <time>2021-10-14T19:07:47Z</time>
      </trkpt>
      <trkpt lat="46.18952" lon="4.6448">
        <ele>522</ele>
        <time>2021-10-14T19:07:51Z</time>
      </trkpt>
      <trkpt lat="46.18944" lon="4.64451">
        <ele>522</ele>
        <time>2021-10-14T19:07:54Z</time>
      </trkpt>
      <trkpt lat="46.18942" lon="4.644">
        <ele>524</ele>
        <time>2021-10-14T19:08:01Z</time>
      </trkpt>
      <trkpt lat="46.18954" lon="4.64332">
        <ele>528</ele>
        <time>2021-10-14T19:08:09Z</time>
      </trkpt>
      <trkpt lat="46.18957" lon="4.64301">
        <ele>531</ele>
        <time>2021-10-14T19:08:13Z</time>
      </trkpt>
      <trkpt lat="46.18954" lon="4.64287">
        <ele>531</ele>
        <time>2021-10-14T19:08:15Z</time>
      </trkpt>
      <trkpt lat="46.18943" lon="4.64272">
        <ele>529</ele>
        <time>2021-10-14T19:08:18Z</time>
      </trkpt>
      <trkpt lat="46.18929" lon="4.64263">
        <ele>527</ele>
        <time>2021-10-14T19:08:20Z</time>
      </trkpt>
      <trkpt lat="46.18916" lon="4.64259">
        <ele>525</ele>
        <time>2021-10-14T19:08:23Z</time>
      </trkpt>
      <trkpt lat="46.189" lon="4.64263">
        <ele>524</ele>
        <time>2021-10-14T19:08:26Z</time>
      </trkpt>
      <trkpt lat="46.18843" lon="4.64295">
        <ele>515</ele>
        <time>2021-10-14T19:08:37Z</time>
      </trkpt>
      <trkpt lat="46.18819" lon="4.64305">
        <ele>512</ele>
        <time>2021-10-14T19:08:41Z</time>
      </trkpt>
      <trkpt lat="46.18801" lon="4.64309">
        <ele>511</ele>
        <time>2021-10-14T19:08:44Z</time>
      </trkpt>
      <trkpt lat="46.18782" lon="4.64301">
        <ele>511</ele>
        <time>2021-10-14T19:08:48Z</time>
      </trkpt>
      <trkpt lat="46.18756" lon="4.64279">
        <ele>511</ele>
        <time>2021-10-14T19:08:53Z</time>
      </trkpt>
      <trkpt lat="46.18747" lon="4.64267">
        <ele>511</ele>
        <time>2021-10-14T19:08:55Z</time>
      </trkpt>
      <trkpt lat="46.18743" lon="4.64245">
        <ele>511</ele>
        <time>2021-10-14T19:08:58Z</time>
      </trkpt>
      <trkpt lat="46.18756" lon="4.64164">
        <ele>513</ele>
        <time>2021-10-14T19:09:08Z</time>
      </trkpt>
      <trkpt lat="46.18756" lon="4.64142">
        <ele>515</ele>
        <time>2021-10-14T19:09:11Z</time>
      </trkpt>
      <trkpt lat="46.18752" lon="4.64128">
        <ele>515</ele>
        <time>2021-10-14T19:09:13Z</time>
      </trkpt>
      <trkpt lat="46.18745" lon="4.64122">
        <ele>514</ele>
        <time>2021-10-14T19:09:14Z</time>
      </trkpt>
      <trkpt lat="46.1872" lon="4.64111">
        <ele>509</ele>
        <time>2021-10-14T19:09:19Z</time>
      </trkpt>
      <trkpt lat="46.1871" lon="4.64103">
        <ele>507</ele>
        <time>2021-10-14T19:09:21Z</time>
      </trkpt>
      <trkpt lat="46.18703" lon="4.6409">
        <ele>506</ele>
        <time>2021-10-14T19:09:23Z</time>
      </trkpt>
      <trkpt lat="46.18699" lon="4.64066">
        <ele>506</ele>
        <time>2021-10-14T19:09:26Z</time>
      </trkpt>
      <trkpt lat="46.18697" lon="4.64">
        <ele>508</ele>
        <time>2021-10-14T19:09:34Z</time>
      </trkpt>
      <trkpt lat="46.18695" lon="4.63965">
        <ele>511</ele>
        <time>2021-10-14T19:09:39Z</time>
      </trkpt>
      <trkpt lat="46.18689" lon="4.63945">
        <ele>512</ele>
        <time>2021-10-14T19:09:41Z</time>
      </trkpt>
      <trkpt lat="46.18658" lon="4.63855">
        <ele>519</ele>
        <time>2021-10-14T19:09:54Z</time>
      </trkpt>
      <trkpt lat="46.1865" lon="4.63844">
        <ele>520</ele>
        <time>2021-10-14T19:09:56Z</time>
      </trkpt>
      <trkpt lat="46.18641" lon="4.63841">
        <ele>520</ele>
        <time>2021-10-14T19:09:57Z</time>
      </trkpt>
      <trkpt lat="46.18612" lon="4.63858">
        <ele>512</ele>
        <time>2021-10-14T19:10:03Z</time>
      </trkpt>
      <trkpt lat="46.18598" lon="4.63856">
        <ele>511</ele>
        <time>2021-10-14T19:10:05Z</time>
      </trkpt>
      <trkpt lat="46.1858" lon="4.6384">
        <ele>514</ele>
        <time>2021-10-14T19:10:09Z</time>
      </trkpt>
      <trkpt lat="46.18567" lon="4.63824">
        <ele>520</ele>
        <time>2021-10-14T19:10:12Z</time>
      </trkpt>
      <trkpt lat="46.18548" lon="4.63818">
        <ele>524</ele>
        <time>2021-10-14T19:10:16Z</time>
      </trkpt>
      <trkpt lat="46.18538" lon="4.63821">
        <ele>525</ele>
        <time>2021-10-14T19:10:17Z</time>
      </trkpt>
      <trkpt lat="46.18529" lon="4.63833">
        <ele>524</ele>
        <time>2021-10-14T19:10:20Z</time>
      </trkpt>
      <trkpt lat="46.18523" lon="4.63854">
        <ele>519</ele>
        <time>2021-10-14T19:10:22Z</time>
      </trkpt>
      <trkpt lat="46.18521" lon="4.63891">
        <ele>511</ele>
        <time>2021-10-14T19:10:27Z</time>
      </trkpt>
      <trkpt lat="46.18517" lon="4.63905">
        <ele>508</ele>
        <time>2021-10-14T19:10:29Z</time>
      </trkpt>
      <trkpt lat="46.1851" lon="4.63922">
        <ele>506</ele>
        <time>2021-10-14T19:10:31Z</time>
      </trkpt>
      <trkpt lat="46.18453" lon="4.63992">
        <ele>499</ele>
        <time>2021-10-14T19:10:45Z</time>
      </trkpt>
      <trkpt lat="46.1844" lon="4.64005">
        <ele>499</ele>
        <time>2021-10-14T19:10:47Z</time>
      </trkpt>
      <trkpt lat="46.18423" lon="4.64012">
        <ele>500</ele>
        <time>2021-10-14T19:10:51Z</time>
      </trkpt>
      <trkpt lat="46.18343" lon="4.64019">
        <ele>505</ele>
        <time>2021-10-14T19:11:05Z</time>
      </trkpt>
      <trkpt lat="46.1833" lon="4.64026">
        <ele>504</ele>
        <time>2021-10-14T19:11:07Z</time>
      </trkpt>
      <trkpt lat="46.18318" lon="4.6404">
        <ele>502</ele>
        <time>2021-10-14T19:11:10Z</time>
      </trkpt>
      <trkpt lat="46.1827" lon="4.64145">
        <ele>489</ele>
        <time>2021-10-14T19:11:26Z</time>
      </trkpt>
      <trkpt lat="46.1826" lon="4.6416">
        <ele>489</ele>
        <time>2021-10-14T19:11:28Z</time>
      </trkpt>
      <trkpt lat="46.18251" lon="4.64171">
        <ele>489</ele>
        <time>2021-10-14T19:11:30Z</time>
      </trkpt>
      <trkpt lat="46.18237" lon="4.64179">
        <ele>487</ele>
        <time>2021-10-14T19:11:33Z</time>
      </trkpt>
      <trkpt lat="46.18219" lon="4.64179">
        <ele>486</ele>
        <time>2021-10-14T19:11:36Z</time>
      </trkpt>
      <trkpt lat="46.18146" lon="4.64156">
        <ele>488</ele>
        <time>2021-10-14T19:11:49Z</time>
      </trkpt>
      <trkpt lat="46.18128" lon="4.64155">
        <ele>487</ele>
        <time>2021-10-14T19:11:53Z</time>
      </trkpt>
      <trkpt lat="46.18089" lon="4.6416">
        <ele>484</ele>
        <time>2021-10-14T19:12:00Z</time>
      </trkpt>
      <trkpt lat="46.18047" lon="4.64171">
        <ele>482</ele>
        <time>2021-10-14T19:12:07Z</time>
      </trkpt>
      <trkpt lat="46.18009" lon="4.64177">
        <ele>480</ele>
        <time>2021-10-14T19:12:14Z</time>
      </trkpt>
      <trkpt lat="46.17957" lon="4.64178">
        <ele>478</ele>
        <time>2021-10-14T19:12:23Z</time>
      </trkpt>
      <trkpt lat="46.17951" lon="4.64162">
        <ele>479</ele>
        <time>2021-10-14T19:12:25Z</time>
      </trkpt>
      <trkpt lat="46.17933" lon="4.64022">
        <ele>476</ele>
        <time>2021-10-14T19:12:43Z</time>
      </trkpt>
      <trkpt lat="46.17933" lon="4.63966">
        <ele>477</ele>
        <time>2021-10-14T19:12:50Z</time>
      </trkpt>
      <trkpt lat="46.17929" lon="4.63944">
        <ele>478</ele>
        <time>2021-10-14T19:12:53Z</time>
      </trkpt>
      <trkpt lat="46.1792" lon="4.63927">
        <ele>478</ele>
        <time>2021-10-14T19:12:55Z</time>
      </trkpt>
      <trkpt lat="46.17909" lon="4.63917">
        <ele>477</ele>
        <time>2021-10-14T19:12:58Z</time>
      </trkpt>
      <trkpt lat="46.17879" lon="4.63907">
        <ele>476</ele>
        <time>2021-10-14T19:13:03Z</time>
      </trkpt>
      <trkpt lat="46.17857" lon="4.63903">
        <ele>475</ele>
        <time>2021-10-14T19:13:07Z</time>
      </trkpt>
      <trkpt lat="46.17818" lon="4.63904">
        <ele>471</ele>
        <time>2021-10-14T19:13:14Z</time>
      </trkpt>
      <trkpt lat="46.17779" lon="4.63889">
        <ele>470</ele>
        <time>2021-10-14T19:13:21Z</time>
      </trkpt>
      <trkpt lat="46.1777" lon="4.63876">
        <ele>470</ele>
        <time>2021-10-14T19:13:23Z</time>
      </trkpt>
      <trkpt lat="46.17761" lon="4.63857">
        <ele>470</ele>
        <time>2021-10-14T19:13:26Z</time>
      </trkpt>
      <trkpt lat="46.17752" lon="4.63828">
        <ele>469</ele>
        <time>2021-10-14T19:13:30Z</time>
      </trkpt>
      <trkpt lat="46.17748" lon="4.63788">
        <ele>469</ele>
        <time>2021-10-14T19:13:35Z</time>
      </trkpt>
      <trkpt lat="46.1775" lon="4.63732">
        <ele>469</ele>
        <time>2021-10-14T19:13:42Z</time>
      </trkpt>
      <trkpt lat="46.17762" lon="4.63645">
        <ele>472</ele>
        <time>2021-10-14T19:13:53Z</time>
      </trkpt>
      <trkpt lat="46.17762" lon="4.63628">
        <ele>472</ele>
        <time>2021-10-14T19:13:55Z</time>
      </trkpt>
      <trkpt lat="46.17758" lon="4.63617">
        <ele>471</ele>
        <time>2021-10-14T19:13:57Z</time>
      </trkpt>
      <trkpt lat="46.17752" lon="4.63611">
        <ele>471</ele>
        <time>2021-10-14T19:13:58Z</time>
      </trkpt>
      <trkpt lat="46.17745" lon="4.63609">
        <ele>471</ele>
        <time>2021-10-14T19:13:59Z</time>
      </trkpt>
      <trkpt lat="46.17736" lon="4.63613">
        <ele>471</ele>
        <time>2021-10-14T19:14:01Z</time>
      </trkpt>
      <trkpt lat="46.17708" lon="4.63654">
        <ele>469</ele>
        <time>2021-10-14T19:14:08Z</time>
      </trkpt>
      <trkpt lat="46.17701" lon="4.63661">
        <ele>469</ele>
        <time>2021-10-14T19:14:09Z</time>
      </trkpt>
      <trkpt lat="46.17683" lon="4.63671">
        <ele>468</ele>
        <time>2021-10-14T19:14:13Z</time>
      </trkpt>
      <trkpt lat="46.17666" lon="4.63671">
        <ele>467</ele>
        <time>2021-10-14T19:14:16Z</time>
      </trkpt>
      <trkpt lat="46.17553" lon="4.63663">
        <ele>473</ele>
        <time>2021-10-14T19:14:36Z</time>
      </trkpt>
      <trkpt lat="46.17538" lon="4.63657">
        <ele>474</ele>
        <time>2021-10-14T19:14:39Z</time>
      </trkpt>
      <trkpt lat="46.17464" lon="4.63614">
        <ele>476</ele>
        <time>2021-10-14T19:14:53Z</time>
      </trkpt>
      <trkpt lat="46.17452" lon="4.63604">
        <ele>475</ele>
        <time>2021-10-14T19:14:55Z</time>
      </trkpt>
      <trkpt lat="46.17442" lon="4.6359">
        <ele>475</ele>
        <time>2021-10-14T19:14:58Z</time>
      </trkpt>
      <trkpt lat="46.17438" lon="4.63561">
        <ele>474</ele>
        <time>2021-10-14T19:15:02Z</time>
      </trkpt>
      <trkpt lat="46.17441" lon="4.63545">
        <ele>474</ele>
        <time>2021-10-14T19:15:04Z</time>
      </trkpt>
      <trkpt lat="46.17482" lon="4.6343">
        <ele>475</ele>
        <time>2021-10-14T19:15:20Z</time>
      </trkpt>
      <trkpt lat="46.17484" lon="4.63417">
        <ele>475</ele>
        <time>2021-10-14T19:15:21Z</time>
      </trkpt>
      <trkpt lat="46.1748" lon="4.63397">
        <ele>475</ele>
        <time>2021-10-14T19:15:24Z</time>
      </trkpt>
      <trkpt lat="46.17473" lon="4.63389">
        <ele>474</ele>
        <time>2021-10-14T19:15:25Z</time>
      </trkpt>
      <trkpt lat="46.17463" lon="4.63386">
        <ele>474</ele>
        <time>2021-10-14T19:15:27Z</time>
      </trkpt>
      <trkpt lat="46.17451" lon="4.63391">
        <ele>474</ele>
        <time>2021-10-14T19:15:29Z</time>
      </trkpt>
      <trkpt lat="46.17372" lon="4.63471">
        <ele>468</ele>
        <time>2021-10-14T19:15:47Z</time>
      </trkpt>
      <trkpt lat="46.17354" lon="4.63478">
        <ele>466</ele>
        <time>2021-10-14T19:15:50Z</time>
      </trkpt>
      <trkpt lat="46.17334" lon="4.63479">
        <ele>465</ele>
        <time>2021-10-14T19:15:53Z</time>
      </trkpt>
      <trkpt lat="46.17283" lon="4.63439">
        <ele>468</ele>
        <time>2021-10-14T19:16:04Z</time>
      </trkpt>
      <trkpt lat="46.17241" lon="4.63413">
        <ele>469</ele>
        <time>2021-10-14T19:16:12Z</time>
      </trkpt>
      <trkpt lat="46.17189" lon="4.63388">
        <ele>468</ele>
        <time>2021-10-14T19:16:22Z</time>
      </trkpt>
      <trkpt lat="46.17158" lon="4.63368">
        <ele>467</ele>
        <time>2021-10-14T19:16:28Z</time>
      </trkpt>
      <trkpt lat="46.17144" lon="4.63356">
        <ele>466</ele>
        <time>2021-10-14T19:16:31Z</time>
      </trkpt>
      <trkpt lat="46.17133" lon="4.63339">
        <ele>466</ele>
        <time>2021-10-14T19:16:33Z</time>
      </trkpt>
      <trkpt lat="46.17101" lon="4.63265">
        <ele>464</ele>
        <time>2021-10-14T19:16:44Z</time>
      </trkpt>
      <trkpt lat="46.17093" lon="4.63224">
        <ele>464</ele>
        <time>2021-10-14T19:16:49Z</time>
      </trkpt>
      <trkpt lat="46.17079" lon="4.63197">
        <ele>462</ele>
        <time>2021-10-14T19:16:54Z</time>
      </trkpt>
      <trkpt lat="46.17045" lon="4.63153">
        <ele>463</ele>
        <time>2021-10-14T19:17:02Z</time>
      </trkpt>
      <trkpt lat="46.17035" lon="4.63145">
        <ele>463</ele>
        <time>2021-10-14T19:17:04Z</time>
      </trkpt>
      <trkpt lat="46.17028" lon="4.63144">
        <ele>463</ele>
        <time>2021-10-14T19:17:05Z</time>
      </trkpt>
      <trkpt lat="46.17019" lon="4.6315">
        <ele>462</ele>
        <time>2021-10-14T19:17:07Z</time>
      </trkpt>
      <trkpt lat="46.16981" lon="4.63186">
        <ele>461</ele>
        <time>2021-10-14T19:17:15Z</time>
      </trkpt>
      <trkpt lat="46.16943" lon="4.6323">
        <ele>461</ele>
        <time>2021-10-14T19:17:24Z</time>
      </trkpt>
      <trkpt lat="46.16925" lon="4.6327">
        <ele>458</ele>
        <time>2021-10-14T19:17:29Z</time>
      </trkpt>
      <trkpt lat="46.16913" lon="4.63286">
        <ele>457</ele>
        <time>2021-10-14T19:17:32Z</time>
      </trkpt>
      <trkpt lat="46.16862" lon="4.63332">
        <ele>460</ele>
        <time>2021-10-14T19:17:43Z</time>
      </trkpt>
      <trkpt lat="46.16847" lon="4.63358">
        <ele>460</ele>
        <time>2021-10-14T19:17:47Z</time>
      </trkpt>
      <trkpt lat="46.16834" lon="4.6339">
        <ele>460</ele>
        <time>2021-10-14T19:17:52Z</time>
      </trkpt>
      <trkpt lat="46.16826" lon="4.63404">
        <ele>460</ele>
        <time>2021-10-14T19:17:54Z</time>
      </trkpt>
      <trkpt lat="46.16758" lon="4.63495">
        <ele>464</ele>
        <time>2021-10-14T19:18:11Z</time>
      </trkpt>
      <trkpt lat="46.16744" lon="4.63499">
        <ele>464</ele>
        <time>2021-10-14T19:18:13Z</time>
      </trkpt>
      <trkpt lat="46.16733" lon="4.63499">
        <ele>462</ele>
        <time>2021-10-14T19:18:15Z</time>
      </trkpt>
      <trkpt lat="46.16726" lon="4.63493">
        <ele>462</ele>
        <time>2021-10-14T19:18:16Z</time>
      </trkpt>
      <trkpt lat="46.1669" lon="4.63439">
        <ele>461</ele>
        <time>2021-10-14T19:18:26Z</time>
      </trkpt>
      <trkpt lat="46.16675" lon="4.63424">
        <ele>461</ele>
        <time>2021-10-14T19:18:29Z</time>
      </trkpt>
      <trkpt lat="46.16641" lon="4.63401">
        <ele>459</ele>
        <time>2021-10-14T19:18:36Z</time>
      </trkpt>
      <trkpt lat="46.16624" lon="4.63381">
        <ele>459</ele>
        <time>2021-10-14T19:18:40Z</time>
      </trkpt>
      <trkpt lat="46.16613" lon="4.63366">
        <ele>458</ele>
        <time>2021-10-14T19:18:42Z</time>
      </trkpt>
      <trkpt lat="46.16593" lon="4.63326">
        <ele>457</ele>
        <time>2021-10-14T19:18:48Z</time>
      </trkpt>
      <trkpt lat="46.16587" lon="4.63296">
        <ele>455</ele>
        <time>2021-10-14T19:18:52Z</time>
      </trkpt>
      <trkpt lat="46.16586" lon="4.63283">
        <ele>455</ele>
        <time>2021-10-14T19:18:54Z</time>
      </trkpt>
      <trkpt lat="46.16592" lon="4.63232">
        <ele>458</ele>
        <time>2021-10-14T19:19:00Z</time>
      </trkpt>
      <trkpt lat="46.16591" lon="4.63212">
        <ele>460</ele>
        <time>2021-10-14T19:19:03Z</time>
      </trkpt>
      <trkpt lat="46.16588" lon="4.63194">
        <ele>461</ele>
        <time>2021-10-14T19:19:05Z</time>
      </trkpt>
      <trkpt lat="46.16558" lon="4.63151">
        <ele>458</ele>
        <time>2021-10-14T19:19:12Z</time>
      </trkpt>
      <trkpt lat="46.16527" lon="4.63121">
        <ele>456</ele>
        <time>2021-10-14T19:19:19Z</time>
      </trkpt>
      <trkpt lat="46.16498" lon="4.63076">
        <ele>457</ele>
        <time>2021-10-14T19:19:27Z</time>
      </trkpt>
      <trkpt lat="46.16444" lon="4.63025">
        <ele>453</ele>
        <time>2021-10-14T19:19:38Z</time>
      </trkpt>
      <trkpt lat="46.16332" lon="4.62854">
        <ele>446</ele>
        <time>2021-10-14T19:20:07Z</time>
      </trkpt>
      <trkpt lat="46.16312" lon="4.6282">
        <ele>445</ele>
        <time>2021-10-14T19:20:13Z</time>
      </trkpt>
      <trkpt lat="46.16197" lon="4.62706">
        <ele>436</ele>
        <time>2021-10-14T19:20:37Z</time>
      </trkpt>
      <trkpt lat="46.16158" lon="4.6267">
        <ele>434</ele>
        <time>2021-10-14T19:20:46Z</time>
      </trkpt>
      <trkpt lat="46.16133" lon="4.62659">
        <ele>434</ele>
        <time>2021-10-14T19:20:50Z</time>
      </trkpt>
      <trkpt lat="46.16002" lon="4.62614">
        <ele>431</ele>
        <time>2021-10-14T19:21:14Z</time>
      </trkpt>
      <trkpt lat="46.15981" lon="4.62595">
        <ele>430</ele>
        <time>2021-10-14T19:21:19Z</time>
      </trkpt>
      <trkpt lat="46.15965" lon="4.62568">
        <ele>429</ele>
        <time>2021-10-14T19:21:23Z</time>
      </trkpt>
      <trkpt lat="46.15951" lon="4.62484">
        <ele>428</ele>
        <time>2021-10-14T19:21:34Z</time>
      </trkpt>
      <trkpt lat="46.15949" lon="4.62397">
        <ele>426</ele>
        <time>2021-10-14T19:21:44Z</time>
      </trkpt>
      <trkpt lat="46.1594" lon="4.62342">
        <ele>425</ele>
        <time>2021-10-14T19:21:51Z</time>
      </trkpt>
      <trkpt lat="46.15928" lon="4.62314">
        <ele>424</ele>
        <time>2021-10-14T19:21:55Z</time>
      </trkpt>
      <trkpt lat="46.15909" lon="4.62288">
        <ele>423</ele>
        <time>2021-10-14T19:22:00Z</time>
      </trkpt>
      <trkpt lat="46.1582" lon="4.6219">
        <ele>415</ele>
        <time>2021-10-14T19:22:20Z</time>
      </trkpt>
      <trkpt lat="46.15813" lon="4.62177">
        <ele>414</ele>
        <time>2021-10-14T19:22:22Z</time>
      </trkpt>
      <trkpt lat="46.15804" lon="4.62146">
        <ele>414</ele>
        <time>2021-10-14T19:22:26Z</time>
      </trkpt>
      <trkpt lat="46.15802" lon="4.62119">
        <ele>415</ele>
        <time>2021-10-14T19:22:30Z</time>
      </trkpt>
      <trkpt lat="46.15796" lon="4.62101">
        <ele>415</ele>
        <time>2021-10-14T19:22:32Z</time>
      </trkpt>
      <trkpt lat="46.15786" lon="4.62083">
        <ele>412</ele>
        <time>2021-10-14T19:22:35Z</time>
      </trkpt>
      <trkpt lat="46.15767" lon="4.62063">
        <ele>409</ele>
        <time>2021-10-14T19:22:39Z</time>
      </trkpt>
      <trkpt lat="46.15747" lon="4.62023">
        <ele>408</ele>
        <time>2021-10-14T19:22:45Z</time>
      </trkpt>
      <trkpt lat="46.15702" lon="4.61884">
        <ele>406</ele>
        <time>2021-10-14T19:23:04Z</time>
      </trkpt>
      <trkpt lat="46.15694" lon="4.61855">
        <ele>406</ele>
        <time>2021-10-14T19:23:08Z</time>
      </trkpt>
      <trkpt lat="46.15695" lon="4.61752">
        <ele>407</ele>
        <time>2021-10-14T19:23:21Z</time>
      </trkpt>
      <trkpt lat="46.15693" lon="4.6173">
        <ele>408</ele>
        <time>2021-10-14T19:23:23Z</time>
      </trkpt>
      <trkpt lat="46.15688" lon="4.61716">
        <ele>409</ele>
        <time>2021-10-14T19:23:25Z</time>
      </trkpt>
      <trkpt lat="46.15678" lon="4.61701">
        <ele>408</ele>
        <time>2021-10-14T19:23:28Z</time>
      </trkpt>
      <trkpt lat="46.15639" lon="4.61664">
        <ele>407</ele>
        <time>2021-10-14T19:23:36Z</time>
      </trkpt>
      <trkpt lat="46.1562" lon="4.61634">
        <ele>407</ele>
        <time>2021-10-14T19:23:41Z</time>
      </trkpt>
      <trkpt lat="46.15608" lon="4.61597">
        <ele>408</ele>
        <time>2021-10-14T19:23:46Z</time>
      </trkpt>
      <trkpt lat="46.15603" lon="4.61553">
        <ele>408</ele>
        <time>2021-10-14T19:23:52Z</time>
      </trkpt>
      <trkpt lat="46.15603" lon="4.61502">
        <ele>409</ele>
        <time>2021-10-14T19:23:58Z</time>
      </trkpt>
      <trkpt lat="46.15615" lon="4.61396">
        <ele>406</ele>
        <time>2021-10-14T19:24:11Z</time>
      </trkpt>
      <trkpt lat="46.15617" lon="4.61367">
        <ele>406</ele>
        <time>2021-10-14T19:24:15Z</time>
      </trkpt>
      <trkpt lat="46.15617" lon="4.61333">
        <ele>405</ele>
        <time>2021-10-14T19:24:19Z</time>
      </trkpt>
      <trkpt lat="46.156" lon="4.61187">
        <ele>404</ele>
        <time>2021-10-14T19:24:37Z</time>
      </trkpt>
      <trkpt lat="46.156" lon="4.61175">
        <ele>404</ele>
        <time>2021-10-14T19:24:39Z</time>
      </trkpt>
      <trkpt lat="46.15603" lon="4.61155">
        <ele>403</ele>
        <time>2021-10-14T19:24:41Z</time>
      </trkpt>
      <trkpt lat="46.15612" lon="4.61117">
        <ele>401</ele>
        <time>2021-10-14T19:24:46Z</time>
      </trkpt>
      <trkpt lat="46.15641" lon="4.61061">
        <ele>401</ele>
        <time>2021-10-14T19:24:55Z</time>
      </trkpt>
      <trkpt lat="46.15671" lon="4.6101">
        <ele>400</ele>
        <time>2021-10-14T19:25:03Z</time>
      </trkpt>
      <trkpt lat="46.15676" lon="4.60996">
        <ele>400</ele>
        <time>2021-10-14T19:25:05Z</time>
      </trkpt>
      <trkpt lat="46.15678" lon="4.60984">
        <ele>401</ele>
        <time>2021-10-14T19:25:06Z</time>
      </trkpt>
      <trkpt lat="46.15676" lon="4.60969">
        <ele>401</ele>
        <time>2021-10-14T19:25:08Z</time>
      </trkpt>
      <trkpt lat="46.15671" lon="4.60956">
        <ele>402</ele>
        <time>2021-10-14T19:25:10Z</time>
      </trkpt>
      <trkpt lat="46.15644" lon="4.60925">
        <ele>400</ele>
        <time>2021-10-14T19:25:16Z</time>
      </trkpt>
      <trkpt lat="46.1563" lon="4.60902">
        <ele>400</ele>
        <time>2021-10-14T19:25:20Z</time>
      </trkpt>
      <trkpt lat="46.15596" lon="4.60816">
        <ele>401</ele>
        <time>2021-10-14T19:25:32Z</time>
      </trkpt>
      <trkpt lat="46.15524" lon="4.60682">
        <ele>396</ele>
        <time>2021-10-14T19:25:53Z</time>
      </trkpt>
      <trkpt lat="46.15496" lon="4.60641">
        <ele>395</ele>
        <time>2021-10-14T19:26:00Z</time>
      </trkpt>
      <trkpt lat="46.15363" lon="4.60483">
        <ele>386</ele>
        <time>2021-10-14T19:26:31Z</time>
      </trkpt>
      <trkpt lat="46.15305" lon="4.60408">
        <ele>382</ele>
        <time>2021-10-14T19:26:45Z</time>
      </trkpt>
      <trkpt lat="46.15294" lon="4.60401">
        <ele>381</ele>
        <time>2021-10-14T19:26:47Z</time>
      </trkpt>
      <trkpt lat="46.1528" lon="4.60398">
        <ele>380</ele>
        <time>2021-10-14T19:26:49Z</time>
      </trkpt>
      <trkpt lat="46.15214" lon="4.60407">
        <ele>377</ele>
        <time>2021-10-14T19:27:01Z</time>
      </trkpt>
      <trkpt lat="46.15203" lon="4.60306">
        <ele>372</ele>
        <time>2021-10-14T19:27:14Z</time>
      </trkpt>
      <trkpt lat="46.15193" lon="4.60264">
        <ele>369</ele>
        <time>2021-10-14T19:27:19Z</time>
      </trkpt>
      <trkpt lat="46.15187" lon="4.60247">
        <ele>368</ele>
        <time>2021-10-14T19:27:22Z</time>
      </trkpt>
      <trkpt lat="46.15182" lon="4.6022">
        <ele>366</ele>
        <time>2021-10-14T19:27:25Z</time>
      </trkpt>
      <trkpt lat="46.15184" lon="4.60197">
        <ele>365</ele>
        <time>2021-10-14T19:27:28Z</time>
      </trkpt>
      <trkpt lat="46.15192" lon="4.60141">
        <ele>361</ele>
        <time>2021-10-14T19:27:35Z</time>
      </trkpt>
      <trkpt lat="46.15189" lon="4.6013">
        <ele>361</ele>
        <time>2021-10-14T19:27:37Z</time>
      </trkpt>
      <trkpt lat="46.15187" lon="4.6012">
        <ele>360</ele>
        <time>2021-10-14T19:27:38Z</time>
      </trkpt>
      <trkpt lat="46.15179" lon="4.60111">
        <ele>359</ele>
        <time>2021-10-14T19:27:40Z</time>
      </trkpt>
      <trkpt lat="46.1516" lon="4.60097">
        <ele>359</ele>
        <time>2021-10-14T19:27:43Z</time>
      </trkpt>
      <trkpt lat="46.15152" lon="4.60088">
        <ele>358</ele>
        <time>2021-10-14T19:27:45Z</time>
      </trkpt>
      <trkpt lat="46.15138" lon="4.60023">
        <ele>354</ele>
        <time>2021-10-14T19:27:54Z</time>
      </trkpt>
      <trkpt lat="46.15117" lon="4.59978">
        <ele>351</ele>
        <time>2021-10-14T19:28:00Z</time>
      </trkpt>
      <trkpt lat="46.15113" lon="4.59961">
        <ele>349</ele>
        <time>2021-10-14T19:28:02Z</time>
      </trkpt>
      <trkpt lat="46.15127" lon="4.59925">
        <ele>346</ele>
        <time>2021-10-14T19:28:08Z</time>
      </trkpt>
      <trkpt lat="46.15127" lon="4.59905">
        <ele>344</ele>
        <time>2021-10-14T19:28:10Z</time>
      </trkpt>
      <trkpt lat="46.15097" lon="4.59869">
        <ele>339</ele>
        <time>2021-10-14T19:28:17Z</time>
      </trkpt>
      <trkpt lat="46.15102" lon="4.5986">
        <ele>338</ele>
        <time>2021-10-14T19:28:18Z</time>
      </trkpt>
      <trkpt lat="46.15143" lon="4.59862">
        <ele>336</ele>
        <time>2021-10-14T19:28:26Z</time>
      </trkpt>
      <trkpt lat="46.15154" lon="4.5986">
        <ele>335</ele>
        <time>2021-10-14T19:28:28Z</time>
      </trkpt>
      <trkpt lat="46.1515" lon="4.59847">
        <ele>333</ele>
        <time>2021-10-14T19:28:29Z</time>
      </trkpt>
      <trkpt lat="46.15004" lon="4.59686">
        <ele>303</ele>
        <time>2021-10-14T19:29:02Z</time>
      </trkpt>
      <trkpt lat="46.14997" lon="4.59686">
        <ele>303</ele>
        <time>2021-10-14T19:29:03Z</time>
      </trkpt>
      <trkpt lat="46.14966" lon="4.59706">
        <ele>302</ele>
        <time>2021-10-14T19:29:09Z</time>
      </trkpt>
      <trkpt lat="46.1496" lon="4.59702">
        <ele>301</ele>
        <time>2021-10-14T19:29:11Z</time>
      </trkpt>
      <trkpt lat="46.15023" lon="4.59664">
        <ele>301</ele>
        <time>2021-10-14T19:29:23Z</time>
      </trkpt>
      <trkpt lat="46.15045" lon="4.59648">
        <ele>301</ele>
        <time>2021-10-14T19:29:27Z</time>
      </trkpt>
      <trkpt lat="46.15054" lon="4.59635">
        <ele>300</ele>
        <time>2021-10-14T19:29:29Z</time>
      </trkpt>
      <trkpt lat="46.1506" lon="4.59622">
        <ele>300</ele>
        <time>2021-10-14T19:29:31Z</time>
      </trkpt>
      <trkpt lat="46.15064" lon="4.59604">
        <ele>299</ele>
        <time>2021-10-14T19:29:34Z</time>
      </trkpt>
      <trkpt lat="46.15068" lon="4.59556">
        <ele>297</ele>
        <time>2021-10-14T19:29:40Z</time>
      </trkpt>
      <trkpt lat="46.15066" lon="4.59545">
        <ele>296</ele>
        <time>2021-10-14T19:29:41Z</time>
      </trkpt>
      <trkpt lat="46.15061" lon="4.59537">
        <ele>296</ele>
        <time>2021-10-14T19:29:42Z</time>
      </trkpt>
      <trkpt lat="46.15143" lon="4.5939">
        <ele>298</ele>
        <time>2021-10-14T19:30:06Z</time>
      </trkpt>
      <trkpt lat="46.15172" lon="4.59426">
        <ele>302</ele>
        <time>2021-10-14T19:30:12Z</time>
      </trkpt>
      <trkpt lat="46.15179" lon="4.59441">
        <ele>304</ele>
        <time>2021-10-14T19:30:15Z</time>
      </trkpt>
      <trkpt lat="46.15239" lon="4.59518">
        <ele>323</ele>
        <time>2021-10-14T19:30:29Z</time>
      </trkpt>
      <trkpt lat="46.1524" lon="4.59522">
        <ele>323</ele>
        <time>2021-10-14T19:30:29Z</time>
      </trkpt>
      <trkpt lat="46.15227" lon="4.59526">
        <ele>321</ele>
        <time>2021-10-14T19:30:32Z</time>
      </trkpt>
      <trkpt lat="46.15206" lon="4.59538">
        <ele>317</ele>
        <time>2021-10-14T19:30:36Z</time>
      </trkpt>
      <trkpt lat="46.1517" lon="4.59575">
        <ele>313</ele>
        <time>2021-10-14T19:30:44Z</time>
      </trkpt>
      <trkpt lat="46.15119" lon="4.59605">
        <ele>306</ele>
        <time>2021-10-14T19:30:53Z</time>
      </trkpt>
      <trkpt lat="46.15096" lon="4.59611">
        <ele>302</ele>
        <time>2021-10-14T19:30:58Z</time>
      </trkpt>
      <trkpt lat="46.15064" lon="4.59604">
        <ele>299</ele>
        <time>2021-10-14T19:31:03Z</time>
      </trkpt>
      <trkpt lat="46.15068" lon="4.59556">
        <ele>297</ele>
        <time>2021-10-14T19:31:09Z</time>
      </trkpt>
      <trkpt lat="46.15066" lon="4.59545">
        <ele>296</ele>
        <time>2021-10-14T19:31:11Z</time>
      </trkpt>
      <trkpt lat="46.15061" lon="4.59537">
        <ele>296</ele>
        <time>2021-10-14T19:31:12Z</time>
      </trkpt>
      <trkpt lat="46.15365" lon="4.58999">
        <ele>305</ele>
        <time>2021-10-14T19:32:38Z</time>
      </trkpt>
      <trkpt lat="46.15395" lon="4.58959">
        <ele>307</ele>
        <time>2021-10-14T19:32:45Z</time>
      </trkpt>
      <trkpt lat="46.15476" lon="4.58798">
        <ele>312</ele>
        <time>2021-10-14T19:33:09Z</time>
      </trkpt>
      <trkpt lat="46.15486" lon="4.58775">
        <ele>312</ele>
        <time>2021-10-14T19:33:13Z</time>
      </trkpt>
      <trkpt lat="46.15512" lon="4.5866">
        <ele>309</ele>
        <time>2021-10-14T19:33:28Z</time>
      </trkpt>
      <trkpt lat="46.15512" lon="4.58627">
        <ele>309</ele>
        <time>2021-10-14T19:33:32Z</time>
      </trkpt>
      <trkpt lat="46.15512" lon="4.5866">
        <ele>309</ele>
        <time>2021-10-14T19:33:36Z</time>
      </trkpt>
      <trkpt lat="46.15501" lon="4.58711">
        <ele>310</ele>
        <time>2021-10-14T19:33:42Z</time>
      </trkpt>
      <trkpt lat="46.15482" lon="4.58702">
        <ele>309</ele>
        <time>2021-10-14T19:33:46Z</time>
      </trkpt>
      <trkpt lat="46.15463" lon="4.58708">
        <ele>309</ele>
        <time>2021-10-14T19:33:49Z</time>
      </trkpt>
      <trkpt lat="46.15447" lon="4.58725">
        <ele>308</ele>
        <time>2021-10-14T19:33:53Z</time>
      </trkpt>
      <trkpt lat="46.15403" lon="4.58764">
        <ele>307</ele>
        <time>2021-10-14T19:34:02Z</time>
      </trkpt>
      <trkpt lat="46.15368" lon="4.58798">
        <ele>307</ele>
        <time>2021-10-14T19:34:10Z</time>
      </trkpt>
      <trkpt lat="46.15316" lon="4.58833">
        <ele>307</ele>
        <time>2021-10-14T19:34:20Z</time>
      </trkpt>
      <trkpt lat="46.15299" lon="4.58852">
        <ele>309</ele>
        <time>2021-10-14T19:34:24Z</time>
      </trkpt>
      <trkpt lat="46.15283" lon="4.58876">
        <ele>310</ele>
        <time>2021-10-14T19:34:28Z</time>
      </trkpt>
      <trkpt lat="46.15273" lon="4.58906">
        <ele>306</ele>
        <time>2021-10-14T19:34:32Z</time>
      </trkpt>
      <trkpt lat="46.1527" lon="4.58942">
        <ele>303</ele>
        <time>2021-10-14T19:34:36Z</time>
      </trkpt>
      <trkpt lat="46.15276" lon="4.5899">
        <ele>300</ele>
        <time>2021-10-14T19:34:42Z</time>
      </trkpt>
      <trkpt lat="46.15282" lon="4.58995">
        <ele>300</ele>
        <time>2021-10-14T19:34:44Z</time>
      </trkpt>
      <trkpt lat="46.15289" lon="4.59001">
        <ele>299</ele>
        <time>2021-10-14T19:34:45Z</time>
      </trkpt>
      <trkpt lat="46.15306" lon="4.59014">
        <ele>300</ele>
        <time>2021-10-14T19:34:49Z</time>
      </trkpt>
      <trkpt lat="46.15337" lon="4.59049">
        <ele>304</ele>
        <time>2021-10-14T19:34:56Z</time>
      </trkpt>
      <trkpt lat="46.15143" lon="4.5939">
        <ele>298</ele>
        <time>2021-10-14T19:35:50Z</time>
      </trkpt>
      <trkpt lat="46.15061" lon="4.59537">
        <ele>296</ele>
        <time>2021-10-14T19:36:13Z</time>
      </trkpt>
      <trkpt lat="46.15021" lon="4.596">
        <ele>296</ele>
        <time>2021-10-14T19:36:24Z</time>
      </trkpt>
      <trkpt lat="46.15007" lon="4.59618">
        <ele>297</ele>
        <time>2021-10-14T19:36:27Z</time>
      </trkpt>
      <trkpt lat="46.14989" lon="4.59635">
        <ele>297</ele>
        <time>2021-10-14T19:36:31Z</time>
      </trkpt>
      <trkpt lat="46.14979" lon="4.59642">
        <ele>297</ele>
        <time>2021-10-14T19:36:33Z</time>
      </trkpt>
      <trkpt lat="46.14954" lon="4.59653">
        <ele>295</ele>
        <time>2021-10-14T19:36:37Z</time>
      </trkpt>
      <trkpt lat="46.14924" lon="4.59657">
        <ele>293</ele>
        <time>2021-10-14T19:36:43Z</time>
      </trkpt>
      <trkpt lat="46.14907" lon="4.59649">
        <ele>292</ele>
        <time>2021-10-14T19:36:46Z</time>
      </trkpt>
      <trkpt lat="46.14896" lon="4.59677">
        <ele>293</ele>
        <time>2021-10-14T19:36:50Z</time>
      </trkpt>
      <trkpt lat="46.14889" lon="4.59697">
        <ele>293</ele>
        <time>2021-10-14T19:36:53Z</time>
      </trkpt>
      <trkpt lat="46.14874" lon="4.5973">
        <ele>293</ele>
        <time>2021-10-14T19:36:58Z</time>
      </trkpt>
      <trkpt lat="46.1486" lon="4.5977">
        <ele>293</ele>
        <time>2021-10-14T19:37:03Z</time>
      </trkpt>
      <trkpt lat="46.14839" lon="4.59846">
        <ele>294</ele>
        <time>2021-10-14T19:37:13Z</time>
      </trkpt>
      <trkpt lat="46.14823" lon="4.59886">
        <ele>294</ele>
        <time>2021-10-14T19:37:19Z</time>
      </trkpt>
      <trkpt lat="46.1481" lon="4.59911">
        <ele>294</ele>
        <time>2021-10-14T19:37:23Z</time>
      </trkpt>
      <trkpt lat="46.14781" lon="4.59957">
        <ele>293</ele>
        <time>2021-10-14T19:37:30Z</time>
      </trkpt>
      <trkpt lat="46.14771" lon="4.5997">
        <ele>292</ele>
        <time>2021-10-14T19:37:33Z</time>
      </trkpt>
      <trkpt lat="46.14726" lon="4.60011">
        <ele>289</ele>
        <time>2021-10-14T19:37:42Z</time>
      </trkpt>
      <trkpt lat="46.14698" lon="4.60031">
        <ele>288</ele>
        <time>2021-10-14T19:37:48Z</time>
      </trkpt>
      <trkpt lat="46.14557" lon="4.60107">
        <ele>287</ele>
        <time>2021-10-14T19:38:15Z</time>
      </trkpt>
      <trkpt lat="46.14519" lon="4.6013">
        <ele>285</ele>
        <time>2021-10-14T19:38:22Z</time>
      </trkpt>
      <trkpt lat="46.14466" lon="4.60177">
        <ele>284</ele>
        <time>2021-10-14T19:38:33Z</time>
      </trkpt>
      <trkpt lat="46.14397" lon="4.60245">
        <ele>284</ele>
        <time>2021-10-14T19:38:48Z</time>
      </trkpt>
      <trkpt lat="46.14369" lon="4.60284">
        <ele>285</ele>
        <time>2021-10-14T19:38:55Z</time>
      </trkpt>
      <trkpt lat="46.14317" lon="4.60361">
        <ele>283</ele>
        <time>2021-10-14T19:39:08Z</time>
      </trkpt>
      <trkpt lat="46.14286" lon="4.60417">
        <ele>283</ele>
        <time>2021-10-14T19:39:17Z</time>
      </trkpt>
      <trkpt lat="46.14079" lon="4.60931">
        <ele>273</ele>
        <time>2021-10-14T19:40:30Z</time>
      </trkpt>
      <trkpt lat="46.14074" lon="4.60941">
        <ele>273</ele>
        <time>2021-10-14T19:40:32Z</time>
      </trkpt>
      <trkpt lat="46.14063" lon="4.60951">
        <ele>273</ele>
        <time>2021-10-14T19:40:34Z</time>
      </trkpt>
      <trkpt lat="46.14059" lon="4.60983">
        <ele>274</ele>
        <time>2021-10-14T19:40:38Z</time>
      </trkpt>
      <trkpt lat="46.14053" lon="4.61001">
        <ele>274</ele>
        <time>2021-10-14T19:40:41Z</time>
      </trkpt>
      <trkpt lat="46.14017" lon="4.61088">
        <ele>272</ele>
        <time>2021-10-14T19:40:53Z</time>
      </trkpt>
      <trkpt lat="46.13964" lon="4.61217">
        <ele>270</ele>
        <time>2021-10-14T19:41:12Z</time>
      </trkpt>
      <trkpt lat="46.13902" lon="4.61355">
        <ele>268</ele>
        <time>2021-10-14T19:41:32Z</time>
      </trkpt>
      <trkpt lat="46.13844" lon="4.61469">
        <ele>266</ele>
        <time>2021-10-14T19:41:49Z</time>
      </trkpt>
      <trkpt lat="46.13804" lon="4.61539">
        <ele>266</ele>
        <time>2021-10-14T19:42:00Z</time>
      </trkpt>
      <trkpt lat="46.13796" lon="4.61552">
        <ele>266</ele>
        <time>2021-10-14T19:42:03Z</time>
      </trkpt>
      <trkpt lat="46.13748" lon="4.61632">
        <ele>263</ele>
        <time>2021-10-14T19:42:16Z</time>
      </trkpt>
      <trkpt lat="46.13306" lon="4.62288">
        <ele>257</ele>
        <time>2021-10-14T19:44:08Z</time>
      </trkpt>
      <trkpt lat="46.13295" lon="4.62304">
        <ele>257</ele>
        <time>2021-10-14T19:44:11Z</time>
      </trkpt>
      <trkpt lat="46.13078" lon="4.62627">
        <ele>254</ele>
        <time>2021-10-14T19:45:07Z</time>
      </trkpt>
      <trkpt lat="46.1296" lon="4.62815">
        <ele>252</ele>
        <time>2021-10-14T19:45:38Z</time>
      </trkpt>
      <trkpt lat="46.12829" lon="4.63019">
        <ele>248</ele>
        <time>2021-10-14T19:46:12Z</time>
      </trkpt>
      <trkpt lat="46.12519" lon="4.63513">
        <ele>243</ele>
        <time>2021-10-14T19:47:34Z</time>
      </trkpt>
      <trkpt lat="46.1243" lon="4.63392">
        <ele>252</ele>
        <time>2021-10-14T19:47:56Z</time>
      </trkpt>
      <trkpt lat="46.12339" lon="4.63572">
        <ele>250</ele>
        <time>2021-10-14T19:48:24Z</time>
      </trkpt>
      <trkpt lat="46.12071" lon="4.64121">
        <ele>237</ele>
        <time>2021-10-14T19:49:46Z</time>
      </trkpt>
      <trkpt lat="46.11958" lon="4.64361">
        <ele>236</ele>
        <time>2021-10-14T19:50:22Z</time>
      </trkpt>
      <trkpt lat="46.11944" lon="4.64385">
        <ele>236</ele>
        <time>2021-10-14T19:50:26Z</time>
      </trkpt>
      <trkpt lat="46.11936" lon="4.64403">
        <ele>236</ele>
        <time>2021-10-14T19:50:29Z</time>
      </trkpt>
      <trkpt lat="46.11881" lon="4.6451">
        <ele>237</ele>
        <time>2021-10-14T19:50:45Z</time>
      </trkpt>
      <trkpt lat="46.11862" lon="4.64538">
        <ele>238</ele>
        <time>2021-10-14T19:50:50Z</time>
      </trkpt>
      <trkpt lat="46.11853" lon="4.64545">
        <ele>239</ele>
        <time>2021-10-14T19:50:52Z</time>
      </trkpt>
      <trkpt lat="46.11847" lon="4.64542">
        <ele>240</ele>
        <time>2021-10-14T19:50:53Z</time>
      </trkpt>
      <trkpt lat="46.1184" lon="4.64544">
        <ele>240</ele>
        <time>2021-10-14T19:50:54Z</time>
      </trkpt>
      <trkpt lat="46.1183" lon="4.64516">
        <ele>240</ele>
        <time>2021-10-14T19:50:58Z</time>
      </trkpt>
      <trkpt lat="46.11816" lon="4.64488">
        <ele>241</ele>
        <time>2021-10-14T19:51:02Z</time>
      </trkpt>
      <trkpt lat="46.118" lon="4.64469">
        <ele>242</ele>
        <time>2021-10-14T19:51:06Z</time>
      </trkpt>
      <trkpt lat="46.11786" lon="4.64461">
        <ele>242</ele>
        <time>2021-10-14T19:51:09Z</time>
      </trkpt>
      <trkpt lat="46.11769" lon="4.64459">
        <ele>243</ele>
        <time>2021-10-14T19:51:12Z</time>
      </trkpt>
      <trkpt lat="46.11702" lon="4.64475">
        <ele>247</ele>
        <time>2021-10-14T19:51:24Z</time>
      </trkpt>
      <trkpt lat="46.11675" lon="4.645">
        <ele>250</ele>
        <time>2021-10-14T19:51:30Z</time>
      </trkpt>
      <trkpt lat="46.11633" lon="4.64557">
        <ele>255</ele>
        <time>2021-10-14T19:51:40Z</time>
      </trkpt>
      <trkpt lat="46.11621" lon="4.6457">
        <ele>257</ele>
        <time>2021-10-14T19:51:42Z</time>
      </trkpt>
      <trkpt lat="46.11609" lon="4.64578">
        <ele>258</ele>
        <time>2021-10-14T19:51:45Z</time>
      </trkpt>
      <trkpt lat="46.11591" lon="4.64584">
        <ele>260</ele>
        <time>2021-10-14T19:51:48Z</time>
      </trkpt>
      <trkpt lat="46.11504" lon="4.64603">
        <ele>262</ele>
        <time>2021-10-14T19:52:04Z</time>
      </trkpt>
      <trkpt lat="46.1148" lon="4.646">
        <ele>263</ele>
        <time>2021-10-14T19:52:08Z</time>
      </trkpt>
      <trkpt lat="46.11406" lon="4.64568">
        <ele>264</ele>
        <time>2021-10-14T19:52:22Z</time>
      </trkpt>
      <trkpt lat="46.1139" lon="4.64556">
        <ele>264</ele>
        <time>2021-10-14T19:52:25Z</time>
      </trkpt>
      <trkpt lat="46.11377" lon="4.64539">
        <ele>264</ele>
        <time>2021-10-14T19:52:28Z</time>
      </trkpt>
      <trkpt lat="46.11371" lon="4.64512">
        <ele>263</ele>
        <time>2021-10-14T19:52:32Z</time>
      </trkpt>
      <trkpt lat="46.11338" lon="4.64294">
        <ele>271</ele>
        <time>2021-10-14T19:52:59Z</time>
      </trkpt>
      <trkpt lat="46.11331" lon="4.64279">
        <ele>272</ele>
        <time>2021-10-14T19:53:01Z</time>
      </trkpt>
      <trkpt lat="46.11326" lon="4.6427">
        <ele>273</ele>
        <time>2021-10-14T19:53:03Z</time>
      </trkpt>
      <trkpt lat="46.113" lon="4.64247">
        <ele>276</ele>
        <time>2021-10-14T19:53:08Z</time>
      </trkpt>
      <trkpt lat="46.11146" lon="4.64166">
        <ele>286</ele>
        <time>2021-10-14T19:53:37Z</time>
      </trkpt>
      <trkpt lat="46.1108" lon="4.64116">
        <ele>292</ele>
        <time>2021-10-14T19:53:51Z</time>
      </trkpt>
      <trkpt lat="46.11067" lon="4.64111">
        <ele>292</ele>
        <time>2021-10-14T19:53:53Z</time>
      </trkpt>
      <trkpt lat="46.11057" lon="4.64111">
        <ele>293</ele>
        <time>2021-10-14T19:53:55Z</time>
      </trkpt>
      <trkpt lat="46.11046" lon="4.64114">
        <ele>293</ele>
        <time>2021-10-14T19:53:57Z</time>
      </trkpt>
      <trkpt lat="46.11034" lon="4.64121">
        <ele>294</ele>
        <time>2021-10-14T19:53:59Z</time>
      </trkpt>
      <trkpt lat="46.11019" lon="4.64133">
        <ele>296</ele>
        <time>2021-10-14T19:54:02Z</time>
      </trkpt>
      <trkpt lat="46.11012" lon="4.64141">
        <ele>297</ele>
        <time>2021-10-14T19:54:04Z</time>
      </trkpt>
      <trkpt lat="46.11007" lon="4.64149">
        <ele>298</ele>
        <time>2021-10-14T19:54:05Z</time>
      </trkpt>
      <trkpt lat="46.11004" lon="4.6416">
        <ele>299</ele>
        <time>2021-10-14T19:54:07Z</time>
      </trkpt>
      <trkpt lat="46.11001" lon="4.64179">
        <ele>300</ele>
        <time>2021-10-14T19:54:09Z</time>
      </trkpt>
      <trkpt lat="46.10997" lon="4.64275">
        <ele>303</ele>
        <time>2021-10-14T19:54:21Z</time>
      </trkpt>
      <trkpt lat="46.10981" lon="4.64361">
        <ele>306</ele>
        <time>2021-10-14T19:54:32Z</time>
      </trkpt>
      <trkpt lat="46.10976" lon="4.64379">
        <ele>306</ele>
        <time>2021-10-14T19:54:34Z</time>
      </trkpt>
      <trkpt lat="46.10972" lon="4.64389">
        <ele>306</ele>
        <time>2021-10-14T19:54:36Z</time>
      </trkpt>
      <trkpt lat="46.10964" lon="4.64397">
        <ele>308</ele>
        <time>2021-10-14T19:54:37Z</time>
      </trkpt>
      <trkpt lat="46.10955" lon="4.644">
        <ele>309</ele>
        <time>2021-10-14T19:54:39Z</time>
      </trkpt>
      <trkpt lat="46.10947" lon="4.64397">
        <ele>310</ele>
        <time>2021-10-14T19:54:40Z</time>
      </trkpt>
      <trkpt lat="46.10936" lon="4.64384">
        <ele>311</ele>
        <time>2021-10-14T19:54:43Z</time>
      </trkpt>
      <trkpt lat="46.1092" lon="4.64354">
        <ele>312</ele>
        <time>2021-10-14T19:54:48Z</time>
      </trkpt>
      <trkpt lat="46.10908" lon="4.64341">
        <ele>313</ele>
        <time>2021-10-14T19:54:50Z</time>
      </trkpt>
      <trkpt lat="46.1089" lon="4.64331">
        <ele>315</ele>
        <time>2021-10-14T19:54:54Z</time>
      </trkpt>
      <trkpt lat="46.10867" lon="4.64327">
        <ele>317</ele>
        <time>2021-10-14T19:54:58Z</time>
      </trkpt>
      <trkpt lat="46.10801" lon="4.64328">
        <ele>322</ele>
        <time>2021-10-14T19:55:10Z</time>
      </trkpt>
      <trkpt lat="46.10673" lon="4.64318">
        <ele>330</ele>
        <time>2021-10-14T19:55:32Z</time>
      </trkpt>
      <trkpt lat="46.1065" lon="4.64318">
        <ele>332</ele>
        <time>2021-10-14T19:55:37Z</time>
      </trkpt>
      <trkpt lat="46.10624" lon="4.64323">
        <ele>333</ele>
        <time>2021-10-14T19:55:41Z</time>
      </trkpt>
      <trkpt lat="46.10531" lon="4.64328">
        <ele>334</ele>
        <time>2021-10-14T19:55:58Z</time>
      </trkpt>
      <trkpt lat="46.10489" lon="4.64315">
        <ele>333</ele>
        <time>2021-10-14T19:56:05Z</time>
      </trkpt>
      <trkpt lat="46.10386" lon="4.64267">
        <ele>329</ele>
        <time>2021-10-14T19:56:25Z</time>
      </trkpt>
      <trkpt lat="46.10351" lon="4.64256">
        <ele>328</ele>
        <time>2021-10-14T19:56:31Z</time>
      </trkpt>
      <trkpt lat="46.10333" lon="4.64254">
        <ele>327</ele>
        <time>2021-10-14T19:56:34Z</time>
      </trkpt>
      <trkpt lat="46.10311" lon="4.64258">
        <ele>326</ele>
        <time>2021-10-14T19:56:38Z</time>
      </trkpt>
      <trkpt lat="46.10236" lon="4.64292">
        <ele>323</ele>
        <time>2021-10-14T19:56:52Z</time>
      </trkpt>
      <trkpt lat="46.10189" lon="4.64308">
        <ele>321</ele>
        <time>2021-10-14T19:57:01Z</time>
      </trkpt>
      <trkpt lat="46.10036" lon="4.64324">
        <ele>320</ele>
        <time>2021-10-14T19:57:28Z</time>
      </trkpt>
      <trkpt lat="46.10021" lon="4.64323">
        <ele>320</ele>
        <time>2021-10-14T19:57:31Z</time>
      </trkpt>
      <trkpt lat="46.10004" lon="4.64317">
        <ele>320</ele>
        <time>2021-10-14T19:57:34Z</time>
      </trkpt>
      <trkpt lat="46.09994" lon="4.64308">
        <ele>319</ele>
        <time>2021-10-14T19:57:36Z</time>
      </trkpt>
      <trkpt lat="46.09983" lon="4.64293">
        <ele>319</ele>
        <time>2021-10-14T19:57:39Z</time>
      </trkpt>
      <trkpt lat="46.09973" lon="4.64268">
        <ele>318</ele>
        <time>2021-10-14T19:57:42Z</time>
      </trkpt>
      <trkpt lat="46.09952" lon="4.64187">
        <ele>317</ele>
        <time>2021-10-14T19:57:53Z</time>
      </trkpt>
      <trkpt lat="46.09936" lon="4.64137">
        <ele>317</ele>
        <time>2021-10-14T19:58:00Z</time>
      </trkpt>
      <trkpt lat="46.09918" lon="4.64092">
        <ele>316</ele>
        <time>2021-10-14T19:58:06Z</time>
      </trkpt>
      <trkpt lat="46.09899" lon="4.64054">
        <ele>318</ele>
        <time>2021-10-14T19:58:12Z</time>
      </trkpt>
      <trkpt lat="46.09891" lon="4.64041">
        <ele>319</ele>
        <time>2021-10-14T19:58:14Z</time>
      </trkpt>
      <trkpt lat="46.09871" lon="4.64027">
        <ele>320</ele>
        <time>2021-10-14T19:58:18Z</time>
      </trkpt>
      <trkpt lat="46.0986" lon="4.64025">
        <ele>320</ele>
        <time>2021-10-14T19:58:20Z</time>
      </trkpt>
      <trkpt lat="46.09847" lon="4.64027">
        <ele>320</ele>
        <time>2021-10-14T19:58:22Z</time>
      </trkpt>
      <trkpt lat="46.09835" lon="4.64038">
        <ele>318</ele>
        <time>2021-10-14T19:58:25Z</time>
      </trkpt>
      <trkpt lat="46.09829" lon="4.64047">
        <ele>319</ele>
        <time>2021-10-14T19:58:26Z</time>
      </trkpt>
      <trkpt lat="46.0982" lon="4.64078">
        <ele>318</ele>
        <time>2021-10-14T19:58:30Z</time>
      </trkpt>
      <trkpt lat="46.09792" lon="4.64211">
        <ele>316</ele>
        <time>2021-10-14T19:58:48Z</time>
      </trkpt>
      <trkpt lat="46.09788" lon="4.64238">
        <ele>314</ele>
        <time>2021-10-14T19:58:51Z</time>
      </trkpt>
      <trkpt lat="46.09778" lon="4.64343">
        <ele>312</ele>
        <time>2021-10-14T19:59:04Z</time>
      </trkpt>
      <trkpt lat="46.09772" lon="4.6439">
        <ele>311</ele>
        <time>2021-10-14T19:59:10Z</time>
      </trkpt>
      <trkpt lat="46.09764" lon="4.64422">
        <ele>310</ele>
        <time>2021-10-14T19:59:14Z</time>
      </trkpt>
      <trkpt lat="46.09754" lon="4.64454">
        <ele>310</ele>
        <time>2021-10-14T19:59:19Z</time>
      </trkpt>
      <trkpt lat="46.09741" lon="4.64479">
        <ele>310</ele>
        <time>2021-10-14T19:59:22Z</time>
      </trkpt>
      <trkpt lat="46.09722" lon="4.64507">
        <ele>312</ele>
        <time>2021-10-14T19:59:27Z</time>
      </trkpt>
      <trkpt lat="46.097" lon="4.64529">
        <ele>314</ele>
        <time>2021-10-14T19:59:32Z</time>
      </trkpt>
      <trkpt lat="46.09637" lon="4.64573">
        <ele>317</ele>
        <time>2021-10-14T19:59:44Z</time>
      </trkpt>
      <trkpt lat="46.09618" lon="4.64583">
        <ele>317</ele>
        <time>2021-10-14T19:59:48Z</time>
      </trkpt>
      <trkpt lat="46.09603" lon="4.64589">
        <ele>318</ele>
        <time>2021-10-14T19:59:51Z</time>
      </trkpt>
      <trkpt lat="46.09416" lon="4.64634">
        <ele>322</ele>
        <time>2021-10-14T20:00:25Z</time>
      </trkpt>
      <trkpt lat="46.09373" lon="4.64653">
        <ele>319</ele>
        <time>2021-10-14T20:00:33Z</time>
      </trkpt>
      <trkpt lat="46.09311" lon="4.64685">
        <ele>314</ele>
        <time>2021-10-14T20:00:44Z</time>
      </trkpt>
      <trkpt lat="46.09278" lon="4.64696">
        <ele>312</ele>
        <time>2021-10-14T20:00:50Z</time>
      </trkpt>
      <trkpt lat="46.09247" lon="4.64702">
        <ele>311</ele>
        <time>2021-10-14T20:00:56Z</time>
      </trkpt>
      <trkpt lat="46.09202" lon="4.64704">
        <ele>309</ele>
        <time>2021-10-14T20:01:04Z</time>
      </trkpt>
      <trkpt lat="46.08984" lon="4.64701">
        <ele>300</ele>
        <time>2021-10-14T20:01:43Z</time>
      </trkpt>
      <trkpt lat="46.08973" lon="4.64704">
        <ele>299</ele>
        <time>2021-10-14T20:01:45Z</time>
      </trkpt>
      <trkpt lat="46.0897" lon="4.647">
        <ele>299</ele>
        <time>2021-10-14T20:01:45Z</time>
      </trkpt>
      <trkpt lat="46.08965" lon="4.64701">
        <ele>299</ele>
        <time>2021-10-14T20:01:46Z</time>
      </trkpt>
      <trkpt lat="46.08958" lon="4.64694">
        <ele>298</ele>
        <time>2021-10-14T20:01:48Z</time>
      </trkpt>
      <trkpt lat="46.08863" lon="4.6467">
        <ele>297</ele>
        <time>2021-10-14T20:02:05Z</time>
      </trkpt>
      <trkpt lat="46.08842" lon="4.64667">
        <ele>297</ele>
        <time>2021-10-14T20:02:09Z</time>
      </trkpt>
      <trkpt lat="46.08798" lon="4.64672">
        <ele>299</ele>
        <time>2021-10-14T20:02:17Z</time>
      </trkpt>
      <trkpt lat="46.08731" lon="4.64654">
        <ele>301</ele>
        <time>2021-10-14T20:02:29Z</time>
      </trkpt>
      <trkpt lat="46.08677" lon="4.64623">
        <ele>302</ele>
        <time>2021-10-14T20:02:39Z</time>
      </trkpt>
      <trkpt lat="46.08566" lon="4.64565">
        <ele>296</ele>
        <time>2021-10-14T20:03:00Z</time>
      </trkpt>
      <trkpt lat="46.08566" lon="4.64557">
        <ele>296</ele>
        <time>2021-10-14T20:03:01Z</time>
      </trkpt>
      <trkpt lat="46.0856" lon="4.64553">
        <ele>295</ele>
        <time>2021-10-14T20:03:02Z</time>
      </trkpt>
      <trkpt lat="46.08556" lon="4.64554">
        <ele>295</ele>
        <time>2021-10-14T20:03:03Z</time>
      </trkpt>
      <trkpt lat="46.08554" lon="4.64559">
        <ele>295</ele>
        <time>2021-10-14T20:03:04Z</time>
      </trkpt>
      <trkpt lat="46.08347" lon="4.64472">
        <ele>291</ele>
        <time>2021-10-14T20:03:42Z</time>
      </trkpt>
      <trkpt lat="46.08304" lon="4.64461">
        <ele>290</ele>
        <time>2021-10-14T20:03:50Z</time>
      </trkpt>
      <trkpt lat="46.08236" lon="4.64453">
        <ele>289</ele>
        <time>2021-10-14T20:04:02Z</time>
      </trkpt>
      <trkpt lat="46.08216" lon="4.64455">
        <ele>290</ele>
        <time>2021-10-14T20:04:05Z</time>
      </trkpt>
      <trkpt lat="46.08209" lon="4.64442">
        <ele>291</ele>
        <time>2021-10-14T20:04:08Z</time>
      </trkpt>
      <trkpt lat="46.08175" lon="4.64419">
        <ele>293</ele>
        <time>2021-10-14T20:04:14Z</time>
      </trkpt>
      <trkpt lat="46.08147" lon="4.64404">
        <ele>295</ele>
        <time>2021-10-14T20:04:20Z</time>
      </trkpt>
      <trkpt lat="46.08125" lon="4.64389">
        <ele>296</ele>
        <time>2021-10-14T20:04:24Z</time>
      </trkpt>
      <trkpt lat="46.08045" lon="4.64329">
        <ele>300</ele>
        <time>2021-10-14T20:04:40Z</time>
      </trkpt>
      <trkpt lat="46.07996" lon="4.64298">
        <ele>302</ele>
        <time>2021-10-14T20:04:49Z</time>
      </trkpt>
      <trkpt lat="46.07961" lon="4.64269">
        <ele>303</ele>
        <time>2021-10-14T20:04:57Z</time>
      </trkpt>
      <trkpt lat="46.07873" lon="4.6417">
        <ele>303</ele>
        <time>2021-10-14T20:05:16Z</time>
      </trkpt>
      <trkpt lat="46.07807" lon="4.64103">
        <ele>298</ele>
        <time>2021-10-14T20:05:31Z</time>
      </trkpt>
      <trkpt lat="46.07751" lon="4.64058">
        <ele>293</ele>
        <time>2021-10-14T20:05:42Z</time>
      </trkpt>
      <trkpt lat="46.07739" lon="4.64055">
        <ele>293</ele>
        <time>2021-10-14T20:05:44Z</time>
      </trkpt>
      <trkpt lat="46.07725" lon="4.64028">
        <ele>294</ele>
        <time>2021-10-14T20:05:49Z</time>
      </trkpt>
      <trkpt lat="46.07695" lon="4.63981">
        <ele>295</ele>
        <time>2021-10-14T20:05:56Z</time>
      </trkpt>
      <trkpt lat="46.07686" lon="4.63971">
        <ele>296</ele>
        <time>2021-10-14T20:05:58Z</time>
      </trkpt>
      <trkpt lat="46.07662" lon="4.63952">
        <ele>297</ele>
        <time>2021-10-14T20:06:03Z</time>
      </trkpt>
      <trkpt lat="46.07583" lon="4.63907">
        <ele>299</ele>
        <time>2021-10-14T20:06:18Z</time>
      </trkpt>
      <trkpt lat="46.07553" lon="4.63877">
        <ele>301</ele>
        <time>2021-10-14T20:06:25Z</time>
      </trkpt>
      <trkpt lat="46.075" lon="4.63829">
        <ele>303</ele>
        <time>2021-10-14T20:06:36Z</time>
      </trkpt>
      <trkpt lat="46.07427" lon="4.63785">
        <ele>306</ele>
        <time>2021-10-14T20:06:50Z</time>
      </trkpt>
      <trkpt lat="46.07402" lon="4.63764">
        <ele>308</ele>
        <time>2021-10-14T20:06:55Z</time>
      </trkpt>
      <trkpt lat="46.07317" lon="4.63663">
        <ele>314</ele>
        <time>2021-10-14T20:07:15Z</time>
      </trkpt>
      <trkpt lat="46.07228" lon="4.63548">
        <ele>322</ele>
        <time>2021-10-14T20:07:36Z</time>
      </trkpt>
      <trkpt lat="46.07199" lon="4.6353">
        <ele>324</ele>
        <time>2021-10-14T20:07:42Z</time>
      </trkpt>
      <trkpt lat="46.07179" lon="4.63514">
        <ele>324</ele>
        <time>2021-10-14T20:07:46Z</time>
      </trkpt>
      <trkpt lat="46.07155" lon="4.6349">
        <ele>325</ele>
        <time>2021-10-14T20:07:51Z</time>
      </trkpt>
      <trkpt lat="46.07101" lon="4.63321">
        <ele>318</ele>
        <time>2021-10-14T20:08:14Z</time>
      </trkpt>
      <trkpt lat="46.07082" lon="4.6325">
        <ele>315</ele>
        <time>2021-10-14T20:08:23Z</time>
      </trkpt>
      <trkpt lat="46.07076" lon="4.63216">
        <ele>314</ele>
        <time>2021-10-14T20:08:28Z</time>
      </trkpt>
      <trkpt lat="46.07071" lon="4.63118">
        <ele>310</ele>
        <time>2021-10-14T20:08:40Z</time>
      </trkpt>
      <trkpt lat="46.07069" lon="4.63025">
        <ele>308</ele>
        <time>2021-10-14T20:08:51Z</time>
      </trkpt>
      <trkpt lat="46.07072" lon="4.62961">
        <ele>309</ele>
        <time>2021-10-14T20:08:59Z</time>
      </trkpt>
      <trkpt lat="46.0707" lon="4.62932">
        <ele>310</ele>
        <time>2021-10-14T20:09:03Z</time>
      </trkpt>
      <trkpt lat="46.07062" lon="4.62867">
        <ele>312</ele>
        <time>2021-10-14T20:09:11Z</time>
      </trkpt>
      <trkpt lat="46.07049" lon="4.62781">
        <ele>314</ele>
        <time>2021-10-14T20:09:22Z</time>
      </trkpt>
      <trkpt lat="46.0703" lon="4.627">
        <ele>318</ele>
        <time>2021-10-14T20:09:32Z</time>
      </trkpt>
      <trkpt lat="46.07024" lon="4.62659">
        <ele>320</ele>
        <time>2021-10-14T20:09:38Z</time>
      </trkpt>
      <trkpt lat="46.07004" lon="4.62445">
        <ele>324</ele>
        <time>2021-10-14T20:10:04Z</time>
      </trkpt>
      <trkpt lat="46.06996" lon="4.62305">
        <ele>325</ele>
        <time>2021-10-14T20:10:22Z</time>
      </trkpt>
      <trkpt lat="46.06994" lon="4.62241">
        <ele>324</ele>
        <time>2021-10-14T20:10:30Z</time>
      </trkpt>
      <trkpt lat="46.06998" lon="4.62219">
        <ele>323</ele>
        <time>2021-10-14T20:10:32Z</time>
      </trkpt>
      <trkpt lat="46.07005" lon="4.62203">
        <ele>323</ele>
        <time>2021-10-14T20:10:35Z</time>
      </trkpt>
      <trkpt lat="46.07034" lon="4.62164">
        <ele>324</ele>
        <time>2021-10-14T20:10:42Z</time>
      </trkpt>
      <trkpt lat="46.07042" lon="4.62145">
        <ele>325</ele>
        <time>2021-10-14T20:10:44Z</time>
      </trkpt>
      <trkpt lat="46.07044" lon="4.62125">
        <ele>325</ele>
        <time>2021-10-14T20:10:47Z</time>
      </trkpt>
      <trkpt lat="46.07042" lon="4.6211">
        <ele>326</ele>
        <time>2021-10-14T20:10:49Z</time>
      </trkpt>
      <trkpt lat="46.06978" lon="4.62034">
        <ele>324</ele>
        <time>2021-10-14T20:11:04Z</time>
      </trkpt>
      <trkpt lat="46.06968" lon="4.62001">
        <ele>324</ele>
        <time>2021-10-14T20:11:08Z</time>
      </trkpt>
      <trkpt lat="46.06923" lon="4.61767">
        <ele>326</ele>
        <time>2021-10-14T20:11:38Z</time>
      </trkpt>
      <trkpt lat="46.0692" lon="4.61732">
        <ele>326</ele>
        <time>2021-10-14T20:11:42Z</time>
      </trkpt>
      <trkpt lat="46.06919" lon="4.61695">
        <ele>327</ele>
        <time>2021-10-14T20:11:47Z</time>
      </trkpt>
      <trkpt lat="46.06917" lon="4.6157">
        <ele>330</ele>
        <time>2021-10-14T20:12:02Z</time>
      </trkpt>
      <trkpt lat="46.06909" lon="4.6151">
        <ele>330</ele>
        <time>2021-10-14T20:12:10Z</time>
      </trkpt>
      <trkpt lat="46.06878" lon="4.61398">
        <ele>329</ele>
        <time>2021-10-14T20:12:25Z</time>
      </trkpt>
      <trkpt lat="46.06878" lon="4.6137">
        <ele>329</ele>
        <time>2021-10-14T20:12:28Z</time>
      </trkpt>
      <trkpt lat="46.06881" lon="4.61337">
        <ele>329</ele>
        <time>2021-10-14T20:12:32Z</time>
      </trkpt>
      <trkpt lat="46.06845" lon="4.61212">
        <ele>327</ele>
        <time>2021-10-14T20:12:49Z</time>
      </trkpt>
      <trkpt lat="46.06843" lon="4.61195">
        <ele>327</ele>
        <time>2021-10-14T20:12:51Z</time>
      </trkpt>
      <trkpt lat="46.06836" lon="4.61178">
        <ele>328</ele>
        <time>2021-10-14T20:12:54Z</time>
      </trkpt>
      <trkpt lat="46.06828" lon="4.6117">
        <ele>328</ele>
        <time>2021-10-14T20:12:55Z</time>
      </trkpt>
      <trkpt lat="46.06804" lon="4.61159">
        <ele>327</ele>
        <time>2021-10-14T20:13:00Z</time>
      </trkpt>
      <trkpt lat="46.06777" lon="4.61141">
        <ele>326</ele>
        <time>2021-10-14T20:13:05Z</time>
      </trkpt>
      <trkpt lat="46.06752" lon="4.61113">
        <ele>325</ele>
        <time>2021-10-14T20:13:11Z</time>
      </trkpt>
      <trkpt lat="46.06694" lon="4.60974">
        <ele>325</ele>
        <time>2021-10-14T20:13:31Z</time>
      </trkpt>
      <trkpt lat="46.06646" lon="4.6087">
        <ele>324</ele>
        <time>2021-10-14T20:13:46Z</time>
      </trkpt>
      <trkpt lat="46.06623" lon="4.60808">
        <ele>323</ele>
        <time>2021-10-14T20:13:55Z</time>
      </trkpt>
      <trkpt lat="46.06616" lon="4.60773">
        <ele>323</ele>
        <time>2021-10-14T20:13:59Z</time>
      </trkpt>
      <trkpt lat="46.06574" lon="4.60586">
        <ele>318</ele>
        <time>2021-10-14T20:14:24Z</time>
      </trkpt>
      <trkpt lat="46.06569" lon="4.60481">
        <ele>316</ele>
        <time>2021-10-14T20:14:37Z</time>
      </trkpt>
      <trkpt lat="46.06562" lon="4.60466">
        <ele>316</ele>
        <time>2021-10-14T20:14:39Z</time>
      </trkpt>
      <trkpt lat="46.0655" lon="4.60453">
        <ele>315</ele>
        <time>2021-10-14T20:14:42Z</time>
      </trkpt>
      <trkpt lat="46.06517" lon="4.60428">
        <ele>312</ele>
        <time>2021-10-14T20:14:48Z</time>
      </trkpt>
      <trkpt lat="46.06492" lon="4.60383">
        <ele>308</ele>
        <time>2021-10-14T20:14:55Z</time>
      </trkpt>
      <trkpt lat="46.06483" lon="4.60344">
        <ele>306</ele>
        <time>2021-10-14T20:15:00Z</time>
      </trkpt>
      <trkpt lat="46.06481" lon="4.60319">
        <ele>305</ele>
        <time>2021-10-14T20:15:04Z</time>
      </trkpt>
      <trkpt lat="46.06475" lon="4.60305">
        <ele>305</ele>
        <time>2021-10-14T20:15:06Z</time>
      </trkpt>
      <trkpt lat="46.06466" lon="4.60289">
        <ele>305</ele>
        <time>2021-10-14T20:15:08Z</time>
      </trkpt>
      <trkpt lat="46.06405" lon="4.60216">
        <ele>303</ele>
        <time>2021-10-14T20:15:22Z</time>
      </trkpt>
      <trkpt lat="46.06367" lon="4.60156">
        <ele>302</ele>
        <time>2021-10-14T20:15:32Z</time>
      </trkpt>
      <trkpt lat="46.06358" lon="4.60137">
        <ele>302</ele>
        <time>2021-10-14T20:15:35Z</time>
      </trkpt>
      <trkpt lat="46.06303" lon="4.60133">
        <ele>297</ele>
        <time>2021-10-14T20:15:45Z</time>
      </trkpt>
      <trkpt lat="46.0629" lon="4.60126">
        <ele>297</ele>
        <time>2021-10-14T20:15:47Z</time>
      </trkpt>
      <trkpt lat="46.06282" lon="4.60118">
        <ele>296</ele>
        <time>2021-10-14T20:15:49Z</time>
      </trkpt>
      <trkpt lat="46.06221" lon="4.60087">
        <ele>291</ele>
        <time>2021-10-14T20:16:01Z</time>
      </trkpt>
      <trkpt lat="46.06154" lon="4.60042">
        <ele>286</ele>
        <time>2021-10-14T20:16:14Z</time>
      </trkpt>
      <trkpt lat="46.06131" lon="4.60016">
        <ele>288</ele>
        <time>2021-10-14T20:16:19Z</time>
      </trkpt>
      <trkpt lat="46.06122" lon="4.60011">
        <ele>289</ele>
        <time>2021-10-14T20:16:21Z</time>
      </trkpt>
      <trkpt lat="46.06108" lon="4.60009">
        <ele>289</ele>
        <time>2021-10-14T20:16:23Z</time>
      </trkpt>
      <trkpt lat="46.06099" lon="4.60011">
        <ele>290</ele>
        <time>2021-10-14T20:16:25Z</time>
      </trkpt>
      <trkpt lat="46.06088" lon="4.60017">
        <ele>291</ele>
        <time>2021-10-14T20:16:27Z</time>
      </trkpt>
      <trkpt lat="46.06064" lon="4.60043">
        <ele>295</ele>
        <time>2021-10-14T20:16:32Z</time>
      </trkpt>
      <trkpt lat="46.06055" lon="4.60069">
        <ele>297</ele>
        <time>2021-10-14T20:16:36Z</time>
      </trkpt>
      <trkpt lat="46.0603" lon="4.60159">
        <ele>295</ele>
        <time>2021-10-14T20:16:48Z</time>
      </trkpt>
      <trkpt lat="46.06016" lon="4.602">
        <ele>296</ele>
        <time>2021-10-14T20:16:53Z</time>
      </trkpt>
      <trkpt lat="46.06007" lon="4.6022">
        <ele>296</ele>
        <time>2021-10-14T20:16:56Z</time>
      </trkpt>
      <trkpt lat="46.05994" lon="4.60241">
        <ele>297</ele>
        <time>2021-10-14T20:17:00Z</time>
      </trkpt>
      <trkpt lat="46.05983" lon="4.60252">
        <ele>297</ele>
        <time>2021-10-14T20:17:02Z</time>
      </trkpt>
      <trkpt lat="46.05951" lon="4.60267">
        <ele>301</ele>
        <time>2021-10-14T20:17:08Z</time>
      </trkpt>
      <trkpt lat="46.05939" lon="4.60269">
        <ele>302</ele>
        <time>2021-10-14T20:17:10Z</time>
      </trkpt>
      <trkpt lat="46.05923" lon="4.60267">
        <ele>305</ele>
        <time>2021-10-14T20:17:13Z</time>
      </trkpt>
      <trkpt lat="46.05915" lon="4.60262">
        <ele>307</ele>
        <time>2021-10-14T20:17:15Z</time>
      </trkpt>
      <trkpt lat="46.05908" lon="4.60255">
        <ele>306</ele>
        <time>2021-10-14T20:17:16Z</time>
      </trkpt>
      <trkpt lat="46.05882" lon="4.60204">
        <ele>309</ele>
        <time>2021-10-14T20:17:24Z</time>
      </trkpt>
      <trkpt lat="46.05854" lon="4.60108">
        <ele>317</ele>
        <time>2021-10-14T20:17:37Z</time>
      </trkpt>
      <trkpt lat="46.05813" lon="4.60047">
        <ele>319</ele>
        <time>2021-10-14T20:17:47Z</time>
      </trkpt>
      <trkpt lat="46.05797" lon="4.60008">
        <ele>321</ele>
        <time>2021-10-14T20:17:53Z</time>
      </trkpt>
      <trkpt lat="46.05793" lon="4.59983">
        <ele>323</ele>
        <time>2021-10-14T20:17:56Z</time>
      </trkpt>
      <trkpt lat="46.05794" lon="4.59961">
        <ele>325</ele>
        <time>2021-10-14T20:17:59Z</time>
      </trkpt>
      <trkpt lat="46.05792" lon="4.59941">
        <ele>327</ele>
        <time>2021-10-14T20:18:01Z</time>
      </trkpt>
      <trkpt lat="46.05761" lon="4.59793">
        <ele>332</ele>
        <time>2021-10-14T20:18:20Z</time>
      </trkpt>
      <trkpt lat="46.05758" lon="4.59754">
        <ele>335</ele>
        <time>2021-10-14T20:18:25Z</time>
      </trkpt>
      <trkpt lat="46.05754" lon="4.59734">
        <ele>336</ele>
        <time>2021-10-14T20:18:28Z</time>
      </trkpt>
      <trkpt lat="46.0574" lon="4.59695">
        <ele>338</ele>
        <time>2021-10-14T20:18:33Z</time>
      </trkpt>
      <trkpt lat="46.05676" lon="4.59591">
        <ele>344</ele>
        <time>2021-10-14T20:18:50Z</time>
      </trkpt>
      <trkpt lat="46.05657" lon="4.59551">
        <ele>346</ele>
        <time>2021-10-14T20:18:56Z</time>
      </trkpt>
      <trkpt lat="46.0565" lon="4.59516">
        <ele>349</ele>
        <time>2021-10-14T20:19:01Z</time>
      </trkpt>
      <trkpt lat="46.05642" lon="4.59418">
        <ele>352</ele>
        <time>2021-10-14T20:19:13Z</time>
      </trkpt>
      <trkpt lat="46.05635" lon="4.5935">
        <ele>357</ele>
        <time>2021-10-14T20:19:22Z</time>
      </trkpt>
      <trkpt lat="46.05633" lon="4.59293">
        <ele>361</ele>
        <time>2021-10-14T20:19:29Z</time>
      </trkpt>
      <trkpt lat="46.0563" lon="4.59269">
        <ele>363</ele>
        <time>2021-10-14T20:19:32Z</time>
      </trkpt>
      <trkpt lat="46.0561" lon="4.59192">
        <ele>364</ele>
        <time>2021-10-14T20:19:42Z</time>
      </trkpt>
      <trkpt lat="46.05609" lon="4.59179">
        <ele>365</ele>
        <time>2021-10-14T20:19:43Z</time>
      </trkpt>
      <trkpt lat="46.0562" lon="4.59175">
        <ele>368</ele>
        <time>2021-10-14T20:19:45Z</time>
      </trkpt>
      <trkpt lat="46.05609" lon="4.59179">
        <ele>365</ele>
        <time>2021-10-14T20:19:47Z</time>
      </trkpt>
      <trkpt lat="46.056" lon="4.59145">
        <ele>365</ele>
        <time>2021-10-14T20:19:52Z</time>
      </trkpt>
      <trkpt lat="46.05564" lon="4.59053">
        <ele>359</ele>
        <time>2021-10-14T20:20:05Z</time>
      </trkpt>
      <trkpt lat="46.05546" lon="4.58991">
        <ele>356</ele>
        <time>2021-10-14T20:20:13Z</time>
      </trkpt>
      <trkpt lat="46.05524" lon="4.58937">
        <ele>353</ele>
        <time>2021-10-14T20:20:21Z</time>
      </trkpt>
      <trkpt lat="46.05512" lon="4.589">
        <ele>351</ele>
        <time>2021-10-14T20:20:26Z</time>
      </trkpt>
      <trkpt lat="46.05488" lon="4.5875">
        <ele>351</ele>
        <time>2021-10-14T20:20:45Z</time>
      </trkpt>
      <trkpt lat="46.05469" lon="4.58729">
        <ele>350</ele>
        <time>2021-10-14T20:20:49Z</time>
      </trkpt>
      <trkpt lat="46.0543" lon="4.58727">
        <ele>342</ele>
        <time>2021-10-14T20:20:56Z</time>
      </trkpt>
      <trkpt lat="46.05412" lon="4.58715">
        <ele>339</ele>
        <time>2021-10-14T20:21:00Z</time>
      </trkpt>
      <trkpt lat="46.05387" lon="4.58688">
        <ele>337</ele>
        <time>2021-10-14T20:21:05Z</time>
      </trkpt>
      <trkpt lat="46.05359" lon="4.5862">
        <ele>339</ele>
        <time>2021-10-14T20:21:15Z</time>
      </trkpt>
      <trkpt lat="46.05349" lon="4.58602">
        <ele>340</ele>
        <time>2021-10-14T20:21:18Z</time>
      </trkpt>
      <trkpt lat="46.05315" lon="4.58581">
        <ele>336</ele>
        <time>2021-10-14T20:21:25Z</time>
      </trkpt>
      <trkpt lat="46.05274" lon="4.58551">
        <ele>333</ele>
        <time>2021-10-14T20:21:33Z</time>
      </trkpt>
      <trkpt lat="46.05237" lon="4.58514">
        <ele>331</ele>
        <time>2021-10-14T20:21:41Z</time>
      </trkpt>
      <trkpt lat="46.05186" lon="4.58478">
        <ele>325</ele>
        <time>2021-10-14T20:21:51Z</time>
      </trkpt>
      <trkpt lat="46.05154" lon="4.58431">
        <ele>325</ele>
        <time>2021-10-14T20:21:59Z</time>
      </trkpt>
      <trkpt lat="46.05146" lon="4.58408">
        <ele>325</ele>
        <time>2021-10-14T20:22:02Z</time>
      </trkpt>
      <trkpt lat="46.05137" lon="4.58351">
        <ele>327</ele>
        <time>2021-10-14T20:22:09Z</time>
      </trkpt>
      <trkpt lat="46.05129" lon="4.58327">
        <ele>327</ele>
        <time>2021-10-14T20:22:13Z</time>
      </trkpt>
      <trkpt lat="46.05096" lon="4.58243">
        <ele>329</ele>
        <time>2021-10-14T20:22:25Z</time>
      </trkpt>
      <trkpt lat="46.05065" lon="4.58148">
        <ele>332</ele>
        <time>2021-10-14T20:22:38Z</time>
      </trkpt>
      <trkpt lat="46.05064" lon="4.58117">
        <ele>335</ele>
        <time>2021-10-14T20:22:41Z</time>
      </trkpt>
      <trkpt lat="46.05059" lon="4.58086">
        <ele>338</ele>
        <time>2021-10-14T20:22:45Z</time>
      </trkpt>
      <trkpt lat="46.05038" lon="4.58023">
        <ele>339</ele>
        <time>2021-10-14T20:22:54Z</time>
      </trkpt>
      <trkpt lat="46.05009" lon="4.5793">
        <ele>344</ele>
        <time>2021-10-14T20:23:07Z</time>
      </trkpt>
      <trkpt lat="46.04997" lon="4.57896">
        <ele>345</ele>
        <time>2021-10-14T20:23:11Z</time>
      </trkpt>
      <trkpt lat="46.04966" lon="4.57863">
        <ele>344</ele>
        <time>2021-10-14T20:23:18Z</time>
      </trkpt>
      <trkpt lat="46.0495" lon="4.5785">
        <ele>342</ele>
        <time>2021-10-14T20:23:21Z</time>
      </trkpt>
      <trkpt lat="46.04897" lon="4.57827">
        <ele>339</ele>
        <time>2021-10-14T20:23:31Z</time>
      </trkpt>
      <trkpt lat="46.0488" lon="4.57813">
        <ele>340</ele>
        <time>2021-10-14T20:23:35Z</time>
      </trkpt>
      <trkpt lat="46.04864" lon="4.57785">
        <ele>341</ele>
        <time>2021-10-14T20:23:39Z</time>
      </trkpt>
      <trkpt lat="46.04861" lon="4.57786">
        <ele>341</ele>
        <time>2021-10-14T20:23:40Z</time>
      </trkpt>
      <trkpt lat="46.04854" lon="4.57789">
        <ele>340</ele>
        <time>2021-10-14T20:23:41Z</time>
      </trkpt>
      <trkpt lat="46.04796" lon="4.57822">
        <ele>340</ele>
        <time>2021-10-14T20:23:52Z</time>
      </trkpt>
      <trkpt lat="46.04792" lon="4.57821">
        <ele>340</ele>
        <time>2021-10-14T20:23:53Z</time>
      </trkpt>
      <trkpt lat="46.04788" lon="4.57814">
        <ele>341</ele>
        <time>2021-10-14T20:23:54Z</time>
      </trkpt>
      <trkpt lat="46.0479" lon="4.57803">
        <ele>342</ele>
        <time>2021-10-14T20:23:55Z</time>
      </trkpt>
      <trkpt lat="46.04803" lon="4.57773">
        <ele>343</ele>
        <time>2021-10-14T20:24:00Z</time>
      </trkpt>
      <trkpt lat="46.04806" lon="4.57762">
        <ele>343</ele>
        <time>2021-10-14T20:24:01Z</time>
      </trkpt>
      <trkpt lat="46.04806" lon="4.57721">
        <ele>346</ele>
        <time>2021-10-14T20:24:06Z</time>
      </trkpt>
      <trkpt lat="46.04801" lon="4.57698">
        <ele>348</ele>
        <time>2021-10-14T20:24:09Z</time>
      </trkpt>
      <trkpt lat="46.04786" lon="4.57662">
        <ele>352</ele>
        <time>2021-10-14T20:24:14Z</time>
      </trkpt>
      <trkpt lat="46.04776" lon="4.57649">
        <ele>353</ele>
        <time>2021-10-14T20:24:17Z</time>
      </trkpt>
      <trkpt lat="46.04742" lon="4.57623">
        <ele>356</ele>
        <time>2021-10-14T20:24:24Z</time>
      </trkpt>
      <trkpt lat="46.0473" lon="4.57604">
        <ele>358</ele>
        <time>2021-10-14T20:24:27Z</time>
      </trkpt>
      <trkpt lat="46.04713" lon="4.5757">
        <ele>361</ele>
        <time>2021-10-14T20:24:32Z</time>
      </trkpt>
      <trkpt lat="46.04707" lon="4.57554">
        <ele>362</ele>
        <time>2021-10-14T20:24:34Z</time>
      </trkpt>
      <trkpt lat="46.04695" lon="4.57509">
        <ele>364</ele>
        <time>2021-10-14T20:24:40Z</time>
      </trkpt>
      <trkpt lat="46.04688" lon="4.57476">
        <ele>364</ele>
        <time>2021-10-14T20:24:45Z</time>
      </trkpt>
      <trkpt lat="46.04681" lon="4.57454">
        <ele>364</ele>
        <time>2021-10-14T20:24:48Z</time>
      </trkpt>
      <trkpt lat="46.04664" lon="4.57419">
        <ele>366</ele>
        <time>2021-10-14T20:24:53Z</time>
      </trkpt>
      <trkpt lat="46.04645" lon="4.57403">
        <ele>369</ele>
        <time>2021-10-14T20:24:57Z</time>
      </trkpt>
      <trkpt lat="46.04633" lon="4.57398">
        <ele>371</ele>
        <time>2021-10-14T20:24:59Z</time>
      </trkpt>
      <trkpt lat="46.04605" lon="4.57395">
        <ele>377</ele>
        <time>2021-10-14T20:25:04Z</time>
      </trkpt>
      <trkpt lat="46.04592" lon="4.57391">
        <ele>380</ele>
        <time>2021-10-14T20:25:06Z</time>
      </trkpt>
      <trkpt lat="46.04578" lon="4.57384">
        <ele>383</ele>
        <time>2021-10-14T20:25:09Z</time>
      </trkpt>
      <trkpt lat="46.04552" lon="4.5736">
        <ele>386</ele>
        <time>2021-10-14T20:25:14Z</time>
      </trkpt>
      <trkpt lat="46.04535" lon="4.57338">
        <ele>389</ele>
        <time>2021-10-14T20:25:18Z</time>
      </trkpt>
      <trkpt lat="46.04519" lon="4.57324">
        <ele>392</ele>
        <time>2021-10-14T20:25:22Z</time>
      </trkpt>
      <trkpt lat="46.04471" lon="4.57283">
        <ele>402</ele>
        <time>2021-10-14T20:25:32Z</time>
      </trkpt>
      <trkpt lat="46.04468" lon="4.57275">
        <ele>403</ele>
        <time>2021-10-14T20:25:33Z</time>
      </trkpt>
      <trkpt lat="46.04468" lon="4.57267">
        <ele>403</ele>
        <time>2021-10-14T20:25:34Z</time>
      </trkpt>
      <trkpt lat="46.04472" lon="4.57259">
        <ele>403</ele>
        <time>2021-10-14T20:25:35Z</time>
      </trkpt>
      <trkpt lat="46.0448" lon="4.57254">
        <ele>401</ele>
        <time>2021-10-14T20:25:37Z</time>
      </trkpt>
      <trkpt lat="46.04525" lon="4.57247">
        <ele>394</ele>
        <time>2021-10-14T20:25:45Z</time>
      </trkpt>
      <trkpt lat="46.04532" lon="4.57245">
        <ele>393</ele>
        <time>2021-10-14T20:25:46Z</time>
      </trkpt>
      <trkpt lat="46.04539" lon="4.57238">
        <ele>392</ele>
        <time>2021-10-14T20:25:47Z</time>
      </trkpt>
      <trkpt lat="46.04543" lon="4.57227">
        <ele>392</ele>
        <time>2021-10-14T20:25:49Z</time>
      </trkpt>
      <trkpt lat="46.04545" lon="4.57215">
        <ele>393</ele>
        <time>2021-10-14T20:25:51Z</time>
      </trkpt>
      <trkpt lat="46.04543" lon="4.57163">
        <ele>397</ele>
        <time>2021-10-14T20:25:57Z</time>
      </trkpt>
      <trkpt lat="46.04537" lon="4.57131">
        <ele>400</ele>
        <time>2021-10-14T20:26:01Z</time>
      </trkpt>
      <trkpt lat="46.04489" lon="4.57008">
        <ele>413</ele>
        <time>2021-10-14T20:26:18Z</time>
      </trkpt>
      <trkpt lat="46.04481" lon="4.56992">
        <ele>413</ele>
        <time>2021-10-14T20:26:21Z</time>
      </trkpt>
      <trkpt lat="46.04469" lon="4.56979">
        <ele>414</ele>
        <time>2021-10-14T20:26:24Z</time>
      </trkpt>
      <trkpt lat="46.04453" lon="4.56965">
        <ele>416</ele>
        <time>2021-10-14T20:26:27Z</time>
      </trkpt>
      <trkpt lat="46.04388" lon="4.56928">
        <ele>426</ele>
        <time>2021-10-14T20:26:39Z</time>
      </trkpt>
      <trkpt lat="46.0435" lon="4.56903">
        <ele>430</ele>
        <time>2021-10-14T20:26:47Z</time>
      </trkpt>
      <trkpt lat="46.04284" lon="4.56847">
        <ele>432</ele>
        <time>2021-10-14T20:27:00Z</time>
      </trkpt>
      <trkpt lat="46.04266" lon="4.56836">
        <ele>434</ele>
        <time>2021-10-14T20:27:04Z</time>
      </trkpt>
      <trkpt lat="46.04261" lon="4.56834">
        <ele>435</ele>
        <time>2021-10-14T20:27:05Z</time>
      </trkpt>
      <trkpt lat="46.04251" lon="4.56835">
        <ele>437</ele>
        <time>2021-10-14T20:27:07Z</time>
      </trkpt>
      <trkpt lat="46.04237" lon="4.56844">
        <ele>441</ele>
        <time>2021-10-14T20:27:09Z</time>
      </trkpt>
      <trkpt lat="46.04212" lon="4.56867">
        <ele>448</ele>
        <time>2021-10-14T20:27:15Z</time>
      </trkpt>
      <trkpt lat="46.04203" lon="4.56871">
        <ele>450</ele>
        <time>2021-10-14T20:27:16Z</time>
      </trkpt>
      <trkpt lat="46.04193" lon="4.56871">
        <ele>451</ele>
        <time>2021-10-14T20:27:18Z</time>
      </trkpt>
      <trkpt lat="46.04182" lon="4.56866">
        <ele>451</ele>
        <time>2021-10-14T20:27:20Z</time>
      </trkpt>
      <trkpt lat="46.04171" lon="4.56856">
        <ele>451</ele>
        <time>2021-10-14T20:27:22Z</time>
      </trkpt>
      <trkpt lat="46.04163" lon="4.56845">
        <ele>450</ele>
        <time>2021-10-14T20:27:24Z</time>
      </trkpt>
      <trkpt lat="46.04156" lon="4.5683">
        <ele>449</ele>
        <time>2021-10-14T20:27:27Z</time>
      </trkpt>
      <trkpt lat="46.04145" lon="4.56791">
        <ele>445</ele>
        <time>2021-10-14T20:27:32Z</time>
      </trkpt>
      <trkpt lat="46.04139" lon="4.56782">
        <ele>444</ele>
        <time>2021-10-14T20:27:33Z</time>
      </trkpt>
      <trkpt lat="46.04115" lon="4.56769">
        <ele>446</ele>
        <time>2021-10-14T20:27:38Z</time>
      </trkpt>
      <trkpt lat="46.041" lon="4.56769">
        <ele>448</ele>
        <time>2021-10-14T20:27:41Z</time>
      </trkpt>
      <trkpt lat="46.04077" lon="4.56773">
        <ele>451</ele>
        <time>2021-10-14T20:27:45Z</time>
      </trkpt>
      <trkpt lat="46.04068" lon="4.56777">
        <ele>451</ele>
        <time>2021-10-14T20:27:46Z</time>
      </trkpt>
      <trkpt lat="46.0406" lon="4.56785">
        <ele>453</ele>
        <time>2021-10-14T20:27:48Z</time>
      </trkpt>
      <trkpt lat="46.04042" lon="4.56809">
        <ele>457</ele>
        <time>2021-10-14T20:27:52Z</time>
      </trkpt>
      <trkpt lat="46.04015" lon="4.56836">
        <ele>463</ele>
        <time>2021-10-14T20:27:58Z</time>
      </trkpt>
      <trkpt lat="46.03928" lon="4.56862">
        <ele>468</ele>
        <time>2021-10-14T20:28:14Z</time>
      </trkpt>
      <trkpt lat="46.03906" lon="4.56874">
        <ele>470</ele>
        <time>2021-10-14T20:28:18Z</time>
      </trkpt>
      <trkpt lat="46.0385" lon="4.56928">
        <ele>480</ele>
        <time>2021-10-14T20:28:30Z</time>
      </trkpt>
      <trkpt lat="46.03835" lon="4.56937">
        <ele>482</ele>
        <time>2021-10-14T20:28:33Z</time>
      </trkpt>
      <trkpt lat="46.03802" lon="4.56949">
        <ele>485</ele>
        <time>2021-10-14T20:28:39Z</time>
      </trkpt>
      <trkpt lat="46.03646" lon="4.5698">
        <ele>497</ele>
        <time>2021-10-14T20:29:07Z</time>
      </trkpt>
      <trkpt lat="46.03569" lon="4.5698">
        <ele>502</ele>
        <time>2021-10-14T20:29:21Z</time>
      </trkpt>
      <trkpt lat="46.03496" lon="4.57015">
        <ele>510</ele>
        <time>2021-10-14T20:29:35Z</time>
      </trkpt>
      <trkpt lat="46.03428" lon="4.57058">
        <ele>517</ele>
        <time>2021-10-14T20:29:48Z</time>
      </trkpt>
      <trkpt lat="46.03404" lon="4.57069">
        <ele>521</ele>
        <time>2021-10-14T20:29:52Z</time>
      </trkpt>
      <trkpt lat="46.03382" lon="4.57048">
        <ele>527</ele>
        <time>2021-10-14T20:29:57Z</time>
      </trkpt>
      <trkpt lat="46.03333" lon="4.56898">
        <ele>543</ele>
        <time>2021-10-14T20:30:18Z</time>
      </trkpt>
      <trkpt lat="46.03307" lon="4.56808">
        <ele>551</ele>
        <time>2021-10-14T20:30:30Z</time>
      </trkpt>
      <trkpt lat="46.03293" lon="4.56774">
        <ele>552</ele>
        <time>2021-10-14T20:30:34Z</time>
      </trkpt>
      <trkpt lat="46.0326" lon="4.56721">
        <ele>554</ele>
        <time>2021-10-14T20:30:43Z</time>
      </trkpt>
      <trkpt lat="46.03218" lon="4.56694">
        <ele>560</ele>
        <time>2021-10-14T20:30:51Z</time>
      </trkpt>
      <trkpt lat="46.03187" lon="4.56661">
        <ele>563</ele>
        <time>2021-10-14T20:30:58Z</time>
      </trkpt>
      <trkpt lat="46.03139" lon="4.56639">
        <ele>568</ele>
        <time>2021-10-14T20:31:07Z</time>
      </trkpt>
      <trkpt lat="46.03068" lon="4.56631">
        <ele>572</ele>
        <time>2021-10-14T20:31:20Z</time>
      </trkpt>
      <trkpt lat="46.0296" lon="4.56654">
        <ele>581</ele>
        <time>2021-10-14T20:31:39Z</time>
      </trkpt>
      <trkpt lat="46.02793" lon="4.56697">
        <ele>597</ele>
        <time>2021-10-14T20:32:10Z</time>
      </trkpt>
      <trkpt lat="46.02766" lon="4.56691">
        <ele>599</ele>
        <time>2021-10-14T20:32:14Z</time>
      </trkpt>
      <trkpt lat="46.02744" lon="4.56684">
        <ele>600</ele>
        <time>2021-10-14T20:32:18Z</time>
      </trkpt>
      <trkpt lat="46.02725" lon="4.56662">
        <ele>600</ele>
        <time>2021-10-14T20:32:23Z</time>
      </trkpt>
      <trkpt lat="46.02696" lon="4.56645">
        <ele>606</ele>
        <time>2021-10-14T20:32:28Z</time>
      </trkpt>
      <trkpt lat="46.02677" lon="4.56622">
        <ele>608</ele>
        <time>2021-10-14T20:32:33Z</time>
      </trkpt>
      <trkpt lat="46.02655" lon="4.56558">
        <ele>605</ele>
        <time>2021-10-14T20:32:42Z</time>
      </trkpt>
      <trkpt lat="46.02635" lon="4.56526">
        <ele>606</ele>
        <time>2021-10-14T20:32:47Z</time>
      </trkpt>
      <trkpt lat="46.02583" lon="4.5647">
        <ele>611</ele>
        <time>2021-10-14T20:32:58Z</time>
      </trkpt>
      <trkpt lat="46.02573" lon="4.56449">
        <ele>613</ele>
        <time>2021-10-14T20:33:02Z</time>
      </trkpt>
      <trkpt lat="46.02562" lon="4.56396">
        <ele>612</ele>
        <time>2021-10-14T20:33:08Z</time>
      </trkpt>
      <trkpt lat="46.02533" lon="4.56307">
        <ele>616</ele>
        <time>2021-10-14T20:33:21Z</time>
      </trkpt>
      <trkpt lat="46.02475" lon="4.56239">
        <ele>619</ele>
        <time>2021-10-14T20:33:34Z</time>
      </trkpt>
      <trkpt lat="46.02481" lon="4.56227">
        <ele>621</ele>
        <time>2021-10-14T20:33:36Z</time>
      </trkpt>
      <trkpt lat="46.02468" lon="4.56228">
        <ele>619</ele>
        <time>2021-10-14T20:33:38Z</time>
      </trkpt>
      <trkpt lat="46.02461" lon="4.56233">
        <ele>618</ele>
        <time>2021-10-14T20:33:39Z</time>
      </trkpt>
      <trkpt lat="46.02417" lon="4.56296">
        <ele>614</ele>
        <time>2021-10-14T20:33:50Z</time>
      </trkpt>
      <trkpt lat="46.02393" lon="4.56326">
        <ele>609</ele>
        <time>2021-10-14T20:33:56Z</time>
      </trkpt>
      <trkpt lat="46.02345" lon="4.56377">
        <ele>602</ele>
        <time>2021-10-14T20:34:07Z</time>
      </trkpt>
      <trkpt lat="46.02327" lon="4.56395">
        <ele>601</ele>
        <time>2021-10-14T20:34:11Z</time>
      </trkpt>
      <trkpt lat="46.02273" lon="4.56431">
        <ele>593</ele>
        <time>2021-10-14T20:34:21Z</time>
      </trkpt>
      <trkpt lat="46.02166" lon="4.56498">
        <ele>578</ele>
        <time>2021-10-14T20:34:42Z</time>
      </trkpt>
      <trkpt lat="46.02086" lon="4.56569">
        <ele>566</ele>
        <time>2021-10-14T20:34:59Z</time>
      </trkpt>
      <trkpt lat="46.02065" lon="4.5658">
        <ele>563</ele>
        <time>2021-10-14T20:35:03Z</time>
      </trkpt>
      <trkpt lat="46.02054" lon="4.56583">
        <ele>561</ele>
        <time>2021-10-14T20:35:05Z</time>
      </trkpt>
      <trkpt lat="46.0205" lon="4.56566">
        <ele>558</ele>
        <time>2021-10-14T20:35:07Z</time>
      </trkpt>
      <trkpt lat="46.02061" lon="4.56538">
        <ele>557</ele>
        <time>2021-10-14T20:35:11Z</time>
      </trkpt>
      <trkpt lat="46.02084" lon="4.56486">
        <ele>556</ele>
        <time>2021-10-14T20:35:18Z</time>
      </trkpt>
      <trkpt lat="46.02184" lon="4.56327">
        <ele>550</ele>
        <time>2021-10-14T20:35:45Z</time>
      </trkpt>
      <trkpt lat="46.02206" lon="4.56297">
        <ele>554</ele>
        <time>2021-10-14T20:35:50Z</time>
      </trkpt>
      <trkpt lat="46.02205" lon="4.56289">
        <ele>554</ele>
        <time>2021-10-14T20:35:51Z</time>
      </trkpt>
      <trkpt lat="46.02176" lon="4.56267">
        <ele>550</ele>
        <time>2021-10-14T20:35:57Z</time>
      </trkpt>
      <trkpt lat="46.02155" lon="4.5626">
        <ele>547</ele>
        <time>2021-10-14T20:36:01Z</time>
      </trkpt>
      <trkpt lat="46.02127" lon="4.56254">
        <ele>543</ele>
        <time>2021-10-14T20:36:06Z</time>
      </trkpt>
      <trkpt lat="46.02079" lon="4.5622">
        <ele>542</ele>
        <time>2021-10-14T20:36:16Z</time>
      </trkpt>
      <trkpt lat="46.02074" lon="4.56218">
        <ele>542</ele>
        <time>2021-10-14T20:36:16Z</time>
      </trkpt>
      <trkpt lat="46.02068" lon="4.56217">
        <ele>542</ele>
        <time>2021-10-14T20:36:18Z</time>
      </trkpt>
      <trkpt lat="46.02063" lon="4.56228">
        <ele>540</ele>
        <time>2021-10-14T20:36:19Z</time>
      </trkpt>
      <trkpt lat="46.02057" lon="4.56234">
        <ele>539</ele>
        <time>2021-10-14T20:36:20Z</time>
      </trkpt>
      <trkpt lat="46.02019" lon="4.56291">
        <ele>532</ele>
        <time>2021-10-14T20:36:30Z</time>
      </trkpt>
      <trkpt lat="46.01999" lon="4.56309">
        <ele>529</ele>
        <time>2021-10-14T20:36:34Z</time>
      </trkpt>
      <trkpt lat="46.01951" lon="4.56323">
        <ele>524</ele>
        <time>2021-10-14T20:36:43Z</time>
      </trkpt>
      <trkpt lat="46.01931" lon="4.5634">
        <ele>520</ele>
        <time>2021-10-14T20:36:47Z</time>
      </trkpt>
      <trkpt lat="46.0194" lon="4.56361">
        <ele>520</ele>
        <time>2021-10-14T20:36:50Z</time>
      </trkpt>
      <trkpt lat="46.01963" lon="4.56378">
        <ele>523</ele>
        <time>2021-10-14T20:36:55Z</time>
      </trkpt>
      <trkpt lat="46.01965" lon="4.56383">
        <ele>523</ele>
        <time>2021-10-14T20:36:56Z</time>
      </trkpt>
      <trkpt lat="46.01964" lon="4.56387">
        <ele>523</ele>
        <time>2021-10-14T20:36:56Z</time>
      </trkpt>
      <trkpt lat="46.01935" lon="4.56417">
        <ele>517</ele>
        <time>2021-10-14T20:37:03Z</time>
      </trkpt>
      <trkpt lat="46.01855" lon="4.56486">
        <ele>508</ele>
        <time>2021-10-14T20:37:19Z</time>
      </trkpt>
      <trkpt lat="46.01814" lon="4.56551">
        <ele>502</ele>
        <time>2021-10-14T20:37:30Z</time>
      </trkpt>
      <trkpt lat="46.01801" lon="4.56584">
        <ele>502</ele>
        <time>2021-10-14T20:37:35Z</time>
      </trkpt>
      <trkpt lat="46.01799" lon="4.56766">
        <ele>493</ele>
        <time>2021-10-14T20:37:57Z</time>
      </trkpt>
      <trkpt lat="46.01791" lon="4.56894">
        <ele>487</ele>
        <time>2021-10-14T20:38:13Z</time>
      </trkpt>
      <trkpt lat="46.01802" lon="4.5695">
        <ele>486</ele>
        <time>2021-10-14T20:38:20Z</time>
      </trkpt>
      <trkpt lat="46.01782" lon="4.56971">
        <ele>483</ele>
        <time>2021-10-14T20:38:25Z</time>
      </trkpt>
      <trkpt lat="46.01713" lon="4.57117">
        <ele>474</ele>
        <time>2021-10-14T20:38:46Z</time>
      </trkpt>
      <trkpt lat="46.01694" lon="4.57145">
        <ele>471</ele>
        <time>2021-10-14T20:38:51Z</time>
      </trkpt>
      <trkpt lat="46.01652" lon="4.5722">
        <ele>467</ele>
        <time>2021-10-14T20:39:03Z</time>
      </trkpt>
      <trkpt lat="46.01615" lon="4.57263">
        <ele>464</ele>
        <time>2021-10-14T20:39:12Z</time>
      </trkpt>
      <trkpt lat="46.0159" lon="4.57279">
        <ele>460</ele>
        <time>2021-10-14T20:39:17Z</time>
      </trkpt>
      <trkpt lat="46.01563" lon="4.57301">
        <ele>460</ele>
        <time>2021-10-14T20:39:22Z</time>
      </trkpt>
      <trkpt lat="46.0154" lon="4.57325">
        <ele>458</ele>
        <time>2021-10-14T20:39:27Z</time>
      </trkpt>
      <trkpt lat="46.01499" lon="4.57404">
        <ele>453</ele>
        <time>2021-10-14T20:39:39Z</time>
      </trkpt>
      <trkpt lat="46.01477" lon="4.57432">
        <ele>453</ele>
        <time>2021-10-14T20:39:45Z</time>
      </trkpt>
      <trkpt lat="46.01464" lon="4.57455">
        <ele>453</ele>
        <time>2021-10-14T20:39:48Z</time>
      </trkpt>
      <trkpt lat="46.01436" lon="4.57478">
        <ele>449</ele>
        <time>2021-10-14T20:39:54Z</time>
      </trkpt>
      <trkpt lat="46.014" lon="4.57518">
        <ele>447</ele>
        <time>2021-10-14T20:40:02Z</time>
      </trkpt>
      <trkpt lat="46.01343" lon="4.57601">
        <ele>444</ele>
        <time>2021-10-14T20:40:16Z</time>
      </trkpt>
      <trkpt lat="46.01317" lon="4.57646">
        <ele>445</ele>
        <time>2021-10-14T20:40:24Z</time>
      </trkpt>
      <trkpt lat="46.01299" lon="4.57697">
        <ele>445</ele>
        <time>2021-10-14T20:40:31Z</time>
      </trkpt>
      <trkpt lat="46.01282" lon="4.57738">
        <ele>443</ele>
        <time>2021-10-14T20:40:37Z</time>
      </trkpt>
      <trkpt lat="46.0116" lon="4.57933">
        <ele>432</ele>
        <time>2021-10-14T20:41:09Z</time>
      </trkpt>
      <trkpt lat="46.01134" lon="4.57969">
        <ele>432</ele>
        <time>2021-10-14T20:41:15Z</time>
      </trkpt>
      <trkpt lat="46.01061" lon="4.58141">
        <ele>421</ele>
        <time>2021-10-14T20:41:40Z</time>
      </trkpt>
      <trkpt lat="46.01049" lon="4.58228">
        <ele>420</ele>
        <time>2021-10-14T20:41:51Z</time>
      </trkpt>
      <trkpt lat="46.01057" lon="4.58317">
        <ele>419</ele>
        <time>2021-10-14T20:42:02Z</time>
      </trkpt>
      <trkpt lat="46.01055" lon="4.58337">
        <ele>418</ele>
        <time>2021-10-14T20:42:05Z</time>
      </trkpt>
      <trkpt lat="46.01039" lon="4.5838">
        <ele>411</ele>
        <time>2021-10-14T20:42:11Z</time>
      </trkpt>
      <trkpt lat="46.01031" lon="4.58414">
        <ele>406</ele>
        <time>2021-10-14T20:42:15Z</time>
      </trkpt>
      <trkpt lat="46.01012" lon="4.58517">
        <ele>402</ele>
        <time>2021-10-14T20:42:29Z</time>
      </trkpt>
      <trkpt lat="46.01009" lon="4.58529">
        <ele>403</ele>
        <time>2021-10-14T20:42:30Z</time>
      </trkpt>
      <trkpt lat="46.00982" lon="4.58565">
        <ele>404</ele>
        <time>2021-10-14T20:42:37Z</time>
      </trkpt>
      <trkpt lat="46.00959" lon="4.58607">
        <ele>405</ele>
        <time>2021-10-14T20:42:43Z</time>
      </trkpt>
      <trkpt lat="46.0094" lon="4.58625">
        <ele>404</ele>
        <time>2021-10-14T20:42:47Z</time>
      </trkpt>
      <trkpt lat="46.00938" lon="4.58635">
        <ele>405</ele>
        <time>2021-10-14T20:42:49Z</time>
      </trkpt>
      <trkpt lat="46.00925" lon="4.58652">
        <ele>404</ele>
        <time>2021-10-14T20:42:52Z</time>
      </trkpt>
      <trkpt lat="46.00922" lon="4.58665">
        <ele>404</ele>
        <time>2021-10-14T20:42:53Z</time>
      </trkpt>
      <trkpt lat="46.00903" lon="4.58685">
        <ele>403</ele>
        <time>2021-10-14T20:42:58Z</time>
      </trkpt>
      <trkpt lat="46.00892" lon="4.58708">
        <ele>404</ele>
        <time>2021-10-14T20:43:01Z</time>
      </trkpt>
      <trkpt lat="46.00842" lon="4.58788">
        <ele>399</ele>
        <time>2021-10-14T20:43:14Z</time>
      </trkpt>
      <trkpt lat="46.00792" lon="4.58864">
        <ele>399</ele>
        <time>2021-10-14T20:43:27Z</time>
      </trkpt>
      <trkpt lat="46.00767" lon="4.58894">
        <ele>396</ele>
        <time>2021-10-14T20:43:33Z</time>
      </trkpt>
      <trkpt lat="46.00755" lon="4.58922">
        <ele>395</ele>
        <time>2021-10-14T20:43:37Z</time>
      </trkpt>
      <trkpt lat="46.00717" lon="4.58963">
        <ele>396</ele>
        <time>2021-10-14T20:43:46Z</time>
      </trkpt>
      <trkpt lat="46.00624" lon="4.59031">
        <ele>383</ele>
        <time>2021-10-14T20:44:04Z</time>
      </trkpt>
      <trkpt lat="46.00606" lon="4.59053">
        <ele>380</ele>
        <time>2021-10-14T20:44:08Z</time>
      </trkpt>
      <trkpt lat="46.00599" lon="4.59079">
        <ele>379</ele>
        <time>2021-10-14T20:44:12Z</time>
      </trkpt>
      <trkpt lat="46.00605" lon="4.5915">
        <ele>380</ele>
        <time>2021-10-14T20:44:21Z</time>
      </trkpt>
      <trkpt lat="46.00601" lon="4.59178">
        <ele>378</ele>
        <time>2021-10-14T20:44:24Z</time>
      </trkpt>
      <trkpt lat="46.0059" lon="4.59215">
        <ele>373</ele>
        <time>2021-10-14T20:44:29Z</time>
      </trkpt>
      <trkpt lat="46.00584" lon="4.59243">
        <ele>371</ele>
        <time>2021-10-14T20:44:33Z</time>
      </trkpt>
      <trkpt lat="46.0058" lon="4.59275">
        <ele>370</ele>
        <time>2021-10-14T20:44:37Z</time>
      </trkpt>
      <trkpt lat="46.00586" lon="4.59307">
        <ele>368</ele>
        <time>2021-10-14T20:44:41Z</time>
      </trkpt>
      <trkpt lat="46.0061" lon="4.59364">
        <ele>373</ele>
        <time>2021-10-14T20:44:49Z</time>
      </trkpt>
      <trkpt lat="46.00624" lon="4.59548">
        <ele>371</ele>
        <time>2021-10-14T20:45:12Z</time>
      </trkpt>
      <trkpt lat="46.00612" lon="4.59847">
        <ele>347</ele>
        <time>2021-10-14T20:45:49Z</time>
      </trkpt>
      <trkpt lat="46.00611" lon="4.59855">
        <ele>347</ele>
        <time>2021-10-14T20:45:50Z</time>
      </trkpt>
      <trkpt lat="46.00609" lon="4.59955">
        <ele>344</ele>
        <time>2021-10-14T20:46:02Z</time>
      </trkpt>
      <trkpt lat="46.00606" lon="4.59972">
        <ele>343</ele>
        <time>2021-10-14T20:46:05Z</time>
      </trkpt>
      <trkpt lat="46.00606" lon="4.59988">
        <ele>342</ele>
        <time>2021-10-14T20:46:07Z</time>
      </trkpt>
      <trkpt lat="46.00608" lon="4.60005">
        <ele>342</ele>
        <time>2021-10-14T20:46:09Z</time>
      </trkpt>
      <trkpt lat="46.00607" lon="4.60061">
        <ele>341</ele>
        <time>2021-10-14T20:46:16Z</time>
      </trkpt>
      <trkpt lat="46.00607" lon="4.60065">
        <ele>341</ele>
        <time>2021-10-14T20:46:16Z</time>
      </trkpt>
      <trkpt lat="46.00606" lon="4.60107">
        <ele>341</ele>
        <time>2021-10-14T20:46:21Z</time>
      </trkpt>
      <trkpt lat="46.00603" lon="4.60148">
        <ele>341</ele>
        <time>2021-10-14T20:46:26Z</time>
      </trkpt>
      <trkpt lat="46.0059" lon="4.60192">
        <ele>339</ele>
        <time>2021-10-14T20:46:32Z</time>
      </trkpt>
      <trkpt lat="46.00603" lon="4.60148">
        <ele>341</ele>
        <time>2021-10-14T20:46:38Z</time>
      </trkpt>
      <trkpt lat="46.00606" lon="4.60107">
        <ele>341</ele>
        <time>2021-10-14T20:46:43Z</time>
      </trkpt>
      <trkpt lat="46.00607" lon="4.60065">
        <ele>341</ele>
        <time>2021-10-14T20:46:49Z</time>
      </trkpt>
      <trkpt lat="46.00607" lon="4.60061">
        <ele>341</ele>
        <time>2021-10-14T20:46:49Z</time>
      </trkpt>
      <trkpt lat="46.00608" lon="4.60005">
        <ele>342</ele>
        <time>2021-10-14T20:46:56Z</time>
      </trkpt>
      <trkpt lat="46.00606" lon="4.59988">
        <ele>342</ele>
        <time>2021-10-14T20:46:58Z</time>
      </trkpt>
      <trkpt lat="46.00606" lon="4.59972">
        <ele>343</ele>
        <time>2021-10-14T20:47:00Z</time>
      </trkpt>
      <trkpt lat="46.00609" lon="4.59955">
        <ele>344</ele>
        <time>2021-10-14T20:47:02Z</time>
      </trkpt>
      <trkpt lat="46.00611" lon="4.59855">
        <ele>347</ele>
        <time>2021-10-14T20:47:15Z</time>
      </trkpt>
      <trkpt lat="46.00612" lon="4.59847">
        <ele>347</ele>
        <time>2021-10-14T20:47:16Z</time>
      </trkpt>
      <trkpt lat="46.00624" lon="4.59548">
        <ele>371</ele>
        <time>2021-10-14T20:47:53Z</time>
      </trkpt>
      <trkpt lat="46.0061" lon="4.59364">
        <ele>373</ele>
        <time>2021-10-14T20:48:15Z</time>
      </trkpt>
      <trkpt lat="46.00586" lon="4.59307">
        <ele>368</ele>
        <time>2021-10-14T20:48:24Z</time>
      </trkpt>
      <trkpt lat="46.0058" lon="4.59275">
        <ele>370</ele>
        <time>2021-10-14T20:48:28Z</time>
      </trkpt>
      <trkpt lat="46.00584" lon="4.59243">
        <ele>371</ele>
        <time>2021-10-14T20:48:32Z</time>
      </trkpt>
      <trkpt lat="46.0059" lon="4.59215">
        <ele>373</ele>
        <time>2021-10-14T20:48:35Z</time>
      </trkpt>
      <trkpt lat="46.00601" lon="4.59178">
        <ele>378</ele>
        <time>2021-10-14T20:48:40Z</time>
      </trkpt>
      <trkpt lat="46.00605" lon="4.5915">
        <ele>380</ele>
        <time>2021-10-14T20:48:44Z</time>
      </trkpt>
      <trkpt lat="46.00599" lon="4.59079">
        <ele>379</ele>
        <time>2021-10-14T20:48:53Z</time>
      </trkpt>
      <trkpt lat="46.00597" lon="4.59051">
        <ele>377</ele>
        <time>2021-10-14T20:48:56Z</time>
      </trkpt>
      <trkpt lat="46.00601" lon="4.59037">
        <ele>378</ele>
        <time>2021-10-14T20:48:58Z</time>
      </trkpt>
      <trkpt lat="46.00609" lon="4.59025">
        <ele>379</ele>
        <time>2021-10-14T20:49:00Z</time>
      </trkpt>
      <trkpt lat="46.0063" lon="4.59006">
        <ele>381</ele>
        <time>2021-10-14T20:49:05Z</time>
      </trkpt>
      <trkpt lat="46.00686" lon="4.58958">
        <ele>388</ele>
        <time>2021-10-14T20:49:16Z</time>
      </trkpt>
      <trkpt lat="46.007" lon="4.5894">
        <ele>389</ele>
        <time>2021-10-14T20:49:20Z</time>
      </trkpt>
      <trkpt lat="46.00701" lon="4.58925">
        <ele>388</ele>
        <time>2021-10-14T20:49:21Z</time>
      </trkpt>
      <trkpt lat="46.00689" lon="4.58908">
        <ele>386</ele>
        <time>2021-10-14T20:49:24Z</time>
      </trkpt>
      <trkpt lat="46.00677" lon="4.58901">
        <ele>385</ele>
        <time>2021-10-14T20:49:27Z</time>
      </trkpt>
      <trkpt lat="46.00661" lon="4.58903">
        <ele>384</ele>
        <time>2021-10-14T20:49:30Z</time>
      </trkpt>
      <trkpt lat="46.00638" lon="4.58919">
        <ele>383</ele>
        <time>2021-10-14T20:49:34Z</time>
      </trkpt>
      <trkpt lat="46.00612" lon="4.58927">
        <ele>382</ele>
        <time>2021-10-14T20:49:39Z</time>
      </trkpt>
      <trkpt lat="46.00606" lon="4.58925">
        <ele>382</ele>
        <time>2021-10-14T20:49:40Z</time>
      </trkpt>
      <trkpt lat="46.00632" lon="4.58888">
        <ele>386</ele>
        <time>2021-10-14T20:49:46Z</time>
      </trkpt>
      <trkpt lat="46.00646" lon="4.58863">
        <ele>389</ele>
        <time>2021-10-14T20:49:50Z</time>
      </trkpt>
      <trkpt lat="46.00653" lon="4.58842">
        <ele>391</ele>
        <time>2021-10-14T20:49:53Z</time>
      </trkpt>
      <trkpt lat="46.00652" lon="4.58828">
        <ele>393</ele>
        <time>2021-10-14T20:49:55Z</time>
      </trkpt>
      <trkpt lat="46.00642" lon="4.58789">
        <ele>397</ele>
        <time>2021-10-14T20:50:00Z</time>
      </trkpt>
      <trkpt lat="46.00617" lon="4.58654">
        <ele>406</ele>
        <time>2021-10-14T20:50:17Z</time>
      </trkpt>
      <trkpt lat="46.00602" lon="4.58593">
        <ele>411</ele>
        <time>2021-10-14T20:50:25Z</time>
      </trkpt>
      <trkpt lat="46.00602" lon="4.58579">
        <ele>413</ele>
        <time>2021-10-14T20:50:27Z</time>
      </trkpt>
      <trkpt lat="46.0062" lon="4.58545">
        <ele>418</ele>
        <time>2021-10-14T20:50:32Z</time>
      </trkpt>
      <trkpt lat="46.00634" lon="4.58503">
        <ele>423</ele>
        <time>2021-10-14T20:50:38Z</time>
      </trkpt>
      <trkpt lat="46.00644" lon="4.58466">
        <ele>428</ele>
        <time>2021-10-14T20:50:43Z</time>
      </trkpt>
      <trkpt lat="46.00638" lon="4.58427">
        <ele>432</ele>
        <time>2021-10-14T20:50:48Z</time>
      </trkpt>
      <trkpt lat="46.00615" lon="4.58381">
        <ele>438</ele>
        <time>2021-10-14T20:50:55Z</time>
      </trkpt>
      <trkpt lat="46.00602" lon="4.58369">
        <ele>439</ele>
        <time>2021-10-14T20:50:58Z</time>
      </trkpt>
      <trkpt lat="46.00582" lon="4.58356">
        <ele>440</ele>
        <time>2021-10-14T20:51:02Z</time>
      </trkpt>
      <trkpt lat="46.00537" lon="4.58333">
        <ele>441</ele>
        <time>2021-10-14T20:51:10Z</time>
      </trkpt>
      <trkpt lat="46.0052" lon="4.58327">
        <ele>441</ele>
        <time>2021-10-14T20:51:13Z</time>
      </trkpt>
      <trkpt lat="46.00513" lon="4.58318">
        <ele>442</ele>
        <time>2021-10-14T20:51:15Z</time>
      </trkpt>
      <trkpt lat="46.00513" lon="4.58308">
        <ele>444</ele>
        <time>2021-10-14T20:51:16Z</time>
      </trkpt>
      <trkpt lat="46.00521" lon="4.58295">
        <ele>447</ele>
        <time>2021-10-14T20:51:18Z</time>
      </trkpt>
      <trkpt lat="46.0054" lon="4.58301">
        <ele>447</ele>
        <time>2021-10-14T20:51:22Z</time>
      </trkpt>
      <trkpt lat="46.00559" lon="4.58311">
        <ele>446</ele>
        <time>2021-10-14T20:51:25Z</time>
      </trkpt>
      <trkpt lat="46.00584" lon="4.58317">
        <ele>446</ele>
        <time>2021-10-14T20:51:30Z</time>
      </trkpt>
      <trkpt lat="46.00595" lon="4.58316">
        <ele>447</ele>
        <time>2021-10-14T20:51:32Z</time>
      </trkpt>
      <trkpt lat="46.00598" lon="4.58306">
        <ele>449</ele>
        <time>2021-10-14T20:51:33Z</time>
      </trkpt>
      <trkpt lat="46.00596" lon="4.58297">
        <ele>450</ele>
        <time>2021-10-14T20:51:34Z</time>
      </trkpt>
      <trkpt lat="46.00568" lon="4.58279">
        <ele>452</ele>
        <time>2021-10-14T20:51:40Z</time>
      </trkpt>
      <trkpt lat="46.00541" lon="4.58253">
        <ele>455</ele>
        <time>2021-10-14T20:51:46Z</time>
      </trkpt>
      <trkpt lat="46.0052" lon="4.58237">
        <ele>458</ele>
        <time>2021-10-14T20:51:50Z</time>
      </trkpt>
      <trkpt lat="46.00497" lon="4.5824">
        <ele>456</ele>
        <time>2021-10-14T20:51:54Z</time>
      </trkpt>
      <trkpt lat="46.00483" lon="4.58249">
        <ele>455</ele>
        <time>2021-10-14T20:51:57Z</time>
      </trkpt>
      <trkpt lat="46.00433" lon="4.58241">
        <ele>458</ele>
        <time>2021-10-14T20:52:06Z</time>
      </trkpt>
      <trkpt lat="46.00399" lon="4.5823">
        <ele>460</ele>
        <time>2021-10-14T20:52:12Z</time>
      </trkpt>
      <trkpt lat="46.00377" lon="4.58227">
        <ele>460</ele>
        <time>2021-10-14T20:52:16Z</time>
      </trkpt>
      <trkpt lat="46.00348" lon="4.58226">
        <ele>460</ele>
        <time>2021-10-14T20:52:21Z</time>
      </trkpt>
      <trkpt lat="46.00328" lon="4.58219">
        <ele>460</ele>
        <time>2021-10-14T20:52:25Z</time>
      </trkpt>
      <trkpt lat="46.00305" lon="4.58184">
        <ele>466</ele>
        <time>2021-10-14T20:52:31Z</time>
      </trkpt>
      <trkpt lat="46.00295" lon="4.58149">
        <ele>470</ele>
        <time>2021-10-14T20:52:35Z</time>
      </trkpt>
      <trkpt lat="46.00295" lon="4.58115">
        <ele>475</ele>
        <time>2021-10-14T20:52:39Z</time>
      </trkpt>
      <trkpt lat="46.00301" lon="4.58071">
        <ele>482</ele>
        <time>2021-10-14T20:52:45Z</time>
      </trkpt>
      <trkpt lat="46.00296" lon="4.58051">
        <ele>484</ele>
        <time>2021-10-14T20:52:48Z</time>
      </trkpt>
      <trkpt lat="46.00281" lon="4.58034">
        <ele>485</ele>
        <time>2021-10-14T20:52:51Z</time>
      </trkpt>
      <trkpt lat="46.00271" lon="4.58029">
        <ele>485</ele>
        <time>2021-10-14T20:52:53Z</time>
      </trkpt>
      <trkpt lat="46.0026" lon="4.58029">
        <ele>484</ele>
        <time>2021-10-14T20:52:55Z</time>
      </trkpt>
      <trkpt lat="46.00246" lon="4.58022">
        <ele>484</ele>
        <time>2021-10-14T20:52:57Z</time>
      </trkpt>
      <trkpt lat="46.00198" lon="4.57987">
        <ele>492</ele>
        <time>2021-10-14T20:53:07Z</time>
      </trkpt>
      <trkpt lat="46.00177" lon="4.57975">
        <ele>495</ele>
        <time>2021-10-14T20:53:11Z</time>
      </trkpt>
      <trkpt lat="46.00161" lon="4.57971">
        <ele>496</ele>
        <time>2021-10-14T20:53:14Z</time>
      </trkpt>
      <trkpt lat="46.00146" lon="4.57975">
        <ele>498</ele>
        <time>2021-10-14T20:53:17Z</time>
      </trkpt>
      <trkpt lat="46.00139" lon="4.57979">
        <ele>499</ele>
        <time>2021-10-14T20:53:18Z</time>
      </trkpt>
      <trkpt lat="46.00134" lon="4.57986">
        <ele>498</ele>
        <time>2021-10-14T20:53:19Z</time>
      </trkpt>
      <trkpt lat="46.00124" lon="4.58022">
        <ele>495</ele>
        <time>2021-10-14T20:53:24Z</time>
      </trkpt>
      <trkpt lat="46.00116" lon="4.58042">
        <ele>494</ele>
        <time>2021-10-14T20:53:27Z</time>
      </trkpt>
      <trkpt lat="46.0011" lon="4.58046">
        <ele>494</ele>
        <time>2021-10-14T20:53:28Z</time>
      </trkpt>
      <trkpt lat="46.00098" lon="4.58046">
        <ele>496</ele>
        <time>2021-10-14T20:53:30Z</time>
      </trkpt>
      <trkpt lat="46.00071" lon="4.5803">
        <ele>501</ele>
        <time>2021-10-14T20:53:35Z</time>
      </trkpt>
      <trkpt lat="46.00066" lon="4.58025">
        <ele>502</ele>
        <time>2021-10-14T20:53:36Z</time>
      </trkpt>
      <trkpt lat="46.00051" lon="4.58007">
        <ele>506</ele>
        <time>2021-10-14T20:53:40Z</time>
      </trkpt>
      <trkpt lat="46.00034" lon="4.57997">
        <ele>508</ele>
        <time>2021-10-14T20:53:43Z</time>
      </trkpt>
      <trkpt lat="46.00008" lon="4.57993">
        <ele>510</ele>
        <time>2021-10-14T20:53:48Z</time>
      </trkpt>
      <trkpt lat="45.99998" lon="4.57995">
        <ele>510</ele>
        <time>2021-10-14T20:53:50Z</time>
      </trkpt>
      <trkpt lat="45.99983" lon="4.58001">
        <ele>510</ele>
        <time>2021-10-14T20:53:52Z</time>
      </trkpt>
      <trkpt lat="45.9996" lon="4.58015">
        <ele>511</ele>
        <time>2021-10-14T20:53:57Z</time>
      </trkpt>
      <trkpt lat="45.99934" lon="4.58015">
        <ele>513</ele>
        <time>2021-10-14T20:54:02Z</time>
      </trkpt>
      <trkpt lat="45.99909" lon="4.58006">
        <ele>516</ele>
        <time>2021-10-14T20:54:06Z</time>
      </trkpt>
      <trkpt lat="45.99883" lon="4.58002">
        <ele>520</ele>
        <time>2021-10-14T20:54:11Z</time>
      </trkpt>
      <trkpt lat="45.9987" lon="4.58007">
        <ele>522</ele>
        <time>2021-10-14T20:54:13Z</time>
      </trkpt>
      <trkpt lat="45.99864" lon="4.58011">
        <ele>523</ele>
        <time>2021-10-14T20:54:14Z</time>
      </trkpt>
      <trkpt lat="45.99863" lon="4.5803">
        <ele>522</ele>
        <time>2021-10-14T20:54:17Z</time>
      </trkpt>
      <trkpt lat="45.99868" lon="4.58105">
        <ele>521</ele>
        <time>2021-10-14T20:54:26Z</time>
      </trkpt>
      <trkpt lat="45.99874" lon="4.5816">
        <ele>525</ele>
        <time>2021-10-14T20:54:33Z</time>
      </trkpt>
      <trkpt lat="45.9989" lon="4.58203">
        <ele>525</ele>
        <time>2021-10-14T20:54:39Z</time>
      </trkpt>
      <trkpt lat="45.99898" lon="4.58229">
        <ele>526</ele>
        <time>2021-10-14T20:54:42Z</time>
      </trkpt>
      <trkpt lat="45.99897" lon="4.58264">
        <ele>528</ele>
        <time>2021-10-14T20:54:47Z</time>
      </trkpt>
      <trkpt lat="45.99882" lon="4.58303">
        <ele>528</ele>
        <time>2021-10-14T20:54:52Z</time>
      </trkpt>
      <trkpt lat="45.99873" lon="4.58317">
        <ele>528</ele>
        <time>2021-10-14T20:54:55Z</time>
      </trkpt>
      <trkpt lat="45.9986" lon="4.5833">
        <ele>528</ele>
        <time>2021-10-14T20:54:57Z</time>
      </trkpt>
      <trkpt lat="45.99817" lon="4.58353">
        <ele>526</ele>
        <time>2021-10-14T20:55:06Z</time>
      </trkpt>
      <trkpt lat="45.99734" lon="4.58385">
        <ele>527</ele>
        <time>2021-10-14T20:55:21Z</time>
      </trkpt>
      <trkpt lat="45.99722" lon="4.58391">
        <ele>527</ele>
        <time>2021-10-14T20:55:23Z</time>
      </trkpt>
      <trkpt lat="45.99692" lon="4.58412">
        <ele>523</ele>
        <time>2021-10-14T20:55:29Z</time>
      </trkpt>
      <trkpt lat="45.99683" lon="4.58416">
        <ele>522</ele>
        <time>2021-10-14T20:55:31Z</time>
      </trkpt>
      <trkpt lat="45.99645" lon="4.58414">
        <ele>528</ele>
        <time>2021-10-14T20:55:38Z</time>
      </trkpt>
      <trkpt lat="45.99635" lon="4.58423">
        <ele>527</ele>
        <time>2021-10-14T20:55:40Z</time>
      </trkpt>
      <trkpt lat="45.99613" lon="4.5844">
        <ele>526</ele>
        <time>2021-10-14T20:55:44Z</time>
      </trkpt>
      <trkpt lat="45.99572" lon="4.58437">
        <ele>532</ele>
        <time>2021-10-14T20:55:51Z</time>
      </trkpt>
      <trkpt lat="45.99543" lon="4.58432">
        <ele>536</ele>
        <time>2021-10-14T20:55:57Z</time>
      </trkpt>
      <trkpt lat="45.99538" lon="4.58435">
        <ele>536</ele>
        <time>2021-10-14T20:55:58Z</time>
      </trkpt>
      <trkpt lat="45.99531" lon="4.58446">
        <ele>535</ele>
        <time>2021-10-14T20:55:59Z</time>
      </trkpt>
      <trkpt lat="45.99524" lon="4.58477">
        <ele>530</ele>
        <time>2021-10-14T20:56:03Z</time>
      </trkpt>
      <trkpt lat="45.99519" lon="4.58487">
        <ele>529</ele>
        <time>2021-10-14T20:56:05Z</time>
      </trkpt>
      <trkpt lat="45.99397" lon="4.5857">
        <ele>535</ele>
        <time>2021-10-14T20:56:29Z</time>
      </trkpt>
      <trkpt lat="45.99371" lon="4.58598">
        <ele>537</ele>
        <time>2021-10-14T20:56:35Z</time>
      </trkpt>
      <trkpt lat="45.9931" lon="4.5868">
        <ele>535</ele>
        <time>2021-10-14T20:56:50Z</time>
      </trkpt>
      <trkpt lat="45.99302" lon="4.58699">
        <ele>534</ele>
        <time>2021-10-14T20:56:52Z</time>
      </trkpt>
      <trkpt lat="45.99298" lon="4.58719">
        <ele>534</ele>
        <time>2021-10-14T20:56:55Z</time>
      </trkpt>
      <trkpt lat="45.99297" lon="4.58736">
        <ele>534</ele>
        <time>2021-10-14T20:56:57Z</time>
      </trkpt>
      <trkpt lat="45.99293" lon="4.58714">
        <ele>533</ele>
        <time>2021-10-14T20:57:00Z</time>
      </trkpt>
      <trkpt lat="45.99297" lon="4.58663">
        <ele>533</ele>
        <time>2021-10-14T20:57:06Z</time>
      </trkpt>
      <trkpt lat="45.99295" lon="4.58642">
        <ele>533</ele>
        <time>2021-10-14T20:57:09Z</time>
      </trkpt>
      <trkpt lat="45.99289" lon="4.58614">
        <ele>533</ele>
        <time>2021-10-14T20:57:12Z</time>
      </trkpt>
      <trkpt lat="45.99266" lon="4.58564">
        <ele>532</ele>
        <time>2021-10-14T20:57:20Z</time>
      </trkpt>
      <trkpt lat="45.99249" lon="4.58565">
        <ele>530</ele>
        <time>2021-10-14T20:57:23Z</time>
      </trkpt>
      <trkpt lat="45.99231" lon="4.58562">
        <ele>527</ele>
        <time>2021-10-14T20:57:26Z</time>
      </trkpt>
      <trkpt lat="45.99213" lon="4.58547">
        <ele>525</ele>
        <time>2021-10-14T20:57:30Z</time>
      </trkpt>
      <trkpt lat="45.99184" lon="4.58495">
        <ele>522</ele>
        <time>2021-10-14T20:57:38Z</time>
      </trkpt>
      <trkpt lat="45.99173" lon="4.58483">
        <ele>520</ele>
        <time>2021-10-14T20:57:40Z</time>
      </trkpt>
      <trkpt lat="45.99153" lon="4.58479">
        <ele>515</ele>
        <time>2021-10-14T20:57:44Z</time>
      </trkpt>
      <trkpt lat="45.9913" lon="4.58484">
        <ele>509</ele>
        <time>2021-10-14T20:57:48Z</time>
      </trkpt>
      <trkpt lat="45.99115" lon="4.58516">
        <ele>505</ele>
        <time>2021-10-14T20:57:53Z</time>
      </trkpt>
      <trkpt lat="45.9908" lon="4.58601">
        <ele>498</ele>
        <time>2021-10-14T20:58:05Z</time>
      </trkpt>
      <trkpt lat="45.99069" lon="4.58613">
        <ele>494</ele>
        <time>2021-10-14T20:58:08Z</time>
      </trkpt>
      <trkpt lat="45.99048" lon="4.58624">
        <ele>487</ele>
        <time>2021-10-14T20:58:12Z</time>
      </trkpt>
      <trkpt lat="45.99036" lon="4.58619">
        <ele>483</ele>
        <time>2021-10-14T20:58:14Z</time>
      </trkpt>
      <trkpt lat="45.99026" lon="4.58609">
        <ele>480</ele>
        <time>2021-10-14T20:58:16Z</time>
      </trkpt>
      <trkpt lat="45.98982" lon="4.58477">
        <ele>471</ele>
        <time>2021-10-14T20:58:34Z</time>
      </trkpt>
      <trkpt lat="45.98973" lon="4.58435">
        <ele>471</ele>
        <time>2021-10-14T20:58:40Z</time>
      </trkpt>
      <trkpt lat="45.98961" lon="4.58407">
        <ele>469</ele>
        <time>2021-10-14T20:58:44Z</time>
      </trkpt>
      <trkpt lat="45.98951" lon="4.58389">
        <ele>468</ele>
        <time>2021-10-14T20:58:46Z</time>
      </trkpt>
      <trkpt lat="45.98932" lon="4.58378">
        <ele>464</ele>
        <time>2021-10-14T20:58:50Z</time>
      </trkpt>
      <trkpt lat="45.98924" lon="4.58336">
        <ele>464</ele>
        <time>2021-10-14T20:58:55Z</time>
      </trkpt>
      <trkpt lat="45.98879" lon="4.58164">
        <ele>480</ele>
        <time>2021-10-14T20:59:18Z</time>
      </trkpt>
      <trkpt lat="45.98869" lon="4.58156">
        <ele>479</ele>
        <time>2021-10-14T20:59:20Z</time>
      </trkpt>
      <trkpt lat="45.98859" lon="4.58154">
        <ele>478</ele>
        <time>2021-10-14T20:59:22Z</time>
      </trkpt>
      <trkpt lat="45.98853" lon="4.58157">
        <ele>478</ele>
        <time>2021-10-14T20:59:23Z</time>
      </trkpt>
      <trkpt lat="45.98839" lon="4.5817">
        <ele>474</ele>
        <time>2021-10-14T20:59:26Z</time>
      </trkpt>
      <trkpt lat="45.98827" lon="4.58197">
        <ele>473</ele>
        <time>2021-10-14T20:59:30Z</time>
      </trkpt>
      <trkpt lat="45.98823" lon="4.58222">
        <ele>471</ele>
        <time>2021-10-14T20:59:33Z</time>
      </trkpt>
      <trkpt lat="45.98809" lon="4.58263">
        <ele>470</ele>
        <time>2021-10-14T20:59:39Z</time>
      </trkpt>
      <trkpt lat="45.98786" lon="4.58307">
        <ele>471</ele>
        <time>2021-10-14T20:59:46Z</time>
      </trkpt>
      <trkpt lat="45.98766" lon="4.5834">
        <ele>472</ele>
        <time>2021-10-14T20:59:51Z</time>
      </trkpt>
      <trkpt lat="45.98737" lon="4.5838">
        <ele>474</ele>
        <time>2021-10-14T20:59:58Z</time>
      </trkpt>
      <trkpt lat="45.9864" lon="4.58458">
        <ele>478</ele>
        <time>2021-10-14T21:00:18Z</time>
      </trkpt>
      <trkpt lat="45.98617" lon="4.58471">
        <ele>480</ele>
        <time>2021-10-14T21:00:22Z</time>
      </trkpt>
      <trkpt lat="45.9858" lon="4.58479">
        <ele>484</ele>
        <time>2021-10-14T21:00:29Z</time>
      </trkpt>
      <trkpt lat="45.9857" lon="4.58492">
        <ele>485</ele>
        <time>2021-10-14T21:00:31Z</time>
      </trkpt>
      <trkpt lat="45.98559" lon="4.58514">
        <ele>485</ele>
        <time>2021-10-14T21:00:35Z</time>
      </trkpt>
      <trkpt lat="45.98532" lon="4.58571">
        <ele>487</ele>
        <time>2021-10-14T21:00:43Z</time>
      </trkpt>
      <trkpt lat="45.98494" lon="4.58621">
        <ele>492</ele>
        <time>2021-10-14T21:00:53Z</time>
      </trkpt>
      <trkpt lat="45.98472" lon="4.5864">
        <ele>493</ele>
        <time>2021-10-14T21:00:57Z</time>
      </trkpt>
      <trkpt lat="45.98362" lon="4.5866">
        <ele>501</ele>
        <time>2021-10-14T21:01:17Z</time>
      </trkpt>
      <trkpt lat="45.98337" lon="4.58656">
        <ele>503</ele>
        <time>2021-10-14T21:01:21Z</time>
      </trkpt>
      <trkpt lat="45.98351" lon="4.58644">
        <ele>503</ele>
        <time>2021-10-14T21:01:24Z</time>
      </trkpt>
      <trkpt lat="45.98372" lon="4.58622">
        <ele>503</ele>
        <time>2021-10-14T21:01:29Z</time>
      </trkpt>
      <trkpt lat="45.98379" lon="4.58604">
        <ele>504</ele>
        <time>2021-10-14T21:01:31Z</time>
      </trkpt>
      <trkpt lat="45.9838" lon="4.58589">
        <ele>506</ele>
        <time>2021-10-14T21:01:33Z</time>
      </trkpt>
      <trkpt lat="45.98368" lon="4.58575">
        <ele>508</ele>
        <time>2021-10-14T21:01:36Z</time>
      </trkpt>
      <trkpt lat="45.98282" lon="4.58583">
        <ele>515</ele>
        <time>2021-10-14T21:01:51Z</time>
      </trkpt>
      <trkpt lat="45.98244" lon="4.5858">
        <ele>518</ele>
        <time>2021-10-14T21:01:58Z</time>
      </trkpt>
      <trkpt lat="45.9804" lon="4.58546">
        <ele>529</ele>
        <time>2021-10-14T21:02:35Z</time>
      </trkpt>
      <trkpt lat="45.97897" lon="4.5855">
        <ele>539</ele>
        <time>2021-10-14T21:03:00Z</time>
      </trkpt>
      <trkpt lat="45.97844" lon="4.58548">
        <ele>541</ele>
        <time>2021-10-14T21:03:10Z</time>
      </trkpt>
      <trkpt lat="45.97827" lon="4.58532">
        <ele>543</ele>
        <time>2021-10-14T21:03:13Z</time>
      </trkpt>
      <trkpt lat="45.97824" lon="4.58519">
        <ele>544</ele>
        <time>2021-10-14T21:03:15Z</time>
      </trkpt>
      <trkpt lat="45.9782" lon="4.5835">
        <ele>551</ele>
        <time>2021-10-14T21:03:36Z</time>
      </trkpt>
      <trkpt lat="45.97809" lon="4.58345">
        <ele>551</ele>
        <time>2021-10-14T21:03:38Z</time>
      </trkpt>
      <trkpt lat="45.97808" lon="4.58306">
        <ele>551</ele>
        <time>2021-10-14T21:03:43Z</time>
      </trkpt>
      <trkpt lat="45.97778" lon="4.58251">
        <ele>552</ele>
        <time>2021-10-14T21:03:51Z</time>
      </trkpt>
      <trkpt lat="45.97755" lon="4.58226">
        <ele>549</ele>
        <time>2021-10-14T21:03:56Z</time>
      </trkpt>
      <trkpt lat="45.97699" lon="4.58193">
        <ele>546</ele>
        <time>2021-10-14T21:04:07Z</time>
      </trkpt>
      <trkpt lat="45.97662" lon="4.58179">
        <ele>544</ele>
        <time>2021-10-14T21:04:14Z</time>
      </trkpt>
      <trkpt lat="45.97617" lon="4.58169">
        <ele>542</ele>
        <time>2021-10-14T21:04:22Z</time>
      </trkpt>
      <trkpt lat="45.9756" lon="4.58164">
        <ele>543</ele>
        <time>2021-10-14T21:04:32Z</time>
      </trkpt>
      <trkpt lat="45.97523" lon="4.58155">
        <ele>545</ele>
        <time>2021-10-14T21:04:39Z</time>
      </trkpt>
      <trkpt lat="45.97451" lon="4.58115">
        <ele>545</ele>
        <time>2021-10-14T21:04:53Z</time>
      </trkpt>
      <trkpt lat="45.97393" lon="4.58052">
        <ele>538</ele>
        <time>2021-10-14T21:05:06Z</time>
      </trkpt>
      <trkpt lat="45.97376" lon="4.58045">
        <ele>536</ele>
        <time>2021-10-14T21:05:09Z</time>
      </trkpt>
      <trkpt lat="45.97356" lon="4.58045">
        <ele>535</ele>
        <time>2021-10-14T21:05:12Z</time>
      </trkpt>
      <trkpt lat="45.97338" lon="4.58053">
        <ele>537</ele>
        <time>2021-10-14T21:05:16Z</time>
      </trkpt>
      <trkpt lat="45.97297" lon="4.58096">
        <ele>547</ele>
        <time>2021-10-14T21:05:25Z</time>
      </trkpt>
      <trkpt lat="45.97281" lon="4.58108">
        <ele>550</ele>
        <time>2021-10-14T21:05:28Z</time>
      </trkpt>
      <trkpt lat="45.9726" lon="4.58111">
        <ele>550</ele>
        <time>2021-10-14T21:05:32Z</time>
      </trkpt>
      <trkpt lat="45.97239" lon="4.58104">
        <ele>549</ele>
        <time>2021-10-14T21:05:35Z</time>
      </trkpt>
      <trkpt lat="45.97179" lon="4.5803">
        <ele>537</ele>
        <time>2021-10-14T21:05:50Z</time>
      </trkpt>
      <trkpt lat="45.97153" lon="4.58009">
        <ele>534</ele>
        <time>2021-10-14T21:05:55Z</time>
      </trkpt>
      <trkpt lat="45.97125" lon="4.57998">
        <ele>531</ele>
        <time>2021-10-14T21:06:00Z</time>
      </trkpt>
      <trkpt lat="45.97107" lon="4.57998">
        <ele>530</ele>
        <time>2021-10-14T21:06:03Z</time>
      </trkpt>
      <trkpt lat="45.97085" lon="4.5801">
        <ele>532</ele>
        <time>2021-10-14T21:06:07Z</time>
      </trkpt>
      <trkpt lat="45.97065" lon="4.58037">
        <ele>534</ele>
        <time>2021-10-14T21:06:12Z</time>
      </trkpt>
      <trkpt lat="45.97011" lon="4.58116">
        <ele>543</ele>
        <time>2021-10-14T21:06:26Z</time>
      </trkpt>
      <trkpt lat="45.96994" lon="4.58123">
        <ele>543</ele>
        <time>2021-10-14T21:06:29Z</time>
      </trkpt>
      <trkpt lat="45.96973" lon="4.58118">
        <ele>543</ele>
        <time>2021-10-14T21:06:33Z</time>
      </trkpt>
      <trkpt lat="45.9689" lon="4.5803">
        <ele>528</ele>
        <time>2021-10-14T21:06:51Z</time>
      </trkpt>
      <trkpt lat="45.96871" lon="4.58017">
        <ele>526</ele>
        <time>2021-10-14T21:06:55Z</time>
      </trkpt>
      <trkpt lat="45.96853" lon="4.58012">
        <ele>525</ele>
        <time>2021-10-14T21:06:58Z</time>
      </trkpt>
      <trkpt lat="45.96834" lon="4.58011">
        <ele>525</ele>
        <time>2021-10-14T21:07:02Z</time>
      </trkpt>
      <trkpt lat="45.96812" lon="4.58023">
        <ele>523</ele>
        <time>2021-10-14T21:07:06Z</time>
      </trkpt>
      <trkpt lat="45.96793" lon="4.58046">
        <ele>522</ele>
        <time>2021-10-14T21:07:10Z</time>
      </trkpt>
      <trkpt lat="45.96724" lon="4.58178">
        <ele>521</ele>
        <time>2021-10-14T21:07:31Z</time>
      </trkpt>
      <trkpt lat="45.96719" lon="4.58202">
        <ele>521</ele>
        <time>2021-10-14T21:07:34Z</time>
      </trkpt>
      <trkpt lat="45.96717" lon="4.58231">
        <ele>523</ele>
        <time>2021-10-14T21:07:37Z</time>
      </trkpt>
      <trkpt lat="45.96719" lon="4.58249">
        <ele>525</ele>
        <time>2021-10-14T21:07:40Z</time>
      </trkpt>
      <trkpt lat="45.96723" lon="4.5827">
        <ele>526</ele>
        <time>2021-10-14T21:07:42Z</time>
      </trkpt>
      <trkpt lat="45.96744" lon="4.5834">
        <ele>532</ele>
        <time>2021-10-14T21:07:52Z</time>
      </trkpt>
      <trkpt lat="45.96752" lon="4.58411">
        <ele>530</ele>
        <time>2021-10-14T21:08:01Z</time>
      </trkpt>
      <trkpt lat="45.96751" lon="4.58445">
        <ele>532</ele>
        <time>2021-10-14T21:08:05Z</time>
      </trkpt>
      <trkpt lat="45.96745" lon="4.58476">
        <ele>532</ele>
        <time>2021-10-14T21:08:09Z</time>
      </trkpt>
      <trkpt lat="45.96729" lon="4.58524">
        <ele>535</ele>
        <time>2021-10-14T21:08:15Z</time>
      </trkpt>
      <trkpt lat="45.96722" lon="4.58535">
        <ele>536</ele>
        <time>2021-10-14T21:08:17Z</time>
      </trkpt>
      <trkpt lat="45.9671" lon="4.58543">
        <ele>536</ele>
        <time>2021-10-14T21:08:20Z</time>
      </trkpt>
      <trkpt lat="45.9668" lon="4.58544">
        <ele>531</ele>
        <time>2021-10-14T21:08:25Z</time>
      </trkpt>
      <trkpt lat="45.96665" lon="4.5854">
        <ele>529</ele>
        <time>2021-10-14T21:08:28Z</time>
      </trkpt>
      <trkpt lat="45.96653" lon="4.58532">
        <ele>529</ele>
        <time>2021-10-14T21:08:30Z</time>
      </trkpt>
      <trkpt lat="45.96634" lon="4.58504">
        <ele>526</ele>
        <time>2021-10-14T21:08:35Z</time>
      </trkpt>
      <trkpt lat="45.96617" lon="4.58483">
        <ele>525</ele>
        <time>2021-10-14T21:08:39Z</time>
      </trkpt>
      <trkpt lat="45.96564" lon="4.58441">
        <ele>523</ele>
        <time>2021-10-14T21:08:50Z</time>
      </trkpt>
      <trkpt lat="45.96506" lon="4.58405">
        <ele>523</ele>
        <time>2021-10-14T21:09:01Z</time>
      </trkpt>
      <trkpt lat="45.96491" lon="4.58402">
        <ele>522</ele>
        <time>2021-10-14T21:09:04Z</time>
      </trkpt>
      <trkpt lat="45.96472" lon="4.58407">
        <ele>520</ele>
        <time>2021-10-14T21:09:07Z</time>
      </trkpt>
      <trkpt lat="45.96359" lon="4.58532">
        <ele>527</ele>
        <time>2021-10-14T21:09:32Z</time>
      </trkpt>
      <trkpt lat="45.96349" lon="4.5854">
        <ele>527</ele>
        <time>2021-10-14T21:09:34Z</time>
      </trkpt>
      <trkpt lat="45.96332" lon="4.58545">
        <ele>525</ele>
        <time>2021-10-14T21:09:37Z</time>
      </trkpt>
      <trkpt lat="45.96317" lon="4.58542">
        <ele>526</ele>
        <time>2021-10-14T21:09:40Z</time>
      </trkpt>
      <trkpt lat="45.963" lon="4.58535">
        <ele>525</ele>
        <time>2021-10-14T21:09:43Z</time>
      </trkpt>
      <trkpt lat="45.96249" lon="4.58507">
        <ele>520</ele>
        <time>2021-10-14T21:09:53Z</time>
      </trkpt>
      <trkpt lat="45.96232" lon="4.58505">
        <ele>518</ele>
        <time>2021-10-14T21:09:56Z</time>
      </trkpt>
      <trkpt lat="45.96213" lon="4.58511">
        <ele>517</ele>
        <time>2021-10-14T21:09:59Z</time>
      </trkpt>
      <trkpt lat="45.96191" lon="4.58525">
        <ele>519</ele>
        <time>2021-10-14T21:10:04Z</time>
      </trkpt>
      <trkpt lat="45.96168" lon="4.58554">
        <ele>523</ele>
        <time>2021-10-14T21:10:09Z</time>
      </trkpt>
      <trkpt lat="45.96135" lon="4.58601">
        <ele>529</ele>
        <time>2021-10-14T21:10:17Z</time>
      </trkpt>
      <trkpt lat="45.96123" lon="4.58616">
        <ele>530</ele>
        <time>2021-10-14T21:10:20Z</time>
      </trkpt>
      <trkpt lat="45.96112" lon="4.58625">
        <ele>530</ele>
        <time>2021-10-14T21:10:23Z</time>
      </trkpt>
      <trkpt lat="45.96094" lon="4.58632">
        <ele>528</ele>
        <time>2021-10-14T21:10:26Z</time>
      </trkpt>
      <trkpt lat="45.96078" lon="4.58632">
        <ele>526</ele>
        <time>2021-10-14T21:10:29Z</time>
      </trkpt>
      <trkpt lat="45.9606" lon="4.58627">
        <ele>526</ele>
        <time>2021-10-14T21:10:32Z</time>
      </trkpt>
      <trkpt lat="45.96035" lon="4.58617">
        <ele>526</ele>
        <time>2021-10-14T21:10:37Z</time>
      </trkpt>
      <trkpt lat="45.95979" lon="4.58579">
        <ele>518</ele>
        <time>2021-10-14T21:10:48Z</time>
      </trkpt>
      <trkpt lat="45.95959" lon="4.58576">
        <ele>517</ele>
        <time>2021-10-14T21:10:51Z</time>
      </trkpt>
      <trkpt lat="45.9594" lon="4.58587">
        <ele>518</ele>
        <time>2021-10-14T21:10:55Z</time>
      </trkpt>
      <trkpt lat="45.95914" lon="4.58618">
        <ele>521</ele>
        <time>2021-10-14T21:11:01Z</time>
      </trkpt>
      <trkpt lat="45.95866" lon="4.5871">
        <ele>525</ele>
        <time>2021-10-14T21:11:15Z</time>
      </trkpt>
      <trkpt lat="45.95849" lon="4.58733">
        <ele>525</ele>
        <time>2021-10-14T21:11:19Z</time>
      </trkpt>
      <trkpt lat="45.95799" lon="4.5877">
        <ele>523</ele>
        <time>2021-10-14T21:11:29Z</time>
      </trkpt>
      <trkpt lat="45.95745" lon="4.58801">
        <ele>521</ele>
        <time>2021-10-14T21:11:40Z</time>
      </trkpt>
      <trkpt lat="45.95703" lon="4.5884">
        <ele>523</ele>
        <time>2021-10-14T21:11:48Z</time>
      </trkpt>
      <trkpt lat="45.95685" lon="4.58849">
        <ele>523</ele>
        <time>2021-10-14T21:11:52Z</time>
      </trkpt>
      <trkpt lat="45.95629" lon="4.58861">
        <ele>524</ele>
        <time>2021-10-14T21:12:02Z</time>
      </trkpt>
      <trkpt lat="45.95594" lon="4.58866">
        <ele>524</ele>
        <time>2021-10-14T21:12:08Z</time>
      </trkpt>
      <trkpt lat="45.95543" lon="4.58862">
        <ele>526</ele>
        <time>2021-10-14T21:12:17Z</time>
      </trkpt>
      <trkpt lat="45.95527" lon="4.58851">
        <ele>526</ele>
        <time>2021-10-14T21:12:20Z</time>
      </trkpt>
      <trkpt lat="45.95509" lon="4.58825">
        <ele>524</ele>
        <time>2021-10-14T21:12:25Z</time>
      </trkpt>
      <trkpt lat="45.95494" lon="4.58794">
        <ele>524</ele>
        <time>2021-10-14T21:12:30Z</time>
      </trkpt>
      <trkpt lat="45.95487" lon="4.58765">
        <ele>524</ele>
        <time>2021-10-14T21:12:33Z</time>
      </trkpt>
      <trkpt lat="45.95492" lon="4.58724">
        <ele>520</ele>
        <time>2021-10-14T21:12:39Z</time>
      </trkpt>
      <trkpt lat="45.95483" lon="4.58643">
        <ele>518</ele>
        <time>2021-10-14T21:12:49Z</time>
      </trkpt>
      <trkpt lat="45.95475" lon="4.58602">
        <ele>519</ele>
        <time>2021-10-14T21:12:54Z</time>
      </trkpt>
      <trkpt lat="45.9546" lon="4.5855">
        <ele>519</ele>
        <time>2021-10-14T21:13:01Z</time>
      </trkpt>
      <trkpt lat="45.9544" lon="4.58512">
        <ele>521</ele>
        <time>2021-10-14T21:13:07Z</time>
      </trkpt>
      <trkpt lat="45.9537" lon="4.58434">
        <ele>522</ele>
        <time>2021-10-14T21:13:23Z</time>
      </trkpt>
      <trkpt lat="45.95318" lon="4.58382">
        <ele>521</ele>
        <time>2021-10-14T21:13:34Z</time>
      </trkpt>
      <trkpt lat="45.95288" lon="4.58359">
        <ele>521</ele>
        <time>2021-10-14T21:13:40Z</time>
      </trkpt>
      <trkpt lat="45.95244" lon="4.58339">
        <ele>522</ele>
        <time>2021-10-14T21:13:48Z</time>
      </trkpt>
      <trkpt lat="45.95173" lon="4.5832">
        <ele>524</ele>
        <time>2021-10-14T21:14:01Z</time>
      </trkpt>
      <trkpt lat="45.95119" lon="4.5832">
        <ele>524</ele>
        <time>2021-10-14T21:14:11Z</time>
      </trkpt>
      <trkpt lat="45.95081" lon="4.58314">
        <ele>524</ele>
        <time>2021-10-14T21:14:17Z</time>
      </trkpt>
      <trkpt lat="45.94984" lon="4.58306">
        <ele>524</ele>
        <time>2021-10-14T21:14:35Z</time>
      </trkpt>
      <trkpt lat="45.94945" lon="4.58314">
        <ele>525</ele>
        <time>2021-10-14T21:14:42Z</time>
      </trkpt>
      <trkpt lat="45.9491" lon="4.58341">
        <ele>527</ele>
        <time>2021-10-14T21:14:49Z</time>
      </trkpt>
      <trkpt lat="45.94905" lon="4.58302">
        <ele>526</ele>
        <time>2021-10-14T21:14:54Z</time>
      </trkpt>
      <trkpt lat="45.94894" lon="4.58303">
        <ele>527</ele>
        <time>2021-10-14T21:14:56Z</time>
      </trkpt>
      <trkpt lat="45.94891" lon="4.58303">
        <ele>527</ele>
        <time>2021-10-14T21:14:56Z</time>
      </trkpt>
      <trkpt lat="45.94881" lon="4.58305">
        <ele>528</ele>
        <time>2021-10-14T21:14:58Z</time>
      </trkpt>
      <trkpt lat="45.94871" lon="4.58296">
        <ele>529</ele>
        <time>2021-10-14T21:15:00Z</time>
      </trkpt>
      <trkpt lat="45.94841" lon="4.58294">
        <ele>532</ele>
        <time>2021-10-14T21:15:05Z</time>
      </trkpt>
      <trkpt lat="45.94814" lon="4.58289">
        <ele>533</ele>
        <time>2021-10-14T21:15:10Z</time>
      </trkpt>
      <trkpt lat="45.94789" lon="4.58273">
        <ele>534</ele>
        <time>2021-10-14T21:15:15Z</time>
      </trkpt>
      <trkpt lat="45.94777" lon="4.58268">
        <ele>535</ele>
        <time>2021-10-14T21:15:17Z</time>
      </trkpt>
      <trkpt lat="45.94735" lon="4.58265">
        <ele>533</ele>
        <time>2021-10-14T21:15:25Z</time>
      </trkpt>
      <trkpt lat="45.94672" lon="4.58279">
        <ele>526</ele>
        <time>2021-10-14T21:15:36Z</time>
      </trkpt>
      <trkpt lat="45.94661" lon="4.58275">
        <ele>526</ele>
        <time>2021-10-14T21:15:38Z</time>
      </trkpt>
      <trkpt lat="45.94598" lon="4.58298">
        <ele>522</ele>
        <time>2021-10-14T21:15:50Z</time>
      </trkpt>
      <trkpt lat="45.94598" lon="4.58276">
        <ele>521</ele>
        <time>2021-10-14T21:15:52Z</time>
      </trkpt>
      <trkpt lat="45.94577" lon="4.58274">
        <ele>520</ele>
        <time>2021-10-14T21:15:56Z</time>
      </trkpt>
      <trkpt lat="45.94567" lon="4.58258">
        <ele>518</ele>
        <time>2021-10-14T21:15:59Z</time>
      </trkpt>
      <trkpt lat="45.94555" lon="4.58249">
        <ele>517</ele>
        <time>2021-10-14T21:16:01Z</time>
      </trkpt>
      <trkpt lat="45.9454" lon="4.58243">
        <ele>515</ele>
        <time>2021-10-14T21:16:04Z</time>
      </trkpt>
      <trkpt lat="45.94525" lon="4.58231">
        <ele>511</ele>
        <time>2021-10-14T21:16:07Z</time>
      </trkpt>
      <trkpt lat="45.94513" lon="4.58217">
        <ele>507</ele>
        <time>2021-10-14T21:16:10Z</time>
      </trkpt>
      <trkpt lat="45.9447" lon="4.58154">
        <ele>494</ele>
        <time>2021-10-14T21:16:21Z</time>
      </trkpt>
      <trkpt lat="45.94313" lon="4.58091">
        <ele>482</ele>
        <time>2021-10-14T21:16:50Z</time>
      </trkpt>
      <trkpt lat="45.94227" lon="4.58065">
        <ele>475</ele>
        <time>2021-10-14T21:17:05Z</time>
      </trkpt>
      <trkpt lat="45.94195" lon="4.58047">
        <ele>472</ele>
        <time>2021-10-14T21:17:12Z</time>
      </trkpt>
      <trkpt lat="45.94026" lon="4.57915">
        <ele>458</ele>
        <time>2021-10-14T21:17:46Z</time>
      </trkpt>
      <trkpt lat="45.93977" lon="4.57893">
        <ele>455</ele>
        <time>2021-10-14T21:17:55Z</time>
      </trkpt>
      <trkpt lat="45.93947" lon="4.57883">
        <ele>452</ele>
        <time>2021-10-14T21:18:00Z</time>
      </trkpt>
      <trkpt lat="45.93913" lon="4.57877">
        <ele>450</ele>
        <time>2021-10-14T21:18:06Z</time>
      </trkpt>
      <trkpt lat="45.93881" lon="4.57878">
        <ele>448</ele>
        <time>2021-10-14T21:18:12Z</time>
      </trkpt>
      <trkpt lat="45.93698" lon="4.57905">
        <ele>436</ele>
        <time>2021-10-14T21:18:45Z</time>
      </trkpt>
      <trkpt lat="45.93567" lon="4.5793">
        <ele>426</ele>
        <time>2021-10-14T21:19:08Z</time>
      </trkpt>
      <trkpt lat="45.93405" lon="4.58016">
        <ele>421</ele>
        <time>2021-10-14T21:19:39Z</time>
      </trkpt>
      <trkpt lat="45.93292" lon="4.58046">
        <ele>418</ele>
        <time>2021-10-14T21:20:00Z</time>
      </trkpt>
      <trkpt lat="45.93221" lon="4.58073">
        <ele>415</ele>
        <time>2021-10-14T21:20:13Z</time>
      </trkpt>
      <trkpt lat="45.9316" lon="4.58074">
        <ele>411</ele>
        <time>2021-10-14T21:20:24Z</time>
      </trkpt>
      <trkpt lat="45.93137" lon="4.58062">
        <ele>409</ele>
        <time>2021-10-14T21:20:28Z</time>
      </trkpt>
      <trkpt lat="45.93105" lon="4.58046">
        <ele>405</ele>
        <time>2021-10-14T21:20:34Z</time>
      </trkpt>
      <trkpt lat="45.93071" lon="4.58041">
        <ele>402</ele>
        <time>2021-10-14T21:20:40Z</time>
      </trkpt>
      <trkpt lat="45.93031" lon="4.58046">
        <ele>398</ele>
        <time>2021-10-14T21:20:47Z</time>
      </trkpt>
      <trkpt lat="45.92912" lon="4.58081">
        <ele>390</ele>
        <time>2021-10-14T21:21:09Z</time>
      </trkpt>
      <trkpt lat="45.92639" lon="4.58185">
        <ele>374</ele>
        <time>2021-10-14T21:21:59Z</time>
      </trkpt>
      <trkpt lat="45.926" lon="4.58194">
        <ele>371</ele>
        <time>2021-10-14T21:22:06Z</time>
      </trkpt>
      <trkpt lat="45.92597" lon="4.58187">
        <ele>370</ele>
        <time>2021-10-14T21:22:07Z</time>
      </trkpt>
      <trkpt lat="45.92591" lon="4.58184">
        <ele>370</ele>
        <time>2021-10-14T21:22:08Z</time>
      </trkpt>
      <trkpt lat="45.92586" lon="4.58188">
        <ele>370</ele>
        <time>2021-10-14T21:22:09Z</time>
      </trkpt>
      <trkpt lat="45.92584" lon="4.58193">
        <ele>370</ele>
        <time>2021-10-14T21:22:10Z</time>
      </trkpt>
      <trkpt lat="45.92585" lon="4.58203">
        <ele>370</ele>
        <time>2021-10-14T21:22:11Z</time>
      </trkpt>
      <trkpt lat="45.92526" lon="4.58224">
        <ele>367</ele>
        <time>2021-10-14T21:22:22Z</time>
      </trkpt>
      <trkpt lat="45.92459" lon="4.58269">
        <ele>365</ele>
        <time>2021-10-14T21:22:35Z</time>
      </trkpt>
      <trkpt lat="45.92338" lon="4.58373">
        <ele>362</ele>
        <time>2021-10-14T21:23:00Z</time>
      </trkpt>
      <trkpt lat="45.92319" lon="4.58396">
        <ele>361</ele>
        <time>2021-10-14T21:23:05Z</time>
      </trkpt>
      <trkpt lat="45.92279" lon="4.58449">
        <ele>360</ele>
        <time>2021-10-14T21:23:14Z</time>
      </trkpt>
      <trkpt lat="45.92194" lon="4.58533">
        <ele>358</ele>
        <time>2021-10-14T21:23:33Z</time>
      </trkpt>
      <trkpt lat="45.92183" lon="4.58546">
        <ele>358</ele>
        <time>2021-10-14T21:23:35Z</time>
      </trkpt>
      <trkpt lat="45.92176" lon="4.5852">
        <ele>357</ele>
        <time>2021-10-14T21:23:39Z</time>
      </trkpt>
      <trkpt lat="45.92156" lon="4.58477">
        <ele>356</ele>
        <time>2021-10-14T21:23:45Z</time>
      </trkpt>
      <trkpt lat="45.92131" lon="4.58436">
        <ele>354</ele>
        <time>2021-10-14T21:23:52Z</time>
      </trkpt>
      <trkpt lat="45.92111" lon="4.58417">
        <ele>352</ele>
        <time>2021-10-14T21:23:56Z</time>
      </trkpt>
      <trkpt lat="45.92082" lon="4.58405">
        <ele>350</ele>
        <time>2021-10-14T21:24:01Z</time>
      </trkpt>
      <trkpt lat="45.92023" lon="4.58407">
        <ele>346</ele>
        <time>2021-10-14T21:24:12Z</time>
      </trkpt>
      <trkpt lat="45.92011" lon="4.58404">
        <ele>345</ele>
        <time>2021-10-14T21:24:14Z</time>
      </trkpt>
      <trkpt lat="45.91988" lon="4.58383">
        <ele>342</ele>
        <time>2021-10-14T21:24:19Z</time>
      </trkpt>
      <trkpt lat="45.91971" lon="4.5836">
        <ele>341</ele>
        <time>2021-10-14T21:24:23Z</time>
      </trkpt>
      <trkpt lat="45.919" lon="4.58214">
        <ele>340</ele>
        <time>2021-10-14T21:24:45Z</time>
      </trkpt>
      <trkpt lat="45.91842" lon="4.58086">
        <ele>331</ele>
        <time>2021-10-14T21:25:04Z</time>
      </trkpt>
      <trkpt lat="45.91758" lon="4.5792">
        <ele>319</ele>
        <time>2021-10-14T21:25:29Z</time>
      </trkpt>
      <trkpt lat="45.91677" lon="4.57828">
        <ele>315</ele>
        <time>2021-10-14T21:25:48Z</time>
      </trkpt>
      <trkpt lat="45.91611" lon="4.57726">
        <ele>308</ele>
        <time>2021-10-14T21:26:05Z</time>
      </trkpt>
      <trkpt lat="45.91563" lon="4.57665">
        <ele>303</ele>
        <time>2021-10-14T21:26:16Z</time>
      </trkpt>
      <trkpt lat="45.91475" lon="4.57588">
        <ele>299</ele>
        <time>2021-10-14T21:26:35Z</time>
      </trkpt>
      <trkpt lat="45.91409" lon="4.5751">
        <ele>293</ele>
        <time>2021-10-14T21:26:50Z</time>
      </trkpt>
      <trkpt lat="45.9138" lon="4.57463">
        <ele>289</ele>
        <time>2021-10-14T21:26:58Z</time>
      </trkpt>
      <trkpt lat="45.91353" lon="4.57402">
        <ele>285</ele>
        <time>2021-10-14T21:27:07Z</time>
      </trkpt>
      <trkpt lat="45.91345" lon="4.57388">
        <ele>284</ele>
        <time>2021-10-14T21:27:09Z</time>
      </trkpt>
      <trkpt lat="45.91328" lon="4.57369">
        <ele>283</ele>
        <time>2021-10-14T21:27:13Z</time>
      </trkpt>
      <trkpt lat="45.9131" lon="4.57357">
        <ele>281</ele>
        <time>2021-10-14T21:27:16Z</time>
      </trkpt>
      <trkpt lat="45.91292" lon="4.57351">
        <ele>279</ele>
        <time>2021-10-14T21:27:20Z</time>
      </trkpt>
      <trkpt lat="45.91284" lon="4.57351">
        <ele>278</ele>
        <time>2021-10-14T21:27:21Z</time>
      </trkpt>
      <trkpt lat="45.91145" lon="4.57373">
        <ele>269</ele>
        <time>2021-10-14T21:27:46Z</time>
      </trkpt>
      <trkpt lat="45.91119" lon="4.57382">
        <ele>269</ele>
        <time>2021-10-14T21:27:51Z</time>
      </trkpt>
      <trkpt lat="45.91087" lon="4.57399">
        <ele>269</ele>
        <time>2021-10-14T21:27:57Z</time>
      </trkpt>
      <trkpt lat="45.91069" lon="4.57406">
        <ele>269</ele>
        <time>2021-10-14T21:28:00Z</time>
      </trkpt>
      <trkpt lat="45.91042" lon="4.57411">
        <ele>267</ele>
        <time>2021-10-14T21:28:05Z</time>
      </trkpt>
      <trkpt lat="45.90991" lon="4.57414">
        <ele>264</ele>
        <time>2021-10-14T21:28:14Z</time>
      </trkpt>
      <trkpt lat="45.90967" lon="4.57412">
        <ele>264</ele>
        <time>2021-10-14T21:28:18Z</time>
      </trkpt>
      <trkpt lat="45.90947" lon="4.57406">
        <ele>264</ele>
        <time>2021-10-14T21:28:22Z</time>
      </trkpt>
      <trkpt lat="45.90879" lon="4.57371">
        <ele>257</ele>
        <time>2021-10-14T21:28:35Z</time>
      </trkpt>
      <trkpt lat="45.90849" lon="4.5735">
        <ele>253</ele>
        <time>2021-10-14T21:28:41Z</time>
      </trkpt>
      <trkpt lat="45.90844" lon="4.57327">
        <ele>250</ele>
        <time>2021-10-14T21:28:44Z</time>
      </trkpt>
      <trkpt lat="45.90844" lon="4.57308">
        <ele>248</ele>
        <time>2021-10-14T21:28:46Z</time>
      </trkpt>
      <trkpt lat="45.90829" lon="4.57303">
        <ele>247</ele>
        <time>2021-10-14T21:28:49Z</time>
      </trkpt>
      <trkpt lat="45.90807" lon="4.57304">
        <ele>247</ele>
        <time>2021-10-14T21:28:53Z</time>
      </trkpt>
      <trkpt lat="45.90798" lon="4.57306">
        <ele>246</ele>
        <time>2021-10-14T21:28:54Z</time>
      </trkpt>
      <trkpt lat="45.90778" lon="4.57317">
        <ele>246</ele>
        <time>2021-10-14T21:28:58Z</time>
      </trkpt>
      <trkpt lat="45.90759" lon="4.57336">
        <ele>246</ele>
        <time>2021-10-14T21:29:02Z</time>
      </trkpt>
      <trkpt lat="45.90748" lon="4.57348">
        <ele>246</ele>
        <time>2021-10-14T21:29:05Z</time>
      </trkpt>
      <trkpt lat="45.90717" lon="4.57397">
        <ele>248</ele>
        <time>2021-10-14T21:29:13Z</time>
      </trkpt>
      <trkpt lat="45.90712" lon="4.57398">
        <ele>248</ele>
        <time>2021-10-14T21:29:14Z</time>
      </trkpt>
      <trkpt lat="45.9071" lon="4.57401">
        <ele>248</ele>
        <time>2021-10-14T21:29:14Z</time>
      </trkpt>
      <trkpt lat="45.90696" lon="4.57395">
        <ele>247</ele>
        <time>2021-10-14T21:29:17Z</time>
      </trkpt>
      <trkpt lat="45.90648" lon="4.57359">
        <ele>245</ele>
        <time>2021-10-14T21:29:27Z</time>
      </trkpt>
      <trkpt lat="45.90623" lon="4.5734">
        <ele>245</ele>
        <time>2021-10-14T21:29:32Z</time>
      </trkpt>
      <trkpt lat="45.90609" lon="4.57338">
        <ele>245</ele>
        <time>2021-10-14T21:29:34Z</time>
      </trkpt>
      <trkpt lat="45.90595" lon="4.57338">
        <ele>245</ele>
        <time>2021-10-14T21:29:37Z</time>
      </trkpt>
      <trkpt lat="45.9058" lon="4.57335">
        <ele>245</ele>
        <time>2021-10-14T21:29:39Z</time>
      </trkpt>
      <trkpt lat="45.90567" lon="4.57323">
        <ele>247</ele>
        <time>2021-10-14T21:29:42Z</time>
      </trkpt>
      <trkpt lat="45.90569" lon="4.57311">
        <ele>248</ele>
        <time>2021-10-14T21:29:44Z</time>
      </trkpt>
      <trkpt lat="45.90568" lon="4.57305">
        <ele>248</ele>
        <time>2021-10-14T21:29:44Z</time>
      </trkpt>
      <trkpt lat="45.90562" lon="4.57296">
        <ele>249</ele>
        <time>2021-10-14T21:29:46Z</time>
      </trkpt>
      <trkpt lat="45.90558" lon="4.57295">
        <ele>249</ele>
        <time>2021-10-14T21:29:47Z</time>
      </trkpt>
      <trkpt lat="45.9056" lon="4.57283">
        <ele>249</ele>
        <time>2021-10-14T21:29:48Z</time>
      </trkpt>
      <trkpt lat="45.90566" lon="4.57245">
        <ele>251</ele>
        <time>2021-10-14T21:29:53Z</time>
      </trkpt>
      <trkpt lat="45.90565" lon="4.57234">
        <ele>253</ele>
        <time>2021-10-14T21:29:54Z</time>
      </trkpt>
      <trkpt lat="45.90561" lon="4.57215">
        <ele>255</ele>
        <time>2021-10-14T21:29:57Z</time>
      </trkpt>
      <trkpt lat="45.90525" lon="4.57133">
        <ele>258</ele>
        <time>2021-10-14T21:30:09Z</time>
      </trkpt>
      <trkpt lat="45.90514" lon="4.57101">
        <ele>258</ele>
        <time>2021-10-14T21:30:13Z</time>
      </trkpt>
      <trkpt lat="45.90508" lon="4.57078">
        <ele>259</ele>
        <time>2021-10-14T21:30:16Z</time>
      </trkpt>
      <trkpt lat="45.90474" lon="4.56904">
        <ele>270</ele>
        <time>2021-10-14T21:30:39Z</time>
      </trkpt>
      <trkpt lat="45.90452" lon="4.56839">
        <ele>268</ele>
        <time>2021-10-14T21:30:48Z</time>
      </trkpt>
      <trkpt lat="45.90441" lon="4.56817">
        <ele>269</ele>
        <time>2021-10-14T21:30:51Z</time>
      </trkpt>
      <trkpt lat="45.90428" lon="4.56796">
        <ele>270</ele>
        <time>2021-10-14T21:30:54Z</time>
      </trkpt>
      <trkpt lat="45.90367" lon="4.56722">
        <ele>271</ele>
        <time>2021-10-14T21:31:09Z</time>
      </trkpt>
      <trkpt lat="45.90343" lon="4.56691">
        <ele>271</ele>
        <time>2021-10-14T21:31:14Z</time>
      </trkpt>
      <trkpt lat="45.90311" lon="4.56645">
        <ele>274</ele>
        <time>2021-10-14T21:31:22Z</time>
      </trkpt>
      <trkpt lat="45.90289" lon="4.56607">
        <ele>275</ele>
        <time>2021-10-14T21:31:28Z</time>
      </trkpt>
      <trkpt lat="45.9027" lon="4.56565">
        <ele>274</ele>
        <time>2021-10-14T21:31:35Z</time>
      </trkpt>
      <trkpt lat="45.90157" lon="4.56278">
        <ele>279</ele>
        <time>2021-10-14T21:32:16Z</time>
      </trkpt>
      <trkpt lat="45.90139" lon="4.5621">
        <ele>279</ele>
        <time>2021-10-14T21:32:25Z</time>
      </trkpt>
      <trkpt lat="45.90127" lon="4.56153">
        <ele>279</ele>
        <time>2021-10-14T21:32:32Z</time>
      </trkpt>
      <trkpt lat="45.90119" lon="4.56098">
        <ele>279</ele>
        <time>2021-10-14T21:32:39Z</time>
      </trkpt>
      <trkpt lat="45.90106" lon="4.55938">
        <ele>281</ele>
        <time>2021-10-14T21:32:59Z</time>
      </trkpt>
      <trkpt lat="45.90106" lon="4.5589">
        <ele>281</ele>
        <time>2021-10-14T21:33:05Z</time>
      </trkpt>
      <trkpt lat="45.90109" lon="4.55864">
        <ele>280</ele>
        <time>2021-10-14T21:33:08Z</time>
      </trkpt>
      <trkpt lat="45.90117" lon="4.55825">
        <ele>280</ele>
        <time>2021-10-14T21:33:13Z</time>
      </trkpt>
      <trkpt lat="45.90183" lon="4.5562">
        <ele>280</ele>
        <time>2021-10-14T21:33:41Z</time>
      </trkpt>
      <trkpt lat="45.90191" lon="4.55576">
        <ele>280</ele>
        <time>2021-10-14T21:33:47Z</time>
      </trkpt>
      <trkpt lat="45.90198" lon="4.55499">
        <ele>278</ele>
        <time>2021-10-14T21:33:56Z</time>
      </trkpt>
      <trkpt lat="45.90201" lon="4.55418">
        <ele>278</ele>
        <time>2021-10-14T21:34:06Z</time>
      </trkpt>
      <trkpt lat="45.90196" lon="4.55351">
        <ele>274</ele>
        <time>2021-10-14T21:34:15Z</time>
      </trkpt>
      <trkpt lat="45.90181" lon="4.55282">
        <ele>272</ele>
        <time>2021-10-14T21:34:24Z</time>
      </trkpt>
      <trkpt lat="45.90177" lon="4.55252">
        <ele>272</ele>
        <time>2021-10-14T21:34:27Z</time>
      </trkpt>
      <trkpt lat="45.90174" lon="4.55217">
        <ele>273</ele>
        <time>2021-10-14T21:34:32Z</time>
      </trkpt>
      <trkpt lat="45.90173" lon="4.55174">
        <ele>275</ele>
        <time>2021-10-14T21:34:37Z</time>
      </trkpt>
      <trkpt lat="45.90175" lon="4.55128">
        <ele>277</ele>
        <time>2021-10-14T21:34:43Z</time>
      </trkpt>
      <trkpt lat="45.9018" lon="4.55083">
        <ele>279</ele>
        <time>2021-10-14T21:34:48Z</time>
      </trkpt>
      <trkpt lat="45.90236" lon="4.54827">
        <ele>275</ele>
        <time>2021-10-14T21:35:22Z</time>
      </trkpt>
      <trkpt lat="45.90245" lon="4.54796">
        <ele>274</ele>
        <time>2021-10-14T21:35:26Z</time>
      </trkpt>
      <trkpt lat="45.90256" lon="4.54769">
        <ele>274</ele>
        <time>2021-10-14T21:35:30Z</time>
      </trkpt>
      <trkpt lat="45.90316" lon="4.54657">
        <ele>276</ele>
        <time>2021-10-14T21:35:47Z</time>
      </trkpt>
      <trkpt lat="45.90331" lon="4.54622">
        <ele>276</ele>
        <time>2021-10-14T21:35:52Z</time>
      </trkpt>
      <trkpt lat="45.90338" lon="4.54594">
        <ele>276</ele>
        <time>2021-10-14T21:35:56Z</time>
      </trkpt>
      <trkpt lat="45.90343" lon="4.54565">
        <ele>276</ele>
        <time>2021-10-14T21:36:00Z</time>
      </trkpt>
      <trkpt lat="45.90345" lon="4.54533">
        <ele>276</ele>
        <time>2021-10-14T21:36:04Z</time>
      </trkpt>
      <trkpt lat="45.90344" lon="4.54501">
        <ele>276</ele>
        <time>2021-10-14T21:36:08Z</time>
      </trkpt>
      <trkpt lat="45.90337" lon="4.54458">
        <ele>277</ele>
        <time>2021-10-14T21:36:13Z</time>
      </trkpt>
      <trkpt lat="45.90314" lon="4.54348">
        <ele>279</ele>
        <time>2021-10-14T21:36:27Z</time>
      </trkpt>
      <trkpt lat="45.90307" lon="4.543">
        <ele>281</ele>
        <time>2021-10-14T21:36:33Z</time>
      </trkpt>
      <trkpt lat="45.90304" lon="4.5425">
        <ele>284</ele>
        <time>2021-10-14T21:36:40Z</time>
      </trkpt>
      <trkpt lat="45.90281" lon="4.53668">
        <ele>285</ele>
        <time>2021-10-14T21:37:52Z</time>
      </trkpt>
      <trkpt lat="45.90281" lon="4.53628">
        <ele>285</ele>
        <time>2021-10-14T21:37:57Z</time>
      </trkpt>
      <trkpt lat="45.90284" lon="4.53585">
        <ele>285</ele>
        <time>2021-10-14T21:38:02Z</time>
      </trkpt>
      <trkpt lat="45.90292" lon="4.53534">
        <ele>286</ele>
        <time>2021-10-14T21:38:09Z</time>
      </trkpt>
      <trkpt lat="45.90304" lon="4.53473">
        <ele>286</ele>
        <time>2021-10-14T21:38:16Z</time>
      </trkpt>
      <trkpt lat="45.90388" lon="4.53144">
        <ele>294</ele>
        <time>2021-10-14T21:39:00Z</time>
      </trkpt>
      <trkpt lat="45.90398" lon="4.53095">
        <ele>294</ele>
        <time>2021-10-14T21:39:06Z</time>
      </trkpt>
      <trkpt lat="45.90419" lon="4.52951">
        <ele>293</ele>
        <time>2021-10-14T21:39:24Z</time>
      </trkpt>
      <trkpt lat="45.90432" lon="4.52874">
        <ele>295</ele>
        <time>2021-10-14T21:39:34Z</time>
      </trkpt>
      <trkpt lat="45.90443" lon="4.52826">
        <ele>297</ele>
        <time>2021-10-14T21:39:40Z</time>
      </trkpt>
      <trkpt lat="45.90479" lon="4.52691">
        <ele>300</ele>
        <time>2021-10-14T21:39:58Z</time>
      </trkpt>
      <trkpt lat="45.90506" lon="4.52632">
        <ele>301</ele>
        <time>2021-10-14T21:40:07Z</time>
      </trkpt>
      <trkpt lat="45.90517" lon="4.52599">
        <ele>302</ele>
        <time>2021-10-14T21:40:12Z</time>
      </trkpt>
      <trkpt lat="45.90524" lon="4.52572">
        <ele>303</ele>
        <time>2021-10-14T21:40:15Z</time>
      </trkpt>
      <trkpt lat="45.90537" lon="4.52494">
        <ele>305</ele>
        <time>2021-10-14T21:40:25Z</time>
      </trkpt>
      <trkpt lat="45.90546" lon="4.52463">
        <ele>306</ele>
        <time>2021-10-14T21:40:29Z</time>
      </trkpt>
      <trkpt lat="45.90584" lon="4.52364">
        <ele>305</ele>
        <time>2021-10-14T21:40:43Z</time>
      </trkpt>
      <trkpt lat="45.90606" lon="4.52318">
        <ele>306</ele>
        <time>2021-10-14T21:40:50Z</time>
      </trkpt>
      <trkpt lat="45.90698" lon="4.52163">
        <ele>311</ele>
        <time>2021-10-14T21:41:15Z</time>
      </trkpt>
      <trkpt lat="45.90753" lon="4.52061">
        <ele>309</ele>
        <time>2021-10-14T21:41:31Z</time>
      </trkpt>
      <trkpt lat="45.90772" lon="4.52019">
        <ele>311</ele>
        <time>2021-10-14T21:41:38Z</time>
      </trkpt>
      <trkpt lat="45.90783" lon="4.51919">
        <ele>308</ele>
        <time>2021-10-14T21:41:50Z</time>
      </trkpt>
      <trkpt lat="45.9085" lon="4.51675">
        <ele>305</ele>
        <time>2021-10-14T21:42:23Z</time>
      </trkpt>
      <trkpt lat="45.90932" lon="4.51441">
        <ele>308</ele>
        <time>2021-10-14T21:42:55Z</time>
      </trkpt>
      <trkpt lat="45.90951" lon="4.5135">
        <ele>311</ele>
        <time>2021-10-14T21:43:07Z</time>
      </trkpt>
      <trkpt lat="45.9097" lon="4.51204">
        <ele>310</ele>
        <time>2021-10-14T21:43:25Z</time>
      </trkpt>
      <trkpt lat="45.90969" lon="4.51115">
        <ele>308</ele>
        <time>2021-10-14T21:43:36Z</time>
      </trkpt>
      <trkpt lat="45.9097" lon="4.51018">
        <ele>309</ele>
        <time>2021-10-14T21:43:48Z</time>
      </trkpt>
      <trkpt lat="45.90976" lon="4.50935">
        <ele>312</ele>
        <time>2021-10-14T21:43:58Z</time>
      </trkpt>
      <trkpt lat="45.90981" lon="4.50902">
        <ele>313</ele>
        <time>2021-10-14T21:44:03Z</time>
      </trkpt>
      <trkpt lat="45.90989" lon="4.5087">
        <ele>312</ele>
        <time>2021-10-14T21:44:07Z</time>
      </trkpt>
      <trkpt lat="45.91002" lon="4.50834">
        <ele>312</ele>
        <time>2021-10-14T21:44:12Z</time>
      </trkpt>
      <trkpt lat="45.9101" lon="4.50806">
        <ele>313</ele>
        <time>2021-10-14T21:44:16Z</time>
      </trkpt>
      <trkpt lat="45.91014" lon="4.50785">
        <ele>314</ele>
        <time>2021-10-14T21:44:18Z</time>
      </trkpt>
      <trkpt lat="45.91016" lon="4.50763">
        <ele>314</ele>
        <time>2021-10-14T21:44:21Z</time>
      </trkpt>
      <trkpt lat="45.91015" lon="4.5074">
        <ele>314</ele>
        <time>2021-10-14T21:44:24Z</time>
      </trkpt>
      <trkpt lat="45.91012" lon="4.50715">
        <ele>314</ele>
        <time>2021-10-14T21:44:27Z</time>
      </trkpt>
      <trkpt lat="45.90991" lon="4.50609">
        <ele>315</ele>
        <time>2021-10-14T21:44:41Z</time>
      </trkpt>
      <trkpt lat="45.9099" lon="4.50574">
        <ele>316</ele>
        <time>2021-10-14T21:44:45Z</time>
      </trkpt>
      <trkpt lat="45.90992" lon="4.50526">
        <ele>315</ele>
        <time>2021-10-14T21:44:51Z</time>
      </trkpt>
      <trkpt lat="45.90995" lon="4.5049">
        <ele>315</ele>
        <time>2021-10-14T21:44:55Z</time>
      </trkpt>
      <trkpt lat="45.91002" lon="4.50455">
        <ele>315</ele>
        <time>2021-10-14T21:45:00Z</time>
      </trkpt>
      <trkpt lat="45.91013" lon="4.50422">
        <ele>317</ele>
        <time>2021-10-14T21:45:05Z</time>
      </trkpt>
      <trkpt lat="45.9103" lon="4.50385">
        <ele>320</ele>
        <time>2021-10-14T21:45:10Z</time>
      </trkpt>
      <trkpt lat="45.91052" lon="4.50348">
        <ele>323</ele>
        <time>2021-10-14T21:45:16Z</time>
      </trkpt>
      <trkpt lat="45.91074" lon="4.50304">
        <ele>325</ele>
        <time>2021-10-14T21:45:23Z</time>
      </trkpt>
      <trkpt lat="45.91085" lon="4.50266">
        <ele>324</ele>
        <time>2021-10-14T21:45:28Z</time>
      </trkpt>
      <trkpt lat="45.91136" lon="4.50057">
        <ele>326</ele>
        <time>2021-10-14T21:45:55Z</time>
      </trkpt>
      <trkpt lat="45.91148" lon="4.50025">
        <ele>326</ele>
        <time>2021-10-14T21:46:00Z</time>
      </trkpt>
      <trkpt lat="45.91161" lon="4.49998">
        <ele>325</ele>
        <time>2021-10-14T21:46:04Z</time>
      </trkpt>
      <trkpt lat="45.91189" lon="4.49957">
        <ele>324</ele>
        <time>2021-10-14T21:46:11Z</time>
      </trkpt>
      <trkpt lat="45.91227" lon="4.49911">
        <ele>326</ele>
        <time>2021-10-14T21:46:20Z</time>
      </trkpt>
      <trkpt lat="45.91252" lon="4.49863">
        <ele>327</ele>
        <time>2021-10-14T21:46:27Z</time>
      </trkpt>
      <trkpt lat="45.9127" lon="4.49816">
        <ele>329</ele>
        <time>2021-10-14T21:46:34Z</time>
      </trkpt>
      <trkpt lat="45.91296" lon="4.49705">
        <ele>330</ele>
        <time>2021-10-14T21:46:48Z</time>
      </trkpt>
      <trkpt lat="45.91322" lon="4.49644">
        <ele>329</ele>
        <time>2021-10-14T21:46:57Z</time>
      </trkpt>
      <trkpt lat="45.9136" lon="4.4959">
        <ele>331</ele>
        <time>2021-10-14T21:47:07Z</time>
      </trkpt>
      <trkpt lat="45.91453" lon="4.49492">
        <ele>341</ele>
        <time>2021-10-14T21:47:27Z</time>
      </trkpt>
      <trkpt lat="45.91483" lon="4.49444">
        <ele>343</ele>
        <time>2021-10-14T21:47:35Z</time>
      </trkpt>
      <trkpt lat="45.91536" lon="4.49291">
        <ele>336</ele>
        <time>2021-10-14T21:47:56Z</time>
      </trkpt>
      <trkpt lat="45.91603" lon="4.49155">
        <ele>333</ele>
        <time>2021-10-14T21:48:17Z</time>
      </trkpt>
      <trkpt lat="45.91629" lon="4.49115">
        <ele>335</ele>
        <time>2021-10-14T21:48:24Z</time>
      </trkpt>
      <trkpt lat="45.91662" lon="4.49076">
        <ele>336</ele>
        <time>2021-10-14T21:48:31Z</time>
      </trkpt>
      <trkpt lat="45.91724" lon="4.49019">
        <ele>334</ele>
        <time>2021-10-14T21:48:44Z</time>
      </trkpt>
      <trkpt lat="45.91742" lon="4.48998">
        <ele>331</ele>
        <time>2021-10-14T21:48:49Z</time>
      </trkpt>
      <trkpt lat="45.91758" lon="4.48975">
        <ele>329</ele>
        <time>2021-10-14T21:48:53Z</time>
      </trkpt>
      <trkpt lat="45.91777" lon="4.48941">
        <ele>329</ele>
        <time>2021-10-14T21:48:58Z</time>
      </trkpt>
      <trkpt lat="45.91791" lon="4.48909">
        <ele>329</ele>
        <time>2021-10-14T21:49:03Z</time>
      </trkpt>
      <trkpt lat="45.91816" lon="4.48826">
        <ele>336</ele>
        <time>2021-10-14T21:49:14Z</time>
      </trkpt>
      <trkpt lat="45.91841" lon="4.48728">
        <ele>335</ele>
        <time>2021-10-14T21:49:27Z</time>
      </trkpt>
      <trkpt lat="45.91853" lon="4.48688">
        <ele>336</ele>
        <time>2021-10-14T21:49:32Z</time>
      </trkpt>
      <trkpt lat="45.91866" lon="4.48654">
        <ele>338</ele>
        <time>2021-10-14T21:49:37Z</time>
      </trkpt>
      <trkpt lat="45.91886" lon="4.48617">
        <ele>340</ele>
        <time>2021-10-14T21:49:43Z</time>
      </trkpt>
      <trkpt lat="45.9193" lon="4.48548">
        <ele>342</ele>
        <time>2021-10-14T21:49:54Z</time>
      </trkpt>
      <trkpt lat="45.91951" lon="4.48512">
        <ele>343</ele>
        <time>2021-10-14T21:50:00Z</time>
      </trkpt>
      <trkpt lat="45.92236" lon="4.47978">
        <ele>348</ele>
        <time>2021-10-14T21:51:24Z</time>
      </trkpt>
      <trkpt lat="45.92254" lon="4.47937">
        <ele>346</ele>
        <time>2021-10-14T21:51:30Z</time>
      </trkpt>
      <trkpt lat="45.92267" lon="4.47896">
        <ele>347</ele>
        <time>2021-10-14T21:51:35Z</time>
      </trkpt>
      <trkpt lat="45.92274" lon="4.47868">
        <ele>348</ele>
        <time>2021-10-14T21:51:39Z</time>
      </trkpt>
      <trkpt lat="45.92279" lon="4.47839">
        <ele>349</ele>
        <time>2021-10-14T21:51:42Z</time>
      </trkpt>
      <trkpt lat="45.92281" lon="4.47811">
        <ele>349</ele>
        <time>2021-10-14T21:51:46Z</time>
      </trkpt>
      <trkpt lat="45.92282" lon="4.47762">
        <ele>350</ele>
        <time>2021-10-14T21:51:52Z</time>
      </trkpt>
      <trkpt lat="45.9228" lon="4.47729">
        <ele>351</ele>
        <time>2021-10-14T21:51:56Z</time>
      </trkpt>
      <trkpt lat="45.92274" lon="4.47693">
        <ele>350</ele>
        <time>2021-10-14T21:52:01Z</time>
      </trkpt>
      <trkpt lat="45.92266" lon="4.47658">
        <ele>350</ele>
        <time>2021-10-14T21:52:05Z</time>
      </trkpt>
      <trkpt lat="45.92255" lon="4.47626">
        <ele>349</ele>
        <time>2021-10-14T21:52:10Z</time>
      </trkpt>
      <trkpt lat="45.9223" lon="4.47564">
        <ele>353</ele>
        <time>2021-10-14T21:52:19Z</time>
      </trkpt>
      <trkpt lat="45.92206" lon="4.475">
        <ele>355</ele>
        <time>2021-10-14T21:52:28Z</time>
      </trkpt>
      <trkpt lat="45.92192" lon="4.47453">
        <ele>354</ele>
        <time>2021-10-14T21:52:34Z</time>
      </trkpt>
      <trkpt lat="45.9218" lon="4.4741">
        <ele>352</ele>
        <time>2021-10-14T21:52:40Z</time>
      </trkpt>
      <trkpt lat="45.92173" lon="4.47364">
        <ele>351</ele>
        <time>2021-10-14T21:52:45Z</time>
      </trkpt>
      <trkpt lat="45.92167" lon="4.47312">
        <ele>351</ele>
        <time>2021-10-14T21:52:52Z</time>
      </trkpt>
      <trkpt lat="45.92166" lon="4.47241">
        <ele>353</ele>
        <time>2021-10-14T21:53:01Z</time>
      </trkpt>
      <trkpt lat="45.92168" lon="4.47203">
        <ele>354</ele>
        <time>2021-10-14T21:53:05Z</time>
      </trkpt>
      <trkpt lat="45.92177" lon="4.47137">
        <ele>357</ele>
        <time>2021-10-14T21:53:14Z</time>
      </trkpt>
      <trkpt lat="45.92236" lon="4.46746">
        <ele>367</ele>
        <time>2021-10-14T21:54:03Z</time>
      </trkpt>
      <trkpt lat="45.92248" lon="4.46616">
        <ele>362</ele>
        <time>2021-10-14T21:54:20Z</time>
      </trkpt>
      <trkpt lat="45.92255" lon="4.46581">
        <ele>363</ele>
        <time>2021-10-14T21:54:24Z</time>
      </trkpt>
      <trkpt lat="45.92264" lon="4.46551">
        <ele>365</ele>
        <time>2021-10-14T21:54:28Z</time>
      </trkpt>
      <trkpt lat="45.92297" lon="4.46478">
        <ele>371</ele>
        <time>2021-10-14T21:54:39Z</time>
      </trkpt>
      <trkpt lat="45.92306" lon="4.46445">
        <ele>370</ele>
        <time>2021-10-14T21:54:43Z</time>
      </trkpt>
      <trkpt lat="45.92314" lon="4.46408">
        <ele>369</ele>
        <time>2021-10-14T21:54:48Z</time>
      </trkpt>
      <trkpt lat="45.92319" lon="4.46362">
        <ele>368</ele>
        <time>2021-10-14T21:54:54Z</time>
      </trkpt>
      <trkpt lat="45.92322" lon="4.46325">
        <ele>368</ele>
        <time>2021-10-14T21:54:58Z</time>
      </trkpt>
      <trkpt lat="45.92321" lon="4.46294">
        <ele>367</ele>
        <time>2021-10-14T21:55:02Z</time>
      </trkpt>
      <trkpt lat="45.92305" lon="4.46146">
        <ele>367</ele>
        <time>2021-10-14T21:55:21Z</time>
      </trkpt>
      <trkpt lat="45.92303" lon="4.46049">
        <ele>368</ele>
        <time>2021-10-14T21:55:33Z</time>
      </trkpt>
      <trkpt lat="45.92304" lon="4.45898">
        <ele>372</ele>
        <time>2021-10-14T21:55:52Z</time>
      </trkpt>
      <trkpt lat="45.92309" lon="4.45747">
        <ele>378</ele>
        <time>2021-10-14T21:56:10Z</time>
      </trkpt>
      <trkpt lat="45.92315" lon="4.45424">
        <ele>388</ele>
        <time>2021-10-14T21:56:50Z</time>
      </trkpt>
      <trkpt lat="45.92343" lon="4.45262">
        <ele>389</ele>
        <time>2021-10-14T21:57:11Z</time>
      </trkpt>
      <trkpt lat="45.92367" lon="4.45159">
        <ele>392</ele>
        <time>2021-10-14T21:57:24Z</time>
      </trkpt>
      <trkpt lat="45.9239" lon="4.45091">
        <ele>390</ele>
        <time>2021-10-14T21:57:34Z</time>
      </trkpt>
      <trkpt lat="45.92418" lon="4.45028">
        <ele>384</ele>
        <time>2021-10-14T21:57:43Z</time>
      </trkpt>
      <trkpt lat="45.92446" lon="4.44976">
        <ele>387</ele>
        <time>2021-10-14T21:57:51Z</time>
      </trkpt>
      <trkpt lat="45.92436" lon="4.44968">
        <ele>388</ele>
        <time>2021-10-14T21:57:53Z</time>
      </trkpt>
      <trkpt lat="45.92429" lon="4.44965">
        <ele>389</ele>
        <time>2021-10-14T21:57:54Z</time>
      </trkpt>
      <trkpt lat="45.92423" lon="4.4497">
        <ele>389</ele>
        <time>2021-10-14T21:57:56Z</time>
      </trkpt>
      <trkpt lat="45.92414" lon="4.44979">
        <ele>389</ele>
        <time>2021-10-14T21:57:58Z</time>
      </trkpt>
      <trkpt lat="45.92381" lon="4.45027">
        <ele>398</ele>
        <time>2021-10-14T21:58:06Z</time>
      </trkpt>
      <trkpt lat="45.92372" lon="4.45042">
        <ele>401</ele>
        <time>2021-10-14T21:58:08Z</time>
      </trkpt>
      <trkpt lat="45.92366" lon="4.4506">
        <ele>401</ele>
        <time>2021-10-14T21:58:11Z</time>
      </trkpt>
      <trkpt lat="45.9235" lon="4.45128">
        <ele>400</ele>
        <time>2021-10-14T21:58:20Z</time>
      </trkpt>
      <trkpt lat="45.92347" lon="4.45124">
        <ele>401</ele>
        <time>2021-10-14T21:58:20Z</time>
      </trkpt>
      <trkpt lat="45.92345" lon="4.45117">
        <ele>402</ele>
        <time>2021-10-14T21:58:21Z</time>
      </trkpt>
      <trkpt lat="45.92347" lon="4.45093">
        <ele>404</ele>
        <time>2021-10-14T21:58:24Z</time>
      </trkpt>
      <trkpt lat="45.92363" lon="4.45001">
        <ele>409</ele>
        <time>2021-10-14T21:58:36Z</time>
      </trkpt>
      <trkpt lat="45.92385" lon="4.44912">
        <ele>408</ele>
        <time>2021-10-14T21:58:48Z</time>
      </trkpt>
      <trkpt lat="45.92385" lon="4.44891">
        <ele>408</ele>
        <time>2021-10-14T21:58:50Z</time>
      </trkpt>
      <trkpt lat="45.92363" lon="4.44858">
        <ele>415</ele>
        <time>2021-10-14T21:58:56Z</time>
      </trkpt>
      <trkpt lat="45.92315" lon="4.44761">
        <ele>423</ele>
        <time>2021-10-14T21:59:11Z</time>
      </trkpt>
      <trkpt lat="45.92298" lon="4.44748">
        <ele>427</ele>
        <time>2021-10-14T21:59:14Z</time>
      </trkpt>
      <trkpt lat="45.92254" lon="4.44726">
        <ele>438</ele>
        <time>2021-10-14T21:59:23Z</time>
      </trkpt>
      <trkpt lat="45.92217" lon="4.44687">
        <ele>445</ele>
        <time>2021-10-14T21:59:31Z</time>
      </trkpt>
      <trkpt lat="45.9219" lon="4.44667">
        <ele>448</ele>
        <time>2021-10-14T21:59:36Z</time>
      </trkpt>
      <trkpt lat="45.92166" lon="4.44657">
        <ele>453</ele>
        <time>2021-10-14T21:59:41Z</time>
      </trkpt>
      <trkpt lat="45.92128" lon="4.44646">
        <ele>461</ele>
        <time>2021-10-14T21:59:47Z</time>
      </trkpt>
      <trkpt lat="45.92111" lon="4.44632">
        <ele>462</ele>
        <time>2021-10-14T21:59:51Z</time>
      </trkpt>
      <trkpt lat="45.9209" lon="4.44619">
        <ele>464</ele>
        <time>2021-10-14T21:59:55Z</time>
      </trkpt>
      <trkpt lat="45.92071" lon="4.4461">
        <ele>464</ele>
        <time>2021-10-14T21:59:59Z</time>
      </trkpt>
      <trkpt lat="45.92046" lon="4.4462">
        <ele>469</ele>
        <time>2021-10-14T22:00:03Z</time>
      </trkpt>
      <trkpt lat="45.92011" lon="4.44629">
        <ele>474</ele>
        <time>2021-10-14T22:00:10Z</time>
      </trkpt>
      <trkpt lat="45.91976" lon="4.44654">
        <ele>480</ele>
        <time>2021-10-14T22:00:16Z</time>
      </trkpt>
      <trkpt lat="45.91934" lon="4.44691">
        <ele>486</ele>
        <time>2021-10-14T22:00:25Z</time>
      </trkpt>
      <trkpt lat="45.91875" lon="4.44762">
        <ele>496</ele>
        <time>2021-10-14T22:00:39Z</time>
      </trkpt>
      <trkpt lat="45.91845" lon="4.44791">
        <ele>499</ele>
        <time>2021-10-14T22:00:45Z</time>
      </trkpt>
      <trkpt lat="45.91808" lon="4.44818">
        <ele>504</ele>
        <time>2021-10-14T22:00:53Z</time>
      </trkpt>
      <trkpt lat="45.9176" lon="4.44846">
        <ele>510</ele>
        <time>2021-10-14T22:01:02Z</time>
      </trkpt>
      <trkpt lat="45.91744" lon="4.4485">
        <ele>512</ele>
        <time>2021-10-14T22:01:05Z</time>
      </trkpt>
      <trkpt lat="45.9173" lon="4.44846">
        <ele>514</ele>
        <time>2021-10-14T22:01:07Z</time>
      </trkpt>
      <trkpt lat="45.91702" lon="4.4483">
        <ele>518</ele>
        <time>2021-10-14T22:01:13Z</time>
      </trkpt>
      <trkpt lat="45.9162" lon="4.44744">
        <ele>528</ele>
        <time>2021-10-14T22:01:31Z</time>
      </trkpt>
      <trkpt lat="45.91598" lon="4.44725">
        <ele>533</ele>
        <time>2021-10-14T22:01:35Z</time>
      </trkpt>
      <trkpt lat="45.91572" lon="4.44715">
        <ele>541</ele>
        <time>2021-10-14T22:01:40Z</time>
      </trkpt>
      <trkpt lat="45.91553" lon="4.44703">
        <ele>548</ele>
        <time>2021-10-14T22:01:44Z</time>
      </trkpt>
      <trkpt lat="45.91544" lon="4.44687">
        <ele>552</ele>
        <time>2021-10-14T22:01:46Z</time>
      </trkpt>
      <trkpt lat="45.9154" lon="4.44671">
        <ele>555</ele>
        <time>2021-10-14T22:01:49Z</time>
      </trkpt>
      <trkpt lat="45.91541" lon="4.44627">
        <ele>560</ele>
        <time>2021-10-14T22:01:54Z</time>
      </trkpt>
      <trkpt lat="45.91539" lon="4.44607">
        <ele>564</ele>
        <time>2021-10-14T22:01:56Z</time>
      </trkpt>
      <trkpt lat="45.91531" lon="4.44563">
        <ele>573</ele>
        <time>2021-10-14T22:02:02Z</time>
      </trkpt>
      <trkpt lat="45.91536" lon="4.44533">
        <ele>575</ele>
        <time>2021-10-14T22:02:06Z</time>
      </trkpt>
      <trkpt lat="45.91544" lon="4.44525">
        <ele>574</ele>
        <time>2021-10-14T22:02:08Z</time>
      </trkpt>
      <trkpt lat="45.91578" lon="4.44505">
        <ele>568</ele>
        <time>2021-10-14T22:02:14Z</time>
      </trkpt>
      <trkpt lat="45.91588" lon="4.44497">
        <ele>566</ele>
        <time>2021-10-14T22:02:16Z</time>
      </trkpt>
      <trkpt lat="45.91594" lon="4.44482">
        <ele>566</ele>
        <time>2021-10-14T22:02:18Z</time>
      </trkpt>
      <trkpt lat="45.91601" lon="4.44461">
        <ele>566</ele>
        <time>2021-10-14T22:02:21Z</time>
      </trkpt>
      <trkpt lat="45.916" lon="4.44379">
        <ele>576</ele>
        <time>2021-10-14T22:02:31Z</time>
      </trkpt>
      <trkpt lat="45.91598" lon="4.44363">
        <ele>578</ele>
        <time>2021-10-14T22:02:33Z</time>
      </trkpt>
      <trkpt lat="45.91602" lon="4.44333">
        <ele>581</ele>
        <time>2021-10-14T22:02:37Z</time>
      </trkpt>
      <trkpt lat="45.91648" lon="4.44242">
        <ele>585</ele>
        <time>2021-10-14T22:02:51Z</time>
      </trkpt>
      <trkpt lat="45.91658" lon="4.44218">
        <ele>586</ele>
        <time>2021-10-14T22:02:55Z</time>
      </trkpt>
      <trkpt lat="45.91663" lon="4.44193">
        <ele>588</ele>
        <time>2021-10-14T22:02:58Z</time>
      </trkpt>
      <trkpt lat="45.91668" lon="4.44147">
        <ele>590</ele>
        <time>2021-10-14T22:03:04Z</time>
      </trkpt>
      <trkpt lat="45.91664" lon="4.44104">
        <ele>591</ele>
        <time>2021-10-14T22:03:09Z</time>
      </trkpt>
      <trkpt lat="45.91652" lon="4.44036">
        <ele>591</ele>
        <time>2021-10-14T22:03:18Z</time>
      </trkpt>
      <trkpt lat="45.91635" lon="4.43958">
        <ele>592</ele>
        <time>2021-10-14T22:03:28Z</time>
      </trkpt>
      <trkpt lat="45.91628" lon="4.43937">
        <ele>592</ele>
        <time>2021-10-14T22:03:31Z</time>
      </trkpt>
      <trkpt lat="45.91616" lon="4.43919">
        <ele>592</ele>
        <time>2021-10-14T22:03:34Z</time>
      </trkpt>
      <trkpt lat="45.91598" lon="4.43916">
        <ele>592</ele>
        <time>2021-10-14T22:03:37Z</time>
      </trkpt>
      <trkpt lat="45.91574" lon="4.43937">
        <ele>592</ele>
        <time>2021-10-14T22:03:42Z</time>
      </trkpt>
      <trkpt lat="45.91536" lon="4.43979">
        <ele>587</ele>
        <time>2021-10-14T22:03:50Z</time>
      </trkpt>
      <trkpt lat="45.91506" lon="4.44024">
        <ele>586</ele>
        <time>2021-10-14T22:03:58Z</time>
      </trkpt>
      <trkpt lat="45.91466" lon="4.44063">
        <ele>584</ele>
        <time>2021-10-14T22:04:07Z</time>
      </trkpt>
      <trkpt lat="45.91443" lon="4.44075">
        <ele>583</ele>
        <time>2021-10-14T22:04:11Z</time>
      </trkpt>
      <trkpt lat="45.91429" lon="4.44069">
        <ele>581</ele>
        <time>2021-10-14T22:04:14Z</time>
      </trkpt>
      <trkpt lat="45.91382" lon="4.44039">
        <ele>573</ele>
        <time>2021-10-14T22:04:23Z</time>
      </trkpt>
      <trkpt lat="45.9136" lon="4.44033">
        <ele>572</ele>
        <time>2021-10-14T22:04:27Z</time>
      </trkpt>
      <trkpt lat="45.91338" lon="4.44033">
        <ele>571</ele>
        <time>2021-10-14T22:04:31Z</time>
      </trkpt>
      <trkpt lat="45.91292" lon="4.44005">
        <ele>574</ele>
        <time>2021-10-14T22:04:40Z</time>
      </trkpt>
      <trkpt lat="45.91282" lon="4.43986">
        <ele>574</ele>
        <time>2021-10-14T22:04:43Z</time>
      </trkpt>
      <trkpt lat="45.91279" lon="4.43953">
        <ele>570</ele>
        <time>2021-10-14T22:04:47Z</time>
      </trkpt>
      <trkpt lat="45.91283" lon="4.43882">
        <ele>558</ele>
        <time>2021-10-14T22:04:56Z</time>
      </trkpt>
      <trkpt lat="45.91282" lon="4.43854">
        <ele>554</ele>
        <time>2021-10-14T22:04:59Z</time>
      </trkpt>
      <trkpt lat="45.91273" lon="4.43822">
        <ele>550</ele>
        <time>2021-10-14T22:05:03Z</time>
      </trkpt>
      <trkpt lat="45.91239" lon="4.4374">
        <ele>537</ele>
        <time>2021-10-14T22:05:15Z</time>
      </trkpt>
      <trkpt lat="45.91212" lon="4.43694">
        <ele>530</ele>
        <time>2021-10-14T22:05:23Z</time>
      </trkpt>
      <trkpt lat="45.91157" lon="4.43614">
        <ele>521</ele>
        <time>2021-10-14T22:05:36Z</time>
      </trkpt>
      <trkpt lat="45.91103" lon="4.43552">
        <ele>513</ele>
        <time>2021-10-14T22:05:49Z</time>
      </trkpt>
      <trkpt lat="45.91044" lon="4.43498">
        <ele>505</ele>
        <time>2021-10-14T22:06:01Z</time>
      </trkpt>
      <trkpt lat="45.90999" lon="4.43445">
        <ele>499</ele>
        <time>2021-10-14T22:06:12Z</time>
      </trkpt>
      <trkpt lat="45.90971" lon="4.43406">
        <ele>498</ele>
        <time>2021-10-14T22:06:19Z</time>
      </trkpt>
      <trkpt lat="45.90964" lon="4.43379">
        <ele>495</ele>
        <time>2021-10-14T22:06:22Z</time>
      </trkpt>
      <trkpt lat="45.90964" lon="4.43346">
        <ele>490</ele>
        <time>2021-10-14T22:06:26Z</time>
      </trkpt>
      <trkpt lat="45.90958" lon="4.43311">
        <ele>485</ele>
        <time>2021-10-14T22:06:31Z</time>
      </trkpt>
      <trkpt lat="45.90948" lon="4.43282">
        <ele>483</ele>
        <time>2021-10-14T22:06:35Z</time>
      </trkpt>
      <trkpt lat="45.90907" lon="4.43219">
        <ele>478</ele>
        <time>2021-10-14T22:06:45Z</time>
      </trkpt>
      <trkpt lat="45.90886" lon="4.43193">
        <ele>473</ele>
        <time>2021-10-14T22:06:50Z</time>
      </trkpt>
      <trkpt lat="45.90858" lon="4.43174">
        <ele>470</ele>
        <time>2021-10-14T22:06:56Z</time>
      </trkpt>
      <trkpt lat="45.90823" lon="4.43161">
        <ele>467</ele>
        <time>2021-10-14T22:07:02Z</time>
      </trkpt>
      <trkpt lat="45.90769" lon="4.4316">
        <ele>462</ele>
        <time>2021-10-14T22:07:12Z</time>
      </trkpt>
      <trkpt lat="45.90731" lon="4.43175">
        <ele>460</ele>
        <time>2021-10-14T22:07:19Z</time>
      </trkpt>
      <trkpt lat="45.90617" lon="4.432">
        <ele>442</ele>
        <time>2021-10-14T22:07:39Z</time>
      </trkpt>
      <trkpt lat="45.90606" lon="4.43207">
        <ele>441</ele>
        <time>2021-10-14T22:07:41Z</time>
      </trkpt>
      <trkpt lat="45.90601" lon="4.43225">
        <ele>442</ele>
        <time>2021-10-14T22:07:44Z</time>
      </trkpt>
      <trkpt lat="45.90603" lon="4.43246">
        <ele>446</ele>
        <time>2021-10-14T22:07:46Z</time>
      </trkpt>
      <trkpt lat="45.9062" lon="4.43304">
        <ele>451</ele>
        <time>2021-10-14T22:07:54Z</time>
      </trkpt>
      <trkpt lat="45.90621" lon="4.43321">
        <ele>452</ele>
        <time>2021-10-14T22:07:56Z</time>
      </trkpt>
      <trkpt lat="45.90618" lon="4.43332">
        <ele>451</ele>
        <time>2021-10-14T22:07:58Z</time>
      </trkpt>
      <trkpt lat="45.90612" lon="4.43337">
        <ele>451</ele>
        <time>2021-10-14T22:07:59Z</time>
      </trkpt>
      <trkpt lat="45.90604" lon="4.43338">
        <ele>450</ele>
        <time>2021-10-14T22:08:01Z</time>
      </trkpt>
      <trkpt lat="45.9056" lon="4.43291">
        <ele>444</ele>
        <time>2021-10-14T22:08:10Z</time>
      </trkpt>
      <trkpt lat="45.90542" lon="4.4326">
        <ele>439</ele>
        <time>2021-10-14T22:08:15Z</time>
      </trkpt>
      <trkpt lat="45.90533" lon="4.43215">
        <ele>432</ele>
        <time>2021-10-14T22:08:21Z</time>
      </trkpt>
      <trkpt lat="45.90516" lon="4.43212">
        <ele>429</ele>
        <time>2021-10-14T22:08:24Z</time>
      </trkpt>
      <trkpt lat="45.9048" lon="4.43189">
        <ele>422</ele>
        <time>2021-10-14T22:08:31Z</time>
      </trkpt>
      <trkpt lat="45.90464" lon="4.43184">
        <ele>421</ele>
        <time>2021-10-14T22:08:34Z</time>
      </trkpt>
      <trkpt lat="45.90447" lon="4.43184">
        <ele>420</ele>
        <time>2021-10-14T22:08:37Z</time>
      </trkpt>
      <trkpt lat="45.9036" lon="4.43223">
        <ele>421</ele>
        <time>2021-10-14T22:08:53Z</time>
      </trkpt>
      <trkpt lat="45.90244" lon="4.43265">
        <ele>414</ele>
        <time>2021-10-14T22:09:15Z</time>
      </trkpt>
      <trkpt lat="45.90223" lon="4.43267">
        <ele>413</ele>
        <time>2021-10-14T22:09:18Z</time>
      </trkpt>
      <trkpt lat="45.90173" lon="4.43266">
        <ele>408</ele>
        <time>2021-10-14T22:09:27Z</time>
      </trkpt>
      <trkpt lat="45.90167" lon="4.43258">
        <ele>406</ele>
        <time>2021-10-14T22:09:29Z</time>
      </trkpt>
      <trkpt lat="45.90172" lon="4.43246">
        <ele>405</ele>
        <time>2021-10-14T22:09:30Z</time>
      </trkpt>
      <trkpt lat="45.90197" lon="4.43236">
        <ele>407</ele>
        <time>2021-10-14T22:09:35Z</time>
      </trkpt>
      <trkpt lat="45.90255" lon="4.43201">
        <ele>408</ele>
        <time>2021-10-14T22:09:46Z</time>
      </trkpt>
      <trkpt lat="45.90474" lon="4.43066">
        <ele>408</ele>
        <time>2021-10-14T22:10:29Z</time>
      </trkpt>
      <trkpt lat="45.90477" lon="4.4307">
        <ele>408</ele>
        <time>2021-10-14T22:10:29Z</time>
      </trkpt>
      <trkpt lat="45.90482" lon="4.43072">
        <ele>409</ele>
        <time>2021-10-14T22:10:30Z</time>
      </trkpt>
      <trkpt lat="45.90489" lon="4.43069">
        <ele>409</ele>
        <time>2021-10-14T22:10:32Z</time>
      </trkpt>
      <trkpt lat="45.90492" lon="4.43064">
        <ele>409</ele>
        <time>2021-10-14T22:10:32Z</time>
      </trkpt>
      <trkpt lat="45.90515" lon="4.43081">
        <ele>410</ele>
        <time>2021-10-14T22:10:37Z</time>
      </trkpt>
      <trkpt lat="45.90568" lon="4.43076">
        <ele>414</ele>
        <time>2021-10-14T22:10:46Z</time>
      </trkpt>
      <trkpt lat="45.90606" lon="4.43061">
        <ele>417</ele>
        <time>2021-10-14T22:10:53Z</time>
      </trkpt>
      <trkpt lat="45.90674" lon="4.43019">
        <ele>418</ele>
        <time>2021-10-14T22:11:07Z</time>
      </trkpt>
      <trkpt lat="45.90715" lon="4.42989">
        <ele>418</ele>
        <time>2021-10-14T22:11:15Z</time>
      </trkpt>
      <trkpt lat="45.90748" lon="4.42957">
        <ele>419</ele>
        <time>2021-10-14T22:11:22Z</time>
      </trkpt>
      <trkpt lat="45.90787" lon="4.42913">
        <ele>419</ele>
        <time>2021-10-14T22:11:31Z</time>
      </trkpt>
      <trkpt lat="45.90832" lon="4.42875">
        <ele>420</ele>
        <time>2021-10-14T22:11:40Z</time>
      </trkpt>
      <trkpt lat="45.90895" lon="4.42801">
        <ele>424</ele>
        <time>2021-10-14T22:11:54Z</time>
      </trkpt>
      <trkpt lat="45.90931" lon="4.42775">
        <ele>425</ele>
        <time>2021-10-14T22:12:02Z</time>
      </trkpt>
      <trkpt lat="45.90966" lon="4.4276">
        <ele>428</ele>
        <time>2021-10-14T22:12:08Z</time>
      </trkpt>
      <trkpt lat="45.91056" lon="4.42747">
        <ele>434</ele>
        <time>2021-10-14T22:12:24Z</time>
      </trkpt>
      <trkpt lat="45.91097" lon="4.42738">
        <ele>437</ele>
        <time>2021-10-14T22:12:32Z</time>
      </trkpt>
      <trkpt lat="45.91142" lon="4.42708">
        <ele>438</ele>
        <time>2021-10-14T22:12:40Z</time>
      </trkpt>
      <trkpt lat="45.91248" lon="4.42619">
        <ele>437</ele>
        <time>2021-10-14T22:13:02Z</time>
      </trkpt>
      <trkpt lat="45.91301" lon="4.42588">
        <ele>437</ele>
        <time>2021-10-14T22:13:12Z</time>
      </trkpt>
    </trkseg>
  </trk>
</gpx>